<?xml version="1.0" encoding="UTF-8" standalone="no" ?>
<gpx xmlns="http://www.topografix.com/GPX/1/1" xmlns:xsi="http://www.w3.org/2001/XMLSchema-instance" xsi:schemaLocation="http://www.topografix.com/GPX/1/1 http://www.topografix.com/GPX/1/1/gpx.xsd" version="1.1" creator="VisuGPX - https://www.visugpx.com">
  <metadata>
    <name>Charly-Condrieu-2021-08-01</name>
  </metadata>
  <trk>
    <name><![CDATA[2021-08-01 17:21:06]]></name>
    <extensions>
      <line xmlns="http://www.topografix.com/GPX/gpx_style/0/2">
        <color>0000FF</color>
        <width>4</width>
      </line>
    </extensions>
    <trkseg>
      <trkpt lat="45.65458" lon="4.79173">
        <ele>235.65</ele>
        <time>2021-08-01T12:05:29Z</time>
      </trkpt>
      <trkpt lat="45.65464" lon="4.79102">
        <ele>236.5</ele>
        <time>2021-08-01T12:05:36Z</time>
      </trkpt>
      <trkpt lat="45.65465" lon="4.79054">
        <ele>236.82</ele>
        <time>2021-08-01T12:05:41Z</time>
      </trkpt>
      <trkpt lat="45.65454" lon="4.78971">
        <ele>238.16</ele>
        <time>2021-08-01T12:05:50Z</time>
      </trkpt>
      <trkpt lat="45.65439" lon="4.78894">
        <ele>238.56</ele>
        <time>2021-08-01T12:05:59Z</time>
      </trkpt>
      <trkpt lat="45.65439" lon="4.78885">
        <ele>238.57</ele>
        <time>2021-08-01T12:06:00Z</time>
      </trkpt>
      <trkpt lat="45.65437" lon="4.78821">
        <ele>238.58</ele>
        <time>2021-08-01T12:06:07Z</time>
      </trkpt>
      <trkpt lat="45.65433" lon="4.78713">
        <ele>238.94</ele>
        <time>2021-08-01T12:06:19Z</time>
      </trkpt>
      <trkpt lat="45.65431" lon="4.78641">
        <ele>239.09</ele>
        <time>2021-08-01T12:06:27Z</time>
      </trkpt>
      <trkpt lat="45.65432" lon="4.78592">
        <ele>239.1</ele>
        <time>2021-08-01T12:06:33Z</time>
      </trkpt>
      <trkpt lat="45.6543" lon="4.78556">
        <ele>239.26</ele>
        <time>2021-08-01T12:06:38Z</time>
      </trkpt>
      <trkpt lat="45.65429" lon="4.78549">
        <ele>239.36</ele>
        <time>2021-08-01T12:06:39Z</time>
      </trkpt>
      <trkpt lat="45.65427" lon="4.78543">
        <ele>239.45</ele>
        <time>2021-08-01T12:06:40Z</time>
      </trkpt>
      <trkpt lat="45.65425" lon="4.78536">
        <ele>239.52</ele>
        <time>2021-08-01T12:06:41Z</time>
      </trkpt>
      <trkpt lat="45.65423" lon="4.78529">
        <ele>239.7</ele>
        <time>2021-08-01T12:06:42Z</time>
      </trkpt>
      <trkpt lat="45.65421" lon="4.78522">
        <ele>239.97</ele>
        <time>2021-08-01T12:06:43Z</time>
      </trkpt>
      <trkpt lat="45.65402" lon="4.78458">
        <ele>240.89</ele>
        <time>2021-08-01T12:06:52Z</time>
      </trkpt>
      <trkpt lat="45.65379" lon="4.78406">
        <ele>241.23</ele>
        <time>2021-08-01T12:07:00Z</time>
      </trkpt>
      <trkpt lat="45.65354" lon="4.78357">
        <ele>241.82</ele>
        <time>2021-08-01T12:07:08Z</time>
      </trkpt>
      <trkpt lat="45.65326" lon="4.78305">
        <ele>241.82</ele>
        <time>2021-08-01T12:07:16Z</time>
      </trkpt>
      <trkpt lat="45.65309" lon="4.78271">
        <ele>241.55</ele>
        <time>2021-08-01T12:07:21Z</time>
      </trkpt>
      <trkpt lat="45.65306" lon="4.78263">
        <ele>241.3</ele>
        <time>2021-08-01T12:07:22Z</time>
      </trkpt>
      <trkpt lat="45.65289" lon="4.78198">
        <ele>240.61</ele>
        <time>2021-08-01T12:07:30Z</time>
      </trkpt>
      <trkpt lat="45.65287" lon="4.78189">
        <ele>240.57</ele>
        <time>2021-08-01T12:07:31Z</time>
      </trkpt>
      <trkpt lat="45.65284" lon="4.78112">
        <ele>240.4</ele>
        <time>2021-08-01T12:07:40Z</time>
      </trkpt>
      <trkpt lat="45.65275" lon="4.78028">
        <ele>240.41</ele>
        <time>2021-08-01T12:07:50Z</time>
      </trkpt>
      <trkpt lat="45.65257" lon="4.77962">
        <ele>239.91</ele>
        <time>2021-08-01T12:07:58Z</time>
      </trkpt>
      <trkpt lat="45.65254" lon="4.77955">
        <ele>239.61</ele>
        <time>2021-08-01T12:07:59Z</time>
      </trkpt>
      <trkpt lat="45.65251" lon="4.77947">
        <ele>239.44</ele>
        <time>2021-08-01T12:08:00Z</time>
      </trkpt>
      <trkpt lat="45.65248" lon="4.7794">
        <ele>239.33</ele>
        <time>2021-08-01T12:08:01Z</time>
      </trkpt>
      <trkpt lat="45.65245" lon="4.77932">
        <ele>239.22</ele>
        <time>2021-08-01T12:08:02Z</time>
      </trkpt>
      <trkpt lat="45.65243" lon="4.77924">
        <ele>239.18</ele>
        <time>2021-08-01T12:08:03Z</time>
      </trkpt>
      <trkpt lat="45.65241" lon="4.77916">
        <ele>239.12</ele>
        <time>2021-08-01T12:08:04Z</time>
      </trkpt>
      <trkpt lat="45.65239" lon="4.77909">
        <ele>239.08</ele>
        <time>2021-08-01T12:08:05Z</time>
      </trkpt>
      <trkpt lat="45.65232" lon="4.77838">
        <ele>238.47</ele>
        <time>2021-08-01T12:08:13Z</time>
      </trkpt>
      <trkpt lat="45.65223" lon="4.77745">
        <ele>237.02</ele>
        <time>2021-08-01T12:08:22Z</time>
      </trkpt>
      <trkpt lat="45.65202" lon="4.77636">
        <ele>233.09</ele>
        <time>2021-08-01T12:08:33Z</time>
      </trkpt>
      <trkpt lat="45.652" lon="4.77627">
        <ele>232.86</ele>
        <time>2021-08-01T12:08:34Z</time>
      </trkpt>
      <trkpt lat="45.65187" lon="4.7757">
        <ele>232.57</ele>
        <time>2021-08-01T12:08:41Z</time>
      </trkpt>
      <trkpt lat="45.65183" lon="4.77554">
        <ele>232.6</ele>
        <time>2021-08-01T12:08:43Z</time>
      </trkpt>
      <trkpt lat="45.6518" lon="4.77539">
        <ele>232.68</ele>
        <time>2021-08-01T12:08:45Z</time>
      </trkpt>
      <trkpt lat="45.65178" lon="4.77531">
        <ele>232.88</ele>
        <time>2021-08-01T12:08:46Z</time>
      </trkpt>
      <trkpt lat="45.65176" lon="4.77523">
        <ele>232.99</ele>
        <time>2021-08-01T12:08:47Z</time>
      </trkpt>
      <trkpt lat="45.65175" lon="4.77516">
        <ele>233.07</ele>
        <time>2021-08-01T12:08:48Z</time>
      </trkpt>
      <trkpt lat="45.65173" lon="4.77508">
        <ele>233.15</ele>
        <time>2021-08-01T12:08:49Z</time>
      </trkpt>
      <trkpt lat="45.65169" lon="4.77492">
        <ele>233.22</ele>
        <time>2021-08-01T12:08:51Z</time>
      </trkpt>
      <trkpt lat="45.65157" lon="4.77461">
        <ele>233.23</ele>
        <time>2021-08-01T12:08:55Z</time>
      </trkpt>
      <trkpt lat="45.65142" lon="4.77437">
        <ele>233.08</ele>
        <time>2021-08-01T12:08:58Z</time>
      </trkpt>
      <trkpt lat="45.65118" lon="4.77402">
        <ele>231.74</ele>
        <time>2021-08-01T12:09:02Z</time>
      </trkpt>
      <trkpt lat="45.65114" lon="4.77391">
        <ele>231.12</ele>
        <time>2021-08-01T12:09:03Z</time>
      </trkpt>
      <trkpt lat="45.65105" lon="4.77368">
        <ele>229.88</ele>
        <time>2021-08-01T12:09:05Z</time>
      </trkpt>
      <trkpt lat="45.65103" lon="4.77356">
        <ele>229.48</ele>
        <time>2021-08-01T12:09:06Z</time>
      </trkpt>
      <trkpt lat="45.65101" lon="4.77343">
        <ele>228.91</ele>
        <time>2021-08-01T12:09:07Z</time>
      </trkpt>
      <trkpt lat="45.65093" lon="4.77288">
        <ele>225.47</ele>
        <time>2021-08-01T12:09:11Z</time>
      </trkpt>
      <trkpt lat="45.65088" lon="4.77274">
        <ele>224.67</ele>
        <time>2021-08-01T12:09:12Z</time>
      </trkpt>
      <trkpt lat="45.65081" lon="4.77262">
        <ele>224.02</ele>
        <time>2021-08-01T12:09:13Z</time>
      </trkpt>
      <trkpt lat="45.65068" lon="4.77234">
        <ele>222.74</ele>
        <time>2021-08-01T12:09:15Z</time>
      </trkpt>
      <trkpt lat="45.65063" lon="4.7722">
        <ele>222.36</ele>
        <time>2021-08-01T12:09:16Z</time>
      </trkpt>
      <trkpt lat="45.65059" lon="4.77204">
        <ele>222.02</ele>
        <time>2021-08-01T12:09:17Z</time>
      </trkpt>
      <trkpt lat="45.65057" lon="4.77187">
        <ele>221.66</ele>
        <time>2021-08-01T12:09:18Z</time>
      </trkpt>
      <trkpt lat="45.65055" lon="4.77171">
        <ele>220.84</ele>
        <time>2021-08-01T12:09:19Z</time>
      </trkpt>
      <trkpt lat="45.65051" lon="4.77106">
        <ele>217.62</ele>
        <time>2021-08-01T12:09:23Z</time>
      </trkpt>
      <trkpt lat="45.65051" lon="4.7709">
        <ele>216.67</ele>
        <time>2021-08-01T12:09:24Z</time>
      </trkpt>
      <trkpt lat="45.65051" lon="4.77061">
        <ele>214.31</ele>
        <time>2021-08-01T12:09:26Z</time>
      </trkpt>
      <trkpt lat="45.65049" lon="4.77047">
        <ele>213.99</ele>
        <time>2021-08-01T12:09:27Z</time>
      </trkpt>
      <trkpt lat="45.65048" lon="4.77034">
        <ele>213.78</ele>
        <time>2021-08-01T12:09:28Z</time>
      </trkpt>
      <trkpt lat="45.65043" lon="4.76954">
        <ele>213.02</ele>
        <time>2021-08-01T12:09:34Z</time>
      </trkpt>
      <trkpt lat="45.65032" lon="4.76877">
        <ele>208.92</ele>
        <time>2021-08-01T12:09:40Z</time>
      </trkpt>
      <trkpt lat="45.65027" lon="4.76855">
        <ele>205.81</ele>
        <time>2021-08-01T12:09:42Z</time>
      </trkpt>
      <trkpt lat="45.65023" lon="4.76838">
        <ele>203.43</ele>
        <time>2021-08-01T12:09:44Z</time>
      </trkpt>
      <trkpt lat="45.65023" lon="4.7683">
        <ele>202.97</ele>
        <time>2021-08-01T12:09:45Z</time>
      </trkpt>
      <trkpt lat="45.65024" lon="4.76823">
        <ele>202.73</ele>
        <time>2021-08-01T12:09:46Z</time>
      </trkpt>
      <trkpt lat="45.65025" lon="4.76815">
        <ele>202.61</ele>
        <time>2021-08-01T12:09:47Z</time>
      </trkpt>
      <trkpt lat="45.65028" lon="4.76806">
        <ele>202.55</ele>
        <time>2021-08-01T12:09:48Z</time>
      </trkpt>
      <trkpt lat="45.65047" lon="4.7674">
        <ele>201.09</ele>
        <time>2021-08-01T12:09:55Z</time>
      </trkpt>
      <trkpt lat="45.65058" lon="4.76698">
        <ele>200.62</ele>
        <time>2021-08-01T12:09:59Z</time>
      </trkpt>
      <trkpt lat="45.65072" lon="4.76607">
        <ele>197.55</ele>
        <time>2021-08-01T12:10:07Z</time>
      </trkpt>
      <trkpt lat="45.65083" lon="4.76532">
        <ele>196.24</ele>
        <time>2021-08-01T12:10:15Z</time>
      </trkpt>
      <trkpt lat="45.65088" lon="4.76516">
        <ele>196.24</ele>
        <time>2021-08-01T12:10:17Z</time>
      </trkpt>
      <trkpt lat="45.65092" lon="4.76509">
        <ele>196.28</ele>
        <time>2021-08-01T12:10:18Z</time>
      </trkpt>
      <trkpt lat="45.65095" lon="4.76503">
        <ele>196.43</ele>
        <time>2021-08-01T12:10:19Z</time>
      </trkpt>
      <trkpt lat="45.65108" lon="4.76464">
        <ele>196.91</ele>
        <time>2021-08-01T12:10:24Z</time>
      </trkpt>
      <trkpt lat="45.65108" lon="4.76455">
        <ele>197.03</ele>
        <time>2021-08-01T12:10:25Z</time>
      </trkpt>
      <trkpt lat="45.65108" lon="4.76446">
        <ele>197.14</ele>
        <time>2021-08-01T12:10:26Z</time>
      </trkpt>
      <trkpt lat="45.65106" lon="4.76437">
        <ele>197.23</ele>
        <time>2021-08-01T12:10:27Z</time>
      </trkpt>
      <trkpt lat="45.65104" lon="4.76428">
        <ele>197.49</ele>
        <time>2021-08-01T12:10:28Z</time>
      </trkpt>
      <trkpt lat="45.65102" lon="4.76419">
        <ele>197.86</ele>
        <time>2021-08-01T12:10:29Z</time>
      </trkpt>
      <trkpt lat="45.65096" lon="4.76361">
        <ele>198.66</ele>
        <time>2021-08-01T12:10:36Z</time>
      </trkpt>
      <trkpt lat="45.65096" lon="4.76347">
        <ele>198.78</ele>
        <time>2021-08-01T12:10:38Z</time>
      </trkpt>
      <trkpt lat="45.65101" lon="4.76315">
        <ele>200.21</ele>
        <time>2021-08-01T12:10:43Z</time>
      </trkpt>
      <trkpt lat="45.65103" lon="4.7631">
        <ele>200.46</ele>
        <time>2021-08-01T12:10:44Z</time>
      </trkpt>
      <trkpt lat="45.65106" lon="4.76299">
        <ele>200.78</ele>
        <time>2021-08-01T12:10:46Z</time>
      </trkpt>
      <trkpt lat="45.65126" lon="4.76246">
        <ele>203.52</ele>
        <time>2021-08-01T12:10:56Z</time>
      </trkpt>
      <trkpt lat="45.6513" lon="4.76235">
        <ele>204.01</ele>
        <time>2021-08-01T12:10:58Z</time>
      </trkpt>
      <trkpt lat="45.65146" lon="4.76172">
        <ele>205.45</ele>
        <time>2021-08-01T12:11:10Z</time>
      </trkpt>
      <trkpt lat="45.6516" lon="4.76114">
        <ele>206.81</ele>
        <time>2021-08-01T12:11:19Z</time>
      </trkpt>
      <trkpt lat="45.65178" lon="4.76036">
        <ele>206.84</ele>
        <time>2021-08-01T12:11:30Z</time>
      </trkpt>
      <trkpt lat="45.65186" lon="4.75985">
        <ele>206.79</ele>
        <time>2021-08-01T12:11:37Z</time>
      </trkpt>
      <trkpt lat="45.6519" lon="4.75916">
        <ele>206.18</ele>
        <time>2021-08-01T12:11:46Z</time>
      </trkpt>
      <trkpt lat="45.65193" lon="4.75823">
        <ele>204.65</ele>
        <time>2021-08-01T12:11:57Z</time>
      </trkpt>
      <trkpt lat="45.65194" lon="4.75717">
        <ele>203.33</ele>
        <time>2021-08-01T12:12:09Z</time>
      </trkpt>
      <trkpt lat="45.65195" lon="4.75628">
        <ele>202.96</ele>
        <time>2021-08-01T12:12:20Z</time>
      </trkpt>
      <trkpt lat="45.65202" lon="4.75545">
        <ele>204.22</ele>
        <time>2021-08-01T12:12:31Z</time>
      </trkpt>
      <trkpt lat="45.65212" lon="4.75467">
        <ele>204.44</ele>
        <time>2021-08-01T12:12:42Z</time>
      </trkpt>
      <trkpt lat="45.65229" lon="4.75387">
        <ele>205.93</ele>
        <time>2021-08-01T12:12:53Z</time>
      </trkpt>
      <trkpt lat="45.65235" lon="4.75363">
        <ele>206.01</ele>
        <time>2021-08-01T12:12:56Z</time>
      </trkpt>
      <trkpt lat="45.65252" lon="4.75293">
        <ele>205.94</ele>
        <time>2021-08-01T12:13:05Z</time>
      </trkpt>
      <trkpt lat="45.65263" lon="4.75225">
        <ele>205.76</ele>
        <time>2021-08-01T12:13:14Z</time>
      </trkpt>
      <trkpt lat="45.65273" lon="4.75155">
        <ele>206.59</ele>
        <time>2021-08-01T12:13:24Z</time>
      </trkpt>
      <trkpt lat="45.6528" lon="4.75112">
        <ele>207.12</ele>
        <time>2021-08-01T12:13:31Z</time>
      </trkpt>
      <trkpt lat="45.65283" lon="4.75093">
        <ele>207.39</ele>
        <time>2021-08-01T12:13:35Z</time>
      </trkpt>
      <trkpt lat="45.65284" lon="4.75087">
        <ele>207.46</ele>
        <time>2021-08-01T12:13:36Z</time>
      </trkpt>
      <trkpt lat="45.65286" lon="4.7508">
        <ele>207.6</ele>
        <time>2021-08-01T12:13:37Z</time>
      </trkpt>
      <trkpt lat="45.65289" lon="4.75068">
        <ele>207.85</ele>
        <time>2021-08-01T12:13:39Z</time>
      </trkpt>
      <trkpt lat="45.65291" lon="4.75061">
        <ele>207.95</ele>
        <time>2021-08-01T12:13:40Z</time>
      </trkpt>
      <trkpt lat="45.65294" lon="4.75049">
        <ele>208.02</ele>
        <time>2021-08-01T12:13:42Z</time>
      </trkpt>
      <trkpt lat="45.6531" lon="4.74999">
        <ele>208.27</ele>
        <time>2021-08-01T12:13:50Z</time>
      </trkpt>
      <trkpt lat="45.6532" lon="4.74985">
        <ele>208.3</ele>
        <time>2021-08-01T12:13:54Z</time>
      </trkpt>
      <trkpt lat="45.6532" lon="4.74981">
        <ele>208.31</ele>
        <time>2021-08-01T12:13:55Z</time>
      </trkpt>
      <trkpt lat="45.65318" lon="4.74978">
        <ele>208.41</ele>
        <time>2021-08-01T12:13:56Z</time>
      </trkpt>
      <trkpt lat="45.65316" lon="4.74976">
        <ele>208.53</ele>
        <time>2021-08-01T12:13:57Z</time>
      </trkpt>
      <trkpt lat="45.65314" lon="4.74973">
        <ele>208.63</ele>
        <time>2021-08-01T12:13:58Z</time>
      </trkpt>
      <trkpt lat="45.65311" lon="4.74971">
        <ele>208.97</ele>
        <time>2021-08-01T12:13:59Z</time>
      </trkpt>
      <trkpt lat="45.65308" lon="4.74968">
        <ele>209.19</ele>
        <time>2021-08-01T12:14:00Z</time>
      </trkpt>
      <trkpt lat="45.65273" lon="4.74945">
        <ele>209.63</ele>
        <time>2021-08-01T12:14:08Z</time>
      </trkpt>
      <trkpt lat="45.65219" lon="4.74911">
        <ele>208.96</ele>
        <time>2021-08-01T12:14:18Z</time>
      </trkpt>
      <trkpt lat="45.652" lon="4.74901">
        <ele>208.75</ele>
        <time>2021-08-01T12:14:21Z</time>
      </trkpt>
      <trkpt lat="45.65194" lon="4.74901">
        <ele>208.66</ele>
        <time>2021-08-01T12:14:22Z</time>
      </trkpt>
      <trkpt lat="45.65187" lon="4.74904">
        <ele>208.6</ele>
        <time>2021-08-01T12:14:23Z</time>
      </trkpt>
      <trkpt lat="45.65182" lon="4.74909">
        <ele>208.5</ele>
        <time>2021-08-01T12:14:24Z</time>
      </trkpt>
      <trkpt lat="45.65178" lon="4.74916">
        <ele>208.44</ele>
        <time>2021-08-01T12:14:25Z</time>
      </trkpt>
      <trkpt lat="45.65175" lon="4.74924">
        <ele>208.41</ele>
        <time>2021-08-01T12:14:26Z</time>
      </trkpt>
      <trkpt lat="45.65172" lon="4.74932">
        <ele>208.41</ele>
        <time>2021-08-01T12:14:27Z</time>
      </trkpt>
      <trkpt lat="45.65168" lon="4.7494">
        <ele>208.4</ele>
        <time>2021-08-01T12:14:28Z</time>
      </trkpt>
      <trkpt lat="45.65166" lon="4.74948">
        <ele>208.34</ele>
        <time>2021-08-01T12:14:29Z</time>
      </trkpt>
      <trkpt lat="45.65159" lon="4.74974">
        <ele>208.27</ele>
        <time>2021-08-01T12:14:32Z</time>
      </trkpt>
      <trkpt lat="45.65137" lon="4.75079">
        <ele>207.92</ele>
        <time>2021-08-01T12:14:43Z</time>
      </trkpt>
      <trkpt lat="45.65133" lon="4.75088">
        <ele>207.89</ele>
        <time>2021-08-01T12:14:44Z</time>
      </trkpt>
      <trkpt lat="45.65129" lon="4.75096">
        <ele>207.87</ele>
        <time>2021-08-01T12:14:45Z</time>
      </trkpt>
      <trkpt lat="45.65124" lon="4.75103">
        <ele>207.85</ele>
        <time>2021-08-01T12:14:46Z</time>
      </trkpt>
      <trkpt lat="45.65118" lon="4.75108">
        <ele>207.84</ele>
        <time>2021-08-01T12:14:47Z</time>
      </trkpt>
      <trkpt lat="45.65111" lon="4.75111">
        <ele>207.81</ele>
        <time>2021-08-01T12:14:48Z</time>
      </trkpt>
      <trkpt lat="45.65105" lon="4.75113">
        <ele>207.79</ele>
        <time>2021-08-01T12:14:49Z</time>
      </trkpt>
      <trkpt lat="45.65098" lon="4.75114">
        <ele>207.77</ele>
        <time>2021-08-01T12:14:50Z</time>
      </trkpt>
      <trkpt lat="45.65091" lon="4.75115">
        <ele>207.75</ele>
        <time>2021-08-01T12:14:51Z</time>
      </trkpt>
      <trkpt lat="45.65005" lon="4.75122">
        <ele>206.63</ele>
        <time>2021-08-01T12:15:03Z</time>
      </trkpt>
      <trkpt lat="45.64941" lon="4.75127">
        <ele>206.32</ele>
        <time>2021-08-01T12:15:12Z</time>
      </trkpt>
      <trkpt lat="45.64847" lon="4.75135">
        <ele>205.45</ele>
        <time>2021-08-01T12:15:25Z</time>
      </trkpt>
      <trkpt lat="45.64767" lon="4.75142">
        <ele>205.2</ele>
        <time>2021-08-01T12:15:36Z</time>
      </trkpt>
      <trkpt lat="45.64697" lon="4.75147">
        <ele>205.39</ele>
        <time>2021-08-01T12:15:46Z</time>
      </trkpt>
      <trkpt lat="45.64627" lon="4.75154">
        <ele>205.59</ele>
        <time>2021-08-01T12:15:56Z</time>
      </trkpt>
      <trkpt lat="45.64539" lon="4.75161">
        <ele>204.51</ele>
        <time>2021-08-01T12:16:07Z</time>
      </trkpt>
      <trkpt lat="45.64447" lon="4.7517">
        <ele>201.51</ele>
        <time>2021-08-01T12:16:18Z</time>
      </trkpt>
      <trkpt lat="45.64357" lon="4.75188">
        <ele>199.25</ele>
        <time>2021-08-01T12:16:29Z</time>
      </trkpt>
      <trkpt lat="45.64283" lon="4.75224">
        <ele>197.9</ele>
        <time>2021-08-01T12:16:38Z</time>
      </trkpt>
      <trkpt lat="45.64213" lon="4.75281">
        <ele>195.9</ele>
        <time>2021-08-01T12:16:47Z</time>
      </trkpt>
      <trkpt lat="45.64145" lon="4.75363">
        <ele>194.62</ele>
        <time>2021-08-01T12:16:57Z</time>
      </trkpt>
      <trkpt lat="45.64059" lon="4.75469">
        <ele>192.37</ele>
        <time>2021-08-01T12:17:10Z</time>
      </trkpt>
      <trkpt lat="45.6402" lon="4.75525">
        <ele>192.07</ele>
        <time>2021-08-01T12:17:17Z</time>
      </trkpt>
      <trkpt lat="45.64014" lon="4.75531">
        <ele>192.07</ele>
        <time>2021-08-01T12:17:18Z</time>
      </trkpt>
      <trkpt lat="45.64008" lon="4.75537">
        <ele>192.07</ele>
        <time>2021-08-01T12:17:19Z</time>
      </trkpt>
      <trkpt lat="45.64002" lon="4.75544">
        <ele>192.07</ele>
        <time>2021-08-01T12:17:20Z</time>
      </trkpt>
      <trkpt lat="45.63998" lon="4.75554">
        <ele>192.07</ele>
        <time>2021-08-01T12:17:21Z</time>
      </trkpt>
      <trkpt lat="45.63994" lon="4.75563">
        <ele>192.13</ele>
        <time>2021-08-01T12:17:22Z</time>
      </trkpt>
      <trkpt lat="45.6399" lon="4.75572">
        <ele>192.17</ele>
        <time>2021-08-01T12:17:23Z</time>
      </trkpt>
      <trkpt lat="45.63985" lon="4.75579">
        <ele>192.23</ele>
        <time>2021-08-01T12:17:24Z</time>
      </trkpt>
      <trkpt lat="45.63979" lon="4.75585">
        <ele>192.32</ele>
        <time>2021-08-01T12:17:25Z</time>
      </trkpt>
      <trkpt lat="45.63954" lon="4.75605">
        <ele>192.52</ele>
        <time>2021-08-01T12:17:29Z</time>
      </trkpt>
      <trkpt lat="45.63924" lon="4.75617">
        <ele>192.71</ele>
        <time>2021-08-01T12:17:33Z</time>
      </trkpt>
      <trkpt lat="45.63865" lon="4.75621">
        <ele>192.43</ele>
        <time>2021-08-01T12:17:40Z</time>
      </trkpt>
      <trkpt lat="45.63783" lon="4.75619">
        <ele>189.66</ele>
        <time>2021-08-01T12:17:49Z</time>
      </trkpt>
      <trkpt lat="45.63693" lon="4.75615">
        <ele>187.64</ele>
        <time>2021-08-01T12:17:59Z</time>
      </trkpt>
      <trkpt lat="45.63619" lon="4.75606">
        <ele>186.1</ele>
        <time>2021-08-01T12:18:08Z</time>
      </trkpt>
      <trkpt lat="45.63524" lon="4.75582">
        <ele>186.4</ele>
        <time>2021-08-01T12:18:20Z</time>
      </trkpt>
      <trkpt lat="45.63445" lon="4.75576">
        <ele>187.02</ele>
        <time>2021-08-01T12:18:30Z</time>
      </trkpt>
      <trkpt lat="45.63384" lon="4.75595">
        <ele>186.66</ele>
        <time>2021-08-01T12:18:38Z</time>
      </trkpt>
      <trkpt lat="45.63302" lon="4.75631">
        <ele>185.63</ele>
        <time>2021-08-01T12:18:49Z</time>
      </trkpt>
      <trkpt lat="45.63238" lon="4.75661">
        <ele>185.21</ele>
        <time>2021-08-01T12:18:58Z</time>
      </trkpt>
      <trkpt lat="45.63139" lon="4.75706">
        <ele>184.92</ele>
        <time>2021-08-01T12:19:11Z</time>
      </trkpt>
      <trkpt lat="45.63045" lon="4.7575">
        <ele>184.25</ele>
        <time>2021-08-01T12:19:23Z</time>
      </trkpt>
      <trkpt lat="45.62962" lon="4.75804">
        <ele>184.18</ele>
        <time>2021-08-01T12:19:34Z</time>
      </trkpt>
      <trkpt lat="45.62905" lon="4.7585">
        <ele>182.37</ele>
        <time>2021-08-01T12:19:42Z</time>
      </trkpt>
      <trkpt lat="45.62832" lon="4.7591">
        <ele>181.55</ele>
        <time>2021-08-01T12:19:52Z</time>
      </trkpt>
      <trkpt lat="45.62789" lon="4.75945">
        <ele>181.11</ele>
        <time>2021-08-01T12:19:58Z</time>
      </trkpt>
      <trkpt lat="45.62717" lon="4.76004">
        <ele>180.33</ele>
        <time>2021-08-01T12:20:08Z</time>
      </trkpt>
      <trkpt lat="45.62645" lon="4.76062">
        <ele>179.41</ele>
        <time>2021-08-01T12:20:18Z</time>
      </trkpt>
      <trkpt lat="45.62586" lon="4.76109">
        <ele>179.14</ele>
        <time>2021-08-01T12:20:26Z</time>
      </trkpt>
      <trkpt lat="45.62564" lon="4.76127">
        <ele>178.65</ele>
        <time>2021-08-01T12:20:29Z</time>
      </trkpt>
      <trkpt lat="45.62521" lon="4.76163">
        <ele>178.25</ele>
        <time>2021-08-01T12:20:35Z</time>
      </trkpt>
      <trkpt lat="45.62473" lon="4.76207">
        <ele>177.92</ele>
        <time>2021-08-01T12:20:42Z</time>
      </trkpt>
      <trkpt lat="45.62428" lon="4.76255">
        <ele>177.88</ele>
        <time>2021-08-01T12:20:49Z</time>
      </trkpt>
      <trkpt lat="45.62355" lon="4.76335">
        <ele>177.67</ele>
        <time>2021-08-01T12:21:00Z</time>
      </trkpt>
      <trkpt lat="45.62294" lon="4.764">
        <ele>177.51</ele>
        <time>2021-08-01T12:21:09Z</time>
      </trkpt>
      <trkpt lat="45.62239" lon="4.7646">
        <ele>177.69</ele>
        <time>2021-08-01T12:21:17Z</time>
      </trkpt>
      <trkpt lat="45.62211" lon="4.76491">
        <ele>177.71</ele>
        <time>2021-08-01T12:21:21Z</time>
      </trkpt>
      <trkpt lat="45.62197" lon="4.76506">
        <ele>177.71</ele>
        <time>2021-08-01T12:21:23Z</time>
      </trkpt>
      <trkpt lat="45.62148" lon="4.76556">
        <ele>176.91</ele>
        <time>2021-08-01T12:21:30Z</time>
      </trkpt>
      <trkpt lat="45.62089" lon="4.76603">
        <ele>176.22</ele>
        <time>2021-08-01T12:21:38Z</time>
      </trkpt>
      <trkpt lat="45.62028" lon="4.76639">
        <ele>174.67</ele>
        <time>2021-08-01T12:21:46Z</time>
      </trkpt>
      <trkpt lat="45.61957" lon="4.76675">
        <ele>173.73</ele>
        <time>2021-08-01T12:21:55Z</time>
      </trkpt>
      <trkpt lat="45.61871" lon="4.76718">
        <ele>173.46</ele>
        <time>2021-08-01T12:22:06Z</time>
      </trkpt>
      <trkpt lat="45.6181" lon="4.76751">
        <ele>173.4</ele>
        <time>2021-08-01T12:22:14Z</time>
      </trkpt>
      <trkpt lat="45.61771" lon="4.76786">
        <ele>172.94</ele>
        <time>2021-08-01T12:22:20Z</time>
      </trkpt>
      <trkpt lat="45.6175" lon="4.7682">
        <ele>172.65</ele>
        <time>2021-08-01T12:22:24Z</time>
      </trkpt>
      <trkpt lat="45.61743" lon="4.76824">
        <ele>172.63</ele>
        <time>2021-08-01T12:22:25Z</time>
      </trkpt>
      <trkpt lat="45.61735" lon="4.76824">
        <ele>172.62</ele>
        <time>2021-08-01T12:22:26Z</time>
      </trkpt>
      <trkpt lat="45.61728" lon="4.7682">
        <ele>172.62</ele>
        <time>2021-08-01T12:22:27Z</time>
      </trkpt>
      <trkpt lat="45.61722" lon="4.76814">
        <ele>172.62</ele>
        <time>2021-08-01T12:22:28Z</time>
      </trkpt>
      <trkpt lat="45.61715" lon="4.7681">
        <ele>172.62</ele>
        <time>2021-08-01T12:22:29Z</time>
      </trkpt>
      <trkpt lat="45.61708" lon="4.76808">
        <ele>172.62</ele>
        <time>2021-08-01T12:22:30Z</time>
      </trkpt>
      <trkpt lat="45.61701" lon="4.76811">
        <ele>172.63</ele>
        <time>2021-08-01T12:22:31Z</time>
      </trkpt>
      <trkpt lat="45.61694" lon="4.76815">
        <ele>172.68</ele>
        <time>2021-08-01T12:22:32Z</time>
      </trkpt>
      <trkpt lat="45.61687" lon="4.7682">
        <ele>172.71</ele>
        <time>2021-08-01T12:22:33Z</time>
      </trkpt>
      <trkpt lat="45.6168" lon="4.76823">
        <ele>172.79</ele>
        <time>2021-08-01T12:22:34Z</time>
      </trkpt>
      <trkpt lat="45.61672" lon="4.76825">
        <ele>172.85</ele>
        <time>2021-08-01T12:22:35Z</time>
      </trkpt>
      <trkpt lat="45.61619" lon="4.76846">
        <ele>173.01</ele>
        <time>2021-08-01T12:22:42Z</time>
      </trkpt>
      <trkpt lat="45.61552" lon="4.76879">
        <ele>172.45</ele>
        <time>2021-08-01T12:22:51Z</time>
      </trkpt>
      <trkpt lat="45.61474" lon="4.76917">
        <ele>172.28</ele>
        <time>2021-08-01T12:23:01Z</time>
      </trkpt>
      <trkpt lat="45.61372" lon="4.76968">
        <ele>171.35</ele>
        <time>2021-08-01T12:23:14Z</time>
      </trkpt>
      <trkpt lat="45.61284" lon="4.77012">
        <ele>170.53</ele>
        <time>2021-08-01T12:23:25Z</time>
      </trkpt>
      <trkpt lat="45.61209" lon="4.77048">
        <ele>170.17</ele>
        <time>2021-08-01T12:23:35Z</time>
      </trkpt>
      <trkpt lat="45.61117" lon="4.77093">
        <ele>169.25</ele>
        <time>2021-08-01T12:23:47Z</time>
      </trkpt>
      <trkpt lat="45.61033" lon="4.77135">
        <ele>168.52</ele>
        <time>2021-08-01T12:23:58Z</time>
      </trkpt>
      <trkpt lat="45.60942" lon="4.7718">
        <ele>168.11</ele>
        <time>2021-08-01T12:24:10Z</time>
      </trkpt>
      <trkpt lat="45.60865" lon="4.7722">
        <ele>167.73</ele>
        <time>2021-08-01T12:24:21Z</time>
      </trkpt>
      <trkpt lat="45.60795" lon="4.77248">
        <ele>167.96</ele>
        <time>2021-08-01T12:24:31Z</time>
      </trkpt>
      <trkpt lat="45.60768" lon="4.77252">
        <ele>168.06</ele>
        <time>2021-08-01T12:24:36Z</time>
      </trkpt>
      <trkpt lat="45.6076" lon="4.77252">
        <ele>168.33</ele>
        <time>2021-08-01T12:24:41Z</time>
      </trkpt>
      <trkpt lat="45.6076" lon="4.77252">
        <ele>168.67</ele>
        <time>2021-08-01T12:24:44Z</time>
      </trkpt>
      <trkpt lat="45.60754" lon="4.77252">
        <ele>169.39</ele>
        <time>2021-08-01T12:24:53Z</time>
      </trkpt>
      <trkpt lat="45.60737" lon="4.7725">
        <ele>169.4</ele>
        <time>2021-08-01T12:24:58Z</time>
      </trkpt>
      <trkpt lat="45.60733" lon="4.77249">
        <ele>169.4</ele>
        <time>2021-08-01T12:24:59Z</time>
      </trkpt>
      <trkpt lat="45.60691" lon="4.77238">
        <ele>168.93</ele>
        <time>2021-08-01T12:25:07Z</time>
      </trkpt>
      <trkpt lat="45.6063" lon="4.7721">
        <ele>168.24</ele>
        <time>2021-08-01T12:25:17Z</time>
      </trkpt>
      <trkpt lat="45.6056" lon="4.77181">
        <ele>167.06</ele>
        <time>2021-08-01T12:25:27Z</time>
      </trkpt>
      <trkpt lat="45.60483" lon="4.77149">
        <ele>165.73</ele>
        <time>2021-08-01T12:25:38Z</time>
      </trkpt>
      <trkpt lat="45.60393" lon="4.77112">
        <ele>165.55</ele>
        <time>2021-08-01T12:25:51Z</time>
      </trkpt>
      <trkpt lat="45.60323" lon="4.77084">
        <ele>166.1</ele>
        <time>2021-08-01T12:26:02Z</time>
      </trkpt>
      <trkpt lat="45.60287" lon="4.77068">
        <ele>166.16</ele>
        <time>2021-08-01T12:26:08Z</time>
      </trkpt>
      <trkpt lat="45.6024" lon="4.77043">
        <ele>166.2</ele>
        <time>2021-08-01T12:26:16Z</time>
      </trkpt>
      <trkpt lat="45.60178" lon="4.77018">
        <ele>165.48</ele>
        <time>2021-08-01T12:26:25Z</time>
      </trkpt>
      <trkpt lat="45.60104" lon="4.76993">
        <ele>164.46</ele>
        <time>2021-08-01T12:26:35Z</time>
      </trkpt>
      <trkpt lat="45.60045" lon="4.76969">
        <ele>163.97</ele>
        <time>2021-08-01T12:26:43Z</time>
      </trkpt>
      <trkpt lat="45.59973" lon="4.76939">
        <ele>163.05</ele>
        <time>2021-08-01T12:26:53Z</time>
      </trkpt>
      <trkpt lat="45.59913" lon="4.76916">
        <ele>162.98</ele>
        <time>2021-08-01T12:27:02Z</time>
      </trkpt>
      <trkpt lat="45.59905" lon="4.76911">
        <ele>163</ele>
        <time>2021-08-01T12:27:06Z</time>
      </trkpt>
      <trkpt lat="45.59905" lon="4.76912">
        <ele>163.41</ele>
        <time>2021-08-01T12:27:09Z</time>
      </trkpt>
      <trkpt lat="45.59897" lon="4.76909">
        <ele>165.37</ele>
        <time>2021-08-01T12:27:39Z</time>
      </trkpt>
      <trkpt lat="45.5988" lon="4.76906">
        <ele>165.26</ele>
        <time>2021-08-01T12:27:44Z</time>
      </trkpt>
      <trkpt lat="45.59839" lon="4.76913">
        <ele>165.04</ele>
        <time>2021-08-01T12:27:52Z</time>
      </trkpt>
      <trkpt lat="45.59773" lon="4.76926">
        <ele>164.03</ele>
        <time>2021-08-01T12:28:02Z</time>
      </trkpt>
      <trkpt lat="45.59759" lon="4.76928">
        <ele>163.8</ele>
        <time>2021-08-01T12:28:04Z</time>
      </trkpt>
      <trkpt lat="45.59689" lon="4.76941">
        <ele>162.92</ele>
        <time>2021-08-01T12:28:14Z</time>
      </trkpt>
      <trkpt lat="45.59638" lon="4.7695">
        <ele>162.83</ele>
        <time>2021-08-01T12:28:22Z</time>
      </trkpt>
      <trkpt lat="45.59581" lon="4.7696">
        <ele>162.83</ele>
        <time>2021-08-01T12:28:31Z</time>
      </trkpt>
      <trkpt lat="45.59529" lon="4.7697">
        <ele>162.13</ele>
        <time>2021-08-01T12:28:39Z</time>
      </trkpt>
      <trkpt lat="45.59515" lon="4.76972">
        <ele>162.09</ele>
        <time>2021-08-01T12:28:43Z</time>
      </trkpt>
      <trkpt lat="45.59515" lon="4.76972">
        <ele>162.68</ele>
        <time>2021-08-01T12:28:48Z</time>
      </trkpt>
      <trkpt lat="45.59507" lon="4.76975">
        <ele>163.59</ele>
        <time>2021-08-01T12:29:12Z</time>
      </trkpt>
      <trkpt lat="45.59492" lon="4.76979">
        <ele>163.59</ele>
        <time>2021-08-01T12:29:16Z</time>
      </trkpt>
      <trkpt lat="45.59453" lon="4.76986">
        <ele>162.96</ele>
        <time>2021-08-01T12:29:24Z</time>
      </trkpt>
      <trkpt lat="45.59414" lon="4.76991">
        <ele>162.48</ele>
        <time>2021-08-01T12:29:31Z</time>
      </trkpt>
      <trkpt lat="45.59367" lon="4.76999">
        <ele>161.99</ele>
        <time>2021-08-01T12:29:39Z</time>
      </trkpt>
      <trkpt lat="45.59318" lon="4.77012">
        <ele>162.15</ele>
        <time>2021-08-01T12:29:47Z</time>
      </trkpt>
      <trkpt lat="45.59263" lon="4.7702">
        <ele>162.51</ele>
        <time>2021-08-01T12:29:56Z</time>
      </trkpt>
      <trkpt lat="45.59209" lon="4.77029">
        <ele>162.43</ele>
        <time>2021-08-01T12:30:05Z</time>
      </trkpt>
      <trkpt lat="45.59166" lon="4.77033">
        <ele>162.37</ele>
        <time>2021-08-01T12:30:12Z</time>
      </trkpt>
      <trkpt lat="45.59154" lon="4.77031">
        <ele>162.27</ele>
        <time>2021-08-01T12:30:14Z</time>
      </trkpt>
      <trkpt lat="45.59149" lon="4.77031">
        <ele>162.2</ele>
        <time>2021-08-01T12:30:15Z</time>
      </trkpt>
      <trkpt lat="45.59137" lon="4.77032">
        <ele>162.13</ele>
        <time>2021-08-01T12:30:17Z</time>
      </trkpt>
      <trkpt lat="45.59131" lon="4.77034">
        <ele>162.13</ele>
        <time>2021-08-01T12:30:18Z</time>
      </trkpt>
      <trkpt lat="45.59113" lon="4.77041">
        <ele>162.19</ele>
        <time>2021-08-01T12:30:21Z</time>
      </trkpt>
      <trkpt lat="45.59036" lon="4.77055">
        <ele>162.36</ele>
        <time>2021-08-01T12:30:33Z</time>
      </trkpt>
      <trkpt lat="45.58965" lon="4.77064">
        <ele>163.39</ele>
        <time>2021-08-01T12:30:45Z</time>
      </trkpt>
      <trkpt lat="45.58907" lon="4.77082">
        <ele>163.75</ele>
        <time>2021-08-01T12:30:54Z</time>
      </trkpt>
      <trkpt lat="45.58886" lon="4.77086">
        <ele>163.38</ele>
        <time>2021-08-01T12:30:57Z</time>
      </trkpt>
      <trkpt lat="45.58831" lon="4.77092">
        <ele>162.63</ele>
        <time>2021-08-01T12:31:05Z</time>
      </trkpt>
      <trkpt lat="45.58774" lon="4.77107">
        <ele>162.46</ele>
        <time>2021-08-01T12:31:14Z</time>
      </trkpt>
      <trkpt lat="45.58768" lon="4.77108">
        <ele>162.47</ele>
        <time>2021-08-01T12:31:15Z</time>
      </trkpt>
      <trkpt lat="45.58756" lon="4.7711">
        <ele>162.48</ele>
        <time>2021-08-01T12:31:17Z</time>
      </trkpt>
      <trkpt lat="45.5875" lon="4.7711">
        <ele>162.48</ele>
        <time>2021-08-01T12:31:18Z</time>
      </trkpt>
      <trkpt lat="45.58738" lon="4.77109">
        <ele>162.48</ele>
        <time>2021-08-01T12:31:20Z</time>
      </trkpt>
      <trkpt lat="45.58732" lon="4.7711">
        <ele>162.48</ele>
        <time>2021-08-01T12:31:21Z</time>
      </trkpt>
      <trkpt lat="45.58677" lon="4.77124">
        <ele>162.75</ele>
        <time>2021-08-01T12:31:30Z</time>
      </trkpt>
      <trkpt lat="45.58639" lon="4.77126">
        <ele>162.71</ele>
        <time>2021-08-01T12:31:36Z</time>
      </trkpt>
      <trkpt lat="45.58633" lon="4.77123">
        <ele>162.7</ele>
        <time>2021-08-01T12:31:37Z</time>
      </trkpt>
      <trkpt lat="45.58628" lon="4.77116">
        <ele>162.7</ele>
        <time>2021-08-01T12:31:38Z</time>
      </trkpt>
      <trkpt lat="45.58624" lon="4.77109">
        <ele>162.7</ele>
        <time>2021-08-01T12:31:39Z</time>
      </trkpt>
      <trkpt lat="45.58622" lon="4.771">
        <ele>162.7</ele>
        <time>2021-08-01T12:31:40Z</time>
      </trkpt>
      <trkpt lat="45.5862" lon="4.7709">
        <ele>162.68</ele>
        <time>2021-08-01T12:31:41Z</time>
      </trkpt>
      <trkpt lat="45.58619" lon="4.7708">
        <ele>162.64</ele>
        <time>2021-08-01T12:31:42Z</time>
      </trkpt>
      <trkpt lat="45.58617" lon="4.77071">
        <ele>162.58</ele>
        <time>2021-08-01T12:31:43Z</time>
      </trkpt>
      <trkpt lat="45.58605" lon="4.77001">
        <ele>160.17</ele>
        <time>2021-08-01T12:31:51Z</time>
      </trkpt>
      <trkpt lat="45.58589" lon="4.76939">
        <ele>159.94</ele>
        <time>2021-08-01T12:31:59Z</time>
      </trkpt>
      <trkpt lat="45.58586" lon="4.76932">
        <ele>159.93</ele>
        <time>2021-08-01T12:32:00Z</time>
      </trkpt>
      <trkpt lat="45.58557" lon="4.76881">
        <ele>160.53</ele>
        <time>2021-08-01T12:32:07Z</time>
      </trkpt>
      <trkpt lat="45.58553" lon="4.76873">
        <ele>160.5</ele>
        <time>2021-08-01T12:32:08Z</time>
      </trkpt>
      <trkpt lat="45.5855" lon="4.76864">
        <ele>160.49</ele>
        <time>2021-08-01T12:32:09Z</time>
      </trkpt>
      <trkpt lat="45.58548" lon="4.76855">
        <ele>160.48</ele>
        <time>2021-08-01T12:32:10Z</time>
      </trkpt>
      <trkpt lat="45.58546" lon="4.76847">
        <ele>160.39</ele>
        <time>2021-08-01T12:32:11Z</time>
      </trkpt>
      <trkpt lat="45.58545" lon="4.76838">
        <ele>160.34</ele>
        <time>2021-08-01T12:32:12Z</time>
      </trkpt>
      <trkpt lat="45.58544" lon="4.76829">
        <ele>160.09</ele>
        <time>2021-08-01T12:32:13Z</time>
      </trkpt>
      <trkpt lat="45.5854" lon="4.76796">
        <ele>160.28</ele>
        <time>2021-08-01T12:32:17Z</time>
      </trkpt>
      <trkpt lat="45.58537" lon="4.76788">
        <ele>160.29</ele>
        <time>2021-08-01T12:32:18Z</time>
      </trkpt>
      <trkpt lat="45.58535" lon="4.76781">
        <ele>160.29</ele>
        <time>2021-08-01T12:32:19Z</time>
      </trkpt>
      <trkpt lat="45.58521" lon="4.76756">
        <ele>160.01</ele>
        <time>2021-08-01T12:32:23Z</time>
      </trkpt>
      <trkpt lat="45.58484" lon="4.76698">
        <ele>160.08</ele>
        <time>2021-08-01T12:32:34Z</time>
      </trkpt>
      <trkpt lat="45.58482" lon="4.76692">
        <ele>160.39</ele>
        <time>2021-08-01T12:32:35Z</time>
      </trkpt>
      <trkpt lat="45.5848" lon="4.76686">
        <ele>160.9</ele>
        <time>2021-08-01T12:32:36Z</time>
      </trkpt>
      <trkpt lat="45.58476" lon="4.76675">
        <ele>161.64</ele>
        <time>2021-08-01T12:32:38Z</time>
      </trkpt>
      <trkpt lat="45.58474" lon="4.7667">
        <ele>161.99</ele>
        <time>2021-08-01T12:32:39Z</time>
      </trkpt>
      <trkpt lat="45.58466" lon="4.76649">
        <ele>162.96</ele>
        <time>2021-08-01T12:32:43Z</time>
      </trkpt>
      <trkpt lat="45.58465" lon="4.76644">
        <ele>163.04</ele>
        <time>2021-08-01T12:32:44Z</time>
      </trkpt>
      <trkpt lat="45.58462" lon="4.76639">
        <ele>163.12</ele>
        <time>2021-08-01T12:32:45Z</time>
      </trkpt>
      <trkpt lat="45.58459" lon="4.76636">
        <ele>163.25</ele>
        <time>2021-08-01T12:32:46Z</time>
      </trkpt>
      <trkpt lat="45.58455" lon="4.76634">
        <ele>163.6</ele>
        <time>2021-08-01T12:32:47Z</time>
      </trkpt>
      <trkpt lat="45.5845" lon="4.76634">
        <ele>163.88</ele>
        <time>2021-08-01T12:32:48Z</time>
      </trkpt>
      <trkpt lat="45.58446" lon="4.76636">
        <ele>164.03</ele>
        <time>2021-08-01T12:32:49Z</time>
      </trkpt>
      <trkpt lat="45.58442" lon="4.7664">
        <ele>164.14</ele>
        <time>2021-08-01T12:32:50Z</time>
      </trkpt>
      <trkpt lat="45.58439" lon="4.76644">
        <ele>164.22</ele>
        <time>2021-08-01T12:32:51Z</time>
      </trkpt>
      <trkpt lat="45.58436" lon="4.76648">
        <ele>164.29</ele>
        <time>2021-08-01T12:32:52Z</time>
      </trkpt>
      <trkpt lat="45.58433" lon="4.76653">
        <ele>164.37</ele>
        <time>2021-08-01T12:32:53Z</time>
      </trkpt>
      <trkpt lat="45.58418" lon="4.76682">
        <ele>165.59</ele>
        <time>2021-08-01T12:33:00Z</time>
      </trkpt>
      <trkpt lat="45.58406" lon="4.76705">
        <ele>167.91</ele>
        <time>2021-08-01T12:33:06Z</time>
      </trkpt>
      <trkpt lat="45.58391" lon="4.76731">
        <ele>169.87</ele>
        <time>2021-08-01T12:33:13Z</time>
      </trkpt>
      <trkpt lat="45.5838" lon="4.76754">
        <ele>171.33</ele>
        <time>2021-08-01T12:33:19Z</time>
      </trkpt>
      <trkpt lat="45.58368" lon="4.76775">
        <ele>172.58</ele>
        <time>2021-08-01T12:33:25Z</time>
      </trkpt>
      <trkpt lat="45.58351" lon="4.76794">
        <ele>174.24</ele>
        <time>2021-08-01T12:33:32Z</time>
      </trkpt>
      <trkpt lat="45.58331" lon="4.76807">
        <ele>175.74</ele>
        <time>2021-08-01T12:33:39Z</time>
      </trkpt>
      <trkpt lat="45.5831" lon="4.76819">
        <ele>176.98</ele>
        <time>2021-08-01T12:33:46Z</time>
      </trkpt>
      <trkpt lat="45.58285" lon="4.76835">
        <ele>178.16</ele>
        <time>2021-08-01T12:33:54Z</time>
      </trkpt>
      <trkpt lat="45.58264" lon="4.76843">
        <ele>179.26</ele>
        <time>2021-08-01T12:34:01Z</time>
      </trkpt>
      <trkpt lat="45.58249" lon="4.76857">
        <ele>181.06</ele>
        <time>2021-08-01T12:34:07Z</time>
      </trkpt>
      <trkpt lat="45.58238" lon="4.76894">
        <ele>183.54</ele>
        <time>2021-08-01T12:34:16Z</time>
      </trkpt>
      <trkpt lat="45.58226" lon="4.76919">
        <ele>184.86</ele>
        <time>2021-08-01T12:34:23Z</time>
      </trkpt>
      <trkpt lat="45.58203" lon="4.76933">
        <ele>186.17</ele>
        <time>2021-08-01T12:34:31Z</time>
      </trkpt>
      <trkpt lat="45.58176" lon="4.76949">
        <ele>187.8</ele>
        <time>2021-08-01T12:34:40Z</time>
      </trkpt>
      <trkpt lat="45.58154" lon="4.76949">
        <ele>188.87</ele>
        <time>2021-08-01T12:34:47Z</time>
      </trkpt>
      <trkpt lat="45.58139" lon="4.76936">
        <ele>189.48</ele>
        <time>2021-08-01T12:34:53Z</time>
      </trkpt>
      <trkpt lat="45.58125" lon="4.76908">
        <ele>191.55</ele>
        <time>2021-08-01T12:35:01Z</time>
      </trkpt>
      <trkpt lat="45.58115" lon="4.76897">
        <ele>192.9</ele>
        <time>2021-08-01T12:35:06Z</time>
      </trkpt>
      <trkpt lat="45.58112" lon="4.76896">
        <ele>193.21</ele>
        <time>2021-08-01T12:35:07Z</time>
      </trkpt>
      <trkpt lat="45.58109" lon="4.76897">
        <ele>193.53</ele>
        <time>2021-08-01T12:35:08Z</time>
      </trkpt>
      <trkpt lat="45.58106" lon="4.769">
        <ele>193.79</ele>
        <time>2021-08-01T12:35:09Z</time>
      </trkpt>
      <trkpt lat="45.58104" lon="4.76904">
        <ele>193.99</ele>
        <time>2021-08-01T12:35:10Z</time>
      </trkpt>
      <trkpt lat="45.58103" lon="4.76908">
        <ele>194.21</ele>
        <time>2021-08-01T12:35:11Z</time>
      </trkpt>
      <trkpt lat="45.58103" lon="4.76913">
        <ele>194.44</ele>
        <time>2021-08-01T12:35:12Z</time>
      </trkpt>
      <trkpt lat="45.58112" lon="4.76938">
        <ele>195.21</ele>
        <time>2021-08-01T12:35:18Z</time>
      </trkpt>
      <trkpt lat="45.58125" lon="4.76964">
        <ele>196.32</ele>
        <time>2021-08-01T12:35:25Z</time>
      </trkpt>
      <trkpt lat="45.58127" lon="4.7699">
        <ele>196.98</ele>
        <time>2021-08-01T12:35:31Z</time>
      </trkpt>
      <trkpt lat="45.58116" lon="4.77027">
        <ele>198.84</ele>
        <time>2021-08-01T12:35:40Z</time>
      </trkpt>
      <trkpt lat="45.5811" lon="4.77056">
        <ele>200.52</ele>
        <time>2021-08-01T12:35:47Z</time>
      </trkpt>
      <trkpt lat="45.58104" lon="4.7708">
        <ele>201.82</ele>
        <time>2021-08-01T12:35:53Z</time>
      </trkpt>
      <trkpt lat="45.58104" lon="4.77084">
        <ele>202.01</ele>
        <time>2021-08-01T12:35:54Z</time>
      </trkpt>
      <trkpt lat="45.58103" lon="4.77088">
        <ele>202.24</ele>
        <time>2021-08-01T12:35:55Z</time>
      </trkpt>
      <trkpt lat="45.58101" lon="4.77091">
        <ele>202.52</ele>
        <time>2021-08-01T12:35:56Z</time>
      </trkpt>
      <trkpt lat="45.581" lon="4.77095">
        <ele>202.77</ele>
        <time>2021-08-01T12:35:57Z</time>
      </trkpt>
      <trkpt lat="45.58099" lon="4.77098">
        <ele>202.98</ele>
        <time>2021-08-01T12:35:58Z</time>
      </trkpt>
      <trkpt lat="45.58098" lon="4.77102">
        <ele>203.11</ele>
        <time>2021-08-01T12:35:59Z</time>
      </trkpt>
      <trkpt lat="45.58096" lon="4.77104">
        <ele>203.28</ele>
        <time>2021-08-01T12:36:00Z</time>
      </trkpt>
      <trkpt lat="45.58094" lon="4.77108">
        <ele>203.52</ele>
        <time>2021-08-01T12:36:01Z</time>
      </trkpt>
      <trkpt lat="45.58092" lon="4.77111">
        <ele>203.65</ele>
        <time>2021-08-01T12:36:02Z</time>
      </trkpt>
      <trkpt lat="45.58089" lon="4.77113">
        <ele>203.84</ele>
        <time>2021-08-01T12:36:03Z</time>
      </trkpt>
      <trkpt lat="45.58086" lon="4.77116">
        <ele>204.04</ele>
        <time>2021-08-01T12:36:04Z</time>
      </trkpt>
      <trkpt lat="45.58084" lon="4.77119">
        <ele>204.26</ele>
        <time>2021-08-01T12:36:05Z</time>
      </trkpt>
      <trkpt lat="45.58082" lon="4.77121">
        <ele>204.34</ele>
        <time>2021-08-01T12:36:06Z</time>
      </trkpt>
      <trkpt lat="45.58079" lon="4.77122">
        <ele>204.58</ele>
        <time>2021-08-01T12:36:07Z</time>
      </trkpt>
      <trkpt lat="45.58076" lon="4.77124">
        <ele>204.91</ele>
        <time>2021-08-01T12:36:08Z</time>
      </trkpt>
      <trkpt lat="45.58074" lon="4.77127">
        <ele>205.08</ele>
        <time>2021-08-01T12:36:09Z</time>
      </trkpt>
      <trkpt lat="45.58073" lon="4.77129">
        <ele>205.3</ele>
        <time>2021-08-01T12:36:10Z</time>
      </trkpt>
      <trkpt lat="45.58071" lon="4.77132">
        <ele>205.53</ele>
        <time>2021-08-01T12:36:11Z</time>
      </trkpt>
      <trkpt lat="45.5807" lon="4.77136">
        <ele>205.71</ele>
        <time>2021-08-01T12:36:12Z</time>
      </trkpt>
      <trkpt lat="45.58069" lon="4.7714">
        <ele>205.97</ele>
        <time>2021-08-01T12:36:13Z</time>
      </trkpt>
      <trkpt lat="45.58069" lon="4.77144">
        <ele>206.17</ele>
        <time>2021-08-01T12:36:14Z</time>
      </trkpt>
      <trkpt lat="45.5807" lon="4.77147">
        <ele>206.39</ele>
        <time>2021-08-01T12:36:15Z</time>
      </trkpt>
      <trkpt lat="45.5807" lon="4.77152">
        <ele>206.69</ele>
        <time>2021-08-01T12:36:16Z</time>
      </trkpt>
      <trkpt lat="45.5807" lon="4.77156">
        <ele>206.96</ele>
        <time>2021-08-01T12:36:17Z</time>
      </trkpt>
      <trkpt lat="45.5807" lon="4.7716">
        <ele>207.16</ele>
        <time>2021-08-01T12:36:18Z</time>
      </trkpt>
      <trkpt lat="45.58071" lon="4.77164">
        <ele>207.35</ele>
        <time>2021-08-01T12:36:19Z</time>
      </trkpt>
      <trkpt lat="45.58071" lon="4.77168">
        <ele>207.53</ele>
        <time>2021-08-01T12:36:20Z</time>
      </trkpt>
      <trkpt lat="45.58072" lon="4.77172">
        <ele>207.62</ele>
        <time>2021-08-01T12:36:21Z</time>
      </trkpt>
      <trkpt lat="45.58073" lon="4.77177">
        <ele>207.68</ele>
        <time>2021-08-01T12:36:22Z</time>
      </trkpt>
      <trkpt lat="45.58073" lon="4.77181">
        <ele>207.71</ele>
        <time>2021-08-01T12:36:23Z</time>
      </trkpt>
      <trkpt lat="45.58073" lon="4.77185">
        <ele>207.79</ele>
        <time>2021-08-01T12:36:24Z</time>
      </trkpt>
      <trkpt lat="45.58073" lon="4.7719">
        <ele>207.85</ele>
        <time>2021-08-01T12:36:25Z</time>
      </trkpt>
      <trkpt lat="45.58066" lon="4.77213">
        <ele>208.85</ele>
        <time>2021-08-01T12:36:31Z</time>
      </trkpt>
      <trkpt lat="45.58045" lon="4.77229">
        <ele>210.62</ele>
        <time>2021-08-01T12:36:39Z</time>
      </trkpt>
      <trkpt lat="45.58023" lon="4.77241">
        <ele>212.16</ele>
        <time>2021-08-01T12:36:47Z</time>
      </trkpt>
      <trkpt lat="45.5802" lon="4.77244">
        <ele>212.42</ele>
        <time>2021-08-01T12:36:48Z</time>
      </trkpt>
      <trkpt lat="45.58018" lon="4.77245">
        <ele>212.69</ele>
        <time>2021-08-01T12:36:49Z</time>
      </trkpt>
      <trkpt lat="45.58015" lon="4.77248">
        <ele>212.91</ele>
        <time>2021-08-01T12:36:50Z</time>
      </trkpt>
      <trkpt lat="45.58013" lon="4.7725">
        <ele>213.17</ele>
        <time>2021-08-01T12:36:51Z</time>
      </trkpt>
      <trkpt lat="45.5801" lon="4.77252">
        <ele>213.43</ele>
        <time>2021-08-01T12:36:52Z</time>
      </trkpt>
      <trkpt lat="45.58008" lon="4.77254">
        <ele>213.6</ele>
        <time>2021-08-01T12:36:53Z</time>
      </trkpt>
      <trkpt lat="45.58005" lon="4.77255">
        <ele>213.78</ele>
        <time>2021-08-01T12:36:54Z</time>
      </trkpt>
      <trkpt lat="45.58" lon="4.77258">
        <ele>214.23</ele>
        <time>2021-08-01T12:36:56Z</time>
      </trkpt>
      <trkpt lat="45.57996" lon="4.77259">
        <ele>214.66</ele>
        <time>2021-08-01T12:36:57Z</time>
      </trkpt>
      <trkpt lat="45.57993" lon="4.7726">
        <ele>214.87</ele>
        <time>2021-08-01T12:36:58Z</time>
      </trkpt>
      <trkpt lat="45.5799" lon="4.77261">
        <ele>215.1</ele>
        <time>2021-08-01T12:36:59Z</time>
      </trkpt>
      <trkpt lat="45.57988" lon="4.77261">
        <ele>215.25</ele>
        <time>2021-08-01T12:37:00Z</time>
      </trkpt>
      <trkpt lat="45.57984" lon="4.77261">
        <ele>215.39</ele>
        <time>2021-08-01T12:37:01Z</time>
      </trkpt>
      <trkpt lat="45.57982" lon="4.77263">
        <ele>215.55</ele>
        <time>2021-08-01T12:37:02Z</time>
      </trkpt>
      <trkpt lat="45.57979" lon="4.77264">
        <ele>215.65</ele>
        <time>2021-08-01T12:37:03Z</time>
      </trkpt>
      <trkpt lat="45.57967" lon="4.77271">
        <ele>216.14</ele>
        <time>2021-08-01T12:37:07Z</time>
      </trkpt>
      <trkpt lat="45.5795" lon="4.77287">
        <ele>217.65</ele>
        <time>2021-08-01T12:37:14Z</time>
      </trkpt>
      <trkpt lat="45.57938" lon="4.77301">
        <ele>218.58</ele>
        <time>2021-08-01T12:37:19Z</time>
      </trkpt>
      <trkpt lat="45.5793" lon="4.77309">
        <ele>219.36</ele>
        <time>2021-08-01T12:37:22Z</time>
      </trkpt>
      <trkpt lat="45.57928" lon="4.77312">
        <ele>219.58</ele>
        <time>2021-08-01T12:37:23Z</time>
      </trkpt>
      <trkpt lat="45.57926" lon="4.77314">
        <ele>219.73</ele>
        <time>2021-08-01T12:37:24Z</time>
      </trkpt>
      <trkpt lat="45.57923" lon="4.77316">
        <ele>219.92</ele>
        <time>2021-08-01T12:37:25Z</time>
      </trkpt>
      <trkpt lat="45.57921" lon="4.7732">
        <ele>220.15</ele>
        <time>2021-08-01T12:37:26Z</time>
      </trkpt>
      <trkpt lat="45.57911" lon="4.77336">
        <ele>221.13</ele>
        <time>2021-08-01T12:37:31Z</time>
      </trkpt>
      <trkpt lat="45.57901" lon="4.77357">
        <ele>222.05</ele>
        <time>2021-08-01T12:37:37Z</time>
      </trkpt>
      <trkpt lat="45.5789" lon="4.77381">
        <ele>223.59</ele>
        <time>2021-08-01T12:37:44Z</time>
      </trkpt>
      <trkpt lat="45.5787" lon="4.77395">
        <ele>225.4</ele>
        <time>2021-08-01T12:37:52Z</time>
      </trkpt>
      <trkpt lat="45.57843" lon="4.77408">
        <ele>227.15</ele>
        <time>2021-08-01T12:38:02Z</time>
      </trkpt>
      <trkpt lat="45.57824" lon="4.774">
        <ele>228.27</ele>
        <time>2021-08-01T12:38:09Z</time>
      </trkpt>
      <trkpt lat="45.57806" lon="4.7738">
        <ele>229.78</ele>
        <time>2021-08-01T12:38:17Z</time>
      </trkpt>
      <trkpt lat="45.57788" lon="4.77366">
        <ele>231.65</ele>
        <time>2021-08-01T12:38:24Z</time>
      </trkpt>
      <trkpt lat="45.57786" lon="4.77364">
        <ele>231.83</ele>
        <time>2021-08-01T12:38:25Z</time>
      </trkpt>
      <trkpt lat="45.57783" lon="4.77362">
        <ele>231.94</ele>
        <time>2021-08-01T12:38:26Z</time>
      </trkpt>
      <trkpt lat="45.57767" lon="4.77353">
        <ele>232.61</ele>
        <time>2021-08-01T12:38:32Z</time>
      </trkpt>
      <trkpt lat="45.57749" lon="4.77342">
        <ele>233.43</ele>
        <time>2021-08-01T12:38:39Z</time>
      </trkpt>
      <trkpt lat="45.57726" lon="4.77325">
        <ele>234.84</ele>
        <time>2021-08-01T12:38:48Z</time>
      </trkpt>
      <trkpt lat="45.57712" lon="4.77319">
        <ele>235.46</ele>
        <time>2021-08-01T12:38:53Z</time>
      </trkpt>
      <trkpt lat="45.5771" lon="4.77318">
        <ele>235.69</ele>
        <time>2021-08-01T12:38:54Z</time>
      </trkpt>
      <trkpt lat="45.57707" lon="4.77319">
        <ele>235.83</ele>
        <time>2021-08-01T12:38:55Z</time>
      </trkpt>
      <trkpt lat="45.57704" lon="4.77317">
        <ele>235.95</ele>
        <time>2021-08-01T12:38:56Z</time>
      </trkpt>
      <trkpt lat="45.57701" lon="4.77316">
        <ele>236.02</ele>
        <time>2021-08-01T12:38:57Z</time>
      </trkpt>
      <trkpt lat="45.57698" lon="4.77317">
        <ele>236.11</ele>
        <time>2021-08-01T12:38:58Z</time>
      </trkpt>
      <trkpt lat="45.57684" lon="4.77314">
        <ele>236.86</ele>
        <time>2021-08-01T12:39:03Z</time>
      </trkpt>
      <trkpt lat="45.57676" lon="4.77312">
        <ele>237.43</ele>
        <time>2021-08-01T12:39:06Z</time>
      </trkpt>
      <trkpt lat="45.57673" lon="4.77313">
        <ele>237.51</ele>
        <time>2021-08-01T12:39:07Z</time>
      </trkpt>
      <trkpt lat="45.5767" lon="4.77313">
        <ele>237.65</ele>
        <time>2021-08-01T12:39:08Z</time>
      </trkpt>
      <trkpt lat="45.57667" lon="4.77312">
        <ele>237.88</ele>
        <time>2021-08-01T12:39:09Z</time>
      </trkpt>
      <trkpt lat="45.57664" lon="4.77312">
        <ele>238.08</ele>
        <time>2021-08-01T12:39:10Z</time>
      </trkpt>
      <trkpt lat="45.57643" lon="4.77315">
        <ele>239.03</ele>
        <time>2021-08-01T12:39:17Z</time>
      </trkpt>
      <trkpt lat="45.57627" lon="4.77328">
        <ele>240.16</ele>
        <time>2021-08-01T12:39:23Z</time>
      </trkpt>
      <trkpt lat="45.57623" lon="4.77349">
        <ele>240.99</ele>
        <time>2021-08-01T12:39:28Z</time>
      </trkpt>
      <trkpt lat="45.57625" lon="4.77352">
        <ele>241.12</ele>
        <time>2021-08-01T12:39:29Z</time>
      </trkpt>
      <trkpt lat="45.57627" lon="4.77355">
        <ele>241.18</ele>
        <time>2021-08-01T12:39:30Z</time>
      </trkpt>
      <trkpt lat="45.5763" lon="4.77362">
        <ele>241.27</ele>
        <time>2021-08-01T12:39:32Z</time>
      </trkpt>
      <trkpt lat="45.57632" lon="4.77364">
        <ele>241.45</ele>
        <time>2021-08-01T12:39:33Z</time>
      </trkpt>
      <trkpt lat="45.57634" lon="4.77366">
        <ele>241.58</ele>
        <time>2021-08-01T12:39:34Z</time>
      </trkpt>
      <trkpt lat="45.57637" lon="4.77368">
        <ele>241.71</ele>
        <time>2021-08-01T12:39:35Z</time>
      </trkpt>
      <trkpt lat="45.5764" lon="4.7737">
        <ele>241.91</ele>
        <time>2021-08-01T12:39:36Z</time>
      </trkpt>
      <trkpt lat="45.57642" lon="4.77371">
        <ele>242.08</ele>
        <time>2021-08-01T12:39:37Z</time>
      </trkpt>
      <trkpt lat="45.57644" lon="4.77373">
        <ele>242.25</ele>
        <time>2021-08-01T12:39:38Z</time>
      </trkpt>
      <trkpt lat="45.57659" lon="4.77385">
        <ele>242.93</ele>
        <time>2021-08-01T12:39:44Z</time>
      </trkpt>
      <trkpt lat="45.57679" lon="4.774">
        <ele>243.47</ele>
        <time>2021-08-01T12:39:51Z</time>
      </trkpt>
      <trkpt lat="45.57696" lon="4.77411">
        <ele>244.7</ele>
        <time>2021-08-01T12:39:57Z</time>
      </trkpt>
      <trkpt lat="45.57715" lon="4.77425">
        <ele>245.79</ele>
        <time>2021-08-01T12:40:04Z</time>
      </trkpt>
      <trkpt lat="45.57733" lon="4.7744">
        <ele>246.5</ele>
        <time>2021-08-01T12:40:11Z</time>
      </trkpt>
      <trkpt lat="45.57744" lon="4.77464">
        <ele>247.65</ele>
        <time>2021-08-01T12:40:18Z</time>
      </trkpt>
      <trkpt lat="45.57733" lon="4.77486">
        <ele>248.62</ele>
        <time>2021-08-01T12:40:24Z</time>
      </trkpt>
      <trkpt lat="45.5771" lon="4.77502">
        <ele>249.58</ele>
        <time>2021-08-01T12:40:31Z</time>
      </trkpt>
      <trkpt lat="45.5769" lon="4.77517">
        <ele>250.45</ele>
        <time>2021-08-01T12:40:38Z</time>
      </trkpt>
      <trkpt lat="45.57687" lon="4.77519">
        <ele>250.63</ele>
        <time>2021-08-01T12:40:39Z</time>
      </trkpt>
      <trkpt lat="45.57685" lon="4.77522">
        <ele>250.82</ele>
        <time>2021-08-01T12:40:40Z</time>
      </trkpt>
      <trkpt lat="45.57682" lon="4.77524">
        <ele>250.95</ele>
        <time>2021-08-01T12:40:41Z</time>
      </trkpt>
      <trkpt lat="45.57679" lon="4.77527">
        <ele>251.04</ele>
        <time>2021-08-01T12:40:42Z</time>
      </trkpt>
      <trkpt lat="45.57677" lon="4.77529">
        <ele>251.19</ele>
        <time>2021-08-01T12:40:43Z</time>
      </trkpt>
      <trkpt lat="45.57674" lon="4.77532">
        <ele>251.32</ele>
        <time>2021-08-01T12:40:44Z</time>
      </trkpt>
      <trkpt lat="45.57672" lon="4.77535">
        <ele>251.47</ele>
        <time>2021-08-01T12:40:45Z</time>
      </trkpt>
      <trkpt lat="45.57671" lon="4.77538">
        <ele>251.62</ele>
        <time>2021-08-01T12:40:46Z</time>
      </trkpt>
      <trkpt lat="45.57661" lon="4.77555">
        <ele>252.27</ele>
        <time>2021-08-01T12:40:51Z</time>
      </trkpt>
      <trkpt lat="45.5765" lon="4.77584">
        <ele>253.05</ele>
        <time>2021-08-01T12:40:58Z</time>
      </trkpt>
      <trkpt lat="45.5765" lon="4.77589">
        <ele>253.1</ele>
        <time>2021-08-01T12:40:59Z</time>
      </trkpt>
      <trkpt lat="45.57649" lon="4.77594">
        <ele>253.21</ele>
        <time>2021-08-01T12:41:00Z</time>
      </trkpt>
      <trkpt lat="45.57648" lon="4.77598">
        <ele>253.31</ele>
        <time>2021-08-01T12:41:01Z</time>
      </trkpt>
      <trkpt lat="45.57647" lon="4.77603">
        <ele>253.43</ele>
        <time>2021-08-01T12:41:02Z</time>
      </trkpt>
      <trkpt lat="45.57646" lon="4.77607">
        <ele>253.51</ele>
        <time>2021-08-01T12:41:03Z</time>
      </trkpt>
      <trkpt lat="45.57645" lon="4.77612">
        <ele>253.69</ele>
        <time>2021-08-01T12:41:04Z</time>
      </trkpt>
      <trkpt lat="45.57644" lon="4.77617">
        <ele>253.88</ele>
        <time>2021-08-01T12:41:05Z</time>
      </trkpt>
      <trkpt lat="45.57643" lon="4.77621">
        <ele>254.04</ele>
        <time>2021-08-01T12:41:06Z</time>
      </trkpt>
      <trkpt lat="45.57643" lon="4.77626">
        <ele>254.16</ele>
        <time>2021-08-01T12:41:07Z</time>
      </trkpt>
      <trkpt lat="45.57636" lon="4.77659">
        <ele>255.14</ele>
        <time>2021-08-01T12:41:14Z</time>
      </trkpt>
      <trkpt lat="45.5763" lon="4.77698">
        <ele>256.65</ele>
        <time>2021-08-01T12:41:22Z</time>
      </trkpt>
      <trkpt lat="45.57621" lon="4.77735">
        <ele>257.98</ele>
        <time>2021-08-01T12:41:30Z</time>
      </trkpt>
      <trkpt lat="45.5761" lon="4.77777">
        <ele>259.34</ele>
        <time>2021-08-01T12:41:39Z</time>
      </trkpt>
      <trkpt lat="45.57597" lon="4.77823">
        <ele>260.07</ele>
        <time>2021-08-01T12:41:49Z</time>
      </trkpt>
      <trkpt lat="45.57594" lon="4.77839">
        <ele>260.21</ele>
        <time>2021-08-01T12:41:52Z</time>
      </trkpt>
      <trkpt lat="45.57586" lon="4.7789">
        <ele>260.23</ele>
        <time>2021-08-01T12:41:59Z</time>
      </trkpt>
      <trkpt lat="45.57572" lon="4.77962">
        <ele>258.6</ele>
        <time>2021-08-01T12:42:07Z</time>
      </trkpt>
      <trkpt lat="45.57568" lon="4.77977">
        <ele>257.53</ele>
        <time>2021-08-01T12:42:09Z</time>
      </trkpt>
      <trkpt lat="45.57556" lon="4.78012">
        <ele>257.34</ele>
        <time>2021-08-01T12:42:16Z</time>
      </trkpt>
      <trkpt lat="45.57533" lon="4.78048">
        <ele>259.24</ele>
        <time>2021-08-01T12:42:26Z</time>
      </trkpt>
      <trkpt lat="45.57504" lon="4.78087">
        <ele>261.91</ele>
        <time>2021-08-01T12:42:38Z</time>
      </trkpt>
      <trkpt lat="45.57477" lon="4.78124">
        <ele>264.31</ele>
        <time>2021-08-01T12:42:49Z</time>
      </trkpt>
      <trkpt lat="45.57456" lon="4.78142">
        <ele>265.98</ele>
        <time>2021-08-01T12:42:57Z</time>
      </trkpt>
      <trkpt lat="45.57438" lon="4.78155">
        <ele>267.45</ele>
        <time>2021-08-01T12:43:04Z</time>
      </trkpt>
      <trkpt lat="45.57416" lon="4.7817">
        <ele>268.97</ele>
        <time>2021-08-01T12:43:12Z</time>
      </trkpt>
      <trkpt lat="45.57397" lon="4.78184">
        <ele>270.2</ele>
        <time>2021-08-01T12:43:19Z</time>
      </trkpt>
      <trkpt lat="45.57376" lon="4.782">
        <ele>271.61</ele>
        <time>2021-08-01T12:43:27Z</time>
      </trkpt>
      <trkpt lat="45.57355" lon="4.78218">
        <ele>273.37</ele>
        <time>2021-08-01T12:43:35Z</time>
      </trkpt>
      <trkpt lat="45.57333" lon="4.78236">
        <ele>275.01</ele>
        <time>2021-08-01T12:43:43Z</time>
      </trkpt>
      <trkpt lat="45.57316" lon="4.78251">
        <ele>276.73</ele>
        <time>2021-08-01T12:43:50Z</time>
      </trkpt>
      <trkpt lat="45.57292" lon="4.78271">
        <ele>278.25</ele>
        <time>2021-08-01T12:43:59Z</time>
      </trkpt>
      <trkpt lat="45.57276" lon="4.78283">
        <ele>279.61</ele>
        <time>2021-08-01T12:44:06Z</time>
      </trkpt>
      <trkpt lat="45.57259" lon="4.78293">
        <ele>281.18</ele>
        <time>2021-08-01T12:44:14Z</time>
      </trkpt>
      <trkpt lat="45.57235" lon="4.78306">
        <ele>282.99</ele>
        <time>2021-08-01T12:44:23Z</time>
      </trkpt>
      <trkpt lat="45.57197" lon="4.7832">
        <ele>284.86</ele>
        <time>2021-08-01T12:44:36Z</time>
      </trkpt>
      <trkpt lat="45.57178" lon="4.78326">
        <ele>286.31</ele>
        <time>2021-08-01T12:44:43Z</time>
      </trkpt>
      <trkpt lat="45.57157" lon="4.78336">
        <ele>287.82</ele>
        <time>2021-08-01T12:44:51Z</time>
      </trkpt>
      <trkpt lat="45.57134" lon="4.78341">
        <ele>289.54</ele>
        <time>2021-08-01T12:44:59Z</time>
      </trkpt>
      <trkpt lat="45.57111" lon="4.78343">
        <ele>290.91</ele>
        <time>2021-08-01T12:45:07Z</time>
      </trkpt>
      <trkpt lat="45.57091" lon="4.78341">
        <ele>292.15</ele>
        <time>2021-08-01T12:45:14Z</time>
      </trkpt>
      <trkpt lat="45.57074" lon="4.78341">
        <ele>293.15</ele>
        <time>2021-08-01T12:45:20Z</time>
      </trkpt>
      <trkpt lat="45.57062" lon="4.78344">
        <ele>293.78</ele>
        <time>2021-08-01T12:45:24Z</time>
      </trkpt>
      <trkpt lat="45.5706" lon="4.78345">
        <ele>293.9</ele>
        <time>2021-08-01T12:45:25Z</time>
      </trkpt>
      <trkpt lat="45.57057" lon="4.78347">
        <ele>294.13</ele>
        <time>2021-08-01T12:45:26Z</time>
      </trkpt>
      <trkpt lat="45.57055" lon="4.78349">
        <ele>294.34</ele>
        <time>2021-08-01T12:45:27Z</time>
      </trkpt>
      <trkpt lat="45.57052" lon="4.78351">
        <ele>294.52</ele>
        <time>2021-08-01T12:45:28Z</time>
      </trkpt>
      <trkpt lat="45.5703" lon="4.78369">
        <ele>296.36</ele>
        <time>2021-08-01T12:45:37Z</time>
      </trkpt>
      <trkpt lat="45.57002" lon="4.78375">
        <ele>298.26</ele>
        <time>2021-08-01T12:45:47Z</time>
      </trkpt>
      <trkpt lat="45.56972" lon="4.78374">
        <ele>300.31</ele>
        <time>2021-08-01T12:45:58Z</time>
      </trkpt>
      <trkpt lat="45.56949" lon="4.78372">
        <ele>301.81</ele>
        <time>2021-08-01T12:46:06Z</time>
      </trkpt>
      <trkpt lat="45.56924" lon="4.78371">
        <ele>303.4</ele>
        <time>2021-08-01T12:46:15Z</time>
      </trkpt>
      <trkpt lat="45.56908" lon="4.78369">
        <ele>304.46</ele>
        <time>2021-08-01T12:46:21Z</time>
      </trkpt>
      <trkpt lat="45.56887" lon="4.78359">
        <ele>305.92</ele>
        <time>2021-08-01T12:46:29Z</time>
      </trkpt>
      <trkpt lat="45.56866" lon="4.78336">
        <ele>307.68</ele>
        <time>2021-08-01T12:46:38Z</time>
      </trkpt>
      <trkpt lat="45.56854" lon="4.78307">
        <ele>308.83</ele>
        <time>2021-08-01T12:46:46Z</time>
      </trkpt>
      <trkpt lat="45.56851" lon="4.7827">
        <ele>310.74</ele>
        <time>2021-08-01T12:46:55Z</time>
      </trkpt>
      <trkpt lat="45.56858" lon="4.78233">
        <ele>311.59</ele>
        <time>2021-08-01T12:47:04Z</time>
      </trkpt>
      <trkpt lat="45.5687" lon="4.78194">
        <ele>312.64</ele>
        <time>2021-08-01T12:47:14Z</time>
      </trkpt>
      <trkpt lat="45.56886" lon="4.78145">
        <ele>314.89</ele>
        <time>2021-08-01T12:47:26Z</time>
      </trkpt>
      <trkpt lat="45.56897" lon="4.78111">
        <ele>315.41</ele>
        <time>2021-08-01T12:47:34Z</time>
      </trkpt>
      <trkpt lat="45.56911" lon="4.78068">
        <ele>315.91</ele>
        <time>2021-08-01T12:47:44Z</time>
      </trkpt>
      <trkpt lat="45.56919" lon="4.7802">
        <ele>316.17</ele>
        <time>2021-08-01T12:47:54Z</time>
      </trkpt>
      <trkpt lat="45.56914" lon="4.77983">
        <ele>316.71</ele>
        <time>2021-08-01T12:48:01Z</time>
      </trkpt>
      <trkpt lat="45.569" lon="4.77953">
        <ele>317.51</ele>
        <time>2021-08-01T12:48:08Z</time>
      </trkpt>
      <trkpt lat="45.56888" lon="4.77929">
        <ele>318.51</ele>
        <time>2021-08-01T12:48:14Z</time>
      </trkpt>
      <trkpt lat="45.56872" lon="4.77902">
        <ele>319.26</ele>
        <time>2021-08-01T12:48:21Z</time>
      </trkpt>
      <trkpt lat="45.56856" lon="4.77878">
        <ele>320.56</ele>
        <time>2021-08-01T12:48:28Z</time>
      </trkpt>
      <trkpt lat="45.56844" lon="4.77863">
        <ele>321.06</ele>
        <time>2021-08-01T12:48:33Z</time>
      </trkpt>
      <trkpt lat="45.5683" lon="4.77851">
        <ele>321.69</ele>
        <time>2021-08-01T12:48:38Z</time>
      </trkpt>
      <trkpt lat="45.56816" lon="4.77839">
        <ele>322.45</ele>
        <time>2021-08-01T12:48:43Z</time>
      </trkpt>
      <trkpt lat="45.56803" lon="4.7783">
        <ele>323.3</ele>
        <time>2021-08-01T12:48:48Z</time>
      </trkpt>
      <trkpt lat="45.56779" lon="4.7781">
        <ele>324.46</ele>
        <time>2021-08-01T12:48:56Z</time>
      </trkpt>
      <trkpt lat="45.56746" lon="4.77783">
        <ele>326.33</ele>
        <time>2021-08-01T12:49:06Z</time>
      </trkpt>
      <trkpt lat="45.56718" lon="4.77753">
        <ele>327.6</ele>
        <time>2021-08-01T12:49:16Z</time>
      </trkpt>
      <trkpt lat="45.56698" lon="4.77733">
        <ele>328.47</ele>
        <time>2021-08-01T12:49:23Z</time>
      </trkpt>
      <trkpt lat="45.56693" lon="4.77728">
        <ele>329.22</ele>
        <time>2021-08-01T12:49:25Z</time>
      </trkpt>
      <trkpt lat="45.56689" lon="4.77726">
        <ele>329.45</ele>
        <time>2021-08-01T12:49:26Z</time>
      </trkpt>
      <trkpt lat="45.56687" lon="4.77723">
        <ele>329.63</ele>
        <time>2021-08-01T12:49:27Z</time>
      </trkpt>
      <trkpt lat="45.56684" lon="4.7772">
        <ele>329.76</ele>
        <time>2021-08-01T12:49:28Z</time>
      </trkpt>
      <trkpt lat="45.56681" lon="4.77718">
        <ele>329.92</ele>
        <time>2021-08-01T12:49:29Z</time>
      </trkpt>
      <trkpt lat="45.56677" lon="4.77716">
        <ele>330.01</ele>
        <time>2021-08-01T12:49:30Z</time>
      </trkpt>
      <trkpt lat="45.56674" lon="4.77713">
        <ele>330.07</ele>
        <time>2021-08-01T12:49:31Z</time>
      </trkpt>
      <trkpt lat="45.56671" lon="4.77711">
        <ele>330.18</ele>
        <time>2021-08-01T12:49:32Z</time>
      </trkpt>
      <trkpt lat="45.56668" lon="4.77708">
        <ele>330.39</ele>
        <time>2021-08-01T12:49:33Z</time>
      </trkpt>
      <trkpt lat="45.56651" lon="4.77694">
        <ele>331.32</ele>
        <time>2021-08-01T12:49:39Z</time>
      </trkpt>
      <trkpt lat="45.56648" lon="4.77692">
        <ele>331.5</ele>
        <time>2021-08-01T12:49:40Z</time>
      </trkpt>
      <trkpt lat="45.56631" lon="4.77678">
        <ele>332.51</ele>
        <time>2021-08-01T12:49:46Z</time>
      </trkpt>
      <trkpt lat="45.56613" lon="4.77657">
        <ele>333.57</ele>
        <time>2021-08-01T12:49:53Z</time>
      </trkpt>
      <trkpt lat="45.56585" lon="4.77618">
        <ele>335.44</ele>
        <time>2021-08-01T12:50:04Z</time>
      </trkpt>
      <trkpt lat="45.56565" lon="4.77586">
        <ele>336.76</ele>
        <time>2021-08-01T12:50:12Z</time>
      </trkpt>
      <trkpt lat="45.5655" lon="4.77571">
        <ele>337.73</ele>
        <time>2021-08-01T12:50:17Z</time>
      </trkpt>
      <trkpt lat="45.56537" lon="4.77563">
        <ele>338.22</ele>
        <time>2021-08-01T12:50:21Z</time>
      </trkpt>
      <trkpt lat="45.56533" lon="4.77561">
        <ele>338.3</ele>
        <time>2021-08-01T12:50:22Z</time>
      </trkpt>
      <trkpt lat="45.56529" lon="4.7756">
        <ele>338.48</ele>
        <time>2021-08-01T12:50:23Z</time>
      </trkpt>
      <trkpt lat="45.56518" lon="4.77558">
        <ele>338.96</ele>
        <time>2021-08-01T12:50:26Z</time>
      </trkpt>
      <trkpt lat="45.56514" lon="4.77558">
        <ele>339.13</ele>
        <time>2021-08-01T12:50:27Z</time>
      </trkpt>
      <trkpt lat="45.56511" lon="4.77557">
        <ele>339.35</ele>
        <time>2021-08-01T12:50:28Z</time>
      </trkpt>
      <trkpt lat="45.56507" lon="4.77557">
        <ele>339.47</ele>
        <time>2021-08-01T12:50:29Z</time>
      </trkpt>
      <trkpt lat="45.56504" lon="4.77557">
        <ele>339.61</ele>
        <time>2021-08-01T12:50:30Z</time>
      </trkpt>
      <trkpt lat="45.565" lon="4.77557">
        <ele>339.7</ele>
        <time>2021-08-01T12:50:31Z</time>
      </trkpt>
      <trkpt lat="45.56496" lon="4.77557">
        <ele>339.91</ele>
        <time>2021-08-01T12:50:32Z</time>
      </trkpt>
      <trkpt lat="45.56493" lon="4.77558">
        <ele>340.09</ele>
        <time>2021-08-01T12:50:33Z</time>
      </trkpt>
      <trkpt lat="45.56489" lon="4.77558">
        <ele>340.19</ele>
        <time>2021-08-01T12:50:34Z</time>
      </trkpt>
      <trkpt lat="45.56485" lon="4.77558">
        <ele>340.26</ele>
        <time>2021-08-01T12:50:35Z</time>
      </trkpt>
      <trkpt lat="45.56482" lon="4.77558">
        <ele>340.42</ele>
        <time>2021-08-01T12:50:36Z</time>
      </trkpt>
      <trkpt lat="45.56478" lon="4.77557">
        <ele>340.67</ele>
        <time>2021-08-01T12:50:37Z</time>
      </trkpt>
      <trkpt lat="45.56456" lon="4.77556">
        <ele>341.95</ele>
        <time>2021-08-01T12:50:43Z</time>
      </trkpt>
      <trkpt lat="45.56425" lon="4.77549">
        <ele>343.22</ele>
        <time>2021-08-01T12:50:52Z</time>
      </trkpt>
      <trkpt lat="45.56395" lon="4.77539">
        <ele>344.47</ele>
        <time>2021-08-01T12:51:01Z</time>
      </trkpt>
      <trkpt lat="45.56375" lon="4.77532">
        <ele>345.44</ele>
        <time>2021-08-01T12:51:07Z</time>
      </trkpt>
      <trkpt lat="45.56353" lon="4.77524">
        <ele>346.67</ele>
        <time>2021-08-01T12:51:14Z</time>
      </trkpt>
      <trkpt lat="45.56328" lon="4.7751">
        <ele>347.84</ele>
        <time>2021-08-01T12:51:22Z</time>
      </trkpt>
      <trkpt lat="45.56308" lon="4.77479">
        <ele>349.04</ele>
        <time>2021-08-01T12:51:30Z</time>
      </trkpt>
      <trkpt lat="45.563" lon="4.77446">
        <ele>350.04</ele>
        <time>2021-08-01T12:51:37Z</time>
      </trkpt>
      <trkpt lat="45.56295" lon="4.77405">
        <ele>350.81</ele>
        <time>2021-08-01T12:51:45Z</time>
      </trkpt>
      <trkpt lat="45.56291" lon="4.77364">
        <ele>351.42</ele>
        <time>2021-08-01T12:51:53Z</time>
      </trkpt>
      <trkpt lat="45.56284" lon="4.77321">
        <ele>351.98</ele>
        <time>2021-08-01T12:52:01Z</time>
      </trkpt>
      <trkpt lat="45.56275" lon="4.77291">
        <ele>352.36</ele>
        <time>2021-08-01T12:52:08Z</time>
      </trkpt>
      <trkpt lat="45.56263" lon="4.77267">
        <ele>352.97</ele>
        <time>2021-08-01T12:52:14Z</time>
      </trkpt>
      <trkpt lat="45.56235" lon="4.77236">
        <ele>353.65</ele>
        <time>2021-08-01T12:52:22Z</time>
      </trkpt>
      <trkpt lat="45.56203" lon="4.77218">
        <ele>353.62</ele>
        <time>2021-08-01T12:52:29Z</time>
      </trkpt>
      <trkpt lat="45.56141" lon="4.77207">
        <ele>352.95</ele>
        <time>2021-08-01T12:52:41Z</time>
      </trkpt>
      <trkpt lat="45.56098" lon="4.772">
        <ele>352.22</ele>
        <time>2021-08-01T12:52:49Z</time>
      </trkpt>
      <trkpt lat="45.56058" lon="4.77193">
        <ele>352.28</ele>
        <time>2021-08-01T12:52:57Z</time>
      </trkpt>
      <trkpt lat="45.56017" lon="4.77172">
        <ele>352.91</ele>
        <time>2021-08-01T12:53:06Z</time>
      </trkpt>
      <trkpt lat="45.5599" lon="4.77141">
        <ele>353.82</ele>
        <time>2021-08-01T12:53:14Z</time>
      </trkpt>
      <trkpt lat="45.55969" lon="4.77111">
        <ele>355.44</ele>
        <time>2021-08-01T12:53:22Z</time>
      </trkpt>
      <trkpt lat="45.55954" lon="4.77078">
        <ele>356.56</ele>
        <time>2021-08-01T12:53:30Z</time>
      </trkpt>
      <trkpt lat="45.55943" lon="4.77036">
        <ele>357.26</ele>
        <time>2021-08-01T12:53:38Z</time>
      </trkpt>
      <trkpt lat="45.55939" lon="4.77007">
        <ele>357.97</ele>
        <time>2021-08-01T12:53:45Z</time>
      </trkpt>
      <trkpt lat="45.55937" lon="4.76992">
        <ele>358.73</ele>
        <time>2021-08-01T12:53:50Z</time>
      </trkpt>
      <trkpt lat="45.55937" lon="4.76988">
        <ele>358.97</ele>
        <time>2021-08-01T12:53:51Z</time>
      </trkpt>
      <trkpt lat="45.55937" lon="4.76985">
        <ele>359.31</ele>
        <time>2021-08-01T12:53:52Z</time>
      </trkpt>
      <trkpt lat="45.55937" lon="4.7698">
        <ele>359.58</ele>
        <time>2021-08-01T12:53:53Z</time>
      </trkpt>
      <trkpt lat="45.55937" lon="4.76976">
        <ele>359.76</ele>
        <time>2021-08-01T12:53:54Z</time>
      </trkpt>
      <trkpt lat="45.55936" lon="4.76971">
        <ele>359.85</ele>
        <time>2021-08-01T12:53:55Z</time>
      </trkpt>
      <trkpt lat="45.55935" lon="4.76966">
        <ele>359.91</ele>
        <time>2021-08-01T12:53:56Z</time>
      </trkpt>
      <trkpt lat="45.55935" lon="4.76961">
        <ele>360.03</ele>
        <time>2021-08-01T12:53:57Z</time>
      </trkpt>
      <trkpt lat="45.55935" lon="4.76956">
        <ele>360.12</ele>
        <time>2021-08-01T12:53:58Z</time>
      </trkpt>
      <trkpt lat="45.55934" lon="4.76952">
        <ele>360.18</ele>
        <time>2021-08-01T12:53:59Z</time>
      </trkpt>
      <trkpt lat="45.55931" lon="4.76932">
        <ele>360.38</ele>
        <time>2021-08-01T12:54:03Z</time>
      </trkpt>
      <trkpt lat="45.5593" lon="4.76928">
        <ele>360.47</ele>
        <time>2021-08-01T12:54:04Z</time>
      </trkpt>
      <trkpt lat="45.55925" lon="4.76909">
        <ele>361.09</ele>
        <time>2021-08-01T12:54:08Z</time>
      </trkpt>
      <trkpt lat="45.55913" lon="4.76877">
        <ele>362.18</ele>
        <time>2021-08-01T12:54:15Z</time>
      </trkpt>
      <trkpt lat="45.559" lon="4.76853">
        <ele>362.76</ele>
        <time>2021-08-01T12:54:21Z</time>
      </trkpt>
      <trkpt lat="45.55883" lon="4.76833">
        <ele>363.7</ele>
        <time>2021-08-01T12:54:27Z</time>
      </trkpt>
      <trkpt lat="45.55866" lon="4.76812">
        <ele>364.34</ele>
        <time>2021-08-01T12:54:33Z</time>
      </trkpt>
      <trkpt lat="45.55843" lon="4.76787">
        <ele>365.4</ele>
        <time>2021-08-01T12:54:41Z</time>
      </trkpt>
      <trkpt lat="45.55829" lon="4.76775">
        <ele>365.95</ele>
        <time>2021-08-01T12:54:47Z</time>
      </trkpt>
      <trkpt lat="45.55815" lon="4.76763">
        <ele>366.47</ele>
        <time>2021-08-01T12:54:52Z</time>
      </trkpt>
      <trkpt lat="45.55805" lon="4.76754">
        <ele>366.72</ele>
        <time>2021-08-01T12:54:55Z</time>
      </trkpt>
      <trkpt lat="45.55765" lon="4.7672">
        <ele>366.84</ele>
        <time>2021-08-01T12:55:06Z</time>
      </trkpt>
      <trkpt lat="45.55731" lon="4.76688">
        <ele>366.72</ele>
        <time>2021-08-01T12:55:15Z</time>
      </trkpt>
      <trkpt lat="45.55709" lon="4.76658">
        <ele>366.57</ele>
        <time>2021-08-01T12:55:22Z</time>
      </trkpt>
      <trkpt lat="45.55701" lon="4.76642">
        <ele>366.56</ele>
        <time>2021-08-01T12:55:25Z</time>
      </trkpt>
      <trkpt lat="45.55698" lon="4.76637">
        <ele>366.56</ele>
        <time>2021-08-01T12:55:26Z</time>
      </trkpt>
      <trkpt lat="45.55695" lon="4.76632">
        <ele>366.56</ele>
        <time>2021-08-01T12:55:27Z</time>
      </trkpt>
      <trkpt lat="45.55693" lon="4.76627">
        <ele>366.56</ele>
        <time>2021-08-01T12:55:28Z</time>
      </trkpt>
      <trkpt lat="45.5569" lon="4.76622">
        <ele>366.57</ele>
        <time>2021-08-01T12:55:29Z</time>
      </trkpt>
      <trkpt lat="45.55687" lon="4.76617">
        <ele>366.58</ele>
        <time>2021-08-01T12:55:30Z</time>
      </trkpt>
      <trkpt lat="45.55685" lon="4.76612">
        <ele>366.61</ele>
        <time>2021-08-01T12:55:31Z</time>
      </trkpt>
      <trkpt lat="45.5567" lon="4.76581">
        <ele>367.23</ele>
        <time>2021-08-01T12:55:38Z</time>
      </trkpt>
      <trkpt lat="45.55661" lon="4.76559">
        <ele>367.82</ele>
        <time>2021-08-01T12:55:43Z</time>
      </trkpt>
      <trkpt lat="45.55651" lon="4.76527">
        <ele>369</ele>
        <time>2021-08-01T12:55:50Z</time>
      </trkpt>
      <trkpt lat="45.55644" lon="4.76506">
        <ele>369.6</ele>
        <time>2021-08-01T12:55:55Z</time>
      </trkpt>
      <trkpt lat="45.55643" lon="4.76502">
        <ele>369.72</ele>
        <time>2021-08-01T12:55:56Z</time>
      </trkpt>
      <trkpt lat="45.55641" lon="4.76498">
        <ele>369.8</ele>
        <time>2021-08-01T12:55:57Z</time>
      </trkpt>
      <trkpt lat="45.5564" lon="4.76494">
        <ele>369.96</ele>
        <time>2021-08-01T12:55:58Z</time>
      </trkpt>
      <trkpt lat="45.55639" lon="4.76489">
        <ele>370.18</ele>
        <time>2021-08-01T12:55:59Z</time>
      </trkpt>
      <trkpt lat="45.55638" lon="4.76485">
        <ele>370.29</ele>
        <time>2021-08-01T12:56:00Z</time>
      </trkpt>
      <trkpt lat="45.55637" lon="4.76481">
        <ele>370.55</ele>
        <time>2021-08-01T12:56:01Z</time>
      </trkpt>
      <trkpt lat="45.55636" lon="4.76477">
        <ele>370.87</ele>
        <time>2021-08-01T12:56:02Z</time>
      </trkpt>
      <trkpt lat="45.55635" lon="4.76472">
        <ele>371.09</ele>
        <time>2021-08-01T12:56:03Z</time>
      </trkpt>
      <trkpt lat="45.55633" lon="4.76468">
        <ele>371.24</ele>
        <time>2021-08-01T12:56:04Z</time>
      </trkpt>
      <trkpt lat="45.55633" lon="4.76463">
        <ele>371.36</ele>
        <time>2021-08-01T12:56:05Z</time>
      </trkpt>
      <trkpt lat="45.55625" lon="4.76437">
        <ele>372.37</ele>
        <time>2021-08-01T12:56:11Z</time>
      </trkpt>
      <trkpt lat="45.55612" lon="4.76404">
        <ele>373.55</ele>
        <time>2021-08-01T12:56:19Z</time>
      </trkpt>
      <trkpt lat="45.55596" lon="4.76366">
        <ele>375.25</ele>
        <time>2021-08-01T12:56:28Z</time>
      </trkpt>
      <trkpt lat="45.55575" lon="4.76323">
        <ele>376.89</ele>
        <time>2021-08-01T12:56:38Z</time>
      </trkpt>
      <trkpt lat="45.55561" lon="4.76293">
        <ele>377.83</ele>
        <time>2021-08-01T12:56:46Z</time>
      </trkpt>
      <trkpt lat="45.5555" lon="4.7627">
        <ele>378.35</ele>
        <time>2021-08-01T12:56:52Z</time>
      </trkpt>
      <trkpt lat="45.55525" lon="4.76221">
        <ele>378.42</ele>
        <time>2021-08-01T12:57:03Z</time>
      </trkpt>
      <trkpt lat="45.55503" lon="4.76177">
        <ele>378.07</ele>
        <time>2021-08-01T12:57:11Z</time>
      </trkpt>
      <trkpt lat="45.55469" lon="4.76113">
        <ele>376.29</ele>
        <time>2021-08-01T12:57:21Z</time>
      </trkpt>
      <trkpt lat="45.55427" lon="4.76056">
        <ele>374.37</ele>
        <time>2021-08-01T12:57:30Z</time>
      </trkpt>
      <trkpt lat="45.55409" lon="4.76027">
        <ele>372.92</ele>
        <time>2021-08-01T12:57:35Z</time>
      </trkpt>
      <trkpt lat="45.55384" lon="4.75988">
        <ele>373.02</ele>
        <time>2021-08-01T12:57:44Z</time>
      </trkpt>
      <trkpt lat="45.55381" lon="4.75985">
        <ele>373.46</ele>
        <time>2021-08-01T12:57:45Z</time>
      </trkpt>
      <trkpt lat="45.5537" lon="4.75978">
        <ele>374.69</ele>
        <time>2021-08-01T12:57:48Z</time>
      </trkpt>
      <trkpt lat="45.55343" lon="4.75975">
        <ele>377.23</ele>
        <time>2021-08-01T12:57:55Z</time>
      </trkpt>
      <trkpt lat="45.55324" lon="4.7598">
        <ele>378.85</ele>
        <time>2021-08-01T12:58:00Z</time>
      </trkpt>
      <trkpt lat="45.55302" lon="4.75985">
        <ele>380.13</ele>
        <time>2021-08-01T12:58:06Z</time>
      </trkpt>
      <trkpt lat="45.55273" lon="4.75985">
        <ele>381.46</ele>
        <time>2021-08-01T12:58:14Z</time>
      </trkpt>
      <trkpt lat="45.55237" lon="4.75971">
        <ele>383.03</ele>
        <time>2021-08-01T12:58:24Z</time>
      </trkpt>
      <trkpt lat="45.5521" lon="4.75943">
        <ele>384.74</ele>
        <time>2021-08-01T12:58:33Z</time>
      </trkpt>
      <trkpt lat="45.55188" lon="4.75908">
        <ele>386.1</ele>
        <time>2021-08-01T12:58:42Z</time>
      </trkpt>
      <trkpt lat="45.55171" lon="4.75884">
        <ele>387.37</ele>
        <time>2021-08-01T12:58:49Z</time>
      </trkpt>
      <trkpt lat="45.5515" lon="4.7586">
        <ele>389.61</ele>
        <time>2021-08-01T12:58:57Z</time>
      </trkpt>
      <trkpt lat="45.55135" lon="4.75849">
        <ele>390.62</ele>
        <time>2021-08-01T12:59:02Z</time>
      </trkpt>
      <trkpt lat="45.55126" lon="4.75838">
        <ele>391.18</ele>
        <time>2021-08-01T12:59:06Z</time>
      </trkpt>
      <trkpt lat="45.55123" lon="4.75836">
        <ele>391.35</ele>
        <time>2021-08-01T12:59:07Z</time>
      </trkpt>
      <trkpt lat="45.55109" lon="4.75823">
        <ele>392.05</ele>
        <time>2021-08-01T12:59:12Z</time>
      </trkpt>
      <trkpt lat="45.5509" lon="4.75799">
        <ele>393.3</ele>
        <time>2021-08-01T12:59:19Z</time>
      </trkpt>
      <trkpt lat="45.55073" lon="4.75762">
        <ele>394.71</ele>
        <time>2021-08-01T12:59:28Z</time>
      </trkpt>
      <trkpt lat="45.55062" lon="4.75725">
        <ele>396.37</ele>
        <time>2021-08-01T12:59:37Z</time>
      </trkpt>
      <trkpt lat="45.55059" lon="4.75692">
        <ele>398.21</ele>
        <time>2021-08-01T12:59:45Z</time>
      </trkpt>
      <trkpt lat="45.55057" lon="4.75669">
        <ele>399.19</ele>
        <time>2021-08-01T12:59:51Z</time>
      </trkpt>
      <trkpt lat="45.55055" lon="4.75652">
        <ele>399.82</ele>
        <time>2021-08-01T12:59:55Z</time>
      </trkpt>
      <trkpt lat="45.55054" lon="4.75649">
        <ele>400.1</ele>
        <time>2021-08-01T12:59:56Z</time>
      </trkpt>
      <trkpt lat="45.55054" lon="4.75644">
        <ele>400.28</ele>
        <time>2021-08-01T12:59:57Z</time>
      </trkpt>
      <trkpt lat="45.55053" lon="4.75641">
        <ele>400.4</ele>
        <time>2021-08-01T12:59:58Z</time>
      </trkpt>
      <trkpt lat="45.55052" lon="4.75637">
        <ele>400.49</ele>
        <time>2021-08-01T12:59:59Z</time>
      </trkpt>
      <trkpt lat="45.55047" lon="4.7561">
        <ele>401.66</ele>
        <time>2021-08-01T13:00:05Z</time>
      </trkpt>
      <trkpt lat="45.55046" lon="4.75606">
        <ele>401.93</ele>
        <time>2021-08-01T13:00:06Z</time>
      </trkpt>
      <trkpt lat="45.55045" lon="4.75602">
        <ele>402.13</ele>
        <time>2021-08-01T13:00:07Z</time>
      </trkpt>
      <trkpt lat="45.55044" lon="4.75598">
        <ele>402.27</ele>
        <time>2021-08-01T13:00:08Z</time>
      </trkpt>
      <trkpt lat="45.55043" lon="4.75595">
        <ele>402.38</ele>
        <time>2021-08-01T13:00:09Z</time>
      </trkpt>
      <trkpt lat="45.55041" lon="4.7559">
        <ele>402.44</ele>
        <time>2021-08-01T13:00:10Z</time>
      </trkpt>
      <trkpt lat="45.55041" lon="4.75586">
        <ele>402.54</ele>
        <time>2021-08-01T13:00:11Z</time>
      </trkpt>
      <trkpt lat="45.5504" lon="4.75582">
        <ele>402.61</ele>
        <time>2021-08-01T13:00:12Z</time>
      </trkpt>
      <trkpt lat="45.55039" lon="4.75577">
        <ele>402.67</ele>
        <time>2021-08-01T13:00:13Z</time>
      </trkpt>
      <trkpt lat="45.55034" lon="4.75544">
        <ele>404.37</ele>
        <time>2021-08-01T13:00:20Z</time>
      </trkpt>
      <trkpt lat="45.55035" lon="4.75511">
        <ele>405.18</ele>
        <time>2021-08-01T13:00:27Z</time>
      </trkpt>
      <trkpt lat="45.55039" lon="4.75482">
        <ele>406.59</ele>
        <time>2021-08-01T13:00:34Z</time>
      </trkpt>
      <trkpt lat="45.5504" lon="4.75478">
        <ele>406.85</ele>
        <time>2021-08-01T13:00:35Z</time>
      </trkpt>
      <trkpt lat="45.5504" lon="4.75474">
        <ele>406.94</ele>
        <time>2021-08-01T13:00:36Z</time>
      </trkpt>
      <trkpt lat="45.55041" lon="4.75469">
        <ele>407.01</ele>
        <time>2021-08-01T13:00:37Z</time>
      </trkpt>
      <trkpt lat="45.55041" lon="4.75465">
        <ele>407.12</ele>
        <time>2021-08-01T13:00:38Z</time>
      </trkpt>
      <trkpt lat="45.55041" lon="4.75461">
        <ele>407.27</ele>
        <time>2021-08-01T13:00:39Z</time>
      </trkpt>
      <trkpt lat="45.55041" lon="4.75457">
        <ele>407.37</ele>
        <time>2021-08-01T13:00:40Z</time>
      </trkpt>
      <trkpt lat="45.55041" lon="4.75452">
        <ele>407.49</ele>
        <time>2021-08-01T13:00:41Z</time>
      </trkpt>
      <trkpt lat="45.55041" lon="4.75448">
        <ele>407.65</ele>
        <time>2021-08-01T13:00:42Z</time>
      </trkpt>
      <trkpt lat="45.55041" lon="4.75443">
        <ele>407.85</ele>
        <time>2021-08-01T13:00:43Z</time>
      </trkpt>
      <trkpt lat="45.55041" lon="4.75439">
        <ele>408.04</ele>
        <time>2021-08-01T13:00:44Z</time>
      </trkpt>
      <trkpt lat="45.5504" lon="4.75434">
        <ele>408.24</ele>
        <time>2021-08-01T13:00:45Z</time>
      </trkpt>
      <trkpt lat="45.55039" lon="4.7543">
        <ele>408.34</ele>
        <time>2021-08-01T13:00:46Z</time>
      </trkpt>
      <trkpt lat="45.55035" lon="4.75408">
        <ele>409.86</ele>
        <time>2021-08-01T13:00:51Z</time>
      </trkpt>
      <trkpt lat="45.55034" lon="4.75404">
        <ele>410.13</ele>
        <time>2021-08-01T13:00:52Z</time>
      </trkpt>
      <trkpt lat="45.55033" lon="4.75401">
        <ele>410.4</ele>
        <time>2021-08-01T13:00:53Z</time>
      </trkpt>
      <trkpt lat="45.55032" lon="4.75398">
        <ele>410.58</ele>
        <time>2021-08-01T13:00:54Z</time>
      </trkpt>
      <trkpt lat="45.55031" lon="4.75395">
        <ele>410.77</ele>
        <time>2021-08-01T13:00:55Z</time>
      </trkpt>
      <trkpt lat="45.5503" lon="4.75392">
        <ele>410.89</ele>
        <time>2021-08-01T13:00:56Z</time>
      </trkpt>
      <trkpt lat="45.55028" lon="4.7539">
        <ele>411.01</ele>
        <time>2021-08-01T13:00:57Z</time>
      </trkpt>
      <trkpt lat="45.55025" lon="4.75388">
        <ele>411.22</ele>
        <time>2021-08-01T13:00:58Z</time>
      </trkpt>
      <trkpt lat="45.55024" lon="4.75384">
        <ele>411.35</ele>
        <time>2021-08-01T13:00:59Z</time>
      </trkpt>
      <trkpt lat="45.55022" lon="4.75381">
        <ele>411.52</ele>
        <time>2021-08-01T13:01:00Z</time>
      </trkpt>
      <trkpt lat="45.55014" lon="4.75368">
        <ele>412.62</ele>
        <time>2021-08-01T13:01:04Z</time>
      </trkpt>
      <trkpt lat="45.55012" lon="4.75366">
        <ele>412.71</ele>
        <time>2021-08-01T13:01:05Z</time>
      </trkpt>
      <trkpt lat="45.5501" lon="4.75363">
        <ele>412.9</ele>
        <time>2021-08-01T13:01:06Z</time>
      </trkpt>
      <trkpt lat="45.55007" lon="4.7536">
        <ele>413.06</ele>
        <time>2021-08-01T13:01:07Z</time>
      </trkpt>
      <trkpt lat="45.55005" lon="4.75358">
        <ele>413.14</ele>
        <time>2021-08-01T13:01:08Z</time>
      </trkpt>
      <trkpt lat="45.55002" lon="4.75355">
        <ele>413.26</ele>
        <time>2021-08-01T13:01:09Z</time>
      </trkpt>
      <trkpt lat="45.55" lon="4.75352">
        <ele>413.4</ele>
        <time>2021-08-01T13:01:10Z</time>
      </trkpt>
      <trkpt lat="45.54997" lon="4.75351">
        <ele>413.54</ele>
        <time>2021-08-01T13:01:11Z</time>
      </trkpt>
      <trkpt lat="45.54995" lon="4.75349">
        <ele>413.65</ele>
        <time>2021-08-01T13:01:12Z</time>
      </trkpt>
      <trkpt lat="45.54992" lon="4.75346">
        <ele>413.82</ele>
        <time>2021-08-01T13:01:13Z</time>
      </trkpt>
      <trkpt lat="45.54979" lon="4.75337">
        <ele>414.71</ele>
        <time>2021-08-01T13:01:18Z</time>
      </trkpt>
      <trkpt lat="45.54971" lon="4.75332">
        <ele>415.26</ele>
        <time>2021-08-01T13:01:21Z</time>
      </trkpt>
      <trkpt lat="45.54968" lon="4.75331">
        <ele>415.43</ele>
        <time>2021-08-01T13:01:22Z</time>
      </trkpt>
      <trkpt lat="45.54965" lon="4.75329">
        <ele>415.54</ele>
        <time>2021-08-01T13:01:23Z</time>
      </trkpt>
      <trkpt lat="45.54962" lon="4.75328">
        <ele>415.71</ele>
        <time>2021-08-01T13:01:24Z</time>
      </trkpt>
      <trkpt lat="45.54959" lon="4.75328">
        <ele>415.8</ele>
        <time>2021-08-01T13:01:25Z</time>
      </trkpt>
      <trkpt lat="45.5495" lon="4.75325">
        <ele>416.23</ele>
        <time>2021-08-01T13:01:28Z</time>
      </trkpt>
      <trkpt lat="45.54946" lon="4.75325">
        <ele>416.35</ele>
        <time>2021-08-01T13:01:29Z</time>
      </trkpt>
      <trkpt lat="45.54943" lon="4.75324">
        <ele>416.52</ele>
        <time>2021-08-01T13:01:30Z</time>
      </trkpt>
      <trkpt lat="45.5494" lon="4.75324">
        <ele>416.64</ele>
        <time>2021-08-01T13:01:31Z</time>
      </trkpt>
      <trkpt lat="45.54936" lon="4.75324">
        <ele>416.72</ele>
        <time>2021-08-01T13:01:32Z</time>
      </trkpt>
      <trkpt lat="45.54933" lon="4.75324">
        <ele>416.84</ele>
        <time>2021-08-01T13:01:33Z</time>
      </trkpt>
      <trkpt lat="45.54929" lon="4.75323">
        <ele>416.91</ele>
        <time>2021-08-01T13:01:34Z</time>
      </trkpt>
      <trkpt lat="45.54917" lon="4.75322">
        <ele>417.25</ele>
        <time>2021-08-01T13:01:38Z</time>
      </trkpt>
      <trkpt lat="45.54913" lon="4.75323">
        <ele>417.37</ele>
        <time>2021-08-01T13:01:39Z</time>
      </trkpt>
      <trkpt lat="45.54909" lon="4.75323">
        <ele>417.42</ele>
        <time>2021-08-01T13:01:40Z</time>
      </trkpt>
      <trkpt lat="45.54906" lon="4.75322">
        <ele>417.55</ele>
        <time>2021-08-01T13:01:41Z</time>
      </trkpt>
      <trkpt lat="45.54902" lon="4.75322">
        <ele>417.68</ele>
        <time>2021-08-01T13:01:42Z</time>
      </trkpt>
      <trkpt lat="45.54884" lon="4.7532">
        <ele>418.04</ele>
        <time>2021-08-01T13:01:47Z</time>
      </trkpt>
      <trkpt lat="45.54869" lon="4.75319">
        <ele>418.29</ele>
        <time>2021-08-01T13:01:51Z</time>
      </trkpt>
      <trkpt lat="45.54844" lon="4.75318">
        <ele>419.13</ele>
        <time>2021-08-01T13:01:58Z</time>
      </trkpt>
      <trkpt lat="45.54806" lon="4.75311">
        <ele>420.33</ele>
        <time>2021-08-01T13:02:08Z</time>
      </trkpt>
      <trkpt lat="45.54776" lon="4.753">
        <ele>420.7</ele>
        <time>2021-08-01T13:02:16Z</time>
      </trkpt>
      <trkpt lat="45.54772" lon="4.75297">
        <ele>420.71</ele>
        <time>2021-08-01T13:02:17Z</time>
      </trkpt>
      <trkpt lat="45.54734" lon="4.75266">
        <ele>420.87</ele>
        <time>2021-08-01T13:02:27Z</time>
      </trkpt>
      <trkpt lat="45.54716" lon="4.75248">
        <ele>420.96</ele>
        <time>2021-08-01T13:02:32Z</time>
      </trkpt>
      <trkpt lat="45.54701" lon="4.75228">
        <ele>420.96</ele>
        <time>2021-08-01T13:02:37Z</time>
      </trkpt>
      <trkpt lat="45.54697" lon="4.75218">
        <ele>420.97</ele>
        <time>2021-08-01T13:02:39Z</time>
      </trkpt>
      <trkpt lat="45.54695" lon="4.75213">
        <ele>420.98</ele>
        <time>2021-08-01T13:02:40Z</time>
      </trkpt>
      <trkpt lat="45.54692" lon="4.75207">
        <ele>420.98</ele>
        <time>2021-08-01T13:02:41Z</time>
      </trkpt>
      <trkpt lat="45.54688" lon="4.75189">
        <ele>420.98</ele>
        <time>2021-08-01T13:02:44Z</time>
      </trkpt>
      <trkpt lat="45.54677" lon="4.75134">
        <ele>422.12</ele>
        <time>2021-08-01T13:02:53Z</time>
      </trkpt>
      <trkpt lat="45.54675" lon="4.75128">
        <ele>422.18</ele>
        <time>2021-08-01T13:02:54Z</time>
      </trkpt>
      <trkpt lat="45.54672" lon="4.75123">
        <ele>422.22</ele>
        <time>2021-08-01T13:02:55Z</time>
      </trkpt>
      <trkpt lat="45.54666" lon="4.75113">
        <ele>422.25</ele>
        <time>2021-08-01T13:02:57Z</time>
      </trkpt>
      <trkpt lat="45.54659" lon="4.75104">
        <ele>422.28</ele>
        <time>2021-08-01T13:02:59Z</time>
      </trkpt>
      <trkpt lat="45.54655" lon="4.751">
        <ele>422.3</ele>
        <time>2021-08-01T13:03:00Z</time>
      </trkpt>
      <trkpt lat="45.54646" lon="4.75094">
        <ele>422.35</ele>
        <time>2021-08-01T13:03:02Z</time>
      </trkpt>
      <trkpt lat="45.54642" lon="4.75091">
        <ele>422.37</ele>
        <time>2021-08-01T13:03:03Z</time>
      </trkpt>
      <trkpt lat="45.54593" lon="4.75068">
        <ele>423.25</ele>
        <time>2021-08-01T13:03:13Z</time>
      </trkpt>
      <trkpt lat="45.5457" lon="4.75047">
        <ele>423.33</ele>
        <time>2021-08-01T13:03:18Z</time>
      </trkpt>
      <trkpt lat="45.54566" lon="4.75041">
        <ele>423.33</ele>
        <time>2021-08-01T13:03:19Z</time>
      </trkpt>
      <trkpt lat="45.54556" lon="4.75025">
        <ele>423.33</ele>
        <time>2021-08-01T13:03:22Z</time>
      </trkpt>
      <trkpt lat="45.54545" lon="4.74992">
        <ele>423.5</ele>
        <time>2021-08-01T13:03:28Z</time>
      </trkpt>
      <trkpt lat="45.54543" lon="4.74987">
        <ele>423.58</ele>
        <time>2021-08-01T13:03:29Z</time>
      </trkpt>
      <trkpt lat="45.54534" lon="4.74956">
        <ele>424.21</ele>
        <time>2021-08-01T13:03:34Z</time>
      </trkpt>
      <trkpt lat="45.5452" lon="4.74917">
        <ele>424.54</ele>
        <time>2021-08-01T13:03:40Z</time>
      </trkpt>
      <trkpt lat="45.54517" lon="4.74855">
        <ele>424.91</ele>
        <time>2021-08-01T13:03:48Z</time>
      </trkpt>
      <trkpt lat="45.54519" lon="4.74847">
        <ele>425</ele>
        <time>2021-08-01T13:03:49Z</time>
      </trkpt>
      <trkpt lat="45.5452" lon="4.74839">
        <ele>425.05</ele>
        <time>2021-08-01T13:03:50Z</time>
      </trkpt>
      <trkpt lat="45.54536" lon="4.74791">
        <ele>425.41</ele>
        <time>2021-08-01T13:03:57Z</time>
      </trkpt>
      <trkpt lat="45.54541" lon="4.74774">
        <ele>425.76</ele>
        <time>2021-08-01T13:04:00Z</time>
      </trkpt>
      <trkpt lat="45.54545" lon="4.74746">
        <ele>426.46</ele>
        <time>2021-08-01T13:04:05Z</time>
      </trkpt>
      <trkpt lat="45.54545" lon="4.7474">
        <ele>426.54</ele>
        <time>2021-08-01T13:04:06Z</time>
      </trkpt>
      <trkpt lat="45.54545" lon="4.74734">
        <ele>426.58</ele>
        <time>2021-08-01T13:04:07Z</time>
      </trkpt>
      <trkpt lat="45.54545" lon="4.74727">
        <ele>426.6</ele>
        <time>2021-08-01T13:04:08Z</time>
      </trkpt>
      <trkpt lat="45.54544" lon="4.74721">
        <ele>426.62</ele>
        <time>2021-08-01T13:04:09Z</time>
      </trkpt>
      <trkpt lat="45.54543" lon="4.74714">
        <ele>426.64</ele>
        <time>2021-08-01T13:04:10Z</time>
      </trkpt>
      <trkpt lat="45.54541" lon="4.74708">
        <ele>426.66</ele>
        <time>2021-08-01T13:04:11Z</time>
      </trkpt>
      <trkpt lat="45.54539" lon="4.74701">
        <ele>426.7</ele>
        <time>2021-08-01T13:04:12Z</time>
      </trkpt>
      <trkpt lat="45.54533" lon="4.74689">
        <ele>426.73</ele>
        <time>2021-08-01T13:04:14Z</time>
      </trkpt>
      <trkpt lat="45.5453" lon="4.74683">
        <ele>426.76</ele>
        <time>2021-08-01T13:04:15Z</time>
      </trkpt>
      <trkpt lat="45.54522" lon="4.74672">
        <ele>426.79</ele>
        <time>2021-08-01T13:04:17Z</time>
      </trkpt>
      <trkpt lat="45.54518" lon="4.74668">
        <ele>426.82</ele>
        <time>2021-08-01T13:04:18Z</time>
      </trkpt>
      <trkpt lat="45.54513" lon="4.74664">
        <ele>426.83</ele>
        <time>2021-08-01T13:04:19Z</time>
      </trkpt>
      <trkpt lat="45.5449" lon="4.74651">
        <ele>426.87</ele>
        <time>2021-08-01T13:04:24Z</time>
      </trkpt>
      <trkpt lat="45.54486" lon="4.74651">
        <ele>426.91</ele>
        <time>2021-08-01T13:04:25Z</time>
      </trkpt>
      <trkpt lat="45.54482" lon="4.74651">
        <ele>426.93</ele>
        <time>2021-08-01T13:04:26Z</time>
      </trkpt>
      <trkpt lat="45.54478" lon="4.74651">
        <ele>426.98</ele>
        <time>2021-08-01T13:04:27Z</time>
      </trkpt>
      <trkpt lat="45.54474" lon="4.74652">
        <ele>426.98</ele>
        <time>2021-08-01T13:04:28Z</time>
      </trkpt>
      <trkpt lat="45.54469" lon="4.74653">
        <ele>427</ele>
        <time>2021-08-01T13:04:29Z</time>
      </trkpt>
      <trkpt lat="45.54461" lon="4.74656">
        <ele>427.28</ele>
        <time>2021-08-01T13:04:31Z</time>
      </trkpt>
      <trkpt lat="45.54456" lon="4.74657">
        <ele>427.38</ele>
        <time>2021-08-01T13:04:32Z</time>
      </trkpt>
      <trkpt lat="45.54446" lon="4.74659">
        <ele>427.5</ele>
        <time>2021-08-01T13:04:34Z</time>
      </trkpt>
      <trkpt lat="45.54442" lon="4.74659">
        <ele>427.54</ele>
        <time>2021-08-01T13:04:35Z</time>
      </trkpt>
      <trkpt lat="45.54402" lon="4.74648">
        <ele>427.8</ele>
        <time>2021-08-01T13:04:43Z</time>
      </trkpt>
      <trkpt lat="45.54366" lon="4.74627">
        <ele>428.05</ele>
        <time>2021-08-01T13:04:51Z</time>
      </trkpt>
      <trkpt lat="45.54345" lon="4.74606">
        <ele>428.9</ele>
        <time>2021-08-01T13:04:58Z</time>
      </trkpt>
      <trkpt lat="45.54343" lon="4.74602">
        <ele>429</ele>
        <time>2021-08-01T13:04:59Z</time>
      </trkpt>
      <trkpt lat="45.5434" lon="4.74597">
        <ele>429.09</ele>
        <time>2021-08-01T13:05:00Z</time>
      </trkpt>
      <trkpt lat="45.54338" lon="4.74592">
        <ele>429.17</ele>
        <time>2021-08-01T13:05:01Z</time>
      </trkpt>
      <trkpt lat="45.54335" lon="4.74586">
        <ele>429.22</ele>
        <time>2021-08-01T13:05:02Z</time>
      </trkpt>
      <trkpt lat="45.54333" lon="4.74581">
        <ele>429.3</ele>
        <time>2021-08-01T13:05:03Z</time>
      </trkpt>
      <trkpt lat="45.5433" lon="4.74575">
        <ele>429.37</ele>
        <time>2021-08-01T13:05:04Z</time>
      </trkpt>
      <trkpt lat="45.54316" lon="4.74547">
        <ele>429.51</ele>
        <time>2021-08-01T13:05:09Z</time>
      </trkpt>
      <trkpt lat="45.54282" lon="4.74507">
        <ele>429.55</ele>
        <time>2021-08-01T13:05:18Z</time>
      </trkpt>
      <trkpt lat="45.54254" lon="4.74479">
        <ele>429.81</ele>
        <time>2021-08-01T13:05:26Z</time>
      </trkpt>
      <trkpt lat="45.5425" lon="4.74476">
        <ele>429.89</ele>
        <time>2021-08-01T13:05:27Z</time>
      </trkpt>
      <trkpt lat="45.54246" lon="4.74473">
        <ele>429.94</ele>
        <time>2021-08-01T13:05:28Z</time>
      </trkpt>
      <trkpt lat="45.54243" lon="4.74469">
        <ele>430.14</ele>
        <time>2021-08-01T13:05:29Z</time>
      </trkpt>
      <trkpt lat="45.54239" lon="4.74466">
        <ele>430.24</ele>
        <time>2021-08-01T13:05:30Z</time>
      </trkpt>
      <trkpt lat="45.54197" lon="4.74432">
        <ele>430.39</ele>
        <time>2021-08-01T13:05:39Z</time>
      </trkpt>
      <trkpt lat="45.54146" lon="4.74398">
        <ele>428.78</ele>
        <time>2021-08-01T13:05:48Z</time>
      </trkpt>
      <trkpt lat="45.54092" lon="4.74371">
        <ele>426.62</ele>
        <time>2021-08-01T13:05:56Z</time>
      </trkpt>
      <trkpt lat="45.54021" lon="4.74356">
        <ele>424.74</ele>
        <time>2021-08-01T13:06:05Z</time>
      </trkpt>
      <trkpt lat="45.53958" lon="4.74342">
        <ele>422.35</ele>
        <time>2021-08-01T13:06:13Z</time>
      </trkpt>
      <trkpt lat="45.53899" lon="4.74332">
        <ele>421.16</ele>
        <time>2021-08-01T13:06:21Z</time>
      </trkpt>
      <trkpt lat="45.53846" lon="4.74334">
        <ele>421.12</ele>
        <time>2021-08-01T13:06:29Z</time>
      </trkpt>
      <trkpt lat="45.53802" lon="4.74343">
        <ele>421.99</ele>
        <time>2021-08-01T13:06:37Z</time>
      </trkpt>
      <trkpt lat="45.53781" lon="4.74348">
        <ele>422.14</ele>
        <time>2021-08-01T13:06:41Z</time>
      </trkpt>
      <trkpt lat="45.53734" lon="4.74368">
        <ele>422.55</ele>
        <time>2021-08-01T13:06:50Z</time>
      </trkpt>
      <trkpt lat="45.53699" lon="4.74385">
        <ele>423.22</ele>
        <time>2021-08-01T13:06:58Z</time>
      </trkpt>
      <trkpt lat="45.5366" lon="4.74404">
        <ele>425.2</ele>
        <time>2021-08-01T13:07:08Z</time>
      </trkpt>
      <trkpt lat="45.53626" lon="4.74424">
        <ele>426.45</ele>
        <time>2021-08-01T13:07:17Z</time>
      </trkpt>
      <trkpt lat="45.53591" lon="4.74447">
        <ele>427.7</ele>
        <time>2021-08-01T13:07:27Z</time>
      </trkpt>
      <trkpt lat="45.53565" lon="4.74465">
        <ele>428.61</ele>
        <time>2021-08-01T13:07:35Z</time>
      </trkpt>
      <trkpt lat="45.53539" lon="4.74479">
        <ele>429.62</ele>
        <time>2021-08-01T13:07:43Z</time>
      </trkpt>
      <trkpt lat="45.53508" lon="4.7449">
        <ele>431.22</ele>
        <time>2021-08-01T13:07:52Z</time>
      </trkpt>
      <trkpt lat="45.53488" lon="4.74479">
        <ele>432.05</ele>
        <time>2021-08-01T13:07:58Z</time>
      </trkpt>
      <trkpt lat="45.5348" lon="4.74456">
        <ele>432.37</ele>
        <time>2021-08-01T13:08:03Z</time>
      </trkpt>
      <trkpt lat="45.53484" lon="4.74422">
        <ele>432.98</ele>
        <time>2021-08-01T13:08:10Z</time>
      </trkpt>
      <trkpt lat="45.53501" lon="4.74375">
        <ele>435.08</ele>
        <time>2021-08-01T13:08:21Z</time>
      </trkpt>
      <trkpt lat="45.53501" lon="4.74344">
        <ele>436.4</ele>
        <time>2021-08-01T13:08:28Z</time>
      </trkpt>
      <trkpt lat="45.535" lon="4.7434">
        <ele>436.68</ele>
        <time>2021-08-01T13:08:29Z</time>
      </trkpt>
      <trkpt lat="45.53499" lon="4.74336">
        <ele>436.91</ele>
        <time>2021-08-01T13:08:30Z</time>
      </trkpt>
      <trkpt lat="45.53498" lon="4.74332">
        <ele>437.09</ele>
        <time>2021-08-01T13:08:31Z</time>
      </trkpt>
      <trkpt lat="45.53497" lon="4.74329">
        <ele>437.28</ele>
        <time>2021-08-01T13:08:32Z</time>
      </trkpt>
      <trkpt lat="45.53495" lon="4.74325">
        <ele>437.45</ele>
        <time>2021-08-01T13:08:33Z</time>
      </trkpt>
      <trkpt lat="45.53494" lon="4.7432">
        <ele>437.62</ele>
        <time>2021-08-01T13:08:34Z</time>
      </trkpt>
      <trkpt lat="45.53493" lon="4.74316">
        <ele>437.81</ele>
        <time>2021-08-01T13:08:35Z</time>
      </trkpt>
      <trkpt lat="45.53491" lon="4.74312">
        <ele>437.98</ele>
        <time>2021-08-01T13:08:36Z</time>
      </trkpt>
      <trkpt lat="45.5349" lon="4.74308">
        <ele>438.08</ele>
        <time>2021-08-01T13:08:37Z</time>
      </trkpt>
      <trkpt lat="45.53487" lon="4.74304">
        <ele>438.14</ele>
        <time>2021-08-01T13:08:38Z</time>
      </trkpt>
      <trkpt lat="45.53485" lon="4.74301">
        <ele>438.2</ele>
        <time>2021-08-01T13:08:39Z</time>
      </trkpt>
      <trkpt lat="45.53483" lon="4.74297">
        <ele>438.39</ele>
        <time>2021-08-01T13:08:40Z</time>
      </trkpt>
      <trkpt lat="45.53461" lon="4.74267">
        <ele>439.88</ele>
        <time>2021-08-01T13:08:49Z</time>
      </trkpt>
      <trkpt lat="45.53447" lon="4.74253">
        <ele>440.54</ele>
        <time>2021-08-01T13:08:54Z</time>
      </trkpt>
      <trkpt lat="45.53444" lon="4.74252">
        <ele>440.65</ele>
        <time>2021-08-01T13:08:55Z</time>
      </trkpt>
      <trkpt lat="45.53441" lon="4.7425">
        <ele>440.74</ele>
        <time>2021-08-01T13:08:56Z</time>
      </trkpt>
      <trkpt lat="45.53438" lon="4.74248">
        <ele>440.94</ele>
        <time>2021-08-01T13:08:57Z</time>
      </trkpt>
      <trkpt lat="45.53435" lon="4.74246">
        <ele>441.09</ele>
        <time>2021-08-01T13:08:58Z</time>
      </trkpt>
      <trkpt lat="45.53432" lon="4.74244">
        <ele>441.21</ele>
        <time>2021-08-01T13:08:59Z</time>
      </trkpt>
      <trkpt lat="45.53429" lon="4.74242">
        <ele>441.33</ele>
        <time>2021-08-01T13:09:00Z</time>
      </trkpt>
      <trkpt lat="45.53426" lon="4.7424">
        <ele>441.47</ele>
        <time>2021-08-01T13:09:01Z</time>
      </trkpt>
      <trkpt lat="45.53422" lon="4.74238">
        <ele>441.6</ele>
        <time>2021-08-01T13:09:02Z</time>
      </trkpt>
      <trkpt lat="45.53406" lon="4.74228">
        <ele>442.54</ele>
        <time>2021-08-01T13:09:07Z</time>
      </trkpt>
      <trkpt lat="45.534" lon="4.74226">
        <ele>442.77</ele>
        <time>2021-08-01T13:09:09Z</time>
      </trkpt>
      <trkpt lat="45.53396" lon="4.74224">
        <ele>442.88</ele>
        <time>2021-08-01T13:09:10Z</time>
      </trkpt>
      <trkpt lat="45.53393" lon="4.74224">
        <ele>443.09</ele>
        <time>2021-08-01T13:09:11Z</time>
      </trkpt>
      <trkpt lat="45.53389" lon="4.74223">
        <ele>443.21</ele>
        <time>2021-08-01T13:09:12Z</time>
      </trkpt>
      <trkpt lat="45.53386" lon="4.74222">
        <ele>443.34</ele>
        <time>2021-08-01T13:09:13Z</time>
      </trkpt>
      <trkpt lat="45.53382" lon="4.74221">
        <ele>443.39</ele>
        <time>2021-08-01T13:09:14Z</time>
      </trkpt>
      <trkpt lat="45.53379" lon="4.7422">
        <ele>443.46</ele>
        <time>2021-08-01T13:09:15Z</time>
      </trkpt>
      <trkpt lat="45.53357" lon="4.74217">
        <ele>444.27</ele>
        <time>2021-08-01T13:09:21Z</time>
      </trkpt>
      <trkpt lat="45.53332" lon="4.74226">
        <ele>445.46</ele>
        <time>2021-08-01T13:09:28Z</time>
      </trkpt>
      <trkpt lat="45.5331" lon="4.74244">
        <ele>446.47</ele>
        <time>2021-08-01T13:09:35Z</time>
      </trkpt>
      <trkpt lat="45.53292" lon="4.74262">
        <ele>447.22</ele>
        <time>2021-08-01T13:09:41Z</time>
      </trkpt>
      <trkpt lat="45.53264" lon="4.74293">
        <ele>448.98</ele>
        <time>2021-08-01T13:09:51Z</time>
      </trkpt>
      <trkpt lat="45.53246" lon="4.74314">
        <ele>450.42</ele>
        <time>2021-08-01T13:09:58Z</time>
      </trkpt>
      <trkpt lat="45.53219" lon="4.7434">
        <ele>451.6</ele>
        <time>2021-08-01T13:10:07Z</time>
      </trkpt>
      <trkpt lat="45.53187" lon="4.74353">
        <ele>452.21</ele>
        <time>2021-08-01T13:10:16Z</time>
      </trkpt>
      <trkpt lat="45.53158" lon="4.74349">
        <ele>453.27</ele>
        <time>2021-08-01T13:10:24Z</time>
      </trkpt>
      <trkpt lat="45.53134" lon="4.74334">
        <ele>453.84</ele>
        <time>2021-08-01T13:10:31Z</time>
      </trkpt>
      <trkpt lat="45.53103" lon="4.7431">
        <ele>454.65</ele>
        <time>2021-08-01T13:10:40Z</time>
      </trkpt>
      <trkpt lat="45.53096" lon="4.74303">
        <ele>454.87</ele>
        <time>2021-08-01T13:10:42Z</time>
      </trkpt>
      <trkpt lat="45.53088" lon="4.74297">
        <ele>454.92</ele>
        <time>2021-08-01T13:10:44Z</time>
      </trkpt>
      <trkpt lat="45.53059" lon="4.74265">
        <ele>454.92</ele>
        <time>2021-08-01T13:10:52Z</time>
      </trkpt>
      <trkpt lat="45.53036" lon="4.74227">
        <ele>455.04</ele>
        <time>2021-08-01T13:11:01Z</time>
      </trkpt>
      <trkpt lat="45.53016" lon="4.74211">
        <ele>456.35</ele>
        <time>2021-08-01T13:11:07Z</time>
      </trkpt>
      <trkpt lat="45.52999" lon="4.74203">
        <ele>457.13</ele>
        <time>2021-08-01T13:11:12Z</time>
      </trkpt>
      <trkpt lat="45.52978" lon="4.74195">
        <ele>458.38</ele>
        <time>2021-08-01T13:11:18Z</time>
      </trkpt>
      <trkpt lat="45.52944" lon="4.74179">
        <ele>459.88</ele>
        <time>2021-08-01T13:11:28Z</time>
      </trkpt>
      <trkpt lat="45.52923" lon="4.74151">
        <ele>460.84</ele>
        <time>2021-08-01T13:11:36Z</time>
      </trkpt>
      <trkpt lat="45.52909" lon="4.74127">
        <ele>462.03</ele>
        <time>2021-08-01T13:11:43Z</time>
      </trkpt>
      <trkpt lat="45.52899" lon="4.7411">
        <ele>463.3</ele>
        <time>2021-08-01T13:11:48Z</time>
      </trkpt>
      <trkpt lat="45.52876" lon="4.74084">
        <ele>464.7</ele>
        <time>2021-08-01T13:11:57Z</time>
      </trkpt>
      <trkpt lat="45.52851" lon="4.74076">
        <ele>465.86</ele>
        <time>2021-08-01T13:12:05Z</time>
      </trkpt>
      <trkpt lat="45.52822" lon="4.74087">
        <ele>468.02</ele>
        <time>2021-08-01T13:12:14Z</time>
      </trkpt>
      <trkpt lat="45.5279" lon="4.74113">
        <ele>470.04</ele>
        <time>2021-08-01T13:12:25Z</time>
      </trkpt>
      <trkpt lat="45.52769" lon="4.74134">
        <ele>471.22</ele>
        <time>2021-08-01T13:12:33Z</time>
      </trkpt>
      <trkpt lat="45.52744" lon="4.74158">
        <ele>472.55</ele>
        <time>2021-08-01T13:12:42Z</time>
      </trkpt>
      <trkpt lat="45.52718" lon="4.74179">
        <ele>473.72</ele>
        <time>2021-08-01T13:12:51Z</time>
      </trkpt>
      <trkpt lat="45.5269" lon="4.74197">
        <ele>474.87</ele>
        <time>2021-08-01T13:13:00Z</time>
      </trkpt>
      <trkpt lat="45.52663" lon="4.74211">
        <ele>476.12</ele>
        <time>2021-08-01T13:13:09Z</time>
      </trkpt>
      <trkpt lat="45.52629" lon="4.74221">
        <ele>477.81</ele>
        <time>2021-08-01T13:13:20Z</time>
      </trkpt>
      <trkpt lat="45.52599" lon="4.74221">
        <ele>479.39</ele>
        <time>2021-08-01T13:13:30Z</time>
      </trkpt>
      <trkpt lat="45.52571" lon="4.74217">
        <ele>480.68</ele>
        <time>2021-08-01T13:13:39Z</time>
      </trkpt>
      <trkpt lat="45.52558" lon="4.74217">
        <ele>481.36</ele>
        <time>2021-08-01T13:13:43Z</time>
      </trkpt>
      <trkpt lat="45.52555" lon="4.74217">
        <ele>481.45</ele>
        <time>2021-08-01T13:13:44Z</time>
      </trkpt>
      <trkpt lat="45.52552" lon="4.74217">
        <ele>481.6</ele>
        <time>2021-08-01T13:13:45Z</time>
      </trkpt>
      <trkpt lat="45.52548" lon="4.74217">
        <ele>481.79</ele>
        <time>2021-08-01T13:13:46Z</time>
      </trkpt>
      <trkpt lat="45.52545" lon="4.74216">
        <ele>481.95</ele>
        <time>2021-08-01T13:13:47Z</time>
      </trkpt>
      <trkpt lat="45.52542" lon="4.74217">
        <ele>482.1</ele>
        <time>2021-08-01T13:13:48Z</time>
      </trkpt>
      <trkpt lat="45.52519" lon="4.74214">
        <ele>483.14</ele>
        <time>2021-08-01T13:13:55Z</time>
      </trkpt>
      <trkpt lat="45.52481" lon="4.7421">
        <ele>484.33</ele>
        <time>2021-08-01T13:14:07Z</time>
      </trkpt>
      <trkpt lat="45.52456" lon="4.74214">
        <ele>485.82</ele>
        <time>2021-08-01T13:14:15Z</time>
      </trkpt>
      <trkpt lat="45.52422" lon="4.74233">
        <ele>487.59</ele>
        <time>2021-08-01T13:14:25Z</time>
      </trkpt>
      <trkpt lat="45.52386" lon="4.74258">
        <ele>488.83</ele>
        <time>2021-08-01T13:14:35Z</time>
      </trkpt>
      <trkpt lat="45.5237" lon="4.74272">
        <ele>489.23</ele>
        <time>2021-08-01T13:14:40Z</time>
      </trkpt>
      <trkpt lat="45.52344" lon="4.74297">
        <ele>490.54</ele>
        <time>2021-08-01T13:14:48Z</time>
      </trkpt>
      <trkpt lat="45.52315" lon="4.74328">
        <ele>492.27</ele>
        <time>2021-08-01T13:14:57Z</time>
      </trkpt>
      <trkpt lat="45.52305" lon="4.74338">
        <ele>492.76</ele>
        <time>2021-08-01T13:15:00Z</time>
      </trkpt>
      <trkpt lat="45.52301" lon="4.7434">
        <ele>492.93</ele>
        <time>2021-08-01T13:15:01Z</time>
      </trkpt>
      <trkpt lat="45.52298" lon="4.74342">
        <ele>493.1</ele>
        <time>2021-08-01T13:15:02Z</time>
      </trkpt>
      <trkpt lat="45.52294" lon="4.74344">
        <ele>493.23</ele>
        <time>2021-08-01T13:15:03Z</time>
      </trkpt>
      <trkpt lat="45.5229" lon="4.74346">
        <ele>493.4</ele>
        <time>2021-08-01T13:15:04Z</time>
      </trkpt>
      <trkpt lat="45.52286" lon="4.74348">
        <ele>493.64</ele>
        <time>2021-08-01T13:15:05Z</time>
      </trkpt>
      <trkpt lat="45.52274" lon="4.74352">
        <ele>494.16</ele>
        <time>2021-08-01T13:15:08Z</time>
      </trkpt>
      <trkpt lat="45.52269" lon="4.74353">
        <ele>494.29</ele>
        <time>2021-08-01T13:15:09Z</time>
      </trkpt>
      <trkpt lat="45.52265" lon="4.74353">
        <ele>494.51</ele>
        <time>2021-08-01T13:15:10Z</time>
      </trkpt>
      <trkpt lat="45.52261" lon="4.74353">
        <ele>494.68</ele>
        <time>2021-08-01T13:15:11Z</time>
      </trkpt>
      <trkpt lat="45.52257" lon="4.74352">
        <ele>494.81</ele>
        <time>2021-08-01T13:15:12Z</time>
      </trkpt>
      <trkpt lat="45.52253" lon="4.74352">
        <ele>495.25</ele>
        <time>2021-08-01T13:15:13Z</time>
      </trkpt>
      <trkpt lat="45.5223" lon="4.74348">
        <ele>495.98</ele>
        <time>2021-08-01T13:15:20Z</time>
      </trkpt>
      <trkpt lat="45.52199" lon="4.74348">
        <ele>497.88</ele>
        <time>2021-08-01T13:15:28Z</time>
      </trkpt>
      <trkpt lat="45.52178" lon="4.74347">
        <ele>498.22</ele>
        <time>2021-08-01T13:15:33Z</time>
      </trkpt>
      <trkpt lat="45.52164" lon="4.74346">
        <ele>498.39</ele>
        <time>2021-08-01T13:15:36Z</time>
      </trkpt>
      <trkpt lat="45.5216" lon="4.74345">
        <ele>498.42</ele>
        <time>2021-08-01T13:15:37Z</time>
      </trkpt>
      <trkpt lat="45.52124" lon="4.74342">
        <ele>498.33</ele>
        <time>2021-08-01T13:15:43Z</time>
      </trkpt>
      <trkpt lat="45.52071" lon="4.74334">
        <ele>497.56</ele>
        <time>2021-08-01T13:15:49Z</time>
      </trkpt>
      <trkpt lat="45.52017" lon="4.74329">
        <ele>493.62</ele>
        <time>2021-08-01T13:15:54Z</time>
      </trkpt>
      <trkpt lat="45.51993" lon="4.74329">
        <ele>491.94</ele>
        <time>2021-08-01T13:15:56Z</time>
      </trkpt>
      <trkpt lat="45.51981" lon="4.7433">
        <ele>490.94</ele>
        <time>2021-08-01T13:15:57Z</time>
      </trkpt>
      <trkpt lat="45.5193" lon="4.74345">
        <ele>487.34</ele>
        <time>2021-08-01T13:16:01Z</time>
      </trkpt>
      <trkpt lat="45.51918" lon="4.74346">
        <ele>486.5</ele>
        <time>2021-08-01T13:16:02Z</time>
      </trkpt>
      <trkpt lat="45.51906" lon="4.74345">
        <ele>485.42</ele>
        <time>2021-08-01T13:16:03Z</time>
      </trkpt>
      <trkpt lat="45.51883" lon="4.74339">
        <ele>482.47</ele>
        <time>2021-08-01T13:16:05Z</time>
      </trkpt>
      <trkpt lat="45.51871" lon="4.7434">
        <ele>481</ele>
        <time>2021-08-01T13:16:06Z</time>
      </trkpt>
      <trkpt lat="45.51859" lon="4.74345">
        <ele>479.01</ele>
        <time>2021-08-01T13:16:07Z</time>
      </trkpt>
      <trkpt lat="45.51849" lon="4.74353">
        <ele>477.84</ele>
        <time>2021-08-01T13:16:08Z</time>
      </trkpt>
      <trkpt lat="45.51843" lon="4.74365">
        <ele>476.85</ele>
        <time>2021-08-01T13:16:09Z</time>
      </trkpt>
      <trkpt lat="45.51837" lon="4.74378">
        <ele>475.73</ele>
        <time>2021-08-01T13:16:10Z</time>
      </trkpt>
      <trkpt lat="45.51831" lon="4.74391">
        <ele>474.87</ele>
        <time>2021-08-01T13:16:11Z</time>
      </trkpt>
      <trkpt lat="45.51825" lon="4.74404">
        <ele>474.27</ele>
        <time>2021-08-01T13:16:12Z</time>
      </trkpt>
      <trkpt lat="45.51817" lon="4.74415">
        <ele>473.51</ele>
        <time>2021-08-01T13:16:13Z</time>
      </trkpt>
      <trkpt lat="45.51808" lon="4.74423">
        <ele>472.84</ele>
        <time>2021-08-01T13:16:14Z</time>
      </trkpt>
      <trkpt lat="45.51798" lon="4.74427">
        <ele>472.23</ele>
        <time>2021-08-01T13:16:15Z</time>
      </trkpt>
      <trkpt lat="45.51788" lon="4.7443">
        <ele>471.65</ele>
        <time>2021-08-01T13:16:16Z</time>
      </trkpt>
      <trkpt lat="45.51777" lon="4.7443">
        <ele>471.25</ele>
        <time>2021-08-01T13:16:17Z</time>
      </trkpt>
      <trkpt lat="45.51767" lon="4.74431">
        <ele>470.92</ele>
        <time>2021-08-01T13:16:18Z</time>
      </trkpt>
      <trkpt lat="45.51757" lon="4.74433">
        <ele>470.63</ele>
        <time>2021-08-01T13:16:19Z</time>
      </trkpt>
      <trkpt lat="45.51747" lon="4.74438">
        <ele>470.45</ele>
        <time>2021-08-01T13:16:20Z</time>
      </trkpt>
      <trkpt lat="45.51739" lon="4.74445">
        <ele>470.23</ele>
        <time>2021-08-01T13:16:21Z</time>
      </trkpt>
      <trkpt lat="45.51732" lon="4.74456">
        <ele>469.77</ele>
        <time>2021-08-01T13:16:22Z</time>
      </trkpt>
      <trkpt lat="45.51726" lon="4.74467">
        <ele>469.5</ele>
        <time>2021-08-01T13:16:23Z</time>
      </trkpt>
      <trkpt lat="45.5172" lon="4.74479">
        <ele>469.27</ele>
        <time>2021-08-01T13:16:24Z</time>
      </trkpt>
      <trkpt lat="45.517" lon="4.74512">
        <ele>468.6</ele>
        <time>2021-08-01T13:16:27Z</time>
      </trkpt>
      <trkpt lat="45.51691" lon="4.7452">
        <ele>468.19</ele>
        <time>2021-08-01T13:16:28Z</time>
      </trkpt>
      <trkpt lat="45.51683" lon="4.74526">
        <ele>467.87</ele>
        <time>2021-08-01T13:16:29Z</time>
      </trkpt>
      <trkpt lat="45.51673" lon="4.7453">
        <ele>467.61</ele>
        <time>2021-08-01T13:16:30Z</time>
      </trkpt>
      <trkpt lat="45.51663" lon="4.74531">
        <ele>467.41</ele>
        <time>2021-08-01T13:16:31Z</time>
      </trkpt>
      <trkpt lat="45.51652" lon="4.74531">
        <ele>467.41</ele>
        <time>2021-08-01T13:16:32Z</time>
      </trkpt>
      <trkpt lat="45.51642" lon="4.7453">
        <ele>467.15</ele>
        <time>2021-08-01T13:16:33Z</time>
      </trkpt>
      <trkpt lat="45.51588" lon="4.74536">
        <ele>465.97</ele>
        <time>2021-08-01T13:16:38Z</time>
      </trkpt>
      <trkpt lat="45.51529" lon="4.74534">
        <ele>462.83</ele>
        <time>2021-08-01T13:16:43Z</time>
      </trkpt>
      <trkpt lat="45.51517" lon="4.7453">
        <ele>461.99</ele>
        <time>2021-08-01T13:16:44Z</time>
      </trkpt>
      <trkpt lat="45.51506" lon="4.74523">
        <ele>461.42</ele>
        <time>2021-08-01T13:16:45Z</time>
      </trkpt>
      <trkpt lat="45.51495" lon="4.74514">
        <ele>460.54</ele>
        <time>2021-08-01T13:16:46Z</time>
      </trkpt>
      <trkpt lat="45.51486" lon="4.74503">
        <ele>460.07</ele>
        <time>2021-08-01T13:16:47Z</time>
      </trkpt>
      <trkpt lat="45.51479" lon="4.74491">
        <ele>459.81</ele>
        <time>2021-08-01T13:16:48Z</time>
      </trkpt>
      <trkpt lat="45.51475" lon="4.74476">
        <ele>459.42</ele>
        <time>2021-08-01T13:16:49Z</time>
      </trkpt>
      <trkpt lat="45.51473" lon="4.74461">
        <ele>459.1</ele>
        <time>2021-08-01T13:16:50Z</time>
      </trkpt>
      <trkpt lat="45.51474" lon="4.74446">
        <ele>458.62</ele>
        <time>2021-08-01T13:16:51Z</time>
      </trkpt>
      <trkpt lat="45.51478" lon="4.74431">
        <ele>457.75</ele>
        <time>2021-08-01T13:16:52Z</time>
      </trkpt>
      <trkpt lat="45.51481" lon="4.74417">
        <ele>456.56</ele>
        <time>2021-08-01T13:16:53Z</time>
      </trkpt>
      <trkpt lat="45.51482" lon="4.74403">
        <ele>455.5</ele>
        <time>2021-08-01T13:16:54Z</time>
      </trkpt>
      <trkpt lat="45.51479" lon="4.74389">
        <ele>454.51</ele>
        <time>2021-08-01T13:16:55Z</time>
      </trkpt>
      <trkpt lat="45.51472" lon="4.74379">
        <ele>453.65</ele>
        <time>2021-08-01T13:16:56Z</time>
      </trkpt>
      <trkpt lat="45.51463" lon="4.74371">
        <ele>452.81</ele>
        <time>2021-08-01T13:16:57Z</time>
      </trkpt>
      <trkpt lat="45.51455" lon="4.74361">
        <ele>452.63</ele>
        <time>2021-08-01T13:16:58Z</time>
      </trkpt>
      <trkpt lat="45.5145" lon="4.74348">
        <ele>452.18</ele>
        <time>2021-08-01T13:16:59Z</time>
      </trkpt>
      <trkpt lat="45.51447" lon="4.74335">
        <ele>451.36</ele>
        <time>2021-08-01T13:17:00Z</time>
      </trkpt>
      <trkpt lat="45.51445" lon="4.7432">
        <ele>450.7</ele>
        <time>2021-08-01T13:17:01Z</time>
      </trkpt>
      <trkpt lat="45.51444" lon="4.74305">
        <ele>450</ele>
        <time>2021-08-01T13:17:02Z</time>
      </trkpt>
      <trkpt lat="45.51441" lon="4.7429">
        <ele>449.52</ele>
        <time>2021-08-01T13:17:03Z</time>
      </trkpt>
      <trkpt lat="45.51437" lon="4.74277">
        <ele>448.99</ele>
        <time>2021-08-01T13:17:04Z</time>
      </trkpt>
      <trkpt lat="45.51431" lon="4.74267">
        <ele>448.35</ele>
        <time>2021-08-01T13:17:05Z</time>
      </trkpt>
      <trkpt lat="45.51422" lon="4.74262">
        <ele>447.61</ele>
        <time>2021-08-01T13:17:06Z</time>
      </trkpt>
      <trkpt lat="45.51412" lon="4.74264">
        <ele>446.74</ele>
        <time>2021-08-01T13:17:07Z</time>
      </trkpt>
      <trkpt lat="45.51403" lon="4.74269">
        <ele>445.69</ele>
        <time>2021-08-01T13:17:08Z</time>
      </trkpt>
      <trkpt lat="45.51395" lon="4.74278">
        <ele>444.87</ele>
        <time>2021-08-01T13:17:09Z</time>
      </trkpt>
      <trkpt lat="45.51387" lon="4.74288">
        <ele>444.1</ele>
        <time>2021-08-01T13:17:10Z</time>
      </trkpt>
      <trkpt lat="45.51369" lon="4.74306">
        <ele>442.31</ele>
        <time>2021-08-01T13:17:12Z</time>
      </trkpt>
      <trkpt lat="45.51359" lon="4.74313">
        <ele>441.78</ele>
        <time>2021-08-01T13:17:13Z</time>
      </trkpt>
      <trkpt lat="45.51347" lon="4.74318">
        <ele>441.48</ele>
        <time>2021-08-01T13:17:14Z</time>
      </trkpt>
      <trkpt lat="45.51336" lon="4.74322">
        <ele>441.25</ele>
        <time>2021-08-01T13:17:15Z</time>
      </trkpt>
      <trkpt lat="45.51324" lon="4.74326">
        <ele>441.04</ele>
        <time>2021-08-01T13:17:16Z</time>
      </trkpt>
      <trkpt lat="45.51312" lon="4.74328">
        <ele>440.84</ele>
        <time>2021-08-01T13:17:17Z</time>
      </trkpt>
      <trkpt lat="45.51299" lon="4.74329">
        <ele>440.54</ele>
        <time>2021-08-01T13:17:18Z</time>
      </trkpt>
      <trkpt lat="45.51247" lon="4.74328">
        <ele>437.32</ele>
        <time>2021-08-01T13:17:22Z</time>
      </trkpt>
      <trkpt lat="45.51221" lon="4.74326">
        <ele>433.16</ele>
        <time>2021-08-01T13:17:24Z</time>
      </trkpt>
      <trkpt lat="45.51207" lon="4.74328">
        <ele>432.01</ele>
        <time>2021-08-01T13:17:25Z</time>
      </trkpt>
      <trkpt lat="45.51193" lon="4.74331">
        <ele>430.95</ele>
        <time>2021-08-01T13:17:26Z</time>
      </trkpt>
      <trkpt lat="45.51152" lon="4.74344">
        <ele>427.78</ele>
        <time>2021-08-01T13:17:29Z</time>
      </trkpt>
      <trkpt lat="45.51092" lon="4.74354">
        <ele>424</ele>
        <time>2021-08-01T13:17:33Z</time>
      </trkpt>
      <trkpt lat="45.51062" lon="4.74356">
        <ele>420.68</ele>
        <time>2021-08-01T13:17:35Z</time>
      </trkpt>
      <trkpt lat="45.51016" lon="4.74359">
        <ele>416.63</ele>
        <time>2021-08-01T13:17:38Z</time>
      </trkpt>
      <trkpt lat="45.50968" lon="4.74361">
        <ele>412.4</ele>
        <time>2021-08-01T13:17:41Z</time>
      </trkpt>
      <trkpt lat="45.50921" lon="4.74351">
        <ele>408.74</ele>
        <time>2021-08-01T13:17:44Z</time>
      </trkpt>
      <trkpt lat="45.5089" lon="4.74344">
        <ele>406.51</ele>
        <time>2021-08-01T13:17:46Z</time>
      </trkpt>
      <trkpt lat="45.50875" lon="4.74343">
        <ele>405.17</ele>
        <time>2021-08-01T13:17:47Z</time>
      </trkpt>
      <trkpt lat="45.5086" lon="4.74345">
        <ele>403.61</ele>
        <time>2021-08-01T13:17:48Z</time>
      </trkpt>
      <trkpt lat="45.50846" lon="4.74349">
        <ele>401.14</ele>
        <time>2021-08-01T13:17:49Z</time>
      </trkpt>
      <trkpt lat="45.50832" lon="4.74354">
        <ele>399.99</ele>
        <time>2021-08-01T13:17:50Z</time>
      </trkpt>
      <trkpt lat="45.50804" lon="4.74368">
        <ele>397.47</ele>
        <time>2021-08-01T13:17:52Z</time>
      </trkpt>
      <trkpt lat="45.50792" lon="4.74378">
        <ele>396.55</ele>
        <time>2021-08-01T13:17:53Z</time>
      </trkpt>
      <trkpt lat="45.50767" lon="4.74399">
        <ele>395.81</ele>
        <time>2021-08-01T13:17:55Z</time>
      </trkpt>
      <trkpt lat="45.50709" lon="4.74457">
        <ele>393.14</ele>
        <time>2021-08-01T13:18:00Z</time>
      </trkpt>
      <trkpt lat="45.50661" lon="4.74486">
        <ele>390.2</ele>
        <time>2021-08-01T13:18:04Z</time>
      </trkpt>
      <trkpt lat="45.50626" lon="4.74503">
        <ele>388.67</ele>
        <time>2021-08-01T13:18:07Z</time>
      </trkpt>
      <trkpt lat="45.50562" lon="4.74547">
        <ele>388.03</ele>
        <time>2021-08-01T13:18:13Z</time>
      </trkpt>
      <trkpt lat="45.50542" lon="4.74564">
        <ele>387.88</ele>
        <time>2021-08-01T13:18:15Z</time>
      </trkpt>
      <trkpt lat="45.50533" lon="4.74575">
        <ele>387.69</ele>
        <time>2021-08-01T13:18:16Z</time>
      </trkpt>
      <trkpt lat="45.50526" lon="4.74588">
        <ele>387.6</ele>
        <time>2021-08-01T13:18:17Z</time>
      </trkpt>
      <trkpt lat="45.50519" lon="4.74602">
        <ele>387.55</ele>
        <time>2021-08-01T13:18:18Z</time>
      </trkpt>
      <trkpt lat="45.50513" lon="4.74618">
        <ele>387.53</ele>
        <time>2021-08-01T13:18:19Z</time>
      </trkpt>
      <trkpt lat="45.50508" lon="4.74633">
        <ele>387.52</ele>
        <time>2021-08-01T13:18:20Z</time>
      </trkpt>
      <trkpt lat="45.50501" lon="4.74649">
        <ele>387.48</ele>
        <time>2021-08-01T13:18:21Z</time>
      </trkpt>
      <trkpt lat="45.50494" lon="4.74663">
        <ele>387.41</ele>
        <time>2021-08-01T13:18:22Z</time>
      </trkpt>
      <trkpt lat="45.50486" lon="4.74677">
        <ele>387.13</ele>
        <time>2021-08-01T13:18:23Z</time>
      </trkpt>
      <trkpt lat="45.50476" lon="4.74688">
        <ele>386.74</ele>
        <time>2021-08-01T13:18:24Z</time>
      </trkpt>
      <trkpt lat="45.50466" lon="4.74698">
        <ele>385.46</ele>
        <time>2021-08-01T13:18:25Z</time>
      </trkpt>
      <trkpt lat="45.50456" lon="4.74706">
        <ele>384.55</ele>
        <time>2021-08-01T13:18:26Z</time>
      </trkpt>
      <trkpt lat="45.50445" lon="4.74713">
        <ele>383.82</ele>
        <time>2021-08-01T13:18:27Z</time>
      </trkpt>
      <trkpt lat="45.50406" lon="4.74748">
        <ele>380.19</ele>
        <time>2021-08-01T13:18:31Z</time>
      </trkpt>
      <trkpt lat="45.5037" lon="4.74787">
        <ele>377.59</ele>
        <time>2021-08-01T13:18:35Z</time>
      </trkpt>
      <trkpt lat="45.50362" lon="4.74798">
        <ele>377.11</ele>
        <time>2021-08-01T13:18:36Z</time>
      </trkpt>
      <trkpt lat="45.50356" lon="4.74811">
        <ele>376.87</ele>
        <time>2021-08-01T13:18:37Z</time>
      </trkpt>
      <trkpt lat="45.50324" lon="4.74875">
        <ele>375.32</ele>
        <time>2021-08-01T13:18:42Z</time>
      </trkpt>
      <trkpt lat="45.5027" lon="4.74979">
        <ele>373.02</ele>
        <time>2021-08-01T13:18:50Z</time>
      </trkpt>
      <trkpt lat="45.50227" lon="4.75065">
        <ele>369.76</ele>
        <time>2021-08-01T13:18:56Z</time>
      </trkpt>
      <trkpt lat="45.502" lon="4.7512">
        <ele>366.58</ele>
        <time>2021-08-01T13:19:00Z</time>
      </trkpt>
      <trkpt lat="45.50193" lon="4.7513">
        <ele>365.14</ele>
        <time>2021-08-01T13:19:01Z</time>
      </trkpt>
      <trkpt lat="45.50185" lon="4.75139">
        <ele>363.7</ele>
        <time>2021-08-01T13:19:02Z</time>
      </trkpt>
      <trkpt lat="45.50176" lon="4.75145">
        <ele>362.49</ele>
        <time>2021-08-01T13:19:03Z</time>
      </trkpt>
      <trkpt lat="45.50167" lon="4.75151">
        <ele>361.6</ele>
        <time>2021-08-01T13:19:04Z</time>
      </trkpt>
      <trkpt lat="45.50156" lon="4.75156">
        <ele>360.97</ele>
        <time>2021-08-01T13:19:05Z</time>
      </trkpt>
      <trkpt lat="45.50102" lon="4.75169">
        <ele>358.03</ele>
        <time>2021-08-01T13:19:10Z</time>
      </trkpt>
      <trkpt lat="45.50043" lon="4.75173">
        <ele>354.15</ele>
        <time>2021-08-01T13:19:15Z</time>
      </trkpt>
      <trkpt lat="45.50031" lon="4.75176">
        <ele>353.44</ele>
        <time>2021-08-01T13:19:16Z</time>
      </trkpt>
      <trkpt lat="45.50019" lon="4.7518">
        <ele>352.97</ele>
        <time>2021-08-01T13:19:17Z</time>
      </trkpt>
      <trkpt lat="45.50008" lon="4.75187">
        <ele>352.32</ele>
        <time>2021-08-01T13:19:18Z</time>
      </trkpt>
      <trkpt lat="45.49996" lon="4.75195">
        <ele>351.33</ele>
        <time>2021-08-01T13:19:19Z</time>
      </trkpt>
      <trkpt lat="45.49985" lon="4.75204">
        <ele>350.32</ele>
        <time>2021-08-01T13:19:20Z</time>
      </trkpt>
      <trkpt lat="45.49975" lon="4.75215">
        <ele>349.49</ele>
        <time>2021-08-01T13:19:21Z</time>
      </trkpt>
      <trkpt lat="45.49966" lon="4.75229">
        <ele>348.69</ele>
        <time>2021-08-01T13:19:22Z</time>
      </trkpt>
      <trkpt lat="45.49958" lon="4.75244">
        <ele>347.78</ele>
        <time>2021-08-01T13:19:23Z</time>
      </trkpt>
      <trkpt lat="45.49951" lon="4.75261">
        <ele>347.12</ele>
        <time>2021-08-01T13:19:24Z</time>
      </trkpt>
      <trkpt lat="45.49946" lon="4.75277">
        <ele>346.62</ele>
        <time>2021-08-01T13:19:25Z</time>
      </trkpt>
      <trkpt lat="45.49942" lon="4.75294">
        <ele>346.16</ele>
        <time>2021-08-01T13:19:26Z</time>
      </trkpt>
      <trkpt lat="45.4994" lon="4.75311">
        <ele>345.69</ele>
        <time>2021-08-01T13:19:27Z</time>
      </trkpt>
      <trkpt lat="45.49941" lon="4.75327">
        <ele>344.93</ele>
        <time>2021-08-01T13:19:28Z</time>
      </trkpt>
      <trkpt lat="45.49944" lon="4.75342">
        <ele>344.14</ele>
        <time>2021-08-01T13:19:29Z</time>
      </trkpt>
      <trkpt lat="45.4995" lon="4.75357">
        <ele>342.97</ele>
        <time>2021-08-01T13:19:30Z</time>
      </trkpt>
      <trkpt lat="45.49958" lon="4.75371">
        <ele>340.17</ele>
        <time>2021-08-01T13:19:31Z</time>
      </trkpt>
      <trkpt lat="45.49966" lon="4.75384">
        <ele>338.68</ele>
        <time>2021-08-01T13:19:32Z</time>
      </trkpt>
      <trkpt lat="45.49975" lon="4.75396">
        <ele>337.54</ele>
        <time>2021-08-01T13:19:33Z</time>
      </trkpt>
      <trkpt lat="45.49984" lon="4.75407">
        <ele>336.95</ele>
        <time>2021-08-01T13:19:34Z</time>
      </trkpt>
      <trkpt lat="45.50002" lon="4.75423">
        <ele>335.39</ele>
        <time>2021-08-01T13:19:36Z</time>
      </trkpt>
      <trkpt lat="45.5001" lon="4.75428">
        <ele>334.01</ele>
        <time>2021-08-01T13:19:37Z</time>
      </trkpt>
      <trkpt lat="45.50017" lon="4.75432">
        <ele>333.04</ele>
        <time>2021-08-01T13:19:38Z</time>
      </trkpt>
      <trkpt lat="45.50022" lon="4.75435">
        <ele>331.99</ele>
        <time>2021-08-01T13:19:39Z</time>
      </trkpt>
      <trkpt lat="45.50025" lon="4.7544">
        <ele>330.95</ele>
        <time>2021-08-01T13:19:40Z</time>
      </trkpt>
      <trkpt lat="45.50026" lon="4.75446">
        <ele>330.36</ele>
        <time>2021-08-01T13:19:41Z</time>
      </trkpt>
      <trkpt lat="45.50024" lon="4.75452">
        <ele>329.9</ele>
        <time>2021-08-01T13:19:42Z</time>
      </trkpt>
      <trkpt lat="45.5002" lon="4.75454">
        <ele>329.63</ele>
        <time>2021-08-01T13:19:43Z</time>
      </trkpt>
      <trkpt lat="45.50015" lon="4.75453">
        <ele>329.27</ele>
        <time>2021-08-01T13:19:44Z</time>
      </trkpt>
      <trkpt lat="45.5001" lon="4.75451">
        <ele>328.98</ele>
        <time>2021-08-01T13:19:45Z</time>
      </trkpt>
      <trkpt lat="45.50005" lon="4.75448">
        <ele>328.82</ele>
        <time>2021-08-01T13:19:46Z</time>
      </trkpt>
      <trkpt lat="45.49999" lon="4.75445">
        <ele>328.62</ele>
        <time>2021-08-01T13:19:47Z</time>
      </trkpt>
      <trkpt lat="45.49966" lon="4.75429">
        <ele>327.74</ele>
        <time>2021-08-01T13:19:52Z</time>
      </trkpt>
      <trkpt lat="45.49907" lon="4.75414">
        <ele>326.31</ele>
        <time>2021-08-01T13:19:59Z</time>
      </trkpt>
      <trkpt lat="45.49856" lon="4.75405">
        <ele>322.7</ele>
        <time>2021-08-01T13:20:04Z</time>
      </trkpt>
      <trkpt lat="45.49812" lon="4.75397">
        <ele>319.31</ele>
        <time>2021-08-01T13:20:08Z</time>
      </trkpt>
      <trkpt lat="45.49765" lon="4.7538">
        <ele>315.87</ele>
        <time>2021-08-01T13:20:12Z</time>
      </trkpt>
      <trkpt lat="45.49715" lon="4.75362">
        <ele>312.84</ele>
        <time>2021-08-01T13:20:16Z</time>
      </trkpt>
      <trkpt lat="45.49703" lon="4.75361">
        <ele>312.31</ele>
        <time>2021-08-01T13:20:17Z</time>
      </trkpt>
      <trkpt lat="45.4968" lon="4.75361">
        <ele>311.18</ele>
        <time>2021-08-01T13:20:19Z</time>
      </trkpt>
      <trkpt lat="45.49671" lon="4.75359">
        <ele>310.18</ele>
        <time>2021-08-01T13:20:20Z</time>
      </trkpt>
      <trkpt lat="45.49664" lon="4.75354">
        <ele>309.15</ele>
        <time>2021-08-01T13:20:21Z</time>
      </trkpt>
      <trkpt lat="45.49658" lon="4.75347">
        <ele>308.27</ele>
        <time>2021-08-01T13:20:22Z</time>
      </trkpt>
      <trkpt lat="45.49654" lon="4.7534">
        <ele>307.82</ele>
        <time>2021-08-01T13:20:23Z</time>
      </trkpt>
      <trkpt lat="45.49652" lon="4.75334">
        <ele>307.48</ele>
        <time>2021-08-01T13:20:24Z</time>
      </trkpt>
      <trkpt lat="45.49648" lon="4.75325">
        <ele>307.39</ele>
        <time>2021-08-01T13:20:26Z</time>
      </trkpt>
      <trkpt lat="45.49645" lon="4.75324">
        <ele>307.38</ele>
        <time>2021-08-01T13:20:27Z</time>
      </trkpt>
      <trkpt lat="45.49642" lon="4.75323">
        <ele>307.37</ele>
        <time>2021-08-01T13:20:28Z</time>
      </trkpt>
      <trkpt lat="45.49639" lon="4.75322">
        <ele>307.37</ele>
        <time>2021-08-01T13:20:29Z</time>
      </trkpt>
      <trkpt lat="45.49634" lon="4.75323">
        <ele>307.37</ele>
        <time>2021-08-01T13:20:30Z</time>
      </trkpt>
      <trkpt lat="45.4963" lon="4.75324">
        <ele>307.68</ele>
        <time>2021-08-01T13:20:31Z</time>
      </trkpt>
      <trkpt lat="45.49625" lon="4.75325">
        <ele>308.21</ele>
        <time>2021-08-01T13:20:32Z</time>
      </trkpt>
      <trkpt lat="45.49614" lon="4.7533">
        <ele>309.06</ele>
        <time>2021-08-01T13:20:34Z</time>
      </trkpt>
      <trkpt lat="45.49573" lon="4.75353">
        <ele>309.47</ele>
        <time>2021-08-01T13:20:41Z</time>
      </trkpt>
      <trkpt lat="45.4952" lon="4.75376">
        <ele>308.35</ele>
        <time>2021-08-01T13:20:49Z</time>
      </trkpt>
      <trkpt lat="45.49475" lon="4.75389">
        <ele>307.99</ele>
        <time>2021-08-01T13:20:56Z</time>
      </trkpt>
      <trkpt lat="45.49411" lon="4.75399">
        <ele>308</ele>
        <time>2021-08-01T13:21:05Z</time>
      </trkpt>
      <trkpt lat="45.49362" lon="4.75413">
        <ele>308.29</ele>
        <time>2021-08-01T13:21:12Z</time>
      </trkpt>
      <trkpt lat="45.49356" lon="4.75417">
        <ele>308.3</ele>
        <time>2021-08-01T13:21:13Z</time>
      </trkpt>
      <trkpt lat="45.49321" lon="4.75446">
        <ele>308.33</ele>
        <time>2021-08-01T13:21:20Z</time>
      </trkpt>
      <trkpt lat="45.493" lon="4.7546">
        <ele>308.82</ele>
        <time>2021-08-01T13:21:25Z</time>
      </trkpt>
      <trkpt lat="45.49295" lon="4.75463">
        <ele>309.35</ele>
        <time>2021-08-01T13:21:26Z</time>
      </trkpt>
      <trkpt lat="45.49266" lon="4.75475">
        <ele>311.06</ele>
        <time>2021-08-01T13:21:32Z</time>
      </trkpt>
      <trkpt lat="45.49261" lon="4.75478">
        <ele>311.21</ele>
        <time>2021-08-01T13:21:33Z</time>
      </trkpt>
      <trkpt lat="45.49234" lon="4.75495">
        <ele>311.6</ele>
        <time>2021-08-01T13:21:39Z</time>
      </trkpt>
      <trkpt lat="45.49223" lon="4.75506">
        <ele>311.89</ele>
        <time>2021-08-01T13:21:42Z</time>
      </trkpt>
      <trkpt lat="45.4922" lon="4.7551">
        <ele>311.98</ele>
        <time>2021-08-01T13:21:43Z</time>
      </trkpt>
      <trkpt lat="45.49217" lon="4.75515">
        <ele>312.07</ele>
        <time>2021-08-01T13:21:44Z</time>
      </trkpt>
      <trkpt lat="45.49214" lon="4.75519">
        <ele>312.13</ele>
        <time>2021-08-01T13:21:45Z</time>
      </trkpt>
      <trkpt lat="45.49212" lon="4.75524">
        <ele>312.15</ele>
        <time>2021-08-01T13:21:46Z</time>
      </trkpt>
      <trkpt lat="45.49209" lon="4.75529">
        <ele>312.16</ele>
        <time>2021-08-01T13:21:47Z</time>
      </trkpt>
      <trkpt lat="45.49206" lon="4.75533">
        <ele>312.17</ele>
        <time>2021-08-01T13:21:48Z</time>
      </trkpt>
      <trkpt lat="45.49203" lon="4.75538">
        <ele>312.17</ele>
        <time>2021-08-01T13:21:49Z</time>
      </trkpt>
      <trkpt lat="45.49183" lon="4.75563">
        <ele>313.78</ele>
        <time>2021-08-01T13:21:55Z</time>
      </trkpt>
      <trkpt lat="45.49176" lon="4.75568">
        <ele>314.4</ele>
        <time>2021-08-01T13:21:57Z</time>
      </trkpt>
      <trkpt lat="45.49163" lon="4.75572">
        <ele>314.95</ele>
        <time>2021-08-01T13:22:00Z</time>
      </trkpt>
      <trkpt lat="45.49135" lon="4.75579">
        <ele>317.04</ele>
        <time>2021-08-01T13:22:07Z</time>
      </trkpt>
      <trkpt lat="45.49111" lon="4.75591">
        <ele>317.91</ele>
        <time>2021-08-01T13:22:14Z</time>
      </trkpt>
      <trkpt lat="45.49093" lon="4.75616">
        <ele>319.29</ele>
        <time>2021-08-01T13:22:21Z</time>
      </trkpt>
      <trkpt lat="45.49085" lon="4.75633">
        <ele>320.19</ele>
        <time>2021-08-01T13:22:25Z</time>
      </trkpt>
      <trkpt lat="45.49083" lon="4.75637">
        <ele>320.26</ele>
        <time>2021-08-01T13:22:26Z</time>
      </trkpt>
      <trkpt lat="45.49081" lon="4.75641">
        <ele>320.46</ele>
        <time>2021-08-01T13:22:27Z</time>
      </trkpt>
      <trkpt lat="45.49079" lon="4.75645">
        <ele>320.69</ele>
        <time>2021-08-01T13:22:28Z</time>
      </trkpt>
      <trkpt lat="45.49077" lon="4.75649">
        <ele>320.84</ele>
        <time>2021-08-01T13:22:29Z</time>
      </trkpt>
      <trkpt lat="45.49074" lon="4.75652">
        <ele>320.92</ele>
        <time>2021-08-01T13:22:30Z</time>
      </trkpt>
      <trkpt lat="45.49072" lon="4.75656">
        <ele>321.09</ele>
        <time>2021-08-01T13:22:31Z</time>
      </trkpt>
      <trkpt lat="45.49069" lon="4.7566">
        <ele>321.31</ele>
        <time>2021-08-01T13:22:32Z</time>
      </trkpt>
      <trkpt lat="45.49048" lon="4.75678">
        <ele>322.48</ele>
        <time>2021-08-01T13:22:39Z</time>
      </trkpt>
      <trkpt lat="45.49022" lon="4.75693">
        <ele>324.52</ele>
        <time>2021-08-01T13:22:47Z</time>
      </trkpt>
      <trkpt lat="45.49001" lon="4.75706">
        <ele>325.6</ele>
        <time>2021-08-01T13:22:54Z</time>
      </trkpt>
      <trkpt lat="45.48984" lon="4.75714">
        <ele>326.97</ele>
        <time>2021-08-01T13:22:59Z</time>
      </trkpt>
      <trkpt lat="45.48961" lon="4.75726">
        <ele>327.79</ele>
        <time>2021-08-01T13:23:06Z</time>
      </trkpt>
      <trkpt lat="45.4893" lon="4.75741">
        <ele>329.32</ele>
        <time>2021-08-01T13:23:15Z</time>
      </trkpt>
      <trkpt lat="45.48906" lon="4.75752">
        <ele>330.61</ele>
        <time>2021-08-01T13:23:22Z</time>
      </trkpt>
      <trkpt lat="45.48876" lon="4.75753">
        <ele>332.49</ele>
        <time>2021-08-01T13:23:30Z</time>
      </trkpt>
      <trkpt lat="45.48868" lon="4.7575">
        <ele>332.9</ele>
        <time>2021-08-01T13:23:32Z</time>
      </trkpt>
      <trkpt lat="45.48851" lon="4.75737">
        <ele>333.19</ele>
        <time>2021-08-01T13:23:36Z</time>
      </trkpt>
      <trkpt lat="45.48846" lon="4.75732">
        <ele>333.2</ele>
        <time>2021-08-01T13:23:37Z</time>
      </trkpt>
      <trkpt lat="45.48842" lon="4.75726">
        <ele>333.21</ele>
        <time>2021-08-01T13:23:38Z</time>
      </trkpt>
      <trkpt lat="45.48837" lon="4.7572">
        <ele>333.21</ele>
        <time>2021-08-01T13:23:39Z</time>
      </trkpt>
      <trkpt lat="45.48833" lon="4.75713">
        <ele>333.21</ele>
        <time>2021-08-01T13:23:40Z</time>
      </trkpt>
      <trkpt lat="45.4883" lon="4.75704">
        <ele>333.21</ele>
        <time>2021-08-01T13:23:41Z</time>
      </trkpt>
      <trkpt lat="45.48827" lon="4.75696">
        <ele>333.21</ele>
        <time>2021-08-01T13:23:42Z</time>
      </trkpt>
      <trkpt lat="45.48806" lon="4.75625">
        <ele>331.13</ele>
        <time>2021-08-01T13:23:49Z</time>
      </trkpt>
      <trkpt lat="45.48798" lon="4.75606">
        <ele>329.9</ele>
        <time>2021-08-01T13:23:51Z</time>
      </trkpt>
      <trkpt lat="45.48792" lon="4.75598">
        <ele>329.13</ele>
        <time>2021-08-01T13:23:52Z</time>
      </trkpt>
      <trkpt lat="45.48785" lon="4.75593">
        <ele>328.58</ele>
        <time>2021-08-01T13:23:53Z</time>
      </trkpt>
      <trkpt lat="45.48777" lon="4.7559">
        <ele>328.27</ele>
        <time>2021-08-01T13:23:54Z</time>
      </trkpt>
      <trkpt lat="45.48769" lon="4.7559">
        <ele>328.11</ele>
        <time>2021-08-01T13:23:55Z</time>
      </trkpt>
      <trkpt lat="45.48761" lon="4.75594">
        <ele>327.74</ele>
        <time>2021-08-01T13:23:56Z</time>
      </trkpt>
      <trkpt lat="45.48755" lon="4.756">
        <ele>327.29</ele>
        <time>2021-08-01T13:23:57Z</time>
      </trkpt>
      <trkpt lat="45.4875" lon="4.75607">
        <ele>326.9</ele>
        <time>2021-08-01T13:23:58Z</time>
      </trkpt>
      <trkpt lat="45.48746" lon="4.75615">
        <ele>326.42</ele>
        <time>2021-08-01T13:23:59Z</time>
      </trkpt>
      <trkpt lat="45.48744" lon="4.75623">
        <ele>326.02</ele>
        <time>2021-08-01T13:24:00Z</time>
      </trkpt>
      <trkpt lat="45.48742" lon="4.75631">
        <ele>325.81</ele>
        <time>2021-08-01T13:24:01Z</time>
      </trkpt>
      <trkpt lat="45.4874" lon="4.75639">
        <ele>325.57</ele>
        <time>2021-08-01T13:24:02Z</time>
      </trkpt>
      <trkpt lat="45.48739" lon="4.75647">
        <ele>325.44</ele>
        <time>2021-08-01T13:24:03Z</time>
      </trkpt>
      <trkpt lat="45.48738" lon="4.75655">
        <ele>325.33</ele>
        <time>2021-08-01T13:24:04Z</time>
      </trkpt>
      <trkpt lat="45.48738" lon="4.75663">
        <ele>325.27</ele>
        <time>2021-08-01T13:24:05Z</time>
      </trkpt>
      <trkpt lat="45.48738" lon="4.75671">
        <ele>325.24</ele>
        <time>2021-08-01T13:24:06Z</time>
      </trkpt>
      <trkpt lat="45.48736" lon="4.75693">
        <ele>325.23</ele>
        <time>2021-08-01T13:24:09Z</time>
      </trkpt>
      <trkpt lat="45.48735" lon="4.757">
        <ele>325.23</ele>
        <time>2021-08-01T13:24:10Z</time>
      </trkpt>
      <trkpt lat="45.48729" lon="4.7576">
        <ele>327.74</ele>
        <time>2021-08-01T13:24:18Z</time>
      </trkpt>
      <trkpt lat="45.48723" lon="4.7578">
        <ele>329.08</ele>
        <time>2021-08-01T13:24:21Z</time>
      </trkpt>
      <trkpt lat="45.4872" lon="4.75786">
        <ele>329.45</ele>
        <time>2021-08-01T13:24:22Z</time>
      </trkpt>
      <trkpt lat="45.48702" lon="4.75813">
        <ele>331.48</ele>
        <time>2021-08-01T13:24:27Z</time>
      </trkpt>
      <trkpt lat="45.48693" lon="4.7582">
        <ele>332.12</ele>
        <time>2021-08-01T13:24:29Z</time>
      </trkpt>
      <trkpt lat="45.48689" lon="4.75824">
        <ele>332.39</ele>
        <time>2021-08-01T13:24:30Z</time>
      </trkpt>
      <trkpt lat="45.48684" lon="4.75826">
        <ele>332.67</ele>
        <time>2021-08-01T13:24:31Z</time>
      </trkpt>
      <trkpt lat="45.48679" lon="4.75828">
        <ele>332.89</ele>
        <time>2021-08-01T13:24:32Z</time>
      </trkpt>
      <trkpt lat="45.48675" lon="4.75829">
        <ele>333.25</ele>
        <time>2021-08-01T13:24:33Z</time>
      </trkpt>
      <trkpt lat="45.4867" lon="4.7583">
        <ele>333.6</ele>
        <time>2021-08-01T13:24:34Z</time>
      </trkpt>
      <trkpt lat="45.48665" lon="4.75829">
        <ele>333.88</ele>
        <time>2021-08-01T13:24:35Z</time>
      </trkpt>
      <trkpt lat="45.4866" lon="4.75829">
        <ele>334.1</ele>
        <time>2021-08-01T13:24:36Z</time>
      </trkpt>
      <trkpt lat="45.48656" lon="4.75827">
        <ele>334.25</ele>
        <time>2021-08-01T13:24:37Z</time>
      </trkpt>
      <trkpt lat="45.48651" lon="4.75825">
        <ele>334.32</ele>
        <time>2021-08-01T13:24:38Z</time>
      </trkpt>
      <trkpt lat="45.48647" lon="4.75822">
        <ele>334.43</ele>
        <time>2021-08-01T13:24:39Z</time>
      </trkpt>
      <trkpt lat="45.48643" lon="4.75819">
        <ele>334.68</ele>
        <time>2021-08-01T13:24:40Z</time>
      </trkpt>
      <trkpt lat="45.48639" lon="4.75815">
        <ele>334.92</ele>
        <time>2021-08-01T13:24:41Z</time>
      </trkpt>
      <trkpt lat="45.48608" lon="4.75785">
        <ele>337.48</ele>
        <time>2021-08-01T13:24:49Z</time>
      </trkpt>
      <trkpt lat="45.48596" lon="4.75775">
        <ele>337.92</ele>
        <time>2021-08-01T13:24:52Z</time>
      </trkpt>
      <trkpt lat="45.48551" lon="4.75759">
        <ele>338.59</ele>
        <time>2021-08-01T13:25:01Z</time>
      </trkpt>
      <trkpt lat="45.48533" lon="4.75762">
        <ele>338.62</ele>
        <time>2021-08-01T13:25:04Z</time>
      </trkpt>
      <trkpt lat="45.48527" lon="4.75764">
        <ele>338.62</ele>
        <time>2021-08-01T13:25:05Z</time>
      </trkpt>
      <trkpt lat="45.48477" lon="4.75793">
        <ele>338.02</ele>
        <time>2021-08-01T13:25:13Z</time>
      </trkpt>
      <trkpt lat="45.4842" lon="4.75827">
        <ele>336.94</ele>
        <time>2021-08-01T13:25:21Z</time>
      </trkpt>
      <trkpt lat="45.48344" lon="4.75869">
        <ele>333.72</ele>
        <time>2021-08-01T13:25:30Z</time>
      </trkpt>
      <trkpt lat="45.48294" lon="4.75897">
        <ele>332.51</ele>
        <time>2021-08-01T13:25:37Z</time>
      </trkpt>
      <trkpt lat="45.48241" lon="4.75928">
        <ele>333.22</ele>
        <time>2021-08-01T13:25:46Z</time>
      </trkpt>
      <trkpt lat="45.48212" lon="4.75941">
        <ele>334.07</ele>
        <time>2021-08-01T13:25:51Z</time>
      </trkpt>
      <trkpt lat="45.48194" lon="4.75944">
        <ele>334.79</ele>
        <time>2021-08-01T13:25:54Z</time>
      </trkpt>
      <trkpt lat="45.48176" lon="4.75942">
        <ele>335.5</ele>
        <time>2021-08-01T13:25:57Z</time>
      </trkpt>
      <trkpt lat="45.48128" lon="4.75923">
        <ele>337.38</ele>
        <time>2021-08-01T13:26:05Z</time>
      </trkpt>
      <trkpt lat="45.48095" lon="4.7591">
        <ele>337.51</ele>
        <time>2021-08-01T13:26:10Z</time>
      </trkpt>
      <trkpt lat="45.4807" lon="4.75909">
        <ele>337.5</ele>
        <time>2021-08-01T13:26:14Z</time>
      </trkpt>
      <trkpt lat="45.48053" lon="4.75915">
        <ele>337.46</ele>
        <time>2021-08-01T13:26:17Z</time>
      </trkpt>
      <trkpt lat="45.48006" lon="4.75937">
        <ele>337.36</ele>
        <time>2021-08-01T13:26:25Z</time>
      </trkpt>
      <trkpt lat="45.47942" lon="4.75965">
        <ele>337.03</ele>
        <time>2021-08-01T13:26:34Z</time>
      </trkpt>
      <trkpt lat="45.47891" lon="4.75984">
        <ele>336.62</ele>
        <time>2021-08-01T13:26:42Z</time>
      </trkpt>
      <trkpt lat="45.47819" lon="4.75996">
        <ele>336.97</ele>
        <time>2021-08-01T13:26:53Z</time>
      </trkpt>
      <trkpt lat="45.47764" lon="4.76003">
        <ele>335.98</ele>
        <time>2021-08-01T13:27:00Z</time>
      </trkpt>
      <trkpt lat="45.47757" lon="4.76002">
        <ele>335.88</ele>
        <time>2021-08-01T13:27:01Z</time>
      </trkpt>
      <trkpt lat="45.47752" lon="4.75999">
        <ele>335.48</ele>
        <time>2021-08-01T13:27:02Z</time>
      </trkpt>
      <trkpt lat="45.47747" lon="4.75995">
        <ele>335.09</ele>
        <time>2021-08-01T13:27:03Z</time>
      </trkpt>
      <trkpt lat="45.47743" lon="4.75993">
        <ele>334.68</ele>
        <time>2021-08-01T13:27:04Z</time>
      </trkpt>
      <trkpt lat="45.4774" lon="4.75993">
        <ele>334.3</ele>
        <time>2021-08-01T13:27:05Z</time>
      </trkpt>
      <trkpt lat="45.47736" lon="4.75997">
        <ele>333.86</ele>
        <time>2021-08-01T13:27:06Z</time>
      </trkpt>
      <trkpt lat="45.47733" lon="4.76002">
        <ele>333.59</ele>
        <time>2021-08-01T13:27:07Z</time>
      </trkpt>
      <trkpt lat="45.4773" lon="4.76007">
        <ele>333.35</ele>
        <time>2021-08-01T13:27:08Z</time>
      </trkpt>
      <trkpt lat="45.47728" lon="4.76014">
        <ele>333.19</ele>
        <time>2021-08-01T13:27:09Z</time>
      </trkpt>
      <trkpt lat="45.47722" lon="4.76026">
        <ele>333.02</ele>
        <time>2021-08-01T13:27:11Z</time>
      </trkpt>
      <trkpt lat="45.47719" lon="4.76032">
        <ele>332.98</ele>
        <time>2021-08-01T13:27:12Z</time>
      </trkpt>
      <trkpt lat="45.47683" lon="4.76093">
        <ele>331.4</ele>
        <time>2021-08-01T13:27:22Z</time>
      </trkpt>
      <trkpt lat="45.47675" lon="4.76106">
        <ele>330.96</ele>
        <time>2021-08-01T13:27:24Z</time>
      </trkpt>
      <trkpt lat="45.47639" lon="4.76158">
        <ele>330.28</ele>
        <time>2021-08-01T13:27:32Z</time>
      </trkpt>
      <trkpt lat="45.47588" lon="4.76212">
        <ele>329.45</ele>
        <time>2021-08-01T13:27:41Z</time>
      </trkpt>
      <trkpt lat="45.47537" lon="4.76248">
        <ele>329.53</ele>
        <time>2021-08-01T13:27:49Z</time>
      </trkpt>
      <trkpt lat="45.47468" lon="4.76294">
        <ele>329.76</ele>
        <time>2021-08-01T13:27:59Z</time>
      </trkpt>
      <trkpt lat="45.47406" lon="4.76333">
        <ele>329.05</ele>
        <time>2021-08-01T13:28:06Z</time>
      </trkpt>
      <trkpt lat="45.47357" lon="4.76351">
        <ele>325.9</ele>
        <time>2021-08-01T13:28:11Z</time>
      </trkpt>
      <trkpt lat="45.47306" lon="4.76365">
        <ele>322.69</ele>
        <time>2021-08-01T13:28:16Z</time>
      </trkpt>
      <trkpt lat="45.47247" lon="4.76396">
        <ele>319.65</ele>
        <time>2021-08-01T13:28:22Z</time>
      </trkpt>
      <trkpt lat="45.47164" lon="4.76458">
        <ele>317.3</ele>
        <time>2021-08-01T13:28:30Z</time>
      </trkpt>
      <trkpt lat="45.47132" lon="4.76483">
        <ele>316.03</ele>
        <time>2021-08-01T13:28:33Z</time>
      </trkpt>
      <trkpt lat="45.47111" lon="4.76503">
        <ele>314.9</ele>
        <time>2021-08-01T13:28:35Z</time>
      </trkpt>
      <trkpt lat="45.47103" lon="4.76515">
        <ele>314.36</ele>
        <time>2021-08-01T13:28:36Z</time>
      </trkpt>
      <trkpt lat="45.47097" lon="4.76531">
        <ele>313.52</ele>
        <time>2021-08-01T13:28:37Z</time>
      </trkpt>
      <trkpt lat="45.47094" lon="4.76549">
        <ele>312.83</ele>
        <time>2021-08-01T13:28:38Z</time>
      </trkpt>
      <trkpt lat="45.47091" lon="4.76567">
        <ele>312.19</ele>
        <time>2021-08-01T13:28:39Z</time>
      </trkpt>
      <trkpt lat="45.47079" lon="4.76641">
        <ele>308.86</ele>
        <time>2021-08-01T13:28:43Z</time>
      </trkpt>
      <trkpt lat="45.47067" lon="4.76676">
        <ele>307.83</ele>
        <time>2021-08-01T13:28:45Z</time>
      </trkpt>
      <trkpt lat="45.47059" lon="4.76692">
        <ele>307.08</ele>
        <time>2021-08-01T13:28:46Z</time>
      </trkpt>
      <trkpt lat="45.47051" lon="4.76705">
        <ele>305.97</ele>
        <time>2021-08-01T13:28:47Z</time>
      </trkpt>
      <trkpt lat="45.47024" lon="4.76738">
        <ele>301.29</ele>
        <time>2021-08-01T13:28:50Z</time>
      </trkpt>
      <trkpt lat="45.47011" lon="4.76757">
        <ele>298.97</ele>
        <time>2021-08-01T13:28:52Z</time>
      </trkpt>
      <trkpt lat="45.47007" lon="4.76769">
        <ele>298.3</ele>
        <time>2021-08-01T13:28:53Z</time>
      </trkpt>
      <trkpt lat="45.47008" lon="4.76783">
        <ele>297.11</ele>
        <time>2021-08-01T13:28:54Z</time>
      </trkpt>
      <trkpt lat="45.47011" lon="4.76796">
        <ele>295.84</ele>
        <time>2021-08-01T13:28:55Z</time>
      </trkpt>
      <trkpt lat="45.47018" lon="4.76808">
        <ele>295.19</ele>
        <time>2021-08-01T13:28:56Z</time>
      </trkpt>
      <trkpt lat="45.47027" lon="4.76817">
        <ele>294.8</ele>
        <time>2021-08-01T13:28:57Z</time>
      </trkpt>
      <trkpt lat="45.47036" lon="4.76825">
        <ele>294.57</ele>
        <time>2021-08-01T13:28:58Z</time>
      </trkpt>
      <trkpt lat="45.47046" lon="4.76831">
        <ele>294.43</ele>
        <time>2021-08-01T13:28:59Z</time>
      </trkpt>
      <trkpt lat="45.47094" lon="4.76871">
        <ele>291.07</ele>
        <time>2021-08-01T13:29:04Z</time>
      </trkpt>
      <trkpt lat="45.47113" lon="4.76889">
        <ele>287.68</ele>
        <time>2021-08-01T13:29:06Z</time>
      </trkpt>
      <trkpt lat="45.47123" lon="4.76896">
        <ele>286.65</ele>
        <time>2021-08-01T13:29:07Z</time>
      </trkpt>
      <trkpt lat="45.47134" lon="4.76899">
        <ele>286.12</ele>
        <time>2021-08-01T13:29:08Z</time>
      </trkpt>
      <trkpt lat="45.47156" lon="4.76903">
        <ele>285.09</ele>
        <time>2021-08-01T13:29:10Z</time>
      </trkpt>
      <trkpt lat="45.47167" lon="4.76909">
        <ele>284.77</ele>
        <time>2021-08-01T13:29:11Z</time>
      </trkpt>
      <trkpt lat="45.47177" lon="4.76918">
        <ele>284.02</ele>
        <time>2021-08-01T13:29:12Z</time>
      </trkpt>
      <trkpt lat="45.47186" lon="4.76928">
        <ele>283.2</ele>
        <time>2021-08-01T13:29:13Z</time>
      </trkpt>
      <trkpt lat="45.47197" lon="4.76935">
        <ele>281.93</ele>
        <time>2021-08-01T13:29:14Z</time>
      </trkpt>
      <trkpt lat="45.47208" lon="4.76941">
        <ele>280.61</ele>
        <time>2021-08-01T13:29:15Z</time>
      </trkpt>
      <trkpt lat="45.47219" lon="4.76945">
        <ele>279.54</ele>
        <time>2021-08-01T13:29:16Z</time>
      </trkpt>
      <trkpt lat="45.4723" lon="4.7695">
        <ele>278.77</ele>
        <time>2021-08-01T13:29:17Z</time>
      </trkpt>
      <trkpt lat="45.47241" lon="4.76957">
        <ele>278.07</ele>
        <time>2021-08-01T13:29:18Z</time>
      </trkpt>
      <trkpt lat="45.47263" lon="4.76972">
        <ele>276.39</ele>
        <time>2021-08-01T13:29:20Z</time>
      </trkpt>
      <trkpt lat="45.47275" lon="4.76976">
        <ele>275.48</ele>
        <time>2021-08-01T13:29:21Z</time>
      </trkpt>
      <trkpt lat="45.47287" lon="4.76977">
        <ele>274.4</ele>
        <time>2021-08-01T13:29:22Z</time>
      </trkpt>
      <trkpt lat="45.47298" lon="4.76976">
        <ele>273.47</ele>
        <time>2021-08-01T13:29:23Z</time>
      </trkpt>
      <trkpt lat="45.47309" lon="4.76972">
        <ele>272.53</ele>
        <time>2021-08-01T13:29:24Z</time>
      </trkpt>
      <trkpt lat="45.47317" lon="4.76965">
        <ele>271.24</ele>
        <time>2021-08-01T13:29:25Z</time>
      </trkpt>
      <trkpt lat="45.47323" lon="4.76957">
        <ele>270.61</ele>
        <time>2021-08-01T13:29:26Z</time>
      </trkpt>
      <trkpt lat="45.47329" lon="4.76951">
        <ele>268.85</ele>
        <time>2021-08-01T13:29:27Z</time>
      </trkpt>
      <trkpt lat="45.47335" lon="4.76947">
        <ele>267.88</ele>
        <time>2021-08-01T13:29:28Z</time>
      </trkpt>
      <trkpt lat="45.47341" lon="4.76949">
        <ele>267.38</ele>
        <time>2021-08-01T13:29:29Z</time>
      </trkpt>
      <trkpt lat="45.47345" lon="4.76955">
        <ele>267.13</ele>
        <time>2021-08-01T13:29:30Z</time>
      </trkpt>
      <trkpt lat="45.47348" lon="4.76964">
        <ele>266.96</ele>
        <time>2021-08-01T13:29:31Z</time>
      </trkpt>
      <trkpt lat="45.47349" lon="4.76974">
        <ele>266.73</ele>
        <time>2021-08-01T13:29:32Z</time>
      </trkpt>
      <trkpt lat="45.47348" lon="4.76985">
        <ele>266.59</ele>
        <time>2021-08-01T13:29:33Z</time>
      </trkpt>
      <trkpt lat="45.47347" lon="4.76997">
        <ele>266.5</ele>
        <time>2021-08-01T13:29:34Z</time>
      </trkpt>
      <trkpt lat="45.47345" lon="4.7701">
        <ele>266</ele>
        <time>2021-08-01T13:29:35Z</time>
      </trkpt>
      <trkpt lat="45.47339" lon="4.77068">
        <ele>265.42</ele>
        <time>2021-08-01T13:29:39Z</time>
      </trkpt>
      <trkpt lat="45.4734" lon="4.77084">
        <ele>264.89</ele>
        <time>2021-08-01T13:29:40Z</time>
      </trkpt>
      <trkpt lat="45.47344" lon="4.77098">
        <ele>264.52</ele>
        <time>2021-08-01T13:29:41Z</time>
      </trkpt>
      <trkpt lat="45.47351" lon="4.77109">
        <ele>264.31</ele>
        <time>2021-08-01T13:29:42Z</time>
      </trkpt>
      <trkpt lat="45.47359" lon="4.77117">
        <ele>263.8</ele>
        <time>2021-08-01T13:29:43Z</time>
      </trkpt>
      <trkpt lat="45.47368" lon="4.77119">
        <ele>263.19</ele>
        <time>2021-08-01T13:29:44Z</time>
      </trkpt>
      <trkpt lat="45.47377" lon="4.77117">
        <ele>262.27</ele>
        <time>2021-08-01T13:29:45Z</time>
      </trkpt>
      <trkpt lat="45.47384" lon="4.77115">
        <ele>261.18</ele>
        <time>2021-08-01T13:29:46Z</time>
      </trkpt>
      <trkpt lat="45.4739" lon="4.77115">
        <ele>259.95</ele>
        <time>2021-08-01T13:29:47Z</time>
      </trkpt>
      <trkpt lat="45.47395" lon="4.77119">
        <ele>258.5</ele>
        <time>2021-08-01T13:29:48Z</time>
      </trkpt>
      <trkpt lat="45.47397" lon="4.77126">
        <ele>256.09</ele>
        <time>2021-08-01T13:29:49Z</time>
      </trkpt>
      <trkpt lat="45.47396" lon="4.77133">
        <ele>256.09</ele>
        <time>2021-08-01T13:29:50Z</time>
      </trkpt>
      <trkpt lat="45.47392" lon="4.77137">
        <ele>254.58</ele>
        <time>2021-08-01T13:29:51Z</time>
      </trkpt>
      <trkpt lat="45.47386" lon="4.77138">
        <ele>254.13</ele>
        <time>2021-08-01T13:29:52Z</time>
      </trkpt>
      <trkpt lat="45.4738" lon="4.77138">
        <ele>253.72</ele>
        <time>2021-08-01T13:29:53Z</time>
      </trkpt>
      <trkpt lat="45.47373" lon="4.77137">
        <ele>253.36</ele>
        <time>2021-08-01T13:29:54Z</time>
      </trkpt>
      <trkpt lat="45.47335" lon="4.7713">
        <ele>252.52</ele>
        <time>2021-08-01T13:29:59Z</time>
      </trkpt>
      <trkpt lat="45.47328" lon="4.77123">
        <ele>252.09</ele>
        <time>2021-08-01T13:30:00Z</time>
      </trkpt>
      <trkpt lat="45.47322" lon="4.77114">
        <ele>251.51</ele>
        <time>2021-08-01T13:30:01Z</time>
      </trkpt>
      <trkpt lat="45.47318" lon="4.77102">
        <ele>251.18</ele>
        <time>2021-08-01T13:30:02Z</time>
      </trkpt>
      <trkpt lat="45.47316" lon="4.7709">
        <ele>250.82</ele>
        <time>2021-08-01T13:30:03Z</time>
      </trkpt>
      <trkpt lat="45.47312" lon="4.7708">
        <ele>250.36</ele>
        <time>2021-08-01T13:30:04Z</time>
      </trkpt>
      <trkpt lat="45.47307" lon="4.77071">
        <ele>249.69</ele>
        <time>2021-08-01T13:30:05Z</time>
      </trkpt>
      <trkpt lat="45.473" lon="4.77066">
        <ele>248.7</ele>
        <time>2021-08-01T13:30:06Z</time>
      </trkpt>
      <trkpt lat="45.47291" lon="4.77066">
        <ele>247.83</ele>
        <time>2021-08-01T13:30:07Z</time>
      </trkpt>
      <trkpt lat="45.47284" lon="4.77071">
        <ele>246.95</ele>
        <time>2021-08-01T13:30:08Z</time>
      </trkpt>
      <trkpt lat="45.4728" lon="4.7708">
        <ele>245.91</ele>
        <time>2021-08-01T13:30:09Z</time>
      </trkpt>
      <trkpt lat="45.47277" lon="4.77091">
        <ele>244.92</ele>
        <time>2021-08-01T13:30:10Z</time>
      </trkpt>
      <trkpt lat="45.47274" lon="4.77104">
        <ele>244.12</ele>
        <time>2021-08-01T13:30:11Z</time>
      </trkpt>
      <trkpt lat="45.47264" lon="4.77157">
        <ele>242.31</ele>
        <time>2021-08-01T13:30:15Z</time>
      </trkpt>
      <trkpt lat="45.4726" lon="4.7717">
        <ele>241.99</ele>
        <time>2021-08-01T13:30:16Z</time>
      </trkpt>
      <trkpt lat="45.47254" lon="4.7718">
        <ele>240.74</ele>
        <time>2021-08-01T13:30:17Z</time>
      </trkpt>
      <trkpt lat="45.47247" lon="4.77188">
        <ele>240.1</ele>
        <time>2021-08-01T13:30:18Z</time>
      </trkpt>
      <trkpt lat="45.47239" lon="4.77193">
        <ele>239.14</ele>
        <time>2021-08-01T13:30:19Z</time>
      </trkpt>
      <trkpt lat="45.4723" lon="4.77197">
        <ele>238.2</ele>
        <time>2021-08-01T13:30:20Z</time>
      </trkpt>
      <trkpt lat="45.4722" lon="4.77199">
        <ele>237.25</ele>
        <time>2021-08-01T13:30:21Z</time>
      </trkpt>
      <trkpt lat="45.4721" lon="4.772">
        <ele>236.35</ele>
        <time>2021-08-01T13:30:22Z</time>
      </trkpt>
      <trkpt lat="45.47199" lon="4.77197">
        <ele>235.04</ele>
        <time>2021-08-01T13:30:23Z</time>
      </trkpt>
      <trkpt lat="45.47188" lon="4.77193">
        <ele>233.57</ele>
        <time>2021-08-01T13:30:24Z</time>
      </trkpt>
      <trkpt lat="45.47133" lon="4.7717">
        <ele>231.04</ele>
        <time>2021-08-01T13:30:29Z</time>
      </trkpt>
      <trkpt lat="45.47125" lon="4.77162">
        <ele>230.38</ele>
        <time>2021-08-01T13:30:30Z</time>
      </trkpt>
      <trkpt lat="45.47117" lon="4.77153">
        <ele>229.82</ele>
        <time>2021-08-01T13:30:31Z</time>
      </trkpt>
      <trkpt lat="45.47112" lon="4.77142">
        <ele>228.88</ele>
        <time>2021-08-01T13:30:32Z</time>
      </trkpt>
      <trkpt lat="45.4711" lon="4.77131">
        <ele>227.59</ele>
        <time>2021-08-01T13:30:33Z</time>
      </trkpt>
      <trkpt lat="45.4711" lon="4.77118">
        <ele>226.12</ele>
        <time>2021-08-01T13:30:34Z</time>
      </trkpt>
      <trkpt lat="45.47108" lon="4.77107">
        <ele>224.47</ele>
        <time>2021-08-01T13:30:35Z</time>
      </trkpt>
      <trkpt lat="45.47102" lon="4.77098">
        <ele>222.86</ele>
        <time>2021-08-01T13:30:36Z</time>
      </trkpt>
      <trkpt lat="45.47095" lon="4.77092">
        <ele>221.72</ele>
        <time>2021-08-01T13:30:37Z</time>
      </trkpt>
      <trkpt lat="45.47086" lon="4.7709">
        <ele>221.1</ele>
        <time>2021-08-01T13:30:38Z</time>
      </trkpt>
      <trkpt lat="45.47078" lon="4.77093">
        <ele>220.68</ele>
        <time>2021-08-01T13:30:39Z</time>
      </trkpt>
      <trkpt lat="45.47069" lon="4.77098">
        <ele>220.17</ele>
        <time>2021-08-01T13:30:40Z</time>
      </trkpt>
      <trkpt lat="45.47061" lon="4.77106">
        <ele>219.67</ele>
        <time>2021-08-01T13:30:41Z</time>
      </trkpt>
      <trkpt lat="45.47053" lon="4.77115">
        <ele>219.05</ele>
        <time>2021-08-01T13:30:42Z</time>
      </trkpt>
      <trkpt lat="45.47038" lon="4.77133">
        <ele>217.35</ele>
        <time>2021-08-01T13:30:44Z</time>
      </trkpt>
      <trkpt lat="45.47029" lon="4.77138">
        <ele>216.72</ele>
        <time>2021-08-01T13:30:45Z</time>
      </trkpt>
      <trkpt lat="45.4702" lon="4.77139">
        <ele>216.25</ele>
        <time>2021-08-01T13:30:46Z</time>
      </trkpt>
      <trkpt lat="45.47011" lon="4.77135">
        <ele>216.01</ele>
        <time>2021-08-01T13:30:47Z</time>
      </trkpt>
      <trkpt lat="45.47003" lon="4.77127">
        <ele>215.68</ele>
        <time>2021-08-01T13:30:48Z</time>
      </trkpt>
      <trkpt lat="45.46996" lon="4.77117">
        <ele>214.87</ele>
        <time>2021-08-01T13:30:49Z</time>
      </trkpt>
      <trkpt lat="45.4699" lon="4.77105">
        <ele>214.24</ele>
        <time>2021-08-01T13:30:50Z</time>
      </trkpt>
      <trkpt lat="45.46986" lon="4.77093">
        <ele>213.86</ele>
        <time>2021-08-01T13:30:51Z</time>
      </trkpt>
      <trkpt lat="45.46983" lon="4.77081">
        <ele>213.48</ele>
        <time>2021-08-01T13:30:52Z</time>
      </trkpt>
      <trkpt lat="45.46976" lon="4.77074">
        <ele>213.11</ele>
        <time>2021-08-01T13:30:53Z</time>
      </trkpt>
      <trkpt lat="45.46967" lon="4.77071">
        <ele>212.58</ele>
        <time>2021-08-01T13:30:54Z</time>
      </trkpt>
      <trkpt lat="45.46958" lon="4.77072">
        <ele>211.61</ele>
        <time>2021-08-01T13:30:55Z</time>
      </trkpt>
      <trkpt lat="45.46949" lon="4.77076">
        <ele>210.26</ele>
        <time>2021-08-01T13:30:56Z</time>
      </trkpt>
      <trkpt lat="45.4694" lon="4.77081">
        <ele>208.92</ele>
        <time>2021-08-01T13:30:57Z</time>
      </trkpt>
      <trkpt lat="45.4693" lon="4.77087">
        <ele>207.48</ele>
        <time>2021-08-01T13:30:58Z</time>
      </trkpt>
      <trkpt lat="45.46921" lon="4.77093">
        <ele>206.65</ele>
        <time>2021-08-01T13:30:59Z</time>
      </trkpt>
      <trkpt lat="45.4691" lon="4.77096">
        <ele>206.19</ele>
        <time>2021-08-01T13:31:00Z</time>
      </trkpt>
      <trkpt lat="45.46899" lon="4.77095">
        <ele>205.62</ele>
        <time>2021-08-01T13:31:01Z</time>
      </trkpt>
      <trkpt lat="45.46889" lon="4.7709">
        <ele>205.33</ele>
        <time>2021-08-01T13:31:02Z</time>
      </trkpt>
      <trkpt lat="45.46878" lon="4.77082">
        <ele>204.59</ele>
        <time>2021-08-01T13:31:03Z</time>
      </trkpt>
      <trkpt lat="45.46868" lon="4.77075">
        <ele>203.69</ele>
        <time>2021-08-01T13:31:04Z</time>
      </trkpt>
      <trkpt lat="45.46856" lon="4.77072">
        <ele>202.97</ele>
        <time>2021-08-01T13:31:05Z</time>
      </trkpt>
      <trkpt lat="45.46844" lon="4.77072">
        <ele>202.52</ele>
        <time>2021-08-01T13:31:06Z</time>
      </trkpt>
      <trkpt lat="45.46832" lon="4.77074">
        <ele>202.16</ele>
        <time>2021-08-01T13:31:07Z</time>
      </trkpt>
      <trkpt lat="45.46822" lon="4.77077">
        <ele>201.88</ele>
        <time>2021-08-01T13:31:08Z</time>
      </trkpt>
      <trkpt lat="45.46813" lon="4.77081">
        <ele>200.54</ele>
        <time>2021-08-01T13:31:09Z</time>
      </trkpt>
      <trkpt lat="45.46803" lon="4.77084">
        <ele>199.54</ele>
        <time>2021-08-01T13:31:10Z</time>
      </trkpt>
      <trkpt lat="45.46794" lon="4.77085">
        <ele>198.56</ele>
        <time>2021-08-01T13:31:11Z</time>
      </trkpt>
      <trkpt lat="45.46784" lon="4.77083">
        <ele>197.56</ele>
        <time>2021-08-01T13:31:12Z</time>
      </trkpt>
      <trkpt lat="45.46774" lon="4.77078">
        <ele>196.3</ele>
        <time>2021-08-01T13:31:13Z</time>
      </trkpt>
      <trkpt lat="45.46764" lon="4.77073">
        <ele>194.59</ele>
        <time>2021-08-01T13:31:14Z</time>
      </trkpt>
      <trkpt lat="45.46754" lon="4.77066">
        <ele>193.26</ele>
        <time>2021-08-01T13:31:15Z</time>
      </trkpt>
      <trkpt lat="45.46744" lon="4.77059">
        <ele>192.29</ele>
        <time>2021-08-01T13:31:16Z</time>
      </trkpt>
      <trkpt lat="45.46687" lon="4.77013">
        <ele>188.97</ele>
        <time>2021-08-01T13:31:22Z</time>
      </trkpt>
      <trkpt lat="45.46641" lon="4.7696">
        <ele>185.13</ele>
        <time>2021-08-01T13:31:27Z</time>
      </trkpt>
      <trkpt lat="45.46633" lon="4.76949">
        <ele>184.04</ele>
        <time>2021-08-01T13:31:28Z</time>
      </trkpt>
      <trkpt lat="45.46626" lon="4.76937">
        <ele>182.86</ele>
        <time>2021-08-01T13:31:29Z</time>
      </trkpt>
      <trkpt lat="45.46621" lon="4.76923">
        <ele>181.74</ele>
        <time>2021-08-01T13:31:30Z</time>
      </trkpt>
      <trkpt lat="45.46618" lon="4.76908">
        <ele>180.62</ele>
        <time>2021-08-01T13:31:31Z</time>
      </trkpt>
      <trkpt lat="45.46615" lon="4.76892">
        <ele>179.47</ele>
        <time>2021-08-01T13:31:32Z</time>
      </trkpt>
      <trkpt lat="45.46614" lon="4.76877">
        <ele>177.17</ele>
        <time>2021-08-01T13:31:33Z</time>
      </trkpt>
      <trkpt lat="45.46615" lon="4.76862">
        <ele>176.03</ele>
        <time>2021-08-01T13:31:34Z</time>
      </trkpt>
      <trkpt lat="45.46615" lon="4.76847">
        <ele>175.4</ele>
        <time>2021-08-01T13:31:35Z</time>
      </trkpt>
      <trkpt lat="45.46613" lon="4.76832">
        <ele>174.94</ele>
        <time>2021-08-01T13:31:36Z</time>
      </trkpt>
      <trkpt lat="45.46608" lon="4.76819">
        <ele>174.64</ele>
        <time>2021-08-01T13:31:37Z</time>
      </trkpt>
      <trkpt lat="45.466" lon="4.76809">
        <ele>174.25</ele>
        <time>2021-08-01T13:31:38Z</time>
      </trkpt>
      <trkpt lat="45.46591" lon="4.76801">
        <ele>173.73</ele>
        <time>2021-08-01T13:31:39Z</time>
      </trkpt>
      <trkpt lat="45.46582" lon="4.76796">
        <ele>173.42</ele>
        <time>2021-08-01T13:31:40Z</time>
      </trkpt>
      <trkpt lat="45.46572" lon="4.76794">
        <ele>172.98</ele>
        <time>2021-08-01T13:31:41Z</time>
      </trkpt>
      <trkpt lat="45.46562" lon="4.76791">
        <ele>172.3</ele>
        <time>2021-08-01T13:31:42Z</time>
      </trkpt>
      <trkpt lat="45.46521" lon="4.76783">
        <ele>169.26</ele>
        <time>2021-08-01T13:31:46Z</time>
      </trkpt>
      <trkpt lat="45.4651" lon="4.7678">
        <ele>168.68</ele>
        <time>2021-08-01T13:31:47Z</time>
      </trkpt>
      <trkpt lat="45.46499" lon="4.76774">
        <ele>167.99</ele>
        <time>2021-08-01T13:31:48Z</time>
      </trkpt>
      <trkpt lat="45.46489" lon="4.76767">
        <ele>167.58</ele>
        <time>2021-08-01T13:31:49Z</time>
      </trkpt>
      <trkpt lat="45.46479" lon="4.76759">
        <ele>167.13</ele>
        <time>2021-08-01T13:31:50Z</time>
      </trkpt>
      <trkpt lat="45.4647" lon="4.7675">
        <ele>166.89</ele>
        <time>2021-08-01T13:31:51Z</time>
      </trkpt>
      <trkpt lat="45.46433" lon="4.76726">
        <ele>165.14</ele>
        <time>2021-08-01T13:31:55Z</time>
      </trkpt>
      <trkpt lat="45.46423" lon="4.76723">
        <ele>164.42</ele>
        <time>2021-08-01T13:31:56Z</time>
      </trkpt>
      <trkpt lat="45.46414" lon="4.7672">
        <ele>163.62</ele>
        <time>2021-08-01T13:31:57Z</time>
      </trkpt>
      <trkpt lat="45.46404" lon="4.7672">
        <ele>162.51</ele>
        <time>2021-08-01T13:31:58Z</time>
      </trkpt>
      <trkpt lat="45.46396" lon="4.76724">
        <ele>161.06</ele>
        <time>2021-08-01T13:31:59Z</time>
      </trkpt>
      <trkpt lat="45.46389" lon="4.76731">
        <ele>161.06</ele>
        <time>2021-08-01T13:32:00Z</time>
      </trkpt>
      <trkpt lat="45.46383" lon="4.7674">
        <ele>160.65</ele>
        <time>2021-08-01T13:32:01Z</time>
      </trkpt>
      <trkpt lat="45.46378" lon="4.7675">
        <ele>160.57</ele>
        <time>2021-08-01T13:32:02Z</time>
      </trkpt>
      <trkpt lat="45.46352" lon="4.76804">
        <ele>157.4</ele>
        <time>2021-08-01T13:32:07Z</time>
      </trkpt>
      <trkpt lat="45.46348" lon="4.76816">
        <ele>156.93</ele>
        <time>2021-08-01T13:32:08Z</time>
      </trkpt>
      <trkpt lat="45.46345" lon="4.76828">
        <ele>156.49</ele>
        <time>2021-08-01T13:32:09Z</time>
      </trkpt>
      <trkpt lat="45.46344" lon="4.76839">
        <ele>155.82</ele>
        <time>2021-08-01T13:32:10Z</time>
      </trkpt>
      <trkpt lat="45.46344" lon="4.7685">
        <ele>155.23</ele>
        <time>2021-08-01T13:32:11Z</time>
      </trkpt>
      <trkpt lat="45.46344" lon="4.76861">
        <ele>154.27</ele>
        <time>2021-08-01T13:32:12Z</time>
      </trkpt>
      <trkpt lat="45.46341" lon="4.7687">
        <ele>153.32</ele>
        <time>2021-08-01T13:32:13Z</time>
      </trkpt>
      <trkpt lat="45.46338" lon="4.76879">
        <ele>152.25</ele>
        <time>2021-08-01T13:32:14Z</time>
      </trkpt>
      <trkpt lat="45.46334" lon="4.76887">
        <ele>151.42</ele>
        <time>2021-08-01T13:32:15Z</time>
      </trkpt>
      <trkpt lat="45.46327" lon="4.76903">
        <ele>150.54</ele>
        <time>2021-08-01T13:32:17Z</time>
      </trkpt>
      <trkpt lat="45.46312" lon="4.76934">
        <ele>150.25</ele>
        <time>2021-08-01T13:32:21Z</time>
      </trkpt>
      <trkpt lat="45.46309" lon="4.76939">
        <ele>150.24</ele>
        <time>2021-08-01T13:32:22Z</time>
      </trkpt>
      <trkpt lat="45.46308" lon="4.76943">
        <ele>150.23</ele>
        <time>2021-08-01T13:32:23Z</time>
      </trkpt>
      <trkpt lat="45.46307" lon="4.76946">
        <ele>150.23</ele>
        <time>2021-08-01T13:32:24Z</time>
      </trkpt>
      <trkpt lat="45.46307" lon="4.76948">
        <ele>150.4</ele>
        <time>2021-08-01T13:32:25Z</time>
      </trkpt>
      <trkpt lat="45.46308" lon="4.7695">
        <ele>150.65</ele>
        <time>2021-08-01T13:32:29Z</time>
      </trkpt>
      <trkpt lat="45.46302" lon="4.76947">
        <ele>151.89</ele>
        <time>2021-08-01T13:32:43Z</time>
      </trkpt>
      <trkpt lat="45.46299" lon="4.76945">
        <ele>151.94</ele>
        <time>2021-08-01T13:32:44Z</time>
      </trkpt>
      <trkpt lat="45.46297" lon="4.76942">
        <ele>151.95</ele>
        <time>2021-08-01T13:32:45Z</time>
      </trkpt>
      <trkpt lat="45.46282" lon="4.76926">
        <ele>151.95</ele>
        <time>2021-08-01T13:32:50Z</time>
      </trkpt>
      <trkpt lat="45.46279" lon="4.76923">
        <ele>151.95</ele>
        <time>2021-08-01T13:32:51Z</time>
      </trkpt>
      <trkpt lat="45.46251" lon="4.76894">
        <ele>151.99</ele>
        <time>2021-08-01T13:33:00Z</time>
      </trkpt>
      <trkpt lat="45.46236" lon="4.76878">
        <ele>152.43</ele>
        <time>2021-08-01T13:33:06Z</time>
      </trkpt>
      <trkpt lat="45.46216" lon="4.76856">
        <ele>152.64</ele>
        <time>2021-08-01T13:33:14Z</time>
      </trkpt>
      <trkpt lat="45.46202" lon="4.76841">
        <ele>152.82</ele>
        <time>2021-08-01T13:33:20Z</time>
      </trkpt>
      <trkpt lat="45.46201" lon="4.76838">
        <ele>152.85</ele>
        <time>2021-08-01T13:33:21Z</time>
      </trkpt>
      <trkpt lat="45.462" lon="4.76835">
        <ele>153.01</ele>
        <time>2021-08-01T13:33:27Z</time>
      </trkpt>
      <trkpt lat="45.46192" lon="4.76824">
        <ele>153.27</ele>
        <time>2021-08-01T13:33:34Z</time>
      </trkpt>
      <trkpt lat="45.4619" lon="4.76821">
        <ele>153.3</ele>
        <time>2021-08-01T13:33:35Z</time>
      </trkpt>
      <trkpt lat="45.4617" lon="4.76792">
        <ele>153.5</ele>
        <time>2021-08-01T13:33:43Z</time>
      </trkpt>
      <trkpt lat="45.46168" lon="4.7679">
        <ele>153.52</ele>
        <time>2021-08-01T13:33:44Z</time>
      </trkpt>
      <trkpt lat="45.46166" lon="4.76791">
        <ele>153.54</ele>
        <time>2021-08-01T13:33:45Z</time>
      </trkpt>
      <trkpt lat="45.46164" lon="4.76794">
        <ele>153.56</ele>
        <time>2021-08-01T13:33:46Z</time>
      </trkpt>
      <trkpt lat="45.46163" lon="4.76797">
        <ele>153.57</ele>
        <time>2021-08-01T13:33:47Z</time>
      </trkpt>
      <trkpt lat="45.46162" lon="4.76802">
        <ele>153.57</ele>
        <time>2021-08-01T13:33:48Z</time>
      </trkpt>
      <trkpt lat="45.46161" lon="4.76808">
        <ele>153.57</ele>
        <time>2021-08-01T13:33:49Z</time>
      </trkpt>
      <trkpt lat="45.46159" lon="4.76813">
        <ele>153.57</ele>
        <time>2021-08-01T13:33:50Z</time>
      </trkpt>
      <trkpt lat="45.46156" lon="4.76818">
        <ele>153.57</ele>
        <time>2021-08-01T13:33:51Z</time>
      </trkpt>
      <trkpt lat="45.46153" lon="4.76823">
        <ele>153.56</ele>
        <time>2021-08-01T13:33:52Z</time>
      </trkpt>
      <trkpt lat="45.4615" lon="4.76827">
        <ele>153.55</ele>
        <time>2021-08-01T13:33:53Z</time>
      </trkpt>
      <trkpt lat="45.46147" lon="4.76832">
        <ele>153.54</ele>
        <time>2021-08-01T13:33:54Z</time>
      </trkpt>
      <trkpt lat="45.46135" lon="4.76849">
        <ele>153.29</ele>
        <time>2021-08-01T13:33:58Z</time>
      </trkpt>
      <trkpt lat="45.46131" lon="4.76852">
        <ele>153.22</ele>
        <time>2021-08-01T13:33:59Z</time>
      </trkpt>
      <trkpt lat="45.46117" lon="4.76859">
        <ele>153.07</ele>
        <time>2021-08-01T13:34:02Z</time>
      </trkpt>
      <trkpt lat="45.46113" lon="4.7686">
        <ele>153.06</ele>
        <time>2021-08-01T13:34:03Z</time>
      </trkpt>
      <trkpt lat="45.46108" lon="4.76863">
        <ele>153.04</ele>
        <time>2021-08-01T13:34:04Z</time>
      </trkpt>
      <trkpt lat="45.46104" lon="4.76866">
        <ele>152.92</ele>
        <time>2021-08-01T13:34:05Z</time>
      </trkpt>
      <trkpt lat="45.46099" lon="4.7687">
        <ele>152.87</ele>
        <time>2021-08-01T13:34:06Z</time>
      </trkpt>
      <trkpt lat="45.46095" lon="4.76874">
        <ele>152.74</ele>
        <time>2021-08-01T13:34:07Z</time>
      </trkpt>
      <trkpt lat="45.46091" lon="4.76876">
        <ele>152.52</ele>
        <time>2021-08-01T13:34:08Z</time>
      </trkpt>
      <trkpt lat="45.46085" lon="4.76878">
        <ele>152.38</ele>
        <time>2021-08-01T13:34:09Z</time>
      </trkpt>
      <trkpt lat="45.46081" lon="4.76881">
        <ele>152.24</ele>
        <time>2021-08-01T13:34:10Z</time>
      </trkpt>
      <trkpt lat="45.46076" lon="4.76885">
        <ele>152.09</ele>
        <time>2021-08-01T13:34:11Z</time>
      </trkpt>
      <trkpt lat="45.46071" lon="4.76888">
        <ele>151.97</ele>
        <time>2021-08-01T13:34:12Z</time>
      </trkpt>
      <trkpt lat="45.46066" lon="4.7689">
        <ele>151.88</ele>
        <time>2021-08-01T13:34:13Z</time>
      </trkpt>
      <trkpt lat="45.46061" lon="4.76892">
        <ele>151.7</ele>
        <time>2021-08-01T13:34:14Z</time>
      </trkpt>
      <trkpt lat="45.46056" lon="4.76894">
        <ele>151.31</ele>
        <time>2021-08-01T13:34:15Z</time>
      </trkpt>
      <trkpt lat="45.46035" lon="4.76905">
        <ele>150.88</ele>
        <time>2021-08-01T13:34:20Z</time>
      </trkpt>
      <trkpt lat="45.46031" lon="4.76906">
        <ele>150.87</ele>
        <time>2021-08-01T13:34:21Z</time>
      </trkpt>
      <trkpt lat="45.46027" lon="4.76906">
        <ele>150.87</ele>
        <time>2021-08-01T13:34:22Z</time>
      </trkpt>
      <trkpt lat="45.46006" lon="4.76898">
        <ele>151.36</ele>
        <time>2021-08-01T13:34:28Z</time>
      </trkpt>
      <trkpt lat="45.45983" lon="4.76879">
        <ele>151.82</ele>
        <time>2021-08-01T13:34:34Z</time>
      </trkpt>
      <trkpt lat="45.45959" lon="4.76846">
        <ele>152.05</ele>
        <time>2021-08-01T13:34:42Z</time>
      </trkpt>
      <trkpt lat="45.45953" lon="4.76816">
        <ele>151.98</ele>
        <time>2021-08-01T13:34:48Z</time>
      </trkpt>
      <trkpt lat="45.45951" lon="4.76813">
        <ele>151.95</ele>
        <time>2021-08-01T13:34:49Z</time>
      </trkpt>
      <trkpt lat="45.45949" lon="4.76812">
        <ele>151.93</ele>
        <time>2021-08-01T13:34:50Z</time>
      </trkpt>
      <trkpt lat="45.45947" lon="4.76812">
        <ele>151.91</ele>
        <time>2021-08-01T13:34:51Z</time>
      </trkpt>
      <trkpt lat="45.45944" lon="4.76812">
        <ele>151.9</ele>
        <time>2021-08-01T13:34:52Z</time>
      </trkpt>
      <trkpt lat="45.45942" lon="4.76811">
        <ele>151.85</ele>
        <time>2021-08-01T13:34:53Z</time>
      </trkpt>
      <trkpt lat="45.45932" lon="4.76812">
        <ele>151.7</ele>
        <time>2021-08-01T13:34:56Z</time>
      </trkpt>
      <trkpt lat="45.45926" lon="4.76813">
        <ele>151.66</ele>
        <time>2021-08-01T13:34:58Z</time>
      </trkpt>
      <trkpt lat="45.45924" lon="4.76812">
        <ele>151.6</ele>
        <time>2021-08-01T13:34:59Z</time>
      </trkpt>
      <trkpt lat="45.45922" lon="4.7681">
        <ele>151.56</ele>
        <time>2021-08-01T13:35:00Z</time>
      </trkpt>
      <trkpt lat="45.4592" lon="4.7681">
        <ele>151.53</ele>
        <time>2021-08-01T13:35:01Z</time>
      </trkpt>
      <trkpt lat="45.45918" lon="4.76811">
        <ele>151.46</ele>
        <time>2021-08-01T13:35:02Z</time>
      </trkpt>
      <trkpt lat="45.45917" lon="4.76821">
        <ele>151.26</ele>
        <time>2021-08-01T13:35:05Z</time>
      </trkpt>
      <trkpt lat="45.45913" lon="4.76826">
        <ele>151.21</ele>
        <time>2021-08-01T13:35:09Z</time>
      </trkpt>
      <trkpt lat="45.45911" lon="4.76827">
        <ele>151.21</ele>
        <time>2021-08-01T13:35:10Z</time>
      </trkpt>
      <trkpt lat="45.45889" lon="4.76839">
        <ele>151.65</ele>
        <time>2021-08-01T13:35:17Z</time>
      </trkpt>
      <trkpt lat="45.45859" lon="4.76852">
        <ele>152.1</ele>
        <time>2021-08-01T13:35:25Z</time>
      </trkpt>
      <trkpt lat="45.45856" lon="4.76851">
        <ele>152.1</ele>
        <time>2021-08-01T13:35:26Z</time>
      </trkpt>
      <trkpt lat="45.45855" lon="4.76849">
        <ele>152.1</ele>
        <time>2021-08-01T13:35:27Z</time>
      </trkpt>
      <trkpt lat="45.45853" lon="4.76844">
        <ele>152.09</ele>
        <time>2021-08-01T13:35:28Z</time>
      </trkpt>
      <trkpt lat="45.45851" lon="4.76831">
        <ele>152.07</ele>
        <time>2021-08-01T13:35:30Z</time>
      </trkpt>
      <trkpt lat="45.4585" lon="4.76824">
        <ele>152.03</ele>
        <time>2021-08-01T13:35:31Z</time>
      </trkpt>
      <trkpt lat="45.45846" lon="4.7681">
        <ele>151.89</ele>
        <time>2021-08-01T13:35:34Z</time>
      </trkpt>
      <trkpt lat="45.45844" lon="4.76809">
        <ele>151.82</ele>
        <time>2021-08-01T13:35:35Z</time>
      </trkpt>
      <trkpt lat="45.45843" lon="4.76809">
        <ele>151.69</ele>
        <time>2021-08-01T13:35:36Z</time>
      </trkpt>
      <trkpt lat="45.45841" lon="4.7681">
        <ele>151.51</ele>
        <time>2021-08-01T13:35:37Z</time>
      </trkpt>
      <trkpt lat="45.45839" lon="4.76811">
        <ele>151.18</ele>
        <time>2021-08-01T13:35:38Z</time>
      </trkpt>
      <trkpt lat="45.45837" lon="4.76813">
        <ele>150.83</ele>
        <time>2021-08-01T13:35:39Z</time>
      </trkpt>
      <trkpt lat="45.45834" lon="4.76814">
        <ele>150.6</ele>
        <time>2021-08-01T13:35:40Z</time>
      </trkpt>
      <trkpt lat="45.45831" lon="4.76816">
        <ele>150.49</ele>
        <time>2021-08-01T13:35:41Z</time>
      </trkpt>
      <trkpt lat="45.45829" lon="4.76819">
        <ele>150.42</ele>
        <time>2021-08-01T13:35:42Z</time>
      </trkpt>
      <trkpt lat="45.45827" lon="4.76821">
        <ele>150.38</ele>
        <time>2021-08-01T13:35:43Z</time>
      </trkpt>
      <trkpt lat="45.45802" lon="4.76832">
        <ele>150.16</ele>
        <time>2021-08-01T13:35:50Z</time>
      </trkpt>
      <trkpt lat="45.45795" lon="4.76837">
        <ele>150.09</ele>
        <time>2021-08-01T13:35:52Z</time>
      </trkpt>
      <trkpt lat="45.45792" lon="4.76841">
        <ele>150.04</ele>
        <time>2021-08-01T13:35:53Z</time>
      </trkpt>
      <trkpt lat="45.45789" lon="4.7685">
        <ele>149.97</ele>
        <time>2021-08-01T13:35:55Z</time>
      </trkpt>
      <trkpt lat="45.45789" lon="4.76856">
        <ele>149.89</ele>
        <time>2021-08-01T13:35:56Z</time>
      </trkpt>
      <trkpt lat="45.45792" lon="4.7688">
        <ele>149.54</ele>
        <time>2021-08-01T13:36:00Z</time>
      </trkpt>
      <trkpt lat="45.45791" lon="4.76886">
        <ele>149.48</ele>
        <time>2021-08-01T13:36:01Z</time>
      </trkpt>
      <trkpt lat="45.4579" lon="4.76933">
        <ele>149.19</ele>
        <time>2021-08-01T13:36:09Z</time>
      </trkpt>
      <trkpt lat="45.45792" lon="4.76941">
        <ele>149.19</ele>
        <time>2021-08-01T13:36:11Z</time>
      </trkpt>
      <trkpt lat="45.45793" lon="4.76945">
        <ele>149.26</ele>
        <time>2021-08-01T13:36:12Z</time>
      </trkpt>
      <trkpt lat="45.45793" lon="4.76949">
        <ele>149.3</ele>
        <time>2021-08-01T13:36:13Z</time>
      </trkpt>
      <trkpt lat="45.45792" lon="4.76952">
        <ele>149.35</ele>
        <time>2021-08-01T13:36:14Z</time>
      </trkpt>
      <trkpt lat="45.45789" lon="4.76953">
        <ele>149.37</ele>
        <time>2021-08-01T13:36:15Z</time>
      </trkpt>
      <trkpt lat="45.45787" lon="4.76955">
        <ele>149.38</ele>
        <time>2021-08-01T13:36:16Z</time>
      </trkpt>
      <trkpt lat="45.45786" lon="4.76959">
        <ele>149.4</ele>
        <time>2021-08-01T13:36:17Z</time>
      </trkpt>
      <trkpt lat="45.45786" lon="4.76964">
        <ele>149.42</ele>
        <time>2021-08-01T13:36:18Z</time>
      </trkpt>
      <trkpt lat="45.45783" lon="4.76993">
        <ele>149.47</ele>
        <time>2021-08-01T13:36:23Z</time>
      </trkpt>
      <trkpt lat="45.45783" lon="4.77052">
        <ele>149.44</ele>
        <time>2021-08-01T13:36:31Z</time>
      </trkpt>
      <trkpt lat="45.45782" lon="4.77059">
        <ele>149.42</ele>
        <time>2021-08-01T13:36:32Z</time>
      </trkpt>
      <trkpt lat="45.4578" lon="4.77071">
        <ele>149.37</ele>
        <time>2021-08-01T13:36:34Z</time>
      </trkpt>
      <trkpt lat="45.4578" lon="4.77077">
        <ele>149.33</ele>
        <time>2021-08-01T13:36:35Z</time>
      </trkpt>
      <trkpt lat="45.45785" lon="4.77095">
        <ele>149.28</ele>
        <time>2021-08-01T13:36:38Z</time>
      </trkpt>
      <trkpt lat="45.45788" lon="4.771">
        <ele>149.28</ele>
        <time>2021-08-01T13:36:39Z</time>
      </trkpt>
      <trkpt lat="45.45808" lon="4.77129">
        <ele>149.28</ele>
        <time>2021-08-01T13:36:45Z</time>
      </trkpt>
      <trkpt lat="45.45812" lon="4.77132">
        <ele>149.28</ele>
        <time>2021-08-01T13:36:46Z</time>
      </trkpt>
      <trkpt lat="45.45857" lon="4.77163">
        <ele>149.2</ele>
        <time>2021-08-01T13:36:55Z</time>
      </trkpt>
      <trkpt lat="45.45895" lon="4.77189">
        <ele>148.97</ele>
        <time>2021-08-01T13:37:04Z</time>
      </trkpt>
      <trkpt lat="45.45902" lon="4.77196">
        <ele>148.96</ele>
        <time>2021-08-01T13:37:06Z</time>
      </trkpt>
      <trkpt lat="45.45915" lon="4.77205">
        <ele>148.97</ele>
        <time>2021-08-01T13:37:09Z</time>
      </trkpt>
      <trkpt lat="45.45919" lon="4.77208">
        <ele>148.98</ele>
        <time>2021-08-01T13:37:10Z</time>
      </trkpt>
      <trkpt lat="45.45924" lon="4.77211">
        <ele>148.98</ele>
        <time>2021-08-01T13:37:11Z</time>
      </trkpt>
      <trkpt lat="45.45928" lon="4.77214">
        <ele>149</ele>
        <time>2021-08-01T13:37:12Z</time>
      </trkpt>
      <trkpt lat="45.45932" lon="4.77218">
        <ele>149.05</ele>
        <time>2021-08-01T13:37:13Z</time>
      </trkpt>
      <trkpt lat="45.45935" lon="4.77224">
        <ele>149.08</ele>
        <time>2021-08-01T13:37:14Z</time>
      </trkpt>
      <trkpt lat="45.45936" lon="4.7723">
        <ele>149.09</ele>
        <time>2021-08-01T13:37:15Z</time>
      </trkpt>
      <trkpt lat="45.45938" lon="4.77237">
        <ele>149.1</ele>
        <time>2021-08-01T13:37:16Z</time>
      </trkpt>
      <trkpt lat="45.45943" lon="4.77256">
        <ele>149.04</ele>
        <time>2021-08-01T13:37:19Z</time>
      </trkpt>
      <trkpt lat="45.45952" lon="4.77295">
        <ele>149.02</ele>
        <time>2021-08-01T13:37:25Z</time>
      </trkpt>
      <trkpt lat="45.45955" lon="4.773">
        <ele>149.02</ele>
        <time>2021-08-01T13:37:26Z</time>
      </trkpt>
      <trkpt lat="45.45959" lon="4.77305">
        <ele>149.02</ele>
        <time>2021-08-01T13:37:27Z</time>
      </trkpt>
      <trkpt lat="45.45963" lon="4.77311">
        <ele>148.96</ele>
        <time>2021-08-01T13:37:28Z</time>
      </trkpt>
      <trkpt lat="45.45965" lon="4.77319">
        <ele>148.95</ele>
        <time>2021-08-01T13:37:29Z</time>
      </trkpt>
      <trkpt lat="45.45967" lon="4.77326">
        <ele>148.91</ele>
        <time>2021-08-01T13:37:30Z</time>
      </trkpt>
      <trkpt lat="45.4599" lon="4.77386">
        <ele>148.48</ele>
        <time>2021-08-01T13:37:38Z</time>
      </trkpt>
      <trkpt lat="45.46017" lon="4.77453">
        <ele>148.42</ele>
        <time>2021-08-01T13:37:47Z</time>
      </trkpt>
      <trkpt lat="45.46032" lon="4.77519">
        <ele>148.34</ele>
        <time>2021-08-01T13:37:55Z</time>
      </trkpt>
      <trkpt lat="45.46039" lon="4.77595">
        <ele>147.99</ele>
        <time>2021-08-01T13:38:04Z</time>
      </trkpt>
      <trkpt lat="45.46046" lon="4.77646">
        <ele>147.86</ele>
        <time>2021-08-01T13:38:10Z</time>
      </trkpt>
      <trkpt lat="45.46049" lon="4.77654">
        <ele>147.85</ele>
        <time>2021-08-01T13:38:11Z</time>
      </trkpt>
      <trkpt lat="45.46052" lon="4.77661">
        <ele>147.85</ele>
        <time>2021-08-01T13:38:12Z</time>
      </trkpt>
      <trkpt lat="45.46057" lon="4.77667">
        <ele>147.85</ele>
        <time>2021-08-01T13:38:13Z</time>
      </trkpt>
      <trkpt lat="45.46062" lon="4.77671">
        <ele>147.85</ele>
        <time>2021-08-01T13:38:14Z</time>
      </trkpt>
      <trkpt lat="45.46067" lon="4.77675">
        <ele>147.84</ele>
        <time>2021-08-01T13:38:15Z</time>
      </trkpt>
      <trkpt lat="45.46073" lon="4.77679">
        <ele>147.84</ele>
        <time>2021-08-01T13:38:16Z</time>
      </trkpt>
      <trkpt lat="45.46121" lon="4.7771">
        <ele>147.94</ele>
        <time>2021-08-01T13:38:25Z</time>
      </trkpt>
      <trkpt lat="45.46165" lon="4.77748">
        <ele>148.52</ele>
        <time>2021-08-01T13:38:34Z</time>
      </trkpt>
      <trkpt lat="45.46212" lon="4.77797">
        <ele>148.74</ele>
        <time>2021-08-01T13:38:44Z</time>
      </trkpt>
      <trkpt lat="45.46264" lon="4.7785">
        <ele>148.86</ele>
        <time>2021-08-01T13:38:55Z</time>
      </trkpt>
      <trkpt lat="45.46296" lon="4.77875">
        <ele>149.11</ele>
        <time>2021-08-01T13:39:01Z</time>
      </trkpt>
      <trkpt lat="45.46312" lon="4.77882">
        <ele>149.15</ele>
        <time>2021-08-01T13:39:04Z</time>
      </trkpt>
      <trkpt lat="45.4636" lon="4.7791">
        <ele>149.09</ele>
        <time>2021-08-01T13:39:13Z</time>
      </trkpt>
      <trkpt lat="45.46382" lon="4.77923">
        <ele>149.08</ele>
        <time>2021-08-01T13:39:17Z</time>
      </trkpt>
      <trkpt lat="45.46387" lon="4.77925">
        <ele>149.08</ele>
        <time>2021-08-01T13:39:18Z</time>
      </trkpt>
      <trkpt lat="45.46405" lon="4.77929">
        <ele>149.28</ele>
        <time>2021-08-01T13:39:21Z</time>
      </trkpt>
      <trkpt lat="45.46424" lon="4.77932">
        <ele>149</ele>
        <time>2021-08-01T13:39:24Z</time>
      </trkpt>
      <trkpt lat="45.46442" lon="4.77939">
        <ele>149.02</ele>
        <time>2021-08-01T13:39:27Z</time>
      </trkpt>
      <trkpt lat="45.46448" lon="4.77942">
        <ele>149.06</ele>
        <time>2021-08-01T13:39:28Z</time>
      </trkpt>
      <trkpt lat="45.46454" lon="4.77945">
        <ele>149.08</ele>
        <time>2021-08-01T13:39:29Z</time>
      </trkpt>
      <trkpt lat="45.46459" lon="4.77946">
        <ele>149.17</ele>
        <time>2021-08-01T13:39:30Z</time>
      </trkpt>
      <trkpt lat="45.46465" lon="4.77946">
        <ele>149.24</ele>
        <time>2021-08-01T13:39:31Z</time>
      </trkpt>
      <trkpt lat="45.46479" lon="4.77945">
        <ele>149.35</ele>
        <time>2021-08-01T13:39:35Z</time>
      </trkpt>
      <trkpt lat="45.46488" lon="4.77935">
        <ele>149.35</ele>
        <time>2021-08-01T13:39:38Z</time>
      </trkpt>
      <trkpt lat="45.4649" lon="4.77928">
        <ele>149.36</ele>
        <time>2021-08-01T13:39:39Z</time>
      </trkpt>
      <trkpt lat="45.46491" lon="4.77921">
        <ele>149.53</ele>
        <time>2021-08-01T13:39:40Z</time>
      </trkpt>
      <trkpt lat="45.46496" lon="4.77876">
        <ele>149.82</ele>
        <time>2021-08-01T13:39:46Z</time>
      </trkpt>
      <trkpt lat="45.46498" lon="4.77869">
        <ele>149.87</ele>
        <time>2021-08-01T13:39:47Z</time>
      </trkpt>
      <trkpt lat="45.46501" lon="4.77863">
        <ele>149.9</ele>
        <time>2021-08-01T13:39:48Z</time>
      </trkpt>
      <trkpt lat="45.46505" lon="4.77857">
        <ele>149.91</ele>
        <time>2021-08-01T13:39:49Z</time>
      </trkpt>
      <trkpt lat="45.46508" lon="4.7785">
        <ele>149.92</ele>
        <time>2021-08-01T13:39:50Z</time>
      </trkpt>
      <trkpt lat="45.46541" lon="4.77801">
        <ele>149.67</ele>
        <time>2021-08-01T13:39:58Z</time>
      </trkpt>
      <trkpt lat="45.46571" lon="4.77755">
        <ele>149.49</ele>
        <time>2021-08-01T13:40:06Z</time>
      </trkpt>
      <trkpt lat="45.46599" lon="4.77717">
        <ele>149.44</ele>
        <time>2021-08-01T13:40:14Z</time>
      </trkpt>
      <trkpt lat="45.46603" lon="4.77716">
        <ele>149.44</ele>
        <time>2021-08-01T13:40:15Z</time>
      </trkpt>
      <trkpt lat="45.46608" lon="4.77718">
        <ele>149.44</ele>
        <time>2021-08-01T13:40:16Z</time>
      </trkpt>
      <trkpt lat="45.46612" lon="4.77723">
        <ele>149.43</ele>
        <time>2021-08-01T13:40:17Z</time>
      </trkpt>
      <trkpt lat="45.46616" lon="4.77727">
        <ele>149.37</ele>
        <time>2021-08-01T13:40:18Z</time>
      </trkpt>
      <trkpt lat="45.46658" lon="4.77781">
        <ele>148.71</ele>
        <time>2021-08-01T13:40:28Z</time>
      </trkpt>
      <trkpt lat="45.46681" lon="4.77816">
        <ele>148.62</ele>
        <time>2021-08-01T13:40:34Z</time>
      </trkpt>
      <trkpt lat="45.46705" lon="4.77854">
        <ele>148.73</ele>
        <time>2021-08-01T13:40:40Z</time>
      </trkpt>
      <trkpt lat="45.46734" lon="4.77883">
        <ele>148.96</ele>
        <time>2021-08-01T13:40:46Z</time>
      </trkpt>
      <trkpt lat="45.46738" lon="4.77886">
        <ele>148.87</ele>
        <time>2021-08-01T13:40:47Z</time>
      </trkpt>
      <trkpt lat="45.46741" lon="4.7789">
        <ele>148.77</ele>
        <time>2021-08-01T13:40:48Z</time>
      </trkpt>
      <trkpt lat="45.46748" lon="4.77895">
        <ele>148.71</ele>
        <time>2021-08-01T13:40:50Z</time>
      </trkpt>
      <trkpt lat="45.46751" lon="4.77896">
        <ele>148.7</ele>
        <time>2021-08-01T13:40:51Z</time>
      </trkpt>
      <trkpt lat="45.46756" lon="4.77896">
        <ele>148.75</ele>
        <time>2021-08-01T13:40:52Z</time>
      </trkpt>
      <trkpt lat="45.46797" lon="4.77889">
        <ele>148.64</ele>
        <time>2021-08-01T13:41:00Z</time>
      </trkpt>
      <trkpt lat="45.46802" lon="4.77888">
        <ele>148.62</ele>
        <time>2021-08-01T13:41:01Z</time>
      </trkpt>
      <trkpt lat="45.46844" lon="4.77882">
        <ele>148.75</ele>
        <time>2021-08-01T13:41:09Z</time>
      </trkpt>
      <trkpt lat="45.46859" lon="4.77879">
        <ele>148.75</ele>
        <time>2021-08-01T13:41:12Z</time>
      </trkpt>
      <trkpt lat="45.46864" lon="4.77879">
        <ele>148.75</ele>
        <time>2021-08-01T13:41:13Z</time>
      </trkpt>
      <trkpt lat="45.46909" lon="4.77875">
        <ele>148.84</ele>
        <time>2021-08-01T13:41:21Z</time>
      </trkpt>
      <trkpt lat="45.46952" lon="4.7787">
        <ele>148.91</ele>
        <time>2021-08-01T13:41:29Z</time>
      </trkpt>
      <trkpt lat="45.46974" lon="4.77864">
        <ele>149</ele>
        <time>2021-08-01T13:41:33Z</time>
      </trkpt>
      <trkpt lat="45.4698" lon="4.77861">
        <ele>149.06</ele>
        <time>2021-08-01T13:41:34Z</time>
      </trkpt>
      <trkpt lat="45.46985" lon="4.77856">
        <ele>149.25</ele>
        <time>2021-08-01T13:41:35Z</time>
      </trkpt>
      <trkpt lat="45.46989" lon="4.7785">
        <ele>149.36</ele>
        <time>2021-08-01T13:41:36Z</time>
      </trkpt>
      <trkpt lat="45.46993" lon="4.77844">
        <ele>149.43</ele>
        <time>2021-08-01T13:41:37Z</time>
      </trkpt>
      <trkpt lat="45.47012" lon="4.77815">
        <ele>149.75</ele>
        <time>2021-08-01T13:41:42Z</time>
      </trkpt>
      <trkpt lat="45.47016" lon="4.7781">
        <ele>149.84</ele>
        <time>2021-08-01T13:41:43Z</time>
      </trkpt>
      <trkpt lat="45.47021" lon="4.77805">
        <ele>149.94</ele>
        <time>2021-08-01T13:41:44Z</time>
      </trkpt>
      <trkpt lat="45.47025" lon="4.77801">
        <ele>150.02</ele>
        <time>2021-08-01T13:41:45Z</time>
      </trkpt>
      <trkpt lat="45.4703" lon="4.77796">
        <ele>150.15</ele>
        <time>2021-08-01T13:41:46Z</time>
      </trkpt>
      <trkpt lat="45.47035" lon="4.77791">
        <ele>150.26</ele>
        <time>2021-08-01T13:41:47Z</time>
      </trkpt>
      <trkpt lat="45.47065" lon="4.77756">
        <ele>150.56</ele>
        <time>2021-08-01T13:41:54Z</time>
      </trkpt>
      <trkpt lat="45.47069" lon="4.77754">
        <ele>150.62</ele>
        <time>2021-08-01T13:41:55Z</time>
      </trkpt>
      <trkpt lat="45.47073" lon="4.77754">
        <ele>150.69</ele>
        <time>2021-08-01T13:41:56Z</time>
      </trkpt>
      <trkpt lat="45.47075" lon="4.77756">
        <ele>150.72</ele>
        <time>2021-08-01T13:41:57Z</time>
      </trkpt>
      <trkpt lat="45.47077" lon="4.77759">
        <ele>150.74</ele>
        <time>2021-08-01T13:41:58Z</time>
      </trkpt>
      <trkpt lat="45.47079" lon="4.77763">
        <ele>150.75</ele>
        <time>2021-08-01T13:41:59Z</time>
      </trkpt>
      <trkpt lat="45.47086" lon="4.77775">
        <ele>150.92</ele>
        <time>2021-08-01T13:42:04Z</time>
      </trkpt>
      <trkpt lat="45.47086" lon="4.77778">
        <ele>151.53</ele>
        <time>2021-08-01T13:42:05Z</time>
      </trkpt>
      <trkpt lat="45.47088" lon="4.77779">
        <ele>151.94</ele>
        <time>2021-08-01T13:42:06Z</time>
      </trkpt>
      <trkpt lat="45.4709" lon="4.7778">
        <ele>152.19</ele>
        <time>2021-08-01T13:42:07Z</time>
      </trkpt>
      <trkpt lat="45.47093" lon="4.77779">
        <ele>152.35</ele>
        <time>2021-08-01T13:42:08Z</time>
      </trkpt>
      <trkpt lat="45.47096" lon="4.77777">
        <ele>152.45</ele>
        <time>2021-08-01T13:42:09Z</time>
      </trkpt>
      <trkpt lat="45.4712" lon="4.77765">
        <ele>152.56</ele>
        <time>2021-08-01T13:42:16Z</time>
      </trkpt>
      <trkpt lat="45.47138" lon="4.77754">
        <ele>152.7</ele>
        <time>2021-08-01T13:42:22Z</time>
      </trkpt>
      <trkpt lat="45.47149" lon="4.77758">
        <ele>152.84</ele>
        <time>2021-08-01T13:42:27Z</time>
      </trkpt>
      <trkpt lat="45.47164" lon="4.77769">
        <ele>153.34</ele>
        <time>2021-08-01T13:42:32Z</time>
      </trkpt>
      <trkpt lat="45.47175" lon="4.77778">
        <ele>153.47</ele>
        <time>2021-08-01T13:42:37Z</time>
      </trkpt>
      <trkpt lat="45.47177" lon="4.77778">
        <ele>153.48</ele>
        <time>2021-08-01T13:42:38Z</time>
      </trkpt>
      <trkpt lat="45.47178" lon="4.77778">
        <ele>153.48</ele>
        <time>2021-08-01T13:42:39Z</time>
      </trkpt>
      <trkpt lat="45.47181" lon="4.7778">
        <ele>153.48</ele>
        <time>2021-08-01T13:42:40Z</time>
      </trkpt>
      <trkpt lat="45.47183" lon="4.77782">
        <ele>153.48</ele>
        <time>2021-08-01T13:42:41Z</time>
      </trkpt>
      <trkpt lat="45.47186" lon="4.77785">
        <ele>153.47</ele>
        <time>2021-08-01T13:42:42Z</time>
      </trkpt>
      <trkpt lat="45.4719" lon="4.77787">
        <ele>153.46</ele>
        <time>2021-08-01T13:42:43Z</time>
      </trkpt>
      <trkpt lat="45.47196" lon="4.77795">
        <ele>153.44</ele>
        <time>2021-08-01T13:42:45Z</time>
      </trkpt>
      <trkpt lat="45.47201" lon="4.77798">
        <ele>153.43</ele>
        <time>2021-08-01T13:42:46Z</time>
      </trkpt>
      <trkpt lat="45.47238" lon="4.77826">
        <ele>153.13</ele>
        <time>2021-08-01T13:42:53Z</time>
      </trkpt>
      <trkpt lat="45.47258" lon="4.77839">
        <ele>151.38</ele>
        <time>2021-08-01T13:42:58Z</time>
      </trkpt>
      <trkpt lat="45.4726" lon="4.77838">
        <ele>151</ele>
        <time>2021-08-01T13:42:59Z</time>
      </trkpt>
      <trkpt lat="45.47261" lon="4.77839">
        <ele>150.81</ele>
        <time>2021-08-01T13:43:00Z</time>
      </trkpt>
      <trkpt lat="45.47263" lon="4.7784">
        <ele>150.66</ele>
        <time>2021-08-01T13:43:01Z</time>
      </trkpt>
      <trkpt lat="45.47265" lon="4.77842">
        <ele>150.55</ele>
        <time>2021-08-01T13:43:02Z</time>
      </trkpt>
      <trkpt lat="45.47267" lon="4.77844">
        <ele>150.48</ele>
        <time>2021-08-01T13:43:03Z</time>
      </trkpt>
      <trkpt lat="45.47269" lon="4.77845">
        <ele>150.44</ele>
        <time>2021-08-01T13:43:04Z</time>
      </trkpt>
      <trkpt lat="45.47272" lon="4.77847">
        <ele>150.38</ele>
        <time>2021-08-01T13:43:05Z</time>
      </trkpt>
      <trkpt lat="45.47276" lon="4.7785">
        <ele>150.31</ele>
        <time>2021-08-01T13:43:06Z</time>
      </trkpt>
      <trkpt lat="45.47279" lon="4.77852">
        <ele>150.25</ele>
        <time>2021-08-01T13:43:07Z</time>
      </trkpt>
      <trkpt lat="45.47283" lon="4.77855">
        <ele>150.18</ele>
        <time>2021-08-01T13:43:08Z</time>
      </trkpt>
      <trkpt lat="45.47287" lon="4.77858">
        <ele>150.13</ele>
        <time>2021-08-01T13:43:09Z</time>
      </trkpt>
      <trkpt lat="45.47291" lon="4.7786">
        <ele>150.05</ele>
        <time>2021-08-01T13:43:10Z</time>
      </trkpt>
      <trkpt lat="45.47295" lon="4.77862">
        <ele>150.01</ele>
        <time>2021-08-01T13:43:11Z</time>
      </trkpt>
      <trkpt lat="45.47299" lon="4.77865">
        <ele>150</ele>
        <time>2021-08-01T13:43:12Z</time>
      </trkpt>
      <trkpt lat="45.47302" lon="4.77868">
        <ele>149.99</ele>
        <time>2021-08-01T13:43:13Z</time>
      </trkpt>
      <trkpt lat="45.47306" lon="4.7787">
        <ele>149.98</ele>
        <time>2021-08-01T13:43:14Z</time>
      </trkpt>
      <trkpt lat="45.4731" lon="4.77873">
        <ele>149.83</ele>
        <time>2021-08-01T13:43:15Z</time>
      </trkpt>
      <trkpt lat="45.47314" lon="4.77876">
        <ele>149.75</ele>
        <time>2021-08-01T13:43:16Z</time>
      </trkpt>
      <trkpt lat="45.47318" lon="4.77878">
        <ele>149.72</ele>
        <time>2021-08-01T13:43:17Z</time>
      </trkpt>
      <trkpt lat="45.47322" lon="4.77879">
        <ele>149.7</ele>
        <time>2021-08-01T13:43:18Z</time>
      </trkpt>
      <trkpt lat="45.47324" lon="4.7788">
        <ele>149.69</ele>
        <time>2021-08-01T13:43:19Z</time>
      </trkpt>
      <trkpt lat="45.47327" lon="4.77881">
        <ele>149.68</ele>
        <time>2021-08-01T13:43:20Z</time>
      </trkpt>
      <trkpt lat="45.47331" lon="4.77884">
        <ele>149.68</ele>
        <time>2021-08-01T13:43:21Z</time>
      </trkpt>
      <trkpt lat="45.47342" lon="4.77887">
        <ele>149.7</ele>
        <time>2021-08-01T13:43:24Z</time>
      </trkpt>
      <trkpt lat="45.47347" lon="4.77886">
        <ele>150.06</ele>
        <time>2021-08-01T13:43:26Z</time>
      </trkpt>
      <trkpt lat="45.4735" lon="4.77886">
        <ele>150.26</ele>
        <time>2021-08-01T13:43:27Z</time>
      </trkpt>
      <trkpt lat="45.47353" lon="4.77888">
        <ele>150.43</ele>
        <time>2021-08-01T13:43:28Z</time>
      </trkpt>
      <trkpt lat="45.47355" lon="4.7789">
        <ele>150.55</ele>
        <time>2021-08-01T13:43:29Z</time>
      </trkpt>
      <trkpt lat="45.47358" lon="4.77891">
        <ele>150.63</ele>
        <time>2021-08-01T13:43:30Z</time>
      </trkpt>
      <trkpt lat="45.47362" lon="4.77892">
        <ele>150.66</ele>
        <time>2021-08-01T13:43:31Z</time>
      </trkpt>
      <trkpt lat="45.47371" lon="4.77899">
        <ele>150.69</ele>
        <time>2021-08-01T13:43:33Z</time>
      </trkpt>
      <trkpt lat="45.47376" lon="4.77902">
        <ele>150.69</ele>
        <time>2021-08-01T13:43:34Z</time>
      </trkpt>
      <trkpt lat="45.47396" lon="4.77915">
        <ele>150.69</ele>
        <time>2021-08-01T13:43:39Z</time>
      </trkpt>
      <trkpt lat="45.474" lon="4.77918">
        <ele>150.6</ele>
        <time>2021-08-01T13:43:40Z</time>
      </trkpt>
      <trkpt lat="45.47423" lon="4.77929">
        <ele>150.07</ele>
        <time>2021-08-01T13:43:46Z</time>
      </trkpt>
      <trkpt lat="45.47433" lon="4.77935">
        <ele>150.05</ele>
        <time>2021-08-01T13:43:51Z</time>
      </trkpt>
      <trkpt lat="45.4744" lon="4.77934">
        <ele>150.42</ele>
        <time>2021-08-01T13:44:00Z</time>
      </trkpt>
      <trkpt lat="45.47444" lon="4.77939">
        <ele>150.42</ele>
        <time>2021-08-01T13:44:04Z</time>
      </trkpt>
      <trkpt lat="45.4745" lon="4.77946">
        <ele>150.42</ele>
        <time>2021-08-01T13:44:07Z</time>
      </trkpt>
      <trkpt lat="45.4747" lon="4.7796">
        <ele>150.28</ele>
        <time>2021-08-01T13:44:14Z</time>
      </trkpt>
      <trkpt lat="45.47497" lon="4.77981">
        <ele>149.66</ele>
        <time>2021-08-01T13:44:20Z</time>
      </trkpt>
      <trkpt lat="45.47507" lon="4.77989">
        <ele>149.56</ele>
        <time>2021-08-01T13:44:22Z</time>
      </trkpt>
      <trkpt lat="45.47512" lon="4.77994">
        <ele>149.54</ele>
        <time>2021-08-01T13:44:23Z</time>
      </trkpt>
      <trkpt lat="45.47516" lon="4.77998">
        <ele>149.52</ele>
        <time>2021-08-01T13:44:24Z</time>
      </trkpt>
      <trkpt lat="45.47521" lon="4.78004">
        <ele>149.5</ele>
        <time>2021-08-01T13:44:25Z</time>
      </trkpt>
      <trkpt lat="45.47526" lon="4.78007">
        <ele>149.49</ele>
        <time>2021-08-01T13:44:26Z</time>
      </trkpt>
      <trkpt lat="45.4755" lon="4.78021">
        <ele>149.49</ele>
        <time>2021-08-01T13:44:31Z</time>
      </trkpt>
      <trkpt lat="45.47554" lon="4.78022">
        <ele>149.5</ele>
        <time>2021-08-01T13:44:32Z</time>
      </trkpt>
      <trkpt lat="45.47556" lon="4.78023">
        <ele>149.51</ele>
        <time>2021-08-01T13:44:33Z</time>
      </trkpt>
      <trkpt lat="45.47559" lon="4.78025">
        <ele>149.53</ele>
        <time>2021-08-01T13:44:34Z</time>
      </trkpt>
      <trkpt lat="45.47562" lon="4.78027">
        <ele>149.56</ele>
        <time>2021-08-01T13:44:35Z</time>
      </trkpt>
      <trkpt lat="45.47565" lon="4.78028">
        <ele>149.58</ele>
        <time>2021-08-01T13:44:36Z</time>
      </trkpt>
      <trkpt lat="45.47569" lon="4.7803">
        <ele>149.63</ele>
        <time>2021-08-01T13:44:37Z</time>
      </trkpt>
      <trkpt lat="45.47573" lon="4.78034">
        <ele>149.79</ele>
        <time>2021-08-01T13:44:38Z</time>
      </trkpt>
      <trkpt lat="45.47578" lon="4.78037">
        <ele>150.24</ele>
        <time>2021-08-01T13:44:39Z</time>
      </trkpt>
      <trkpt lat="45.47582" lon="4.78041">
        <ele>150.24</ele>
        <time>2021-08-01T13:44:40Z</time>
      </trkpt>
      <trkpt lat="45.47597" lon="4.78051">
        <ele>150.38</ele>
        <time>2021-08-01T13:44:43Z</time>
      </trkpt>
      <trkpt lat="45.476" lon="4.78054">
        <ele>150.39</ele>
        <time>2021-08-01T13:44:44Z</time>
      </trkpt>
      <trkpt lat="45.47604" lon="4.78056">
        <ele>150.39</ele>
        <time>2021-08-01T13:44:45Z</time>
      </trkpt>
      <trkpt lat="45.47618" lon="4.78067">
        <ele>150.16</ele>
        <time>2021-08-01T13:44:48Z</time>
      </trkpt>
      <trkpt lat="45.47622" lon="4.78069">
        <ele>149.74</ele>
        <time>2021-08-01T13:44:49Z</time>
      </trkpt>
      <trkpt lat="45.47627" lon="4.78073">
        <ele>149.35</ele>
        <time>2021-08-01T13:44:50Z</time>
      </trkpt>
      <trkpt lat="45.47636" lon="4.78079">
        <ele>149.05</ele>
        <time>2021-08-01T13:44:52Z</time>
      </trkpt>
      <trkpt lat="45.47646" lon="4.78086">
        <ele>148.98</ele>
        <time>2021-08-01T13:44:54Z</time>
      </trkpt>
      <trkpt lat="45.47651" lon="4.78091">
        <ele>148.97</ele>
        <time>2021-08-01T13:44:55Z</time>
      </trkpt>
      <trkpt lat="45.47655" lon="4.78097">
        <ele>148.96</ele>
        <time>2021-08-01T13:44:56Z</time>
      </trkpt>
      <trkpt lat="45.47659" lon="4.78104">
        <ele>148.96</ele>
        <time>2021-08-01T13:44:57Z</time>
      </trkpt>
      <trkpt lat="45.4766" lon="4.78112">
        <ele>148.96</ele>
        <time>2021-08-01T13:44:58Z</time>
      </trkpt>
      <trkpt lat="45.4766" lon="4.7812">
        <ele>148.96</ele>
        <time>2021-08-01T13:44:59Z</time>
      </trkpt>
      <trkpt lat="45.47659" lon="4.78128">
        <ele>149.13</ele>
        <time>2021-08-01T13:45:00Z</time>
      </trkpt>
      <trkpt lat="45.47658" lon="4.78162">
        <ele>149.54</ele>
        <time>2021-08-01T13:45:04Z</time>
      </trkpt>
      <trkpt lat="45.4766" lon="4.78171">
        <ele>149.57</ele>
        <time>2021-08-01T13:45:05Z</time>
      </trkpt>
      <trkpt lat="45.47663" lon="4.78179">
        <ele>149.58</ele>
        <time>2021-08-01T13:45:06Z</time>
      </trkpt>
      <trkpt lat="45.47668" lon="4.78185">
        <ele>149.6</ele>
        <time>2021-08-01T13:45:07Z</time>
      </trkpt>
      <trkpt lat="45.47674" lon="4.78189">
        <ele>149.6</ele>
        <time>2021-08-01T13:45:08Z</time>
      </trkpt>
      <trkpt lat="45.4768" lon="4.7819">
        <ele>149.6</ele>
        <time>2021-08-01T13:45:09Z</time>
      </trkpt>
      <trkpt lat="45.47686" lon="4.78192">
        <ele>149.6</ele>
        <time>2021-08-01T13:45:10Z</time>
      </trkpt>
      <trkpt lat="45.47691" lon="4.78194">
        <ele>149.6</ele>
        <time>2021-08-01T13:45:11Z</time>
      </trkpt>
      <trkpt lat="45.47703" lon="4.78197">
        <ele>149.59</ele>
        <time>2021-08-01T13:45:13Z</time>
      </trkpt>
      <trkpt lat="45.4774" lon="4.78206">
        <ele>149.34</ele>
        <time>2021-08-01T13:45:19Z</time>
      </trkpt>
      <trkpt lat="45.4779" lon="4.78226">
        <ele>149.19</ele>
        <time>2021-08-01T13:45:27Z</time>
      </trkpt>
      <trkpt lat="45.47808" lon="4.78232">
        <ele>149.18</ele>
        <time>2021-08-01T13:45:30Z</time>
      </trkpt>
      <trkpt lat="45.47813" lon="4.78234">
        <ele>149.17</ele>
        <time>2021-08-01T13:45:31Z</time>
      </trkpt>
      <trkpt lat="45.47819" lon="4.78234">
        <ele>149.17</ele>
        <time>2021-08-01T13:45:32Z</time>
      </trkpt>
      <trkpt lat="45.47825" lon="4.78235">
        <ele>149.17</ele>
        <time>2021-08-01T13:45:33Z</time>
      </trkpt>
      <trkpt lat="45.47831" lon="4.78236">
        <ele>149.18</ele>
        <time>2021-08-01T13:45:34Z</time>
      </trkpt>
      <trkpt lat="45.47843" lon="4.7824">
        <ele>149.18</ele>
        <time>2021-08-01T13:45:36Z</time>
      </trkpt>
      <trkpt lat="45.47849" lon="4.78243">
        <ele>149.18</ele>
        <time>2021-08-01T13:45:37Z</time>
      </trkpt>
      <trkpt lat="45.47854" lon="4.78248">
        <ele>149.21</ele>
        <time>2021-08-01T13:45:38Z</time>
      </trkpt>
      <trkpt lat="45.47878" lon="4.78273">
        <ele>149.42</ele>
        <time>2021-08-01T13:45:43Z</time>
      </trkpt>
      <trkpt lat="45.479" lon="4.78287">
        <ele>149.44</ele>
        <time>2021-08-01T13:45:47Z</time>
      </trkpt>
      <trkpt lat="45.4791" lon="4.78292">
        <ele>149.44</ele>
        <time>2021-08-01T13:45:49Z</time>
      </trkpt>
      <trkpt lat="45.47916" lon="4.78296">
        <ele>149.44</ele>
        <time>2021-08-01T13:45:50Z</time>
      </trkpt>
      <trkpt lat="45.47921" lon="4.783">
        <ele>149.37</ele>
        <time>2021-08-01T13:45:51Z</time>
      </trkpt>
      <trkpt lat="45.47925" lon="4.78306">
        <ele>149.25</ele>
        <time>2021-08-01T13:45:52Z</time>
      </trkpt>
      <trkpt lat="45.4793" lon="4.78312">
        <ele>149.19</ele>
        <time>2021-08-01T13:45:53Z</time>
      </trkpt>
      <trkpt lat="45.47935" lon="4.78319">
        <ele>149.11</ele>
        <time>2021-08-01T13:45:54Z</time>
      </trkpt>
      <trkpt lat="45.47947" lon="4.78342">
        <ele>148.93</ele>
        <time>2021-08-01T13:45:57Z</time>
      </trkpt>
      <trkpt lat="45.4795" lon="4.78349">
        <ele>148.93</ele>
        <time>2021-08-01T13:45:58Z</time>
      </trkpt>
      <trkpt lat="45.47952" lon="4.78357">
        <ele>148.91</ele>
        <time>2021-08-01T13:45:59Z</time>
      </trkpt>
      <trkpt lat="45.47954" lon="4.78364">
        <ele>148.91</ele>
        <time>2021-08-01T13:46:00Z</time>
      </trkpt>
      <trkpt lat="45.47955" lon="4.78371">
        <ele>148.91</ele>
        <time>2021-08-01T13:46:01Z</time>
      </trkpt>
      <trkpt lat="45.47955" lon="4.78377">
        <ele>148.95</ele>
        <time>2021-08-01T13:46:02Z</time>
      </trkpt>
      <trkpt lat="45.47956" lon="4.78382">
        <ele>148.99</ele>
        <time>2021-08-01T13:46:03Z</time>
      </trkpt>
      <trkpt lat="45.47957" lon="4.78387">
        <ele>149.05</ele>
        <time>2021-08-01T13:46:04Z</time>
      </trkpt>
      <trkpt lat="45.47957" lon="4.78392">
        <ele>149.43</ele>
        <time>2021-08-01T13:46:08Z</time>
      </trkpt>
      <trkpt lat="45.47955" lon="4.78396">
        <ele>150.72</ele>
        <time>2021-08-01T13:46:12Z</time>
      </trkpt>
      <trkpt lat="45.47954" lon="4.78398">
        <ele>151.18</ele>
        <time>2021-08-01T13:46:13Z</time>
      </trkpt>
      <trkpt lat="45.47953" lon="4.784">
        <ele>151.54</ele>
        <time>2021-08-01T13:46:14Z</time>
      </trkpt>
      <trkpt lat="45.47952" lon="4.78402">
        <ele>151.85</ele>
        <time>2021-08-01T13:46:15Z</time>
      </trkpt>
      <trkpt lat="45.47951" lon="4.78405">
        <ele>152.01</ele>
        <time>2021-08-01T13:46:16Z</time>
      </trkpt>
      <trkpt lat="45.4795" lon="4.78408">
        <ele>152.12</ele>
        <time>2021-08-01T13:46:17Z</time>
      </trkpt>
      <trkpt lat="45.47942" lon="4.78427">
        <ele>152.25</ele>
        <time>2021-08-01T13:46:24Z</time>
      </trkpt>
      <trkpt lat="45.47945" lon="4.78429">
        <ele>152.22</ele>
        <time>2021-08-01T13:46:26Z</time>
      </trkpt>
      <trkpt lat="45.47961" lon="4.78448">
        <ele>151.81</ele>
        <time>2021-08-01T13:46:30Z</time>
      </trkpt>
      <trkpt lat="45.47993" lon="4.78498">
        <ele>150.19</ele>
        <time>2021-08-01T13:46:38Z</time>
      </trkpt>
      <trkpt lat="45.48021" lon="4.78538">
        <ele>149.71</ele>
        <time>2021-08-01T13:46:46Z</time>
      </trkpt>
      <trkpt lat="45.48047" lon="4.78578">
        <ele>149.77</ele>
        <time>2021-08-01T13:46:53Z</time>
      </trkpt>
      <trkpt lat="45.4805" lon="4.78585">
        <ele>149.78</ele>
        <time>2021-08-01T13:46:54Z</time>
      </trkpt>
      <trkpt lat="45.48071" lon="4.78656">
        <ele>149.69</ele>
        <time>2021-08-01T13:47:03Z</time>
      </trkpt>
      <trkpt lat="45.48078" lon="4.78726">
        <ele>149.47</ele>
        <time>2021-08-01T13:47:11Z</time>
      </trkpt>
      <trkpt lat="45.48063" lon="4.78803">
        <ele>149.44</ele>
        <time>2021-08-01T13:47:20Z</time>
      </trkpt>
      <trkpt lat="45.48061" lon="4.78821">
        <ele>149.39</ele>
        <time>2021-08-01T13:47:22Z</time>
      </trkpt>
      <trkpt lat="45.48062" lon="4.78828">
        <ele>149.41</ele>
        <time>2021-08-01T13:47:23Z</time>
      </trkpt>
      <trkpt lat="45.48066" lon="4.78833">
        <ele>149.42</ele>
        <time>2021-08-01T13:47:24Z</time>
      </trkpt>
      <trkpt lat="45.48072" lon="4.78834">
        <ele>149.43</ele>
        <time>2021-08-01T13:47:25Z</time>
      </trkpt>
      <trkpt lat="45.48077" lon="4.78835">
        <ele>149.4</ele>
        <time>2021-08-01T13:47:26Z</time>
      </trkpt>
      <trkpt lat="45.48083" lon="4.78837">
        <ele>149.38</ele>
        <time>2021-08-01T13:47:27Z</time>
      </trkpt>
      <trkpt lat="45.48142" lon="4.78852">
        <ele>149.12</ele>
        <time>2021-08-01T13:47:37Z</time>
      </trkpt>
      <trkpt lat="45.48211" lon="4.78861">
        <ele>150.28</ele>
        <time>2021-08-01T13:47:49Z</time>
      </trkpt>
      <trkpt lat="45.48234" lon="4.78863">
        <ele>150.57</ele>
        <time>2021-08-01T13:47:54Z</time>
      </trkpt>
      <trkpt lat="45.48268" lon="4.78868">
        <ele>152.65</ele>
        <time>2021-08-01T13:48:01Z</time>
      </trkpt>
      <trkpt lat="45.48273" lon="4.78869">
        <ele>153.06</ele>
        <time>2021-08-01T13:48:02Z</time>
      </trkpt>
      <trkpt lat="45.48278" lon="4.78871">
        <ele>153.57</ele>
        <time>2021-08-01T13:48:03Z</time>
      </trkpt>
      <trkpt lat="45.48282" lon="4.78876">
        <ele>153.88</ele>
        <time>2021-08-01T13:48:04Z</time>
      </trkpt>
      <trkpt lat="45.48284" lon="4.78883">
        <ele>154.04</ele>
        <time>2021-08-01T13:48:05Z</time>
      </trkpt>
      <trkpt lat="45.48286" lon="4.7889">
        <ele>154.18</ele>
        <time>2021-08-01T13:48:06Z</time>
      </trkpt>
      <trkpt lat="45.48288" lon="4.78897">
        <ele>154.3</ele>
        <time>2021-08-01T13:48:07Z</time>
      </trkpt>
      <trkpt lat="45.4829" lon="4.78904">
        <ele>154.32</ele>
        <time>2021-08-01T13:48:08Z</time>
      </trkpt>
      <trkpt lat="45.483" lon="4.7894">
        <ele>154.42</ele>
        <time>2021-08-01T13:48:13Z</time>
      </trkpt>
      <trkpt lat="45.48307" lon="4.79008">
        <ele>154.37</ele>
        <time>2021-08-01T13:48:21Z</time>
      </trkpt>
      <trkpt lat="45.48309" lon="4.79026">
        <ele>154.38</ele>
        <time>2021-08-01T13:48:23Z</time>
      </trkpt>
      <trkpt lat="45.4832" lon="4.79125">
        <ele>153.57</ele>
        <time>2021-08-01T13:48:34Z</time>
      </trkpt>
      <trkpt lat="45.48328" lon="4.79214">
        <ele>153.2</ele>
        <time>2021-08-01T13:48:44Z</time>
      </trkpt>
      <trkpt lat="45.48341" lon="4.79284">
        <ele>153.6</ele>
        <time>2021-08-01T13:48:52Z</time>
      </trkpt>
      <trkpt lat="45.48356" lon="4.79359">
        <ele>153.75</ele>
        <time>2021-08-01T13:49:00Z</time>
      </trkpt>
      <trkpt lat="45.48375" lon="4.79438">
        <ele>153.15</ele>
        <time>2021-08-01T13:49:09Z</time>
      </trkpt>
      <trkpt lat="45.48378" lon="4.79456">
        <ele>153.13</ele>
        <time>2021-08-01T13:49:11Z</time>
      </trkpt>
      <trkpt lat="45.4838" lon="4.79465">
        <ele>153.17</ele>
        <time>2021-08-01T13:49:12Z</time>
      </trkpt>
      <trkpt lat="45.4838" lon="4.79475">
        <ele>153.2</ele>
        <time>2021-08-01T13:49:13Z</time>
      </trkpt>
      <trkpt lat="45.48379" lon="4.79485">
        <ele>153.2</ele>
        <time>2021-08-01T13:49:14Z</time>
      </trkpt>
      <trkpt lat="45.48378" lon="4.79494">
        <ele>153.17</ele>
        <time>2021-08-01T13:49:15Z</time>
      </trkpt>
      <trkpt lat="45.48376" lon="4.79504">
        <ele>153.15</ele>
        <time>2021-08-01T13:49:16Z</time>
      </trkpt>
      <trkpt lat="45.48368" lon="4.79541">
        <ele>153.07</ele>
        <time>2021-08-01T13:49:20Z</time>
      </trkpt>
      <trkpt lat="45.48366" lon="4.79551">
        <ele>153.02</ele>
        <time>2021-08-01T13:49:21Z</time>
      </trkpt>
      <trkpt lat="45.48364" lon="4.79561">
        <ele>152.94</ele>
        <time>2021-08-01T13:49:22Z</time>
      </trkpt>
      <trkpt lat="45.48362" lon="4.79571">
        <ele>152.71</ele>
        <time>2021-08-01T13:49:23Z</time>
      </trkpt>
      <trkpt lat="45.48359" lon="4.7958">
        <ele>152.58</ele>
        <time>2021-08-01T13:49:24Z</time>
      </trkpt>
      <trkpt lat="45.48346" lon="4.79653">
        <ele>151.28</ele>
        <time>2021-08-01T13:49:31Z</time>
      </trkpt>
      <trkpt lat="45.48339" lon="4.79738">
        <ele>150.71</ele>
        <time>2021-08-01T13:49:39Z</time>
      </trkpt>
      <trkpt lat="45.4833" lon="4.79833">
        <ele>150.51</ele>
        <time>2021-08-01T13:49:48Z</time>
      </trkpt>
      <trkpt lat="45.48331" lon="4.79854">
        <ele>150.48</ele>
        <time>2021-08-01T13:49:50Z</time>
      </trkpt>
      <trkpt lat="45.48333" lon="4.79863">
        <ele>150.42</ele>
        <time>2021-08-01T13:49:51Z</time>
      </trkpt>
      <trkpt lat="45.48336" lon="4.79873">
        <ele>150.4</ele>
        <time>2021-08-01T13:49:52Z</time>
      </trkpt>
      <trkpt lat="45.4834" lon="4.79882">
        <ele>150.38</ele>
        <time>2021-08-01T13:49:53Z</time>
      </trkpt>
      <trkpt lat="45.48344" lon="4.7989">
        <ele>150.37</ele>
        <time>2021-08-01T13:49:54Z</time>
      </trkpt>
      <trkpt lat="45.48348" lon="4.79898">
        <ele>150.37</ele>
        <time>2021-08-01T13:49:55Z</time>
      </trkpt>
      <trkpt lat="45.48392" lon="4.79981">
        <ele>150.16</ele>
        <time>2021-08-01T13:50:06Z</time>
      </trkpt>
      <trkpt lat="45.48438" lon="4.80076">
        <ele>150.7</ele>
        <time>2021-08-01T13:50:18Z</time>
      </trkpt>
      <trkpt lat="45.48475" lon="4.80178">
        <ele>150.65</ele>
        <time>2021-08-01T13:50:30Z</time>
      </trkpt>
      <trkpt lat="45.485" lon="4.8026">
        <ele>151.58</ele>
        <time>2021-08-01T13:50:39Z</time>
      </trkpt>
      <trkpt lat="45.4852" lon="4.80325">
        <ele>151.8</ele>
        <time>2021-08-01T13:50:46Z</time>
      </trkpt>
      <trkpt lat="45.4855" lon="4.80407">
        <ele>151.57</ele>
        <time>2021-08-01T13:50:55Z</time>
      </trkpt>
      <trkpt lat="45.48581" lon="4.80486">
        <ele>151.12</ele>
        <time>2021-08-01T13:51:04Z</time>
      </trkpt>
      <trkpt lat="45.48615" lon="4.8058">
        <ele>150.99</ele>
        <time>2021-08-01T13:51:15Z</time>
      </trkpt>
      <trkpt lat="45.48638" lon="4.80653">
        <ele>151.86</ele>
        <time>2021-08-01T13:51:24Z</time>
      </trkpt>
      <trkpt lat="45.48641" lon="4.80668">
        <ele>151.96</ele>
        <time>2021-08-01T13:51:26Z</time>
      </trkpt>
      <trkpt lat="45.48649" lon="4.80712">
        <ele>153.05</ele>
        <time>2021-08-01T13:51:33Z</time>
      </trkpt>
      <trkpt lat="45.48651" lon="4.80717">
        <ele>153.09</ele>
        <time>2021-08-01T13:51:34Z</time>
      </trkpt>
      <trkpt lat="45.48652" lon="4.80724">
        <ele>153.13</ele>
        <time>2021-08-01T13:51:35Z</time>
      </trkpt>
      <trkpt lat="45.48657" lon="4.80752">
        <ele>153.49</ele>
        <time>2021-08-01T13:51:39Z</time>
      </trkpt>
      <trkpt lat="45.48658" lon="4.8076">
        <ele>153.56</ele>
        <time>2021-08-01T13:51:40Z</time>
      </trkpt>
      <trkpt lat="45.48657" lon="4.80768">
        <ele>153.6</ele>
        <time>2021-08-01T13:51:41Z</time>
      </trkpt>
      <trkpt lat="45.48657" lon="4.80776">
        <ele>153.62</ele>
        <time>2021-08-01T13:51:42Z</time>
      </trkpt>
      <trkpt lat="45.48656" lon="4.80785">
        <ele>153.63</ele>
        <time>2021-08-01T13:51:43Z</time>
      </trkpt>
      <trkpt lat="45.48648" lon="4.80855">
        <ele>153.8</ele>
        <time>2021-08-01T13:51:51Z</time>
      </trkpt>
      <trkpt lat="45.48644" lon="4.8088">
        <ele>153.78</ele>
        <time>2021-08-01T13:51:54Z</time>
      </trkpt>
      <trkpt lat="45.48644" lon="4.80888">
        <ele>153.82</ele>
        <time>2021-08-01T13:51:55Z</time>
      </trkpt>
      <trkpt lat="45.48643" lon="4.80896">
        <ele>153.86</ele>
        <time>2021-08-01T13:51:56Z</time>
      </trkpt>
      <trkpt lat="45.48644" lon="4.80905">
        <ele>153.89</ele>
        <time>2021-08-01T13:51:57Z</time>
      </trkpt>
      <trkpt lat="45.48643" lon="4.80913">
        <ele>153.9</ele>
        <time>2021-08-01T13:51:58Z</time>
      </trkpt>
      <trkpt lat="45.48642" lon="4.80927">
        <ele>153.92</ele>
        <time>2021-08-01T13:52:00Z</time>
      </trkpt>
      <trkpt lat="45.48641" lon="4.80941">
        <ele>153.92</ele>
        <time>2021-08-01T13:52:02Z</time>
      </trkpt>
      <trkpt lat="45.4864" lon="4.80948">
        <ele>153.92</ele>
        <time>2021-08-01T13:52:03Z</time>
      </trkpt>
      <trkpt lat="45.4864" lon="4.80955">
        <ele>153.92</ele>
        <time>2021-08-01T13:52:04Z</time>
      </trkpt>
      <trkpt lat="45.48638" lon="4.80988">
        <ele>154.34</ele>
        <time>2021-08-01T13:52:08Z</time>
      </trkpt>
      <trkpt lat="45.48638" lon="4.80996">
        <ele>154.41</ele>
        <time>2021-08-01T13:52:09Z</time>
      </trkpt>
      <trkpt lat="45.48638" lon="4.81005">
        <ele>154.44</ele>
        <time>2021-08-01T13:52:10Z</time>
      </trkpt>
      <trkpt lat="45.48638" lon="4.8103">
        <ele>154.46</ele>
        <time>2021-08-01T13:52:13Z</time>
      </trkpt>
      <trkpt lat="45.48639" lon="4.81038">
        <ele>154.46</ele>
        <time>2021-08-01T13:52:14Z</time>
      </trkpt>
      <trkpt lat="45.48641" lon="4.81047">
        <ele>154.46</ele>
        <time>2021-08-01T13:52:15Z</time>
      </trkpt>
      <trkpt lat="45.48644" lon="4.81054">
        <ele>154.46</ele>
        <time>2021-08-01T13:52:16Z</time>
      </trkpt>
      <trkpt lat="45.48646" lon="4.81061">
        <ele>154.46</ele>
        <time>2021-08-01T13:52:17Z</time>
      </trkpt>
      <trkpt lat="45.48649" lon="4.81068">
        <ele>154.53</ele>
        <time>2021-08-01T13:52:18Z</time>
      </trkpt>
      <trkpt lat="45.48652" lon="4.81075">
        <ele>154.52</ele>
        <time>2021-08-01T13:52:19Z</time>
      </trkpt>
      <trkpt lat="45.48657" lon="4.81088">
        <ele>154.35</ele>
        <time>2021-08-01T13:52:21Z</time>
      </trkpt>
      <trkpt lat="45.4866" lon="4.81095">
        <ele>154.22</ele>
        <time>2021-08-01T13:52:22Z</time>
      </trkpt>
      <trkpt lat="45.48669" lon="4.81113">
        <ele>153.99</ele>
        <time>2021-08-01T13:52:25Z</time>
      </trkpt>
      <trkpt lat="45.48682" lon="4.81142">
        <ele>153.9</ele>
        <time>2021-08-01T13:52:30Z</time>
      </trkpt>
      <trkpt lat="45.48683" lon="4.81148">
        <ele>153.99</ele>
        <time>2021-08-01T13:52:31Z</time>
      </trkpt>
      <trkpt lat="45.48682" lon="4.81154">
        <ele>154.04</ele>
        <time>2021-08-01T13:52:32Z</time>
      </trkpt>
      <trkpt lat="45.4868" lon="4.8116">
        <ele>154.13</ele>
        <time>2021-08-01T13:52:33Z</time>
      </trkpt>
      <trkpt lat="45.48677" lon="4.81166">
        <ele>154.19</ele>
        <time>2021-08-01T13:52:34Z</time>
      </trkpt>
      <trkpt lat="45.48673" lon="4.81171">
        <ele>154.22</ele>
        <time>2021-08-01T13:52:35Z</time>
      </trkpt>
      <trkpt lat="45.48668" lon="4.81175">
        <ele>154.24</ele>
        <time>2021-08-01T13:52:36Z</time>
      </trkpt>
      <trkpt lat="45.48663" lon="4.8118">
        <ele>154.25</ele>
        <time>2021-08-01T13:52:37Z</time>
      </trkpt>
      <trkpt lat="45.4862" lon="4.81223">
        <ele>154.15</ele>
        <time>2021-08-01T13:52:46Z</time>
      </trkpt>
      <trkpt lat="45.48618" lon="4.81223">
        <ele>154.05</ele>
        <time>2021-08-01T13:52:49Z</time>
      </trkpt>
      <trkpt lat="45.48618" lon="4.81222">
        <ele>154.04</ele>
        <time>2021-08-01T13:52:50Z</time>
      </trkpt>
      <trkpt lat="45.4862" lon="4.81218">
        <ele>154.03</ele>
        <time>2021-08-01T13:52:52Z</time>
      </trkpt>
      <trkpt lat="45.4862" lon="4.81218">
        <ele>154.04</ele>
        <time>2021-08-01T13:52:56Z</time>
      </trkpt>
      <trkpt lat="45.48618" lon="4.8122">
        <ele>154.12</ele>
        <time>2021-08-01T13:53:11Z</time>
      </trkpt>
      <trkpt lat="45.48617" lon="4.81222">
        <ele>154.12</ele>
        <time>2021-08-01T13:53:12Z</time>
      </trkpt>
      <trkpt lat="45.48615" lon="4.81223">
        <ele>154.12</ele>
        <time>2021-08-01T13:53:13Z</time>
      </trkpt>
      <trkpt lat="45.48612" lon="4.81224">
        <ele>154.12</ele>
        <time>2021-08-01T13:53:14Z</time>
      </trkpt>
      <trkpt lat="45.48609" lon="4.81225">
        <ele>154.12</ele>
        <time>2021-08-01T13:53:15Z</time>
      </trkpt>
      <trkpt lat="45.48607" lon="4.81228">
        <ele>154.1</ele>
        <time>2021-08-01T13:53:16Z</time>
      </trkpt>
      <trkpt lat="45.48605" lon="4.81231">
        <ele>154.09</ele>
        <time>2021-08-01T13:53:17Z</time>
      </trkpt>
      <trkpt lat="45.48596" lon="4.81239">
        <ele>154.08</ele>
        <time>2021-08-01T13:53:20Z</time>
      </trkpt>
      <trkpt lat="45.48595" lon="4.81243">
        <ele>154.08</ele>
        <time>2021-08-01T13:53:21Z</time>
      </trkpt>
      <trkpt lat="45.48594" lon="4.81249">
        <ele>154.08</ele>
        <time>2021-08-01T13:53:22Z</time>
      </trkpt>
      <trkpt lat="45.48594" lon="4.81255">
        <ele>154.08</ele>
        <time>2021-08-01T13:53:23Z</time>
      </trkpt>
      <trkpt lat="45.48597" lon="4.81261">
        <ele>154.08</ele>
        <time>2021-08-01T13:53:24Z</time>
      </trkpt>
      <trkpt lat="45.486" lon="4.81266">
        <ele>154.08</ele>
        <time>2021-08-01T13:53:25Z</time>
      </trkpt>
      <trkpt lat="45.48602" lon="4.81272">
        <ele>154.08</ele>
        <time>2021-08-01T13:53:26Z</time>
      </trkpt>
      <trkpt lat="45.48607" lon="4.81285">
        <ele>154.07</ele>
        <time>2021-08-01T13:53:28Z</time>
      </trkpt>
      <trkpt lat="45.48616" lon="4.81304">
        <ele>154</ele>
        <time>2021-08-01T13:53:31Z</time>
      </trkpt>
      <trkpt lat="45.48641" lon="4.81358">
        <ele>152.65</ele>
        <time>2021-08-01T13:53:39Z</time>
      </trkpt>
      <trkpt lat="45.48661" lon="4.81399">
        <ele>152.57</ele>
        <time>2021-08-01T13:53:45Z</time>
      </trkpt>
      <trkpt lat="45.48665" lon="4.81405">
        <ele>152.63</ele>
        <time>2021-08-01T13:53:46Z</time>
      </trkpt>
      <trkpt lat="45.48697" lon="4.81467">
        <ele>152.74</ele>
        <time>2021-08-01T13:53:55Z</time>
      </trkpt>
      <trkpt lat="45.48705" lon="4.81479">
        <ele>152.79</ele>
        <time>2021-08-01T13:53:57Z</time>
      </trkpt>
      <trkpt lat="45.4873" lon="4.81503">
        <ele>152.88</ele>
        <time>2021-08-01T13:54:02Z</time>
      </trkpt>
      <trkpt lat="45.48735" lon="4.81507">
        <ele>152.76</ele>
        <time>2021-08-01T13:54:03Z</time>
      </trkpt>
      <trkpt lat="45.48741" lon="4.81509">
        <ele>152.71</ele>
        <time>2021-08-01T13:54:04Z</time>
      </trkpt>
      <trkpt lat="45.48763" lon="4.81519">
        <ele>152.69</ele>
        <time>2021-08-01T13:54:08Z</time>
      </trkpt>
      <trkpt lat="45.4878" lon="4.81529">
        <ele>152.79</ele>
        <time>2021-08-01T13:54:11Z</time>
      </trkpt>
      <trkpt lat="45.48784" lon="4.81533">
        <ele>152.82</ele>
        <time>2021-08-01T13:54:12Z</time>
      </trkpt>
      <trkpt lat="45.48823" lon="4.81569">
        <ele>152.83</ele>
        <time>2021-08-01T13:54:20Z</time>
      </trkpt>
      <trkpt lat="45.48868" lon="4.81611">
        <ele>152.84</ele>
        <time>2021-08-01T13:54:29Z</time>
      </trkpt>
      <trkpt lat="45.48906" lon="4.81648">
        <ele>152.96</ele>
        <time>2021-08-01T13:54:37Z</time>
      </trkpt>
      <trkpt lat="45.48941" lon="4.81681">
        <ele>153.41</ele>
        <time>2021-08-01T13:54:44Z</time>
      </trkpt>
      <trkpt lat="45.48992" lon="4.81729">
        <ele>153.38</ele>
        <time>2021-08-01T13:54:54Z</time>
      </trkpt>
      <trkpt lat="45.49044" lon="4.8177">
        <ele>153.07</ele>
        <time>2021-08-01T13:55:03Z</time>
      </trkpt>
      <trkpt lat="45.49096" lon="4.81814">
        <ele>152.09</ele>
        <time>2021-08-01T13:55:12Z</time>
      </trkpt>
      <trkpt lat="45.49139" lon="4.81837">
        <ele>152.09</ele>
        <time>2021-08-01T13:55:19Z</time>
      </trkpt>
      <trkpt lat="45.49167" lon="4.8185">
        <ele>152.35</ele>
        <time>2021-08-01T13:55:24Z</time>
      </trkpt>
      <trkpt lat="45.49172" lon="4.81854">
        <ele>152.36</ele>
        <time>2021-08-01T13:55:25Z</time>
      </trkpt>
      <trkpt lat="45.49215" lon="4.81889">
        <ele>152.2</ele>
        <time>2021-08-01T13:55:33Z</time>
      </trkpt>
      <trkpt lat="45.49266" lon="4.81936">
        <ele>150.61</ele>
        <time>2021-08-01T13:55:43Z</time>
      </trkpt>
      <trkpt lat="45.49275" lon="4.81947">
        <ele>150.6</ele>
        <time>2021-08-01T13:55:45Z</time>
      </trkpt>
      <trkpt lat="45.49279" lon="4.81952">
        <ele>150.6</ele>
        <time>2021-08-01T13:55:46Z</time>
      </trkpt>
      <trkpt lat="45.49289" lon="4.81961">
        <ele>151.15</ele>
        <time>2021-08-01T13:55:48Z</time>
      </trkpt>
      <trkpt lat="45.49298" lon="4.81971">
        <ele>151.39</ele>
        <time>2021-08-01T13:55:50Z</time>
      </trkpt>
      <trkpt lat="45.49301" lon="4.81977">
        <ele>151.44</ele>
        <time>2021-08-01T13:55:51Z</time>
      </trkpt>
      <trkpt lat="45.49313" lon="4.82003">
        <ele>151.67</ele>
        <time>2021-08-01T13:55:56Z</time>
      </trkpt>
      <trkpt lat="45.49317" lon="4.82005">
        <ele>151.73</ele>
        <time>2021-08-01T13:55:57Z</time>
      </trkpt>
      <trkpt lat="45.49333" lon="4.8202">
        <ele>151.96</ele>
        <time>2021-08-01T13:56:03Z</time>
      </trkpt>
      <trkpt lat="45.49335" lon="4.82024">
        <ele>151.99</ele>
        <time>2021-08-01T13:56:04Z</time>
      </trkpt>
      <trkpt lat="45.49338" lon="4.82027">
        <ele>152.01</ele>
        <time>2021-08-01T13:56:05Z</time>
      </trkpt>
      <trkpt lat="45.49356" lon="4.82043">
        <ele>152.03</ele>
        <time>2021-08-01T13:56:10Z</time>
      </trkpt>
      <trkpt lat="45.49381" lon="4.82066">
        <ele>151.78</ele>
        <time>2021-08-01T13:56:16Z</time>
      </trkpt>
      <trkpt lat="45.49385" lon="4.82071">
        <ele>151.51</ele>
        <time>2021-08-01T13:56:17Z</time>
      </trkpt>
      <trkpt lat="45.4939" lon="4.82075">
        <ele>151.32</ele>
        <time>2021-08-01T13:56:18Z</time>
      </trkpt>
      <trkpt lat="45.49394" lon="4.82079">
        <ele>151.23</ele>
        <time>2021-08-01T13:56:19Z</time>
      </trkpt>
      <trkpt lat="45.49399" lon="4.82083">
        <ele>151.18</ele>
        <time>2021-08-01T13:56:20Z</time>
      </trkpt>
      <trkpt lat="45.4945" lon="4.8213">
        <ele>151.23</ele>
        <time>2021-08-01T13:56:31Z</time>
      </trkpt>
      <trkpt lat="45.49454" lon="4.82135">
        <ele>151.24</ele>
        <time>2021-08-01T13:56:32Z</time>
      </trkpt>
      <trkpt lat="45.49459" lon="4.82138">
        <ele>151.25</ele>
        <time>2021-08-01T13:56:33Z</time>
      </trkpt>
      <trkpt lat="45.49502" lon="4.82157">
        <ele>151.65</ele>
        <time>2021-08-01T13:56:41Z</time>
      </trkpt>
      <trkpt lat="45.49541" lon="4.82189">
        <ele>151.71</ele>
        <time>2021-08-01T13:56:49Z</time>
      </trkpt>
      <trkpt lat="45.49546" lon="4.82193">
        <ele>151.76</ele>
        <time>2021-08-01T13:56:50Z</time>
      </trkpt>
      <trkpt lat="45.4959" lon="4.82225">
        <ele>151.95</ele>
        <time>2021-08-01T13:56:59Z</time>
      </trkpt>
      <trkpt lat="45.49609" lon="4.82244">
        <ele>151.96</ele>
        <time>2021-08-01T13:57:03Z</time>
      </trkpt>
      <trkpt lat="45.49614" lon="4.82247">
        <ele>152.03</ele>
        <time>2021-08-01T13:57:04Z</time>
      </trkpt>
      <trkpt lat="45.49619" lon="4.82246">
        <ele>152.08</ele>
        <time>2021-08-01T13:57:05Z</time>
      </trkpt>
      <trkpt lat="45.49624" lon="4.82243">
        <ele>152.11</ele>
        <time>2021-08-01T13:57:06Z</time>
      </trkpt>
      <trkpt lat="45.49628" lon="4.82241">
        <ele>152.27</ele>
        <time>2021-08-01T13:57:07Z</time>
      </trkpt>
      <trkpt lat="45.49632" lon="4.82242">
        <ele>152.37</ele>
        <time>2021-08-01T13:57:08Z</time>
      </trkpt>
      <trkpt lat="45.49635" lon="4.82247">
        <ele>152.44</ele>
        <time>2021-08-01T13:57:09Z</time>
      </trkpt>
      <trkpt lat="45.49638" lon="4.82252">
        <ele>152.51</ele>
        <time>2021-08-01T13:57:10Z</time>
      </trkpt>
      <trkpt lat="45.49641" lon="4.82257">
        <ele>152.51</ele>
        <time>2021-08-01T13:57:11Z</time>
      </trkpt>
      <trkpt lat="45.49651" lon="4.82272">
        <ele>152.41</ele>
        <time>2021-08-01T13:57:14Z</time>
      </trkpt>
      <trkpt lat="45.4968" lon="4.82316">
        <ele>153.05</ele>
        <time>2021-08-01T13:57:23Z</time>
      </trkpt>
      <trkpt lat="45.49707" lon="4.82362">
        <ele>155.62</ele>
        <time>2021-08-01T13:57:32Z</time>
      </trkpt>
      <trkpt lat="45.49737" lon="4.82418">
        <ele>155.57</ele>
        <time>2021-08-01T13:57:41Z</time>
      </trkpt>
      <trkpt lat="45.49758" lon="4.82463">
        <ele>154.76</ele>
        <time>2021-08-01T13:57:48Z</time>
      </trkpt>
      <trkpt lat="45.49758" lon="4.8247">
        <ele>154.52</ele>
        <time>2021-08-01T13:57:49Z</time>
      </trkpt>
      <trkpt lat="45.49756" lon="4.82477">
        <ele>154.18</ele>
        <time>2021-08-01T13:57:50Z</time>
      </trkpt>
      <trkpt lat="45.49753" lon="4.82484">
        <ele>154</ele>
        <time>2021-08-01T13:57:51Z</time>
      </trkpt>
      <trkpt lat="45.49749" lon="4.82489">
        <ele>153.9</ele>
        <time>2021-08-01T13:57:52Z</time>
      </trkpt>
      <trkpt lat="45.49711" lon="4.82533">
        <ele>154.71</ele>
        <time>2021-08-01T13:58:00Z</time>
      </trkpt>
      <trkpt lat="45.49674" lon="4.82573">
        <ele>155.3</ele>
        <time>2021-08-01T13:58:08Z</time>
      </trkpt>
      <trkpt lat="45.49669" lon="4.82577">
        <ele>155.33</ele>
        <time>2021-08-01T13:58:09Z</time>
      </trkpt>
      <trkpt lat="45.49666" lon="4.82583">
        <ele>155.34</ele>
        <time>2021-08-01T13:58:10Z</time>
      </trkpt>
      <trkpt lat="45.49664" lon="4.8259">
        <ele>155.35</ele>
        <time>2021-08-01T13:58:11Z</time>
      </trkpt>
      <trkpt lat="45.49665" lon="4.82597">
        <ele>155.31</ele>
        <time>2021-08-01T13:58:12Z</time>
      </trkpt>
      <trkpt lat="45.49667" lon="4.82603">
        <ele>155.25</ele>
        <time>2021-08-01T13:58:13Z</time>
      </trkpt>
      <trkpt lat="45.4967" lon="4.82608">
        <ele>155.2</ele>
        <time>2021-08-01T13:58:14Z</time>
      </trkpt>
      <trkpt lat="45.49674" lon="4.82613">
        <ele>155.15</ele>
        <time>2021-08-01T13:58:15Z</time>
      </trkpt>
      <trkpt lat="45.49704" lon="4.82659">
        <ele>154.03</ele>
        <time>2021-08-01T13:58:23Z</time>
      </trkpt>
      <trkpt lat="45.49735" lon="4.8271">
        <ele>152.55</ele>
        <time>2021-08-01T13:58:31Z</time>
      </trkpt>
      <trkpt lat="45.49765" lon="4.82759">
        <ele>152.06</ele>
        <time>2021-08-01T13:58:39Z</time>
      </trkpt>
      <trkpt lat="45.49812" lon="4.82835">
        <ele>152.02</ele>
        <time>2021-08-01T13:58:51Z</time>
      </trkpt>
      <trkpt lat="45.49851" lon="4.82901">
        <ele>152.65</ele>
        <time>2021-08-01T13:59:01Z</time>
      </trkpt>
      <trkpt lat="45.49901" lon="4.82981">
        <ele>152.85</ele>
        <time>2021-08-01T13:59:13Z</time>
      </trkpt>
      <trkpt lat="45.49942" lon="4.83048">
        <ele>153.11</ele>
        <time>2021-08-01T13:59:23Z</time>
      </trkpt>
      <trkpt lat="45.49945" lon="4.83055">
        <ele>152.98</ele>
        <time>2021-08-01T13:59:24Z</time>
      </trkpt>
      <trkpt lat="45.49981" lon="4.83128">
        <ele>151.41</ele>
        <time>2021-08-01T13:59:34Z</time>
      </trkpt>
      <trkpt lat="45.5001" lon="4.83203">
        <ele>151.12</ele>
        <time>2021-08-01T13:59:43Z</time>
      </trkpt>
      <trkpt lat="45.50035" lon="4.83281">
        <ele>151.36</ele>
        <time>2021-08-01T13:59:52Z</time>
      </trkpt>
      <trkpt lat="45.50055" lon="4.83359">
        <ele>151.48</ele>
        <time>2021-08-01T14:00:01Z</time>
      </trkpt>
      <trkpt lat="45.50069" lon="4.83411">
        <ele>151.43</ele>
        <time>2021-08-01T14:00:07Z</time>
      </trkpt>
      <trkpt lat="45.5007" lon="4.83419">
        <ele>151.46</ele>
        <time>2021-08-01T14:00:08Z</time>
      </trkpt>
      <trkpt lat="45.50087" lon="4.83494">
        <ele>151.52</ele>
        <time>2021-08-01T14:00:17Z</time>
      </trkpt>
      <trkpt lat="45.50106" lon="4.83568">
        <ele>152.05</ele>
        <time>2021-08-01T14:00:26Z</time>
      </trkpt>
      <trkpt lat="45.50128" lon="4.83649">
        <ele>152.19</ele>
        <time>2021-08-01T14:00:36Z</time>
      </trkpt>
      <trkpt lat="45.50154" lon="4.8374">
        <ele>152.27</ele>
        <time>2021-08-01T14:00:47Z</time>
      </trkpt>
      <trkpt lat="45.50168" lon="4.83778">
        <ele>153.26</ele>
        <time>2021-08-01T14:00:52Z</time>
      </trkpt>
      <trkpt lat="45.50178" lon="4.83798">
        <ele>153.73</ele>
        <time>2021-08-01T14:00:55Z</time>
      </trkpt>
      <trkpt lat="45.50182" lon="4.83804">
        <ele>153.83</ele>
        <time>2021-08-01T14:00:56Z</time>
      </trkpt>
      <trkpt lat="45.50185" lon="4.83811">
        <ele>153.9</ele>
        <time>2021-08-01T14:00:57Z</time>
      </trkpt>
      <trkpt lat="45.50187" lon="4.83817">
        <ele>154.23</ele>
        <time>2021-08-01T14:00:58Z</time>
      </trkpt>
      <trkpt lat="45.50188" lon="4.83824">
        <ele>154.56</ele>
        <time>2021-08-01T14:00:59Z</time>
      </trkpt>
      <trkpt lat="45.50188" lon="4.83831">
        <ele>154.78</ele>
        <time>2021-08-01T14:01:00Z</time>
      </trkpt>
      <trkpt lat="45.50186" lon="4.83838">
        <ele>154.94</ele>
        <time>2021-08-01T14:01:01Z</time>
      </trkpt>
      <trkpt lat="45.50184" lon="4.83845">
        <ele>155.09</ele>
        <time>2021-08-01T14:01:02Z</time>
      </trkpt>
      <trkpt lat="45.50182" lon="4.83851">
        <ele>155.2</ele>
        <time>2021-08-01T14:01:03Z</time>
      </trkpt>
      <trkpt lat="45.50179" lon="4.83856">
        <ele>155.3</ele>
        <time>2021-08-01T14:01:04Z</time>
      </trkpt>
      <trkpt lat="45.50175" lon="4.83859">
        <ele>155.37</ele>
        <time>2021-08-01T14:01:05Z</time>
      </trkpt>
      <trkpt lat="45.5017" lon="4.83862">
        <ele>155.41</ele>
        <time>2021-08-01T14:01:06Z</time>
      </trkpt>
      <trkpt lat="45.50166" lon="4.83864">
        <ele>155.44</ele>
        <time>2021-08-01T14:01:07Z</time>
      </trkpt>
      <trkpt lat="45.50162" lon="4.83868">
        <ele>155.48</ele>
        <time>2021-08-01T14:01:08Z</time>
      </trkpt>
      <trkpt lat="45.50159" lon="4.83874">
        <ele>155.53</ele>
        <time>2021-08-01T14:01:09Z</time>
      </trkpt>
      <trkpt lat="45.50157" lon="4.8388">
        <ele>155.58</ele>
        <time>2021-08-01T14:01:10Z</time>
      </trkpt>
      <trkpt lat="45.50155" lon="4.83886">
        <ele>155.63</ele>
        <time>2021-08-01T14:01:11Z</time>
      </trkpt>
      <trkpt lat="45.50155" lon="4.83893">
        <ele>155.68</ele>
        <time>2021-08-01T14:01:12Z</time>
      </trkpt>
      <trkpt lat="45.50155" lon="4.83899">
        <ele>155.71</ele>
        <time>2021-08-01T14:01:13Z</time>
      </trkpt>
      <trkpt lat="45.50157" lon="4.83905">
        <ele>155.72</ele>
        <time>2021-08-01T14:01:14Z</time>
      </trkpt>
      <trkpt lat="45.50159" lon="4.83911">
        <ele>155.75</ele>
        <time>2021-08-01T14:01:15Z</time>
      </trkpt>
      <trkpt lat="45.50161" lon="4.83918">
        <ele>155.89</ele>
        <time>2021-08-01T14:01:16Z</time>
      </trkpt>
      <trkpt lat="45.50164" lon="4.83924">
        <ele>155.98</ele>
        <time>2021-08-01T14:01:17Z</time>
      </trkpt>
      <trkpt lat="45.50189" lon="4.83971">
        <ele>156.44</ele>
        <time>2021-08-01T14:01:25Z</time>
      </trkpt>
      <trkpt lat="45.50196" lon="4.83982">
        <ele>156.39</ele>
        <time>2021-08-01T14:01:27Z</time>
      </trkpt>
      <trkpt lat="45.50199" lon="4.83988">
        <ele>156.36</ele>
        <time>2021-08-01T14:01:28Z</time>
      </trkpt>
      <trkpt lat="45.50203" lon="4.83993">
        <ele>156.25</ele>
        <time>2021-08-01T14:01:29Z</time>
      </trkpt>
      <trkpt lat="45.50206" lon="4.84">
        <ele>156.19</ele>
        <time>2021-08-01T14:01:30Z</time>
      </trkpt>
      <trkpt lat="45.50209" lon="4.84006">
        <ele>156.16</ele>
        <time>2021-08-01T14:01:31Z</time>
      </trkpt>
      <trkpt lat="45.50212" lon="4.84013">
        <ele>156.14</ele>
        <time>2021-08-01T14:01:32Z</time>
      </trkpt>
      <trkpt lat="45.50216" lon="4.84019">
        <ele>156.11</ele>
        <time>2021-08-01T14:01:33Z</time>
      </trkpt>
      <trkpt lat="45.50256" lon="4.84078">
        <ele>156.09</ele>
        <time>2021-08-01T14:01:43Z</time>
      </trkpt>
      <trkpt lat="45.503" lon="4.84134">
        <ele>156.08</ele>
        <time>2021-08-01T14:01:53Z</time>
      </trkpt>
      <trkpt lat="45.50341" lon="4.84181">
        <ele>155.89</ele>
        <time>2021-08-01T14:02:02Z</time>
      </trkpt>
      <trkpt lat="45.50397" lon="4.84246">
        <ele>155.62</ele>
        <time>2021-08-01T14:02:14Z</time>
      </trkpt>
      <trkpt lat="45.50438" lon="4.84294">
        <ele>155.02</ele>
        <time>2021-08-01T14:02:23Z</time>
      </trkpt>
      <trkpt lat="45.50457" lon="4.84316">
        <ele>154.82</ele>
        <time>2021-08-01T14:02:27Z</time>
      </trkpt>
      <trkpt lat="45.50466" lon="4.84326">
        <ele>154.62</ele>
        <time>2021-08-01T14:02:29Z</time>
      </trkpt>
      <trkpt lat="45.5047" lon="4.84332">
        <ele>154.59</ele>
        <time>2021-08-01T14:02:30Z</time>
      </trkpt>
      <trkpt lat="45.50475" lon="4.84337">
        <ele>154.56</ele>
        <time>2021-08-01T14:02:31Z</time>
      </trkpt>
      <trkpt lat="45.50508" lon="4.84373">
        <ele>154.61</ele>
        <time>2021-08-01T14:02:38Z</time>
      </trkpt>
      <trkpt lat="45.50513" lon="4.84379">
        <ele>154.7</ele>
        <time>2021-08-01T14:02:39Z</time>
      </trkpt>
      <trkpt lat="45.50517" lon="4.84385">
        <ele>154.8</ele>
        <time>2021-08-01T14:02:40Z</time>
      </trkpt>
      <trkpt lat="45.5055" lon="4.8443">
        <ele>154.9</ele>
        <time>2021-08-01T14:02:48Z</time>
      </trkpt>
      <trkpt lat="45.50585" lon="4.84477">
        <ele>155.26</ele>
        <time>2021-08-01T14:02:56Z</time>
      </trkpt>
      <trkpt lat="45.50621" lon="4.84526">
        <ele>155.16</ele>
        <time>2021-08-01T14:03:04Z</time>
      </trkpt>
      <trkpt lat="45.5067" lon="4.84592">
        <ele>154.18</ele>
        <time>2021-08-01T14:03:15Z</time>
      </trkpt>
      <trkpt lat="45.50712" lon="4.84651">
        <ele>154.6</ele>
        <time>2021-08-01T14:03:25Z</time>
      </trkpt>
      <trkpt lat="45.50733" lon="4.8468">
        <ele>155.02</ele>
        <time>2021-08-01T14:03:30Z</time>
      </trkpt>
      <trkpt lat="45.50737" lon="4.84684">
        <ele>155.16</ele>
        <time>2021-08-01T14:03:31Z</time>
      </trkpt>
      <trkpt lat="45.50742" lon="4.84689">
        <ele>155.2</ele>
        <time>2021-08-01T14:03:32Z</time>
      </trkpt>
      <trkpt lat="45.50755" lon="4.84707">
        <ele>155.19</ele>
        <time>2021-08-01T14:03:35Z</time>
      </trkpt>
      <trkpt lat="45.50758" lon="4.84714">
        <ele>155.17</ele>
        <time>2021-08-01T14:03:36Z</time>
      </trkpt>
      <trkpt lat="45.50763" lon="4.8472">
        <ele>155.21</ele>
        <time>2021-08-01T14:03:37Z</time>
      </trkpt>
      <trkpt lat="45.50768" lon="4.84726">
        <ele>155.23</ele>
        <time>2021-08-01T14:03:38Z</time>
      </trkpt>
      <trkpt lat="45.50772" lon="4.84731">
        <ele>155.24</ele>
        <time>2021-08-01T14:03:39Z</time>
      </trkpt>
      <trkpt lat="45.50807" lon="4.84779">
        <ele>155.14</ele>
        <time>2021-08-01T14:03:47Z</time>
      </trkpt>
      <trkpt lat="45.50854" lon="4.84845">
        <ele>155.89</ele>
        <time>2021-08-01T14:03:58Z</time>
      </trkpt>
      <trkpt lat="45.5089" lon="4.84895">
        <ele>156.1</ele>
        <time>2021-08-01T14:04:07Z</time>
      </trkpt>
      <trkpt lat="45.50898" lon="4.84905">
        <ele>156.1</ele>
        <time>2021-08-01T14:04:09Z</time>
      </trkpt>
      <trkpt lat="45.50902" lon="4.84909">
        <ele>156.06</ele>
        <time>2021-08-01T14:04:10Z</time>
      </trkpt>
      <trkpt lat="45.50907" lon="4.84914">
        <ele>156.02</ele>
        <time>2021-08-01T14:04:11Z</time>
      </trkpt>
      <trkpt lat="45.5091" lon="4.8492">
        <ele>155.99</ele>
        <time>2021-08-01T14:04:12Z</time>
      </trkpt>
      <trkpt lat="45.50913" lon="4.84926">
        <ele>155.98</ele>
        <time>2021-08-01T14:04:13Z</time>
      </trkpt>
      <trkpt lat="45.50917" lon="4.84932">
        <ele>155.85</ele>
        <time>2021-08-01T14:04:14Z</time>
      </trkpt>
      <trkpt lat="45.50922" lon="4.84938">
        <ele>155.78</ele>
        <time>2021-08-01T14:04:15Z</time>
      </trkpt>
      <trkpt lat="45.50976" lon="4.85006">
        <ele>155.36</ele>
        <time>2021-08-01T14:04:27Z</time>
      </trkpt>
      <trkpt lat="45.50984" lon="4.85019">
        <ele>155.66</ele>
        <time>2021-08-01T14:04:29Z</time>
      </trkpt>
      <trkpt lat="45.51019" lon="4.85065">
        <ele>155.76</ele>
        <time>2021-08-01T14:04:37Z</time>
      </trkpt>
      <trkpt lat="45.51062" lon="4.85124">
        <ele>154.7</ele>
        <time>2021-08-01T14:04:47Z</time>
      </trkpt>
      <trkpt lat="45.51098" lon="4.8517">
        <ele>155.28</ele>
        <time>2021-08-01T14:04:55Z</time>
      </trkpt>
      <trkpt lat="45.51138" lon="4.85221">
        <ele>155.66</ele>
        <time>2021-08-01T14:05:04Z</time>
      </trkpt>
      <trkpt lat="45.51178" lon="4.85272">
        <ele>155.84</ele>
        <time>2021-08-01T14:05:13Z</time>
      </trkpt>
      <trkpt lat="45.51183" lon="4.85277">
        <ele>155.84</ele>
        <time>2021-08-01T14:05:14Z</time>
      </trkpt>
      <trkpt lat="45.5119" lon="4.85286">
        <ele>155.86</ele>
        <time>2021-08-01T14:05:16Z</time>
      </trkpt>
      <trkpt lat="45.51192" lon="4.85292">
        <ele>155.88</ele>
        <time>2021-08-01T14:05:17Z</time>
      </trkpt>
      <trkpt lat="45.51194" lon="4.85297">
        <ele>155.92</ele>
        <time>2021-08-01T14:05:18Z</time>
      </trkpt>
      <trkpt lat="45.51198" lon="4.85302">
        <ele>156.03</ele>
        <time>2021-08-01T14:05:19Z</time>
      </trkpt>
      <trkpt lat="45.51201" lon="4.85306">
        <ele>156.11</ele>
        <time>2021-08-01T14:05:20Z</time>
      </trkpt>
      <trkpt lat="45.51205" lon="4.85309">
        <ele>156.15</ele>
        <time>2021-08-01T14:05:21Z</time>
      </trkpt>
      <trkpt lat="45.51209" lon="4.85311">
        <ele>156.17</ele>
        <time>2021-08-01T14:05:22Z</time>
      </trkpt>
      <trkpt lat="45.51213" lon="4.85314">
        <ele>156.18</ele>
        <time>2021-08-01T14:05:23Z</time>
      </trkpt>
      <trkpt lat="45.51217" lon="4.85315">
        <ele>156.27</ele>
        <time>2021-08-01T14:05:24Z</time>
      </trkpt>
      <trkpt lat="45.51221" lon="4.85317">
        <ele>156.41</ele>
        <time>2021-08-01T14:05:25Z</time>
      </trkpt>
      <trkpt lat="45.51224" lon="4.85319">
        <ele>156.64</ele>
        <time>2021-08-01T14:05:26Z</time>
      </trkpt>
      <trkpt lat="45.51226" lon="4.85322">
        <ele>156.78</ele>
        <time>2021-08-01T14:05:27Z</time>
      </trkpt>
      <trkpt lat="45.51228" lon="4.85326">
        <ele>156.93</ele>
        <time>2021-08-01T14:05:28Z</time>
      </trkpt>
      <trkpt lat="45.51239" lon="4.85346">
        <ele>157.14</ele>
        <time>2021-08-01T14:05:33Z</time>
      </trkpt>
      <trkpt lat="45.51243" lon="4.85349">
        <ele>157.15</ele>
        <time>2021-08-01T14:05:34Z</time>
      </trkpt>
      <trkpt lat="45.51247" lon="4.85349">
        <ele>157.15</ele>
        <time>2021-08-01T14:05:35Z</time>
      </trkpt>
      <trkpt lat="45.51251" lon="4.85348">
        <ele>157.15</ele>
        <time>2021-08-01T14:05:36Z</time>
      </trkpt>
      <trkpt lat="45.51255" lon="4.85346">
        <ele>157.15</ele>
        <time>2021-08-01T14:05:37Z</time>
      </trkpt>
      <trkpt lat="45.51259" lon="4.85343">
        <ele>157.15</ele>
        <time>2021-08-01T14:05:38Z</time>
      </trkpt>
      <trkpt lat="45.51263" lon="4.85339">
        <ele>157.11</ele>
        <time>2021-08-01T14:05:39Z</time>
      </trkpt>
      <trkpt lat="45.51275" lon="4.85331">
        <ele>156.75</ele>
        <time>2021-08-01T14:05:42Z</time>
      </trkpt>
      <trkpt lat="45.51279" lon="4.85329">
        <ele>156.64</ele>
        <time>2021-08-01T14:05:43Z</time>
      </trkpt>
      <trkpt lat="45.51283" lon="4.85329">
        <ele>156.58</ele>
        <time>2021-08-01T14:05:44Z</time>
      </trkpt>
      <trkpt lat="45.51288" lon="4.8533">
        <ele>156.55</ele>
        <time>2021-08-01T14:05:45Z</time>
      </trkpt>
      <trkpt lat="45.51292" lon="4.85334">
        <ele>156.55</ele>
        <time>2021-08-01T14:05:46Z</time>
      </trkpt>
      <trkpt lat="45.51295" lon="4.85339">
        <ele>156.54</ele>
        <time>2021-08-01T14:05:47Z</time>
      </trkpt>
      <trkpt lat="45.51312" lon="4.85368">
        <ele>156.39</ele>
        <time>2021-08-01T14:05:52Z</time>
      </trkpt>
      <trkpt lat="45.51315" lon="4.85373">
        <ele>156.37</ele>
        <time>2021-08-01T14:05:53Z</time>
      </trkpt>
      <trkpt lat="45.51319" lon="4.85379">
        <ele>156.36</ele>
        <time>2021-08-01T14:05:54Z</time>
      </trkpt>
      <trkpt lat="45.51322" lon="4.85385">
        <ele>156.41</ele>
        <time>2021-08-01T14:05:55Z</time>
      </trkpt>
      <trkpt lat="45.51325" lon="4.8539">
        <ele>156.46</ele>
        <time>2021-08-01T14:05:56Z</time>
      </trkpt>
      <trkpt lat="45.51327" lon="4.85396">
        <ele>156.53</ele>
        <time>2021-08-01T14:05:57Z</time>
      </trkpt>
      <trkpt lat="45.51346" lon="4.8544">
        <ele>156.55</ele>
        <time>2021-08-01T14:06:05Z</time>
      </trkpt>
      <trkpt lat="45.51348" lon="4.85446">
        <ele>156.52</ele>
        <time>2021-08-01T14:06:06Z</time>
      </trkpt>
      <trkpt lat="45.51351" lon="4.85452">
        <ele>156.49</ele>
        <time>2021-08-01T14:06:07Z</time>
      </trkpt>
      <trkpt lat="45.51382" lon="4.85527">
        <ele>155.93</ele>
        <time>2021-08-01T14:06:18Z</time>
      </trkpt>
      <trkpt lat="45.51414" lon="4.85595">
        <ele>155.77</ele>
        <time>2021-08-01T14:06:27Z</time>
      </trkpt>
      <trkpt lat="45.51446" lon="4.8565">
        <ele>155.81</ele>
        <time>2021-08-01T14:06:36Z</time>
      </trkpt>
      <trkpt lat="45.51484" lon="4.85701">
        <ele>155.8</ele>
        <time>2021-08-01T14:06:45Z</time>
      </trkpt>
      <trkpt lat="45.51529" lon="4.85758">
        <ele>155.31</ele>
        <time>2021-08-01T14:06:55Z</time>
      </trkpt>
      <trkpt lat="45.51578" lon="4.85818">
        <ele>155.35</ele>
        <time>2021-08-01T14:07:06Z</time>
      </trkpt>
      <trkpt lat="45.51609" lon="4.85858">
        <ele>155.39</ele>
        <time>2021-08-01T14:07:14Z</time>
      </trkpt>
      <trkpt lat="45.51648" lon="4.85908">
        <ele>155.48</ele>
        <time>2021-08-01T14:07:23Z</time>
      </trkpt>
      <trkpt lat="45.51694" lon="4.85964">
        <ele>155.52</ele>
        <time>2021-08-01T14:07:33Z</time>
      </trkpt>
      <trkpt lat="45.51734" lon="4.86015">
        <ele>155.44</ele>
        <time>2021-08-01T14:07:42Z</time>
      </trkpt>
      <trkpt lat="45.5177" lon="4.86058">
        <ele>154.91</ele>
        <time>2021-08-01T14:07:50Z</time>
      </trkpt>
      <trkpt lat="45.518" lon="4.86092">
        <ele>154.88</ele>
        <time>2021-08-01T14:07:57Z</time>
      </trkpt>
      <trkpt lat="45.51804" lon="4.86096">
        <ele>154.9</ele>
        <time>2021-08-01T14:07:58Z</time>
      </trkpt>
      <trkpt lat="45.51808" lon="4.861">
        <ele>154.91</ele>
        <time>2021-08-01T14:07:59Z</time>
      </trkpt>
      <trkpt lat="45.51813" lon="4.86104">
        <ele>154.94</ele>
        <time>2021-08-01T14:08:00Z</time>
      </trkpt>
      <trkpt lat="45.51817" lon="4.86109">
        <ele>155.02</ele>
        <time>2021-08-01T14:08:01Z</time>
      </trkpt>
      <trkpt lat="45.51822" lon="4.86114">
        <ele>155.1</ele>
        <time>2021-08-01T14:08:02Z</time>
      </trkpt>
      <trkpt lat="45.51826" lon="4.86119">
        <ele>155.19</ele>
        <time>2021-08-01T14:08:03Z</time>
      </trkpt>
      <trkpt lat="45.51831" lon="4.86124">
        <ele>155.24</ele>
        <time>2021-08-01T14:08:04Z</time>
      </trkpt>
      <trkpt lat="45.51875" lon="4.86171">
        <ele>155.37</ele>
        <time>2021-08-01T14:08:13Z</time>
      </trkpt>
      <trkpt lat="45.51912" lon="4.86211">
        <ele>155.31</ele>
        <time>2021-08-01T14:08:21Z</time>
      </trkpt>
      <trkpt lat="45.51964" lon="4.86266">
        <ele>155.31</ele>
        <time>2021-08-01T14:08:32Z</time>
      </trkpt>
      <trkpt lat="45.52004" lon="4.86312">
        <ele>155.23</ele>
        <time>2021-08-01T14:08:41Z</time>
      </trkpt>
      <trkpt lat="45.52038" lon="4.86351">
        <ele>155.12</ele>
        <time>2021-08-01T14:08:49Z</time>
      </trkpt>
      <trkpt lat="45.52088" lon="4.86406">
        <ele>155.44</ele>
        <time>2021-08-01T14:09:00Z</time>
      </trkpt>
      <trkpt lat="45.52097" lon="4.86417">
        <ele>155.48</ele>
        <time>2021-08-01T14:09:02Z</time>
      </trkpt>
      <trkpt lat="45.52136" lon="4.86461">
        <ele>155.43</ele>
        <time>2021-08-01T14:09:10Z</time>
      </trkpt>
      <trkpt lat="45.52185" lon="4.86514">
        <ele>155.26</ele>
        <time>2021-08-01T14:09:20Z</time>
      </trkpt>
      <trkpt lat="45.52205" lon="4.86537">
        <ele>155.25</ele>
        <time>2021-08-01T14:09:24Z</time>
      </trkpt>
      <trkpt lat="45.52214" lon="4.86549">
        <ele>155.24</ele>
        <time>2021-08-01T14:09:26Z</time>
      </trkpt>
      <trkpt lat="45.5226" lon="4.86604">
        <ele>154.81</ele>
        <time>2021-08-01T14:09:36Z</time>
      </trkpt>
      <trkpt lat="45.52291" lon="4.86645">
        <ele>154.73</ele>
        <time>2021-08-01T14:09:43Z</time>
      </trkpt>
      <trkpt lat="45.52317" lon="4.86687">
        <ele>154.57</ele>
        <time>2021-08-01T14:09:50Z</time>
      </trkpt>
      <trkpt lat="45.52347" lon="4.86726">
        <ele>154.73</ele>
        <time>2021-08-01T14:09:58Z</time>
      </trkpt>
      <trkpt lat="45.52383" lon="4.86774">
        <ele>155</ele>
        <time>2021-08-01T14:10:07Z</time>
      </trkpt>
      <trkpt lat="45.52401" lon="4.86796">
        <ele>154.63</ele>
        <time>2021-08-01T14:10:11Z</time>
      </trkpt>
      <trkpt lat="45.52419" lon="4.86814">
        <ele>154.29</ele>
        <time>2021-08-01T14:10:15Z</time>
      </trkpt>
      <trkpt lat="45.52465" lon="4.8685">
        <ele>154.3</ele>
        <time>2021-08-01T14:10:24Z</time>
      </trkpt>
      <trkpt lat="45.5247" lon="4.86854">
        <ele>154.31</ele>
        <time>2021-08-01T14:10:25Z</time>
      </trkpt>
      <trkpt lat="45.52509" lon="4.86885">
        <ele>154.54</ele>
        <time>2021-08-01T14:10:33Z</time>
      </trkpt>
      <trkpt lat="45.52527" lon="4.869">
        <ele>154.69</ele>
        <time>2021-08-01T14:10:37Z</time>
      </trkpt>
      <trkpt lat="45.52558" lon="4.86923">
        <ele>154.91</ele>
        <time>2021-08-01T14:10:44Z</time>
      </trkpt>
      <trkpt lat="45.52566" lon="4.86929">
        <ele>155.05</ele>
        <time>2021-08-01T14:10:46Z</time>
      </trkpt>
      <trkpt lat="45.52576" lon="4.86935">
        <ele>155.16</ele>
        <time>2021-08-01T14:10:48Z</time>
      </trkpt>
      <trkpt lat="45.52603" lon="4.8695">
        <ele>155.23</ele>
        <time>2021-08-01T14:10:54Z</time>
      </trkpt>
      <trkpt lat="45.52607" lon="4.86952">
        <ele>155.26</ele>
        <time>2021-08-01T14:10:55Z</time>
      </trkpt>
      <trkpt lat="45.52611" lon="4.86953">
        <ele>155.28</ele>
        <time>2021-08-01T14:10:56Z</time>
      </trkpt>
      <trkpt lat="45.52614" lon="4.86956">
        <ele>155.29</ele>
        <time>2021-08-01T14:10:57Z</time>
      </trkpt>
      <trkpt lat="45.52617" lon="4.8696">
        <ele>155.3</ele>
        <time>2021-08-01T14:10:58Z</time>
      </trkpt>
      <trkpt lat="45.5262" lon="4.86964">
        <ele>155.3</ele>
        <time>2021-08-01T14:10:59Z</time>
      </trkpt>
      <trkpt lat="45.52624" lon="4.86967">
        <ele>155.34</ele>
        <time>2021-08-01T14:11:00Z</time>
      </trkpt>
      <trkpt lat="45.52627" lon="4.86969">
        <ele>155.39</ele>
        <time>2021-08-01T14:11:01Z</time>
      </trkpt>
      <trkpt lat="45.52631" lon="4.86972">
        <ele>155.49</ele>
        <time>2021-08-01T14:11:02Z</time>
      </trkpt>
      <trkpt lat="45.52635" lon="4.86975">
        <ele>155.57</ele>
        <time>2021-08-01T14:11:03Z</time>
      </trkpt>
      <trkpt lat="45.5264" lon="4.86978">
        <ele>155.6</ele>
        <time>2021-08-01T14:11:04Z</time>
      </trkpt>
      <trkpt lat="45.52644" lon="4.86981">
        <ele>155.62</ele>
        <time>2021-08-01T14:11:05Z</time>
      </trkpt>
      <trkpt lat="45.52648" lon="4.86986">
        <ele>155.64</ele>
        <time>2021-08-01T14:11:06Z</time>
      </trkpt>
      <trkpt lat="45.52661" lon="4.86999">
        <ele>155.71</ele>
        <time>2021-08-01T14:11:09Z</time>
      </trkpt>
      <trkpt lat="45.52694" lon="4.87021">
        <ele>155.6</ele>
        <time>2021-08-01T14:11:16Z</time>
      </trkpt>
      <trkpt lat="45.52714" lon="4.87033">
        <ele>155.41</ele>
        <time>2021-08-01T14:11:21Z</time>
      </trkpt>
      <trkpt lat="45.52718" lon="4.87033">
        <ele>155.41</ele>
        <time>2021-08-01T14:11:22Z</time>
      </trkpt>
      <trkpt lat="45.52721" lon="4.87034">
        <ele>155.41</ele>
        <time>2021-08-01T14:11:23Z</time>
      </trkpt>
      <trkpt lat="45.52737" lon="4.87043">
        <ele>155.41</ele>
        <time>2021-08-01T14:11:27Z</time>
      </trkpt>
      <trkpt lat="45.52741" lon="4.87046">
        <ele>155.51</ele>
        <time>2021-08-01T14:11:28Z</time>
      </trkpt>
      <trkpt lat="45.52749" lon="4.87053">
        <ele>155.59</ele>
        <time>2021-08-01T14:11:30Z</time>
      </trkpt>
      <trkpt lat="45.52753" lon="4.87056">
        <ele>155.6</ele>
        <time>2021-08-01T14:11:31Z</time>
      </trkpt>
      <trkpt lat="45.52772" lon="4.87065">
        <ele>155.68</ele>
        <time>2021-08-01T14:11:35Z</time>
      </trkpt>
      <trkpt lat="45.52775" lon="4.87069">
        <ele>155.75</ele>
        <time>2021-08-01T14:11:36Z</time>
      </trkpt>
      <trkpt lat="45.5278" lon="4.87073">
        <ele>155.79</ele>
        <time>2021-08-01T14:11:37Z</time>
      </trkpt>
      <trkpt lat="45.52784" lon="4.87077">
        <ele>155.77</ele>
        <time>2021-08-01T14:11:38Z</time>
      </trkpt>
      <trkpt lat="45.52789" lon="4.8708">
        <ele>155.76</ele>
        <time>2021-08-01T14:11:39Z</time>
      </trkpt>
      <trkpt lat="45.5283" lon="4.87105">
        <ele>155.28</ele>
        <time>2021-08-01T14:11:47Z</time>
      </trkpt>
      <trkpt lat="45.5288" lon="4.87132">
        <ele>155.08</ele>
        <time>2021-08-01T14:11:56Z</time>
      </trkpt>
      <trkpt lat="45.52907" lon="4.87141">
        <ele>155.11</ele>
        <time>2021-08-01T14:12:01Z</time>
      </trkpt>
      <trkpt lat="45.52953" lon="4.87149">
        <ele>155.2</ele>
        <time>2021-08-01T14:12:09Z</time>
      </trkpt>
      <trkpt lat="45.52983" lon="4.87157">
        <ele>155.18</ele>
        <time>2021-08-01T14:12:14Z</time>
      </trkpt>
      <trkpt lat="45.53026" lon="4.87167">
        <ele>155.33</ele>
        <time>2021-08-01T14:12:21Z</time>
      </trkpt>
      <trkpt lat="45.53032" lon="4.87168">
        <ele>155.37</ele>
        <time>2021-08-01T14:12:22Z</time>
      </trkpt>
      <trkpt lat="45.53037" lon="4.87168">
        <ele>155.45</ele>
        <time>2021-08-01T14:12:23Z</time>
      </trkpt>
      <trkpt lat="45.53041" lon="4.87169">
        <ele>155.52</ele>
        <time>2021-08-01T14:12:24Z</time>
      </trkpt>
      <trkpt lat="45.53044" lon="4.8717">
        <ele>155.57</ele>
        <time>2021-08-01T14:12:25Z</time>
      </trkpt>
      <trkpt lat="45.53048" lon="4.8717">
        <ele>155.63</ele>
        <time>2021-08-01T14:12:26Z</time>
      </trkpt>
      <trkpt lat="45.53052" lon="4.8717">
        <ele>155.72</ele>
        <time>2021-08-01T14:12:27Z</time>
      </trkpt>
      <trkpt lat="45.53055" lon="4.8717">
        <ele>155.79</ele>
        <time>2021-08-01T14:12:28Z</time>
      </trkpt>
      <trkpt lat="45.53058" lon="4.8717">
        <ele>155.85</ele>
        <time>2021-08-01T14:12:29Z</time>
      </trkpt>
      <trkpt lat="45.53062" lon="4.87171">
        <ele>155.88</ele>
        <time>2021-08-01T14:12:30Z</time>
      </trkpt>
      <trkpt lat="45.53066" lon="4.87171">
        <ele>155.91</ele>
        <time>2021-08-01T14:12:31Z</time>
      </trkpt>
      <trkpt lat="45.53071" lon="4.87172">
        <ele>155.92</ele>
        <time>2021-08-01T14:12:32Z</time>
      </trkpt>
      <trkpt lat="45.53075" lon="4.87172">
        <ele>155.92</ele>
        <time>2021-08-01T14:12:33Z</time>
      </trkpt>
      <trkpt lat="45.5308" lon="4.87172">
        <ele>155.92</ele>
        <time>2021-08-01T14:12:34Z</time>
      </trkpt>
      <trkpt lat="45.53085" lon="4.87172">
        <ele>155.92</ele>
        <time>2021-08-01T14:12:35Z</time>
      </trkpt>
      <trkpt lat="45.53124" lon="4.87167">
        <ele>155.81</ele>
        <time>2021-08-01T14:12:42Z</time>
      </trkpt>
      <trkpt lat="45.5313" lon="4.87166">
        <ele>155.75</ele>
        <time>2021-08-01T14:12:43Z</time>
      </trkpt>
      <trkpt lat="45.5317" lon="4.87145">
        <ele>155.62</ele>
        <time>2021-08-01T14:12:50Z</time>
      </trkpt>
      <trkpt lat="45.53217" lon="4.87105">
        <ele>155.56</ele>
        <time>2021-08-01T14:12:59Z</time>
      </trkpt>
      <trkpt lat="45.53258" lon="4.8707">
        <ele>155.39</ele>
        <time>2021-08-01T14:13:07Z</time>
      </trkpt>
      <trkpt lat="45.53298" lon="4.87036">
        <ele>155.16</ele>
        <time>2021-08-01T14:13:15Z</time>
      </trkpt>
      <trkpt lat="45.53313" lon="4.87024">
        <ele>155.16</ele>
        <time>2021-08-01T14:13:18Z</time>
      </trkpt>
      <trkpt lat="45.53326" lon="4.87009">
        <ele>155.35</ele>
        <time>2021-08-01T14:13:21Z</time>
      </trkpt>
      <trkpt lat="45.53365" lon="4.86959">
        <ele>155.9</ele>
        <time>2021-08-01T14:13:30Z</time>
      </trkpt>
      <trkpt lat="45.53402" lon="4.86905">
        <ele>156.06</ele>
        <time>2021-08-01T14:13:39Z</time>
      </trkpt>
      <trkpt lat="45.5344" lon="4.86849">
        <ele>156.02</ele>
        <time>2021-08-01T14:13:48Z</time>
      </trkpt>
      <trkpt lat="45.53459" lon="4.86821">
        <ele>155.98</ele>
        <time>2021-08-01T14:13:53Z</time>
      </trkpt>
      <trkpt lat="45.53463" lon="4.86816">
        <ele>155.98</ele>
        <time>2021-08-01T14:13:54Z</time>
      </trkpt>
      <trkpt lat="45.53493" lon="4.8677">
        <ele>156.52</ele>
        <time>2021-08-01T14:14:02Z</time>
      </trkpt>
      <trkpt lat="45.535" lon="4.86757">
        <ele>156.56</ele>
        <time>2021-08-01T14:14:04Z</time>
      </trkpt>
      <trkpt lat="45.53529" lon="4.86692">
        <ele>156.47</ele>
        <time>2021-08-01T14:14:13Z</time>
      </trkpt>
      <trkpt lat="45.5354" lon="4.86667">
        <ele>156.36</ele>
        <time>2021-08-01T14:14:17Z</time>
      </trkpt>
      <trkpt lat="45.53542" lon="4.86661">
        <ele>156.36</ele>
        <time>2021-08-01T14:14:18Z</time>
      </trkpt>
      <trkpt lat="45.53557" lon="4.86628">
        <ele>156.49</ele>
        <time>2021-08-01T14:14:23Z</time>
      </trkpt>
      <trkpt lat="45.53562" lon="4.86614">
        <ele>156.37</ele>
        <time>2021-08-01T14:14:25Z</time>
      </trkpt>
      <trkpt lat="45.53581" lon="4.86572">
        <ele>156.39</ele>
        <time>2021-08-01T14:14:31Z</time>
      </trkpt>
      <trkpt lat="45.53608" lon="4.86501">
        <ele>156.21</ele>
        <time>2021-08-01T14:14:40Z</time>
      </trkpt>
      <trkpt lat="45.53627" lon="4.86432">
        <ele>156.03</ele>
        <time>2021-08-01T14:14:48Z</time>
      </trkpt>
      <trkpt lat="45.53631" lon="4.86415">
        <ele>156.03</ele>
        <time>2021-08-01T14:14:50Z</time>
      </trkpt>
      <trkpt lat="45.53641" lon="4.86382">
        <ele>156.07</ele>
        <time>2021-08-01T14:14:54Z</time>
      </trkpt>
      <trkpt lat="45.53643" lon="4.86373">
        <ele>156.09</ele>
        <time>2021-08-01T14:14:55Z</time>
      </trkpt>
      <trkpt lat="45.53646" lon="4.86365">
        <ele>156.1</ele>
        <time>2021-08-01T14:14:56Z</time>
      </trkpt>
      <trkpt lat="45.53673" lon="4.86291">
        <ele>156.07</ele>
        <time>2021-08-01T14:15:05Z</time>
      </trkpt>
      <trkpt lat="45.53679" lon="4.86274">
        <ele>155.92</ele>
        <time>2021-08-01T14:15:07Z</time>
      </trkpt>
      <trkpt lat="45.53702" lon="4.86211">
        <ele>155.79</ele>
        <time>2021-08-01T14:15:15Z</time>
      </trkpt>
      <trkpt lat="45.53725" lon="4.86151">
        <ele>155.84</ele>
        <time>2021-08-01T14:15:23Z</time>
      </trkpt>
      <trkpt lat="45.5374" lon="4.86095">
        <ele>155.96</ele>
        <time>2021-08-01T14:15:30Z</time>
      </trkpt>
      <trkpt lat="45.5375" lon="4.86044">
        <ele>156.05</ele>
        <time>2021-08-01T14:15:36Z</time>
      </trkpt>
      <trkpt lat="45.53752" lon="4.8602">
        <ele>156.12</ele>
        <time>2021-08-01T14:15:39Z</time>
      </trkpt>
      <trkpt lat="45.5376" lon="4.85976">
        <ele>156.51</ele>
        <time>2021-08-01T14:15:45Z</time>
      </trkpt>
      <trkpt lat="45.53761" lon="4.85969">
        <ele>156.53</ele>
        <time>2021-08-01T14:15:46Z</time>
      </trkpt>
      <trkpt lat="45.5377" lon="4.85915">
        <ele>156.69</ele>
        <time>2021-08-01T14:15:53Z</time>
      </trkpt>
      <trkpt lat="45.53772" lon="4.85899">
        <ele>156.73</ele>
        <time>2021-08-01T14:15:55Z</time>
      </trkpt>
      <trkpt lat="45.53779" lon="4.85852">
        <ele>156.74</ele>
        <time>2021-08-01T14:16:01Z</time>
      </trkpt>
      <trkpt lat="45.53782" lon="4.85822">
        <ele>156.81</ele>
        <time>2021-08-01T14:16:05Z</time>
      </trkpt>
      <trkpt lat="45.53792" lon="4.85755">
        <ele>156.67</ele>
        <time>2021-08-01T14:16:13Z</time>
      </trkpt>
      <trkpt lat="45.53798" lon="4.85716">
        <ele>156.62</ele>
        <time>2021-08-01T14:16:18Z</time>
      </trkpt>
      <trkpt lat="45.53801" lon="4.85701">
        <ele>156.62</ele>
        <time>2021-08-01T14:16:20Z</time>
      </trkpt>
      <trkpt lat="45.53801" lon="4.85693">
        <ele>156.62</ele>
        <time>2021-08-01T14:16:21Z</time>
      </trkpt>
      <trkpt lat="45.53806" lon="4.85665">
        <ele>156.74</ele>
        <time>2021-08-01T14:16:25Z</time>
      </trkpt>
      <trkpt lat="45.53806" lon="4.85658">
        <ele>156.8</ele>
        <time>2021-08-01T14:16:26Z</time>
      </trkpt>
      <trkpt lat="45.53807" lon="4.85651">
        <ele>156.83</ele>
        <time>2021-08-01T14:16:27Z</time>
      </trkpt>
      <trkpt lat="45.53808" lon="4.85644">
        <ele>156.83</ele>
        <time>2021-08-01T14:16:28Z</time>
      </trkpt>
      <trkpt lat="45.53808" lon="4.85637">
        <ele>156.84</ele>
        <time>2021-08-01T14:16:29Z</time>
      </trkpt>
      <trkpt lat="45.5381" lon="4.85623">
        <ele>156.84</ele>
        <time>2021-08-01T14:16:31Z</time>
      </trkpt>
      <trkpt lat="45.53813" lon="4.85617">
        <ele>156.84</ele>
        <time>2021-08-01T14:16:32Z</time>
      </trkpt>
      <trkpt lat="45.53816" lon="4.85611">
        <ele>156.84</ele>
        <time>2021-08-01T14:16:33Z</time>
      </trkpt>
      <trkpt lat="45.53819" lon="4.85605">
        <ele>156.84</ele>
        <time>2021-08-01T14:16:34Z</time>
      </trkpt>
      <trkpt lat="45.5382" lon="4.85598">
        <ele>156.79</ele>
        <time>2021-08-01T14:16:35Z</time>
      </trkpt>
      <trkpt lat="45.53822" lon="4.8559">
        <ele>156.63</ele>
        <time>2021-08-01T14:16:36Z</time>
      </trkpt>
      <trkpt lat="45.53833" lon="4.85534">
        <ele>156</ele>
        <time>2021-08-01T14:16:44Z</time>
      </trkpt>
      <trkpt lat="45.53837" lon="4.85522">
        <ele>156</ele>
        <time>2021-08-01T14:16:46Z</time>
      </trkpt>
      <trkpt lat="45.53837" lon="4.85515">
        <ele>156</ele>
        <time>2021-08-01T14:16:47Z</time>
      </trkpt>
      <trkpt lat="45.53839" lon="4.85503">
        <ele>156</ele>
        <time>2021-08-01T14:16:49Z</time>
      </trkpt>
      <trkpt lat="45.5384" lon="4.85497">
        <ele>156.06</ele>
        <time>2021-08-01T14:16:50Z</time>
      </trkpt>
      <trkpt lat="45.53841" lon="4.85491">
        <ele>156.16</ele>
        <time>2021-08-01T14:16:51Z</time>
      </trkpt>
      <trkpt lat="45.53845" lon="4.85466">
        <ele>156.34</ele>
        <time>2021-08-01T14:16:56Z</time>
      </trkpt>
      <trkpt lat="45.53847" lon="4.85466">
        <ele>156.36</ele>
        <time>2021-08-01T14:16:57Z</time>
      </trkpt>
      <trkpt lat="45.53854" lon="4.85468">
        <ele>157.39</ele>
        <time>2021-08-01T14:17:04Z</time>
      </trkpt>
      <trkpt lat="45.53856" lon="4.85468">
        <ele>157.81</ele>
        <time>2021-08-01T14:17:06Z</time>
      </trkpt>
      <trkpt lat="45.53858" lon="4.85468">
        <ele>157.95</ele>
        <time>2021-08-01T14:17:07Z</time>
      </trkpt>
      <trkpt lat="45.53859" lon="4.85468">
        <ele>158.08</ele>
        <time>2021-08-01T14:17:08Z</time>
      </trkpt>
      <trkpt lat="45.53876" lon="4.85472">
        <ele>158.5</ele>
        <time>2021-08-01T14:17:16Z</time>
      </trkpt>
      <trkpt lat="45.53896" lon="4.85479">
        <ele>158.47</ele>
        <time>2021-08-01T14:17:21Z</time>
      </trkpt>
      <trkpt lat="45.53917" lon="4.85487">
        <ele>157.73</ele>
        <time>2021-08-01T14:17:27Z</time>
      </trkpt>
      <trkpt lat="45.5392" lon="4.85485">
        <ele>157.23</ele>
        <time>2021-08-01T14:17:28Z</time>
      </trkpt>
      <trkpt lat="45.53923" lon="4.85481">
        <ele>156.87</ele>
        <time>2021-08-01T14:17:29Z</time>
      </trkpt>
      <trkpt lat="45.53925" lon="4.85477">
        <ele>156.69</ele>
        <time>2021-08-01T14:17:30Z</time>
      </trkpt>
      <trkpt lat="45.53927" lon="4.85472">
        <ele>156.56</ele>
        <time>2021-08-01T14:17:31Z</time>
      </trkpt>
      <trkpt lat="45.53928" lon="4.85466">
        <ele>156.51</ele>
        <time>2021-08-01T14:17:32Z</time>
      </trkpt>
      <trkpt lat="45.53929" lon="4.8546">
        <ele>156.48</ele>
        <time>2021-08-01T14:17:33Z</time>
      </trkpt>
      <trkpt lat="45.53931" lon="4.85454">
        <ele>156.46</ele>
        <time>2021-08-01T14:17:34Z</time>
      </trkpt>
      <trkpt lat="45.53932" lon="4.85448">
        <ele>156.45</ele>
        <time>2021-08-01T14:17:35Z</time>
      </trkpt>
      <trkpt lat="45.53934" lon="4.85442">
        <ele>156.45</ele>
        <time>2021-08-01T14:17:36Z</time>
      </trkpt>
      <trkpt lat="45.53935" lon="4.85436">
        <ele>156.44</ele>
        <time>2021-08-01T14:17:37Z</time>
      </trkpt>
      <trkpt lat="45.53941" lon="4.85403">
        <ele>156.4</ele>
        <time>2021-08-01T14:17:42Z</time>
      </trkpt>
      <trkpt lat="45.53944" lon="4.85388">
        <ele>156.34</ele>
        <time>2021-08-01T14:17:44Z</time>
      </trkpt>
      <trkpt lat="45.53946" lon="4.85365">
        <ele>156.28</ele>
        <time>2021-08-01T14:17:47Z</time>
      </trkpt>
      <trkpt lat="45.53949" lon="4.85342">
        <ele>156.21</ele>
        <time>2021-08-01T14:17:50Z</time>
      </trkpt>
      <trkpt lat="45.53951" lon="4.85328">
        <ele>156.11</ele>
        <time>2021-08-01T14:17:52Z</time>
      </trkpt>
      <trkpt lat="45.53953" lon="4.85313">
        <ele>156.05</ele>
        <time>2021-08-01T14:17:54Z</time>
      </trkpt>
      <trkpt lat="45.53957" lon="4.85261">
        <ele>155.97</ele>
        <time>2021-08-01T14:18:01Z</time>
      </trkpt>
      <trkpt lat="45.53958" lon="4.8525">
        <ele>155.97</ele>
        <time>2021-08-01T14:18:03Z</time>
      </trkpt>
      <trkpt lat="45.5396" lon="4.85237">
        <ele>155.99</ele>
        <time>2021-08-01T14:18:05Z</time>
      </trkpt>
      <trkpt lat="45.5396" lon="4.85231">
        <ele>156</ele>
        <time>2021-08-01T14:18:06Z</time>
      </trkpt>
      <trkpt lat="45.53962" lon="4.85224">
        <ele>156.02</ele>
        <time>2021-08-01T14:18:07Z</time>
      </trkpt>
      <trkpt lat="45.53963" lon="4.85217">
        <ele>156.05</ele>
        <time>2021-08-01T14:18:08Z</time>
      </trkpt>
      <trkpt lat="45.53963" lon="4.8521">
        <ele>156.12</ele>
        <time>2021-08-01T14:18:09Z</time>
      </trkpt>
      <trkpt lat="45.53968" lon="4.85163">
        <ele>156.07</ele>
        <time>2021-08-01T14:18:15Z</time>
      </trkpt>
      <trkpt lat="45.53969" lon="4.85155">
        <ele>156.06</ele>
        <time>2021-08-01T14:18:16Z</time>
      </trkpt>
      <trkpt lat="45.53972" lon="4.85131">
        <ele>156</ele>
        <time>2021-08-01T14:18:19Z</time>
      </trkpt>
      <trkpt lat="45.53977" lon="4.85081">
        <ele>155.96</ele>
        <time>2021-08-01T14:18:26Z</time>
      </trkpt>
      <trkpt lat="45.53979" lon="4.85068">
        <ele>155.96</ele>
        <time>2021-08-01T14:18:28Z</time>
      </trkpt>
      <trkpt lat="45.5398" lon="4.85063">
        <ele>155.96</ele>
        <time>2021-08-01T14:18:29Z</time>
      </trkpt>
      <trkpt lat="45.53981" lon="4.85056">
        <ele>155.97</ele>
        <time>2021-08-01T14:18:30Z</time>
      </trkpt>
      <trkpt lat="45.53982" lon="4.8505">
        <ele>155.99</ele>
        <time>2021-08-01T14:18:31Z</time>
      </trkpt>
      <trkpt lat="45.53983" lon="4.85045">
        <ele>156.09</ele>
        <time>2021-08-01T14:18:32Z</time>
      </trkpt>
      <trkpt lat="45.53983" lon="4.85039">
        <ele>156.13</ele>
        <time>2021-08-01T14:18:33Z</time>
      </trkpt>
      <trkpt lat="45.53984" lon="4.85032">
        <ele>156.17</ele>
        <time>2021-08-01T14:18:34Z</time>
      </trkpt>
      <trkpt lat="45.53984" lon="4.85026">
        <ele>156.26</ele>
        <time>2021-08-01T14:18:35Z</time>
      </trkpt>
      <trkpt lat="45.53985" lon="4.8502">
        <ele>156.52</ele>
        <time>2021-08-01T14:18:36Z</time>
      </trkpt>
      <trkpt lat="45.53986" lon="4.85013">
        <ele>156.57</ele>
        <time>2021-08-01T14:18:37Z</time>
      </trkpt>
      <trkpt lat="45.53993" lon="4.84957">
        <ele>156.63</ele>
        <time>2021-08-01T14:18:45Z</time>
      </trkpt>
      <trkpt lat="45.53994" lon="4.8495">
        <ele>156.63</ele>
        <time>2021-08-01T14:18:46Z</time>
      </trkpt>
      <trkpt lat="45.53999" lon="4.84904">
        <ele>156.41</ele>
        <time>2021-08-01T14:18:52Z</time>
      </trkpt>
      <trkpt lat="45.54002" lon="4.84869">
        <ele>156.36</ele>
        <time>2021-08-01T14:18:57Z</time>
      </trkpt>
      <trkpt lat="45.54003" lon="4.84861">
        <ele>156.34</ele>
        <time>2021-08-01T14:18:58Z</time>
      </trkpt>
      <trkpt lat="45.54005" lon="4.84845">
        <ele>156.29</ele>
        <time>2021-08-01T14:19:00Z</time>
      </trkpt>
      <trkpt lat="45.54011" lon="4.84777">
        <ele>156.08</ele>
        <time>2021-08-01T14:19:08Z</time>
      </trkpt>
      <trkpt lat="45.54014" lon="4.8475">
        <ele>156.03</ele>
        <time>2021-08-01T14:19:11Z</time>
      </trkpt>
      <trkpt lat="45.54015" lon="4.84741">
        <ele>156.02</ele>
        <time>2021-08-01T14:19:12Z</time>
      </trkpt>
      <trkpt lat="45.54019" lon="4.84715">
        <ele>155.54</ele>
        <time>2021-08-01T14:19:15Z</time>
      </trkpt>
      <trkpt lat="45.5402" lon="4.84706">
        <ele>155.44</ele>
        <time>2021-08-01T14:19:16Z</time>
      </trkpt>
      <trkpt lat="45.54028" lon="4.84638">
        <ele>155.34</ele>
        <time>2021-08-01T14:19:24Z</time>
      </trkpt>
      <trkpt lat="45.54037" lon="4.8456">
        <ele>155.74</ele>
        <time>2021-08-01T14:19:33Z</time>
      </trkpt>
      <trkpt lat="45.54045" lon="4.845">
        <ele>155.75</ele>
        <time>2021-08-01T14:19:40Z</time>
      </trkpt>
      <trkpt lat="45.54048" lon="4.84478">
        <ele>155.83</ele>
        <time>2021-08-01T14:19:43Z</time>
      </trkpt>
      <trkpt lat="45.54057" lon="4.84415">
        <ele>155.96</ele>
        <time>2021-08-01T14:19:51Z</time>
      </trkpt>
      <trkpt lat="45.54068" lon="4.84368">
        <ele>156.2</ele>
        <time>2021-08-01T14:19:57Z</time>
      </trkpt>
      <trkpt lat="45.54076" lon="4.8432">
        <ele>156.28</ele>
        <time>2021-08-01T14:20:03Z</time>
      </trkpt>
      <trkpt lat="45.54084" lon="4.84279">
        <ele>156.45</ele>
        <time>2021-08-01T14:20:08Z</time>
      </trkpt>
      <trkpt lat="45.54089" lon="4.84256">
        <ele>156.53</ele>
        <time>2021-08-01T14:20:11Z</time>
      </trkpt>
      <trkpt lat="45.5409" lon="4.84248">
        <ele>156.55</ele>
        <time>2021-08-01T14:20:12Z</time>
      </trkpt>
      <trkpt lat="45.54091" lon="4.84241">
        <ele>156.55</ele>
        <time>2021-08-01T14:20:13Z</time>
      </trkpt>
      <trkpt lat="45.54092" lon="4.84233">
        <ele>156.57</ele>
        <time>2021-08-01T14:20:14Z</time>
      </trkpt>
      <trkpt lat="45.54095" lon="4.84224">
        <ele>156.58</ele>
        <time>2021-08-01T14:20:15Z</time>
      </trkpt>
      <trkpt lat="45.54096" lon="4.84217">
        <ele>156.57</ele>
        <time>2021-08-01T14:20:16Z</time>
      </trkpt>
      <trkpt lat="45.54098" lon="4.84209">
        <ele>156.57</ele>
        <time>2021-08-01T14:20:17Z</time>
      </trkpt>
      <trkpt lat="45.54111" lon="4.84156">
        <ele>156.48</ele>
        <time>2021-08-01T14:20:24Z</time>
      </trkpt>
      <trkpt lat="45.54113" lon="4.84148">
        <ele>156.45</ele>
        <time>2021-08-01T14:20:25Z</time>
      </trkpt>
      <trkpt lat="45.54126" lon="4.84083">
        <ele>156.2</ele>
        <time>2021-08-01T14:20:33Z</time>
      </trkpt>
      <trkpt lat="45.54146" lon="4.83991">
        <ele>156.9</ele>
        <time>2021-08-01T14:20:44Z</time>
      </trkpt>
      <trkpt lat="45.54149" lon="4.83982">
        <ele>157</ele>
        <time>2021-08-01T14:20:45Z</time>
      </trkpt>
      <trkpt lat="45.54166" lon="4.83915">
        <ele>157.18</ele>
        <time>2021-08-01T14:20:53Z</time>
      </trkpt>
      <trkpt lat="45.54187" lon="4.8384">
        <ele>157.16</ele>
        <time>2021-08-01T14:21:02Z</time>
      </trkpt>
      <trkpt lat="45.54207" lon="4.83772">
        <ele>156.97</ele>
        <time>2021-08-01T14:21:10Z</time>
      </trkpt>
      <trkpt lat="45.54213" lon="4.83756">
        <ele>156.93</ele>
        <time>2021-08-01T14:21:12Z</time>
      </trkpt>
      <trkpt lat="45.54238" lon="4.83682">
        <ele>156.8</ele>
        <time>2021-08-01T14:21:21Z</time>
      </trkpt>
      <trkpt lat="45.54275" lon="4.83585">
        <ele>157.17</ele>
        <time>2021-08-01T14:21:33Z</time>
      </trkpt>
      <trkpt lat="45.54301" lon="4.83527">
        <ele>157.4</ele>
        <time>2021-08-01T14:21:41Z</time>
      </trkpt>
      <trkpt lat="45.54333" lon="4.83461">
        <ele>157.48</ele>
        <time>2021-08-01T14:21:50Z</time>
      </trkpt>
      <trkpt lat="45.54369" lon="4.83387">
        <ele>157.37</ele>
        <time>2021-08-01T14:22:00Z</time>
      </trkpt>
      <trkpt lat="45.54408" lon="4.83315">
        <ele>157.11</ele>
        <time>2021-08-01T14:22:10Z</time>
      </trkpt>
      <trkpt lat="45.54462" lon="4.83226">
        <ele>157.01</ele>
        <time>2021-08-01T14:22:23Z</time>
      </trkpt>
      <trkpt lat="45.54497" lon="4.83174">
        <ele>157.35</ele>
        <time>2021-08-01T14:22:32Z</time>
      </trkpt>
      <trkpt lat="45.54506" lon="4.83159">
        <ele>157.48</ele>
        <time>2021-08-01T14:22:35Z</time>
      </trkpt>
      <trkpt lat="45.54509" lon="4.83154">
        <ele>157.55</ele>
        <time>2021-08-01T14:22:36Z</time>
      </trkpt>
      <trkpt lat="45.54515" lon="4.83143">
        <ele>157.62</ele>
        <time>2021-08-01T14:22:38Z</time>
      </trkpt>
      <trkpt lat="45.54517" lon="4.83136">
        <ele>157.65</ele>
        <time>2021-08-01T14:22:39Z</time>
      </trkpt>
      <trkpt lat="45.5452" lon="4.8313">
        <ele>157.69</ele>
        <time>2021-08-01T14:22:40Z</time>
      </trkpt>
      <trkpt lat="45.54524" lon="4.83126">
        <ele>157.71</ele>
        <time>2021-08-01T14:22:41Z</time>
      </trkpt>
      <trkpt lat="45.54528" lon="4.83121">
        <ele>157.73</ele>
        <time>2021-08-01T14:22:42Z</time>
      </trkpt>
      <trkpt lat="45.54532" lon="4.83116">
        <ele>157.76</ele>
        <time>2021-08-01T14:22:43Z</time>
      </trkpt>
      <trkpt lat="45.54535" lon="4.8311">
        <ele>157.82</ele>
        <time>2021-08-01T14:22:44Z</time>
      </trkpt>
      <trkpt lat="45.54567" lon="4.83063">
        <ele>158.45</ele>
        <time>2021-08-01T14:22:53Z</time>
      </trkpt>
      <trkpt lat="45.54617" lon="4.82992">
        <ele>159.03</ele>
        <time>2021-08-01T14:23:06Z</time>
      </trkpt>
      <trkpt lat="45.54643" lon="4.82957">
        <ele>159.08</ele>
        <time>2021-08-01T14:23:12Z</time>
      </trkpt>
      <trkpt lat="45.54647" lon="4.82951">
        <ele>159.08</ele>
        <time>2021-08-01T14:23:13Z</time>
      </trkpt>
      <trkpt lat="45.54651" lon="4.82945">
        <ele>159.06</ele>
        <time>2021-08-01T14:23:14Z</time>
      </trkpt>
      <trkpt lat="45.54668" lon="4.82923">
        <ele>158.99</ele>
        <time>2021-08-01T14:23:18Z</time>
      </trkpt>
      <trkpt lat="45.54671" lon="4.82916">
        <ele>158.98</ele>
        <time>2021-08-01T14:23:19Z</time>
      </trkpt>
      <trkpt lat="45.54673" lon="4.82908">
        <ele>158.98</ele>
        <time>2021-08-01T14:23:20Z</time>
      </trkpt>
      <trkpt lat="45.54675" lon="4.829">
        <ele>158.98</ele>
        <time>2021-08-01T14:23:21Z</time>
      </trkpt>
      <trkpt lat="45.54677" lon="4.82891">
        <ele>158.98</ele>
        <time>2021-08-01T14:23:22Z</time>
      </trkpt>
      <trkpt lat="45.54678" lon="4.82883">
        <ele>158.98</ele>
        <time>2021-08-01T14:23:23Z</time>
      </trkpt>
      <trkpt lat="45.5468" lon="4.82808">
        <ele>159</ele>
        <time>2021-08-01T14:23:32Z</time>
      </trkpt>
      <trkpt lat="45.54681" lon="4.82787">
        <ele>159.16</ele>
        <time>2021-08-01T14:23:36Z</time>
      </trkpt>
      <trkpt lat="45.54686" lon="4.82763">
        <ele>159.3</ele>
        <time>2021-08-01T14:23:41Z</time>
      </trkpt>
      <trkpt lat="45.5469" lon="4.8273">
        <ele>159.91</ele>
        <time>2021-08-01T14:23:46Z</time>
      </trkpt>
      <trkpt lat="45.54694" lon="4.82717">
        <ele>159.92</ele>
        <time>2021-08-01T14:23:48Z</time>
      </trkpt>
      <trkpt lat="45.54698" lon="4.82711">
        <ele>159.92</ele>
        <time>2021-08-01T14:23:49Z</time>
      </trkpt>
      <trkpt lat="45.54701" lon="4.82704">
        <ele>159.92</ele>
        <time>2021-08-01T14:23:50Z</time>
      </trkpt>
      <trkpt lat="45.54706" lon="4.82692">
        <ele>159.91</ele>
        <time>2021-08-01T14:23:52Z</time>
      </trkpt>
      <trkpt lat="45.54709" lon="4.82685">
        <ele>159.83</ele>
        <time>2021-08-01T14:23:53Z</time>
      </trkpt>
      <trkpt lat="45.5472" lon="4.82667">
        <ele>159.49</ele>
        <time>2021-08-01T14:23:56Z</time>
      </trkpt>
      <trkpt lat="45.54724" lon="4.82663">
        <ele>159.42</ele>
        <time>2021-08-01T14:23:57Z</time>
      </trkpt>
      <trkpt lat="45.54729" lon="4.82659">
        <ele>159.38</ele>
        <time>2021-08-01T14:23:58Z</time>
      </trkpt>
      <trkpt lat="45.54783" lon="4.82614">
        <ele>159.28</ele>
        <time>2021-08-01T14:24:09Z</time>
      </trkpt>
      <trkpt lat="45.54833" lon="4.82571">
        <ele>159.44</ele>
        <time>2021-08-01T14:24:19Z</time>
      </trkpt>
      <trkpt lat="45.54873" lon="4.82537">
        <ele>159.33</ele>
        <time>2021-08-01T14:24:27Z</time>
      </trkpt>
      <trkpt lat="45.54897" lon="4.82516">
        <ele>158.94</ele>
        <time>2021-08-01T14:24:32Z</time>
      </trkpt>
      <trkpt lat="45.54902" lon="4.82512">
        <ele>158.87</ele>
        <time>2021-08-01T14:24:33Z</time>
      </trkpt>
      <trkpt lat="45.54916" lon="4.82499">
        <ele>158.72</ele>
        <time>2021-08-01T14:24:36Z</time>
      </trkpt>
      <trkpt lat="45.54921" lon="4.82495">
        <ele>158.66</ele>
        <time>2021-08-01T14:24:37Z</time>
      </trkpt>
      <trkpt lat="45.54926" lon="4.82491">
        <ele>158.6</ele>
        <time>2021-08-01T14:24:38Z</time>
      </trkpt>
      <trkpt lat="45.54975" lon="4.82448">
        <ele>158.4</ele>
        <time>2021-08-01T14:24:48Z</time>
      </trkpt>
      <trkpt lat="45.55016" lon="4.82413">
        <ele>158.42</ele>
        <time>2021-08-01T14:24:56Z</time>
      </trkpt>
      <trkpt lat="45.55021" lon="4.82409">
        <ele>158.42</ele>
        <time>2021-08-01T14:24:57Z</time>
      </trkpt>
      <trkpt lat="45.55026" lon="4.82404">
        <ele>158.39</ele>
        <time>2021-08-01T14:24:58Z</time>
      </trkpt>
      <trkpt lat="45.55064" lon="4.82364">
        <ele>158.25</ele>
        <time>2021-08-01T14:25:06Z</time>
      </trkpt>
      <trkpt lat="45.55104" lon="4.82312">
        <ele>158.48</ele>
        <time>2021-08-01T14:25:15Z</time>
      </trkpt>
      <trkpt lat="45.55112" lon="4.82301">
        <ele>158.53</ele>
        <time>2021-08-01T14:25:17Z</time>
      </trkpt>
      <trkpt lat="45.55138" lon="4.82258">
        <ele>159.78</ele>
        <time>2021-08-01T14:25:25Z</time>
      </trkpt>
      <trkpt lat="45.55144" lon="4.82248">
        <ele>159.92</ele>
        <time>2021-08-01T14:25:27Z</time>
      </trkpt>
      <trkpt lat="45.55147" lon="4.82243">
        <ele>159.95</ele>
        <time>2021-08-01T14:25:28Z</time>
      </trkpt>
      <trkpt lat="45.5515" lon="4.82238">
        <ele>159.96</ele>
        <time>2021-08-01T14:25:29Z</time>
      </trkpt>
      <trkpt lat="45.55177" lon="4.82184">
        <ele>159.99</ele>
        <time>2021-08-01T14:25:38Z</time>
      </trkpt>
      <trkpt lat="45.55191" lon="4.82157">
        <ele>159.98</ele>
        <time>2021-08-01T14:25:43Z</time>
      </trkpt>
      <trkpt lat="45.55194" lon="4.82151">
        <ele>159.98</ele>
        <time>2021-08-01T14:25:44Z</time>
      </trkpt>
      <trkpt lat="45.55195" lon="4.82146">
        <ele>160</ele>
        <time>2021-08-01T14:25:45Z</time>
      </trkpt>
      <trkpt lat="45.55194" lon="4.8214">
        <ele>160.07</ele>
        <time>2021-08-01T14:25:46Z</time>
      </trkpt>
      <trkpt lat="45.55193" lon="4.82134">
        <ele>160.12</ele>
        <time>2021-08-01T14:25:47Z</time>
      </trkpt>
      <trkpt lat="45.55193" lon="4.82128">
        <ele>160.15</ele>
        <time>2021-08-01T14:25:48Z</time>
      </trkpt>
      <trkpt lat="45.55195" lon="4.82122">
        <ele>160.17</ele>
        <time>2021-08-01T14:25:49Z</time>
      </trkpt>
      <trkpt lat="45.55198" lon="4.82118">
        <ele>160.19</ele>
        <time>2021-08-01T14:25:50Z</time>
      </trkpt>
      <trkpt lat="45.55201" lon="4.82113">
        <ele>160.2</ele>
        <time>2021-08-01T14:25:51Z</time>
      </trkpt>
      <trkpt lat="45.55232" lon="4.82074">
        <ele>160.04</ele>
        <time>2021-08-01T14:25:59Z</time>
      </trkpt>
      <trkpt lat="45.55277" lon="4.82029">
        <ele>159.73</ele>
        <time>2021-08-01T14:26:09Z</time>
      </trkpt>
      <trkpt lat="45.55312" lon="4.81994">
        <ele>159.48</ele>
        <time>2021-08-01T14:26:17Z</time>
      </trkpt>
      <trkpt lat="45.55335" lon="4.81967">
        <ele>159.47</ele>
        <time>2021-08-01T14:26:23Z</time>
      </trkpt>
      <trkpt lat="45.55348" lon="4.81952">
        <ele>159.38</ele>
        <time>2021-08-01T14:26:26Z</time>
      </trkpt>
      <trkpt lat="45.55352" lon="4.81946">
        <ele>159.35</ele>
        <time>2021-08-01T14:26:27Z</time>
      </trkpt>
      <trkpt lat="45.55364" lon="4.81928">
        <ele>159.41</ele>
        <time>2021-08-01T14:26:30Z</time>
      </trkpt>
      <trkpt lat="45.5539" lon="4.81882">
        <ele>159.66</ele>
        <time>2021-08-01T14:26:37Z</time>
      </trkpt>
      <trkpt lat="45.55419" lon="4.81826">
        <ele>159.64</ele>
        <time>2021-08-01T14:26:46Z</time>
      </trkpt>
      <trkpt lat="45.55446" lon="4.81775">
        <ele>159.49</ele>
        <time>2021-08-01T14:26:54Z</time>
      </trkpt>
      <trkpt lat="45.55453" lon="4.81762">
        <ele>159.43</ele>
        <time>2021-08-01T14:26:56Z</time>
      </trkpt>
      <trkpt lat="45.55473" lon="4.81723">
        <ele>159.3</ele>
        <time>2021-08-01T14:27:02Z</time>
      </trkpt>
      <trkpt lat="45.55499" lon="4.81686">
        <ele>159.29</ele>
        <time>2021-08-01T14:27:08Z</time>
      </trkpt>
      <trkpt lat="45.55508" lon="4.81674">
        <ele>159.14</ele>
        <time>2021-08-01T14:27:10Z</time>
      </trkpt>
      <trkpt lat="45.5554" lon="4.81633">
        <ele>158.65</ele>
        <time>2021-08-01T14:27:17Z</time>
      </trkpt>
      <trkpt lat="45.55553" lon="4.81619">
        <ele>158.63</ele>
        <time>2021-08-01T14:27:20Z</time>
      </trkpt>
      <trkpt lat="45.55557" lon="4.81614">
        <ele>158.63</ele>
        <time>2021-08-01T14:27:21Z</time>
      </trkpt>
      <trkpt lat="45.55562" lon="4.8161">
        <ele>158.63</ele>
        <time>2021-08-01T14:27:22Z</time>
      </trkpt>
      <trkpt lat="45.55572" lon="4.81601">
        <ele>158.74</ele>
        <time>2021-08-01T14:27:24Z</time>
      </trkpt>
      <trkpt lat="45.55577" lon="4.81596">
        <ele>158.83</ele>
        <time>2021-08-01T14:27:25Z</time>
      </trkpt>
      <trkpt lat="45.55624" lon="4.81558">
        <ele>158.97</ele>
        <time>2021-08-01T14:27:34Z</time>
      </trkpt>
      <trkpt lat="45.55669" lon="4.81529">
        <ele>158.88</ele>
        <time>2021-08-01T14:27:42Z</time>
      </trkpt>
      <trkpt lat="45.55706" lon="4.815">
        <ele>159.21</ele>
        <time>2021-08-01T14:27:49Z</time>
      </trkpt>
      <trkpt lat="45.55749" lon="4.81471">
        <ele>159.83</ele>
        <time>2021-08-01T14:27:57Z</time>
      </trkpt>
      <trkpt lat="45.55795" lon="4.81441">
        <ele>160.1</ele>
        <time>2021-08-01T14:28:05Z</time>
      </trkpt>
      <trkpt lat="45.55833" lon="4.81415">
        <ele>160.09</ele>
        <time>2021-08-01T14:28:12Z</time>
      </trkpt>
      <trkpt lat="45.55838" lon="4.81412">
        <ele>160.09</ele>
        <time>2021-08-01T14:28:13Z</time>
      </trkpt>
      <trkpt lat="45.55847" lon="4.81406">
        <ele>160.09</ele>
        <time>2021-08-01T14:28:15Z</time>
      </trkpt>
      <trkpt lat="45.55862" lon="4.814">
        <ele>160.09</ele>
        <time>2021-08-01T14:28:18Z</time>
      </trkpt>
      <trkpt lat="45.55867" lon="4.81397">
        <ele>160.08</ele>
        <time>2021-08-01T14:28:19Z</time>
      </trkpt>
      <trkpt lat="45.55872" lon="4.81394">
        <ele>160.03</ele>
        <time>2021-08-01T14:28:20Z</time>
      </trkpt>
      <trkpt lat="45.55922" lon="4.81359">
        <ele>159.69</ele>
        <time>2021-08-01T14:28:29Z</time>
      </trkpt>
      <trkpt lat="45.55963" lon="4.81332">
        <ele>159.34</ele>
        <time>2021-08-01T14:28:36Z</time>
      </trkpt>
      <trkpt lat="45.56008" lon="4.81302">
        <ele>159.63</ele>
        <time>2021-08-01T14:28:44Z</time>
      </trkpt>
      <trkpt lat="45.56035" lon="4.81284">
        <ele>159.8</ele>
        <time>2021-08-01T14:28:49Z</time>
      </trkpt>
      <trkpt lat="45.56063" lon="4.81266">
        <ele>159.88</ele>
        <time>2021-08-01T14:28:54Z</time>
      </trkpt>
      <trkpt lat="45.56095" lon="4.81242">
        <ele>159.94</ele>
        <time>2021-08-01T14:29:00Z</time>
      </trkpt>
      <trkpt lat="45.56127" lon="4.81215">
        <ele>160.45</ele>
        <time>2021-08-01T14:29:07Z</time>
      </trkpt>
      <trkpt lat="45.5614" lon="4.81206">
        <ele>160.6</ele>
        <time>2021-08-01T14:29:12Z</time>
      </trkpt>
      <trkpt lat="45.56142" lon="4.81207">
        <ele>160.73</ele>
        <time>2021-08-01T14:29:15Z</time>
      </trkpt>
      <trkpt lat="45.56144" lon="4.81207">
        <ele>160.88</ele>
        <time>2021-08-01T14:29:16Z</time>
      </trkpt>
      <trkpt lat="45.56146" lon="4.81206">
        <ele>161.08</ele>
        <time>2021-08-01T14:29:17Z</time>
      </trkpt>
      <trkpt lat="45.56147" lon="4.81204">
        <ele>161.4</ele>
        <time>2021-08-01T14:29:18Z</time>
      </trkpt>
      <trkpt lat="45.56148" lon="4.81201">
        <ele>161.63</ele>
        <time>2021-08-01T14:29:19Z</time>
      </trkpt>
      <trkpt lat="45.56149" lon="4.81198">
        <ele>161.78</ele>
        <time>2021-08-01T14:29:20Z</time>
      </trkpt>
      <trkpt lat="45.56154" lon="4.81182">
        <ele>162.06</ele>
        <time>2021-08-01T14:29:24Z</time>
      </trkpt>
      <trkpt lat="45.56154" lon="4.81178">
        <ele>162.07</ele>
        <time>2021-08-01T14:29:25Z</time>
      </trkpt>
      <trkpt lat="45.56146" lon="4.81144">
        <ele>162.14</ele>
        <time>2021-08-01T14:29:32Z</time>
      </trkpt>
      <trkpt lat="45.56135" lon="4.811">
        <ele>162.46</ele>
        <time>2021-08-01T14:29:39Z</time>
      </trkpt>
      <trkpt lat="45.56129" lon="4.81068">
        <ele>162.68</ele>
        <time>2021-08-01T14:29:44Z</time>
      </trkpt>
      <trkpt lat="45.56129" lon="4.81063">
        <ele>162.74</ele>
        <time>2021-08-01T14:29:45Z</time>
      </trkpt>
      <trkpt lat="45.56127" lon="4.81022">
        <ele>163.05</ele>
        <time>2021-08-01T14:29:53Z</time>
      </trkpt>
      <trkpt lat="45.56133" lon="4.80969">
        <ele>163.35</ele>
        <time>2021-08-01T14:30:01Z</time>
      </trkpt>
      <trkpt lat="45.56147" lon="4.80912">
        <ele>163.03</ele>
        <time>2021-08-01T14:30:09Z</time>
      </trkpt>
      <trkpt lat="45.56173" lon="4.80858">
        <ele>162.84</ele>
        <time>2021-08-01T14:30:17Z</time>
      </trkpt>
      <trkpt lat="45.56213" lon="4.80801">
        <ele>162.76</ele>
        <time>2021-08-01T14:30:26Z</time>
      </trkpt>
      <trkpt lat="45.56247" lon="4.80751">
        <ele>162.56</ele>
        <time>2021-08-01T14:30:34Z</time>
      </trkpt>
      <trkpt lat="45.56299" lon="4.80678">
        <ele>163.27</ele>
        <time>2021-08-01T14:30:46Z</time>
      </trkpt>
      <trkpt lat="45.56338" lon="4.80622">
        <ele>163.48</ele>
        <time>2021-08-01T14:30:55Z</time>
      </trkpt>
      <trkpt lat="45.5637" lon="4.80577">
        <ele>163.5</ele>
        <time>2021-08-01T14:31:03Z</time>
      </trkpt>
      <trkpt lat="45.56405" lon="4.80527">
        <ele>163.64</ele>
        <time>2021-08-01T14:31:11Z</time>
      </trkpt>
      <trkpt lat="45.56449" lon="4.80461">
        <ele>163.67</ele>
        <time>2021-08-01T14:31:21Z</time>
      </trkpt>
      <trkpt lat="45.56485" lon="4.80409">
        <ele>163.63</ele>
        <time>2021-08-01T14:31:29Z</time>
      </trkpt>
      <trkpt lat="45.56524" lon="4.80353">
        <ele>163.84</ele>
        <time>2021-08-01T14:31:38Z</time>
      </trkpt>
      <trkpt lat="45.56577" lon="4.80278">
        <ele>164.16</ele>
        <time>2021-08-01T14:31:50Z</time>
      </trkpt>
      <trkpt lat="45.56625" lon="4.80212">
        <ele>164.35</ele>
        <time>2021-08-01T14:32:01Z</time>
      </trkpt>
      <trkpt lat="45.56674" lon="4.80147">
        <ele>164.28</ele>
        <time>2021-08-01T14:32:12Z</time>
      </trkpt>
      <trkpt lat="45.56728" lon="4.80079">
        <ele>163.93</ele>
        <time>2021-08-01T14:32:24Z</time>
      </trkpt>
      <trkpt lat="45.5677" lon="4.80029">
        <ele>163.88</ele>
        <time>2021-08-01T14:32:33Z</time>
      </trkpt>
      <trkpt lat="45.56809" lon="4.79982">
        <ele>163.54</ele>
        <time>2021-08-01T14:32:42Z</time>
      </trkpt>
      <trkpt lat="45.56854" lon="4.79927">
        <ele>163.78</ele>
        <time>2021-08-01T14:32:53Z</time>
      </trkpt>
      <trkpt lat="45.56894" lon="4.79887">
        <ele>164.07</ele>
        <time>2021-08-01T14:33:02Z</time>
      </trkpt>
      <trkpt lat="45.56929" lon="4.79856">
        <ele>164.87</ele>
        <time>2021-08-01T14:33:10Z</time>
      </trkpt>
      <trkpt lat="45.56962" lon="4.79817">
        <ele>165.99</ele>
        <time>2021-08-01T14:33:18Z</time>
      </trkpt>
      <trkpt lat="45.56966" lon="4.79812">
        <ele>166.06</ele>
        <time>2021-08-01T14:33:19Z</time>
      </trkpt>
      <trkpt lat="45.57008" lon="4.79757">
        <ele>166.39</ele>
        <time>2021-08-01T14:33:29Z</time>
      </trkpt>
      <trkpt lat="45.57033" lon="4.79721">
        <ele>166.16</ele>
        <time>2021-08-01T14:33:35Z</time>
      </trkpt>
      <trkpt lat="45.57068" lon="4.79674">
        <ele>164.88</ele>
        <time>2021-08-01T14:33:43Z</time>
      </trkpt>
      <trkpt lat="45.57102" lon="4.79628">
        <ele>164.85</ele>
        <time>2021-08-01T14:33:51Z</time>
      </trkpt>
      <trkpt lat="45.57108" lon="4.79625">
        <ele>164.92</ele>
        <time>2021-08-01T14:33:52Z</time>
      </trkpt>
      <trkpt lat="45.57119" lon="4.7962">
        <ele>164.91</ele>
        <time>2021-08-01T14:33:54Z</time>
      </trkpt>
      <trkpt lat="45.57123" lon="4.79615">
        <ele>164.91</ele>
        <time>2021-08-01T14:33:55Z</time>
      </trkpt>
      <trkpt lat="45.57127" lon="4.7961">
        <ele>164.91</ele>
        <time>2021-08-01T14:33:56Z</time>
      </trkpt>
      <trkpt lat="45.57153" lon="4.79573">
        <ele>164.66</ele>
        <time>2021-08-01T14:34:03Z</time>
      </trkpt>
      <trkpt lat="45.57157" lon="4.79567">
        <ele>164.66</ele>
        <time>2021-08-01T14:34:04Z</time>
      </trkpt>
      <trkpt lat="45.57195" lon="4.79529">
        <ele>164.77</ele>
        <time>2021-08-01T14:34:12Z</time>
      </trkpt>
      <trkpt lat="45.57218" lon="4.79511">
        <ele>164.87</ele>
        <time>2021-08-01T14:34:17Z</time>
      </trkpt>
      <trkpt lat="45.57222" lon="4.79508">
        <ele>164.98</ele>
        <time>2021-08-01T14:34:18Z</time>
      </trkpt>
      <trkpt lat="45.57246" lon="4.79488">
        <ele>165.62</ele>
        <time>2021-08-01T14:34:24Z</time>
      </trkpt>
      <trkpt lat="45.57249" lon="4.79482">
        <ele>165.67</ele>
        <time>2021-08-01T14:34:25Z</time>
      </trkpt>
      <trkpt lat="45.57252" lon="4.79476">
        <ele>166.4</ele>
        <time>2021-08-01T14:34:26Z</time>
      </trkpt>
      <trkpt lat="45.57254" lon="4.79469">
        <ele>166.65</ele>
        <time>2021-08-01T14:34:27Z</time>
      </trkpt>
      <trkpt lat="45.57255" lon="4.79461">
        <ele>166.84</ele>
        <time>2021-08-01T14:34:28Z</time>
      </trkpt>
      <trkpt lat="45.57256" lon="4.79454">
        <ele>167</ele>
        <time>2021-08-01T14:34:29Z</time>
      </trkpt>
      <trkpt lat="45.57256" lon="4.79448">
        <ele>167.35</ele>
        <time>2021-08-01T14:34:30Z</time>
      </trkpt>
      <trkpt lat="45.57256" lon="4.79441">
        <ele>167.82</ele>
        <time>2021-08-01T14:34:31Z</time>
      </trkpt>
      <trkpt lat="45.57255" lon="4.79429">
        <ele>168.23</ele>
        <time>2021-08-01T14:34:33Z</time>
      </trkpt>
      <trkpt lat="45.57253" lon="4.79423">
        <ele>168.31</ele>
        <time>2021-08-01T14:34:34Z</time>
      </trkpt>
      <trkpt lat="45.57253" lon="4.79402">
        <ele>168.45</ele>
        <time>2021-08-01T14:34:38Z</time>
      </trkpt>
      <trkpt lat="45.57255" lon="4.79397">
        <ele>168.46</ele>
        <time>2021-08-01T14:34:39Z</time>
      </trkpt>
      <trkpt lat="45.57259" lon="4.79393">
        <ele>168.46</ele>
        <time>2021-08-01T14:34:40Z</time>
      </trkpt>
      <trkpt lat="45.57262" lon="4.79389">
        <ele>168.46</ele>
        <time>2021-08-01T14:34:41Z</time>
      </trkpt>
      <trkpt lat="45.57266" lon="4.79384">
        <ele>168.46</ele>
        <time>2021-08-01T14:34:42Z</time>
      </trkpt>
      <trkpt lat="45.57295" lon="4.7935">
        <ele>167.98</ele>
        <time>2021-08-01T14:34:49Z</time>
      </trkpt>
      <trkpt lat="45.57347" lon="4.79285">
        <ele>165.14</ele>
        <time>2021-08-01T14:35:01Z</time>
      </trkpt>
      <trkpt lat="45.57391" lon="4.79232">
        <ele>164.15</ele>
        <time>2021-08-01T14:35:10Z</time>
      </trkpt>
      <trkpt lat="45.5745" lon="4.79159">
        <ele>162.04</ele>
        <time>2021-08-01T14:35:22Z</time>
      </trkpt>
      <trkpt lat="45.57493" lon="4.79108">
        <ele>161.85</ele>
        <time>2021-08-01T14:35:31Z</time>
      </trkpt>
      <trkpt lat="45.57539" lon="4.7906">
        <ele>161.55</ele>
        <time>2021-08-01T14:35:40Z</time>
      </trkpt>
      <trkpt lat="45.57578" lon="4.7901">
        <ele>160.79</ele>
        <time>2021-08-01T14:35:48Z</time>
      </trkpt>
      <trkpt lat="45.57622" lon="4.78952">
        <ele>160.71</ele>
        <time>2021-08-01T14:35:57Z</time>
      </trkpt>
      <trkpt lat="45.57684" lon="4.78864">
        <ele>160.11</ele>
        <time>2021-08-01T14:36:10Z</time>
      </trkpt>
      <trkpt lat="45.57733" lon="4.78789">
        <ele>160.4</ele>
        <time>2021-08-01T14:36:21Z</time>
      </trkpt>
      <trkpt lat="45.57773" lon="4.78722">
        <ele>160.65</ele>
        <time>2021-08-01T14:36:31Z</time>
      </trkpt>
      <trkpt lat="45.5781" lon="4.78638">
        <ele>160.7</ele>
        <time>2021-08-01T14:36:42Z</time>
      </trkpt>
      <trkpt lat="45.57827" lon="4.78582">
        <ele>160.65</ele>
        <time>2021-08-01T14:36:49Z</time>
      </trkpt>
      <trkpt lat="45.57844" lon="4.78525">
        <ele>160.75</ele>
        <time>2021-08-01T14:36:56Z</time>
      </trkpt>
      <trkpt lat="45.57868" lon="4.78444">
        <ele>160.95</ele>
        <time>2021-08-01T14:37:06Z</time>
      </trkpt>
      <trkpt lat="45.57899" lon="4.78346">
        <ele>160.81</ele>
        <time>2021-08-01T14:37:18Z</time>
      </trkpt>
      <trkpt lat="45.57923" lon="4.78274">
        <ele>160.28</ele>
        <time>2021-08-01T14:37:27Z</time>
      </trkpt>
      <trkpt lat="45.57926" lon="4.78267">
        <ele>160.2</ele>
        <time>2021-08-01T14:37:28Z</time>
      </trkpt>
      <trkpt lat="45.5795" lon="4.78195">
        <ele>160.07</ele>
        <time>2021-08-01T14:37:37Z</time>
      </trkpt>
      <trkpt lat="45.57965" lon="4.78147">
        <ele>160.07</ele>
        <time>2021-08-01T14:37:43Z</time>
      </trkpt>
      <trkpt lat="45.57989" lon="4.78075">
        <ele>160.14</ele>
        <time>2021-08-01T14:37:52Z</time>
      </trkpt>
      <trkpt lat="45.57992" lon="4.78067">
        <ele>160.17</ele>
        <time>2021-08-01T14:37:53Z</time>
      </trkpt>
      <trkpt lat="45.57995" lon="4.78059">
        <ele>160.17</ele>
        <time>2021-08-01T14:37:54Z</time>
      </trkpt>
      <trkpt lat="45.58005" lon="4.78027">
        <ele>160.21</ele>
        <time>2021-08-01T14:37:58Z</time>
      </trkpt>
      <trkpt lat="45.58008" lon="4.78019">
        <ele>160.18</ele>
        <time>2021-08-01T14:37:59Z</time>
      </trkpt>
      <trkpt lat="45.58024" lon="4.77975">
        <ele>160.48</ele>
        <time>2021-08-01T14:38:05Z</time>
      </trkpt>
      <trkpt lat="45.58027" lon="4.77968">
        <ele>160.52</ele>
        <time>2021-08-01T14:38:06Z</time>
      </trkpt>
      <trkpt lat="45.58058" lon="4.77913">
        <ele>160.8</ele>
        <time>2021-08-01T14:38:15Z</time>
      </trkpt>
      <trkpt lat="45.58077" lon="4.77888">
        <ele>161.67</ele>
        <time>2021-08-01T14:38:21Z</time>
      </trkpt>
      <trkpt lat="45.58086" lon="4.77876">
        <ele>162.31</ele>
        <time>2021-08-01T14:38:26Z</time>
      </trkpt>
      <trkpt lat="45.581" lon="4.77859">
        <ele>163.63</ele>
        <time>2021-08-01T14:38:31Z</time>
      </trkpt>
      <trkpt lat="45.58103" lon="4.77855">
        <ele>163.69</ele>
        <time>2021-08-01T14:38:32Z</time>
      </trkpt>
      <trkpt lat="45.58107" lon="4.77852">
        <ele>163.73</ele>
        <time>2021-08-01T14:38:33Z</time>
      </trkpt>
      <trkpt lat="45.58111" lon="4.77849">
        <ele>163.75</ele>
        <time>2021-08-01T14:38:34Z</time>
      </trkpt>
      <trkpt lat="45.58115" lon="4.77845">
        <ele>163.76</ele>
        <time>2021-08-01T14:38:35Z</time>
      </trkpt>
      <trkpt lat="45.58119" lon="4.77842">
        <ele>163.76</ele>
        <time>2021-08-01T14:38:36Z</time>
      </trkpt>
      <trkpt lat="45.58123" lon="4.77838">
        <ele>163.76</ele>
        <time>2021-08-01T14:38:37Z</time>
      </trkpt>
      <trkpt lat="45.58128" lon="4.77835">
        <ele>163.76</ele>
        <time>2021-08-01T14:38:38Z</time>
      </trkpt>
      <trkpt lat="45.58132" lon="4.77832">
        <ele>163.74</ele>
        <time>2021-08-01T14:38:39Z</time>
      </trkpt>
      <trkpt lat="45.58136" lon="4.77829">
        <ele>163.62</ele>
        <time>2021-08-01T14:38:40Z</time>
      </trkpt>
      <trkpt lat="45.58141" lon="4.77826">
        <ele>163.53</ele>
        <time>2021-08-01T14:38:41Z</time>
      </trkpt>
      <trkpt lat="45.58146" lon="4.77823">
        <ele>163.38</ele>
        <time>2021-08-01T14:38:42Z</time>
      </trkpt>
      <trkpt lat="45.58165" lon="4.77804">
        <ele>162.49</ele>
        <time>2021-08-01T14:38:47Z</time>
      </trkpt>
      <trkpt lat="45.58187" lon="4.77787">
        <ele>161.2</ele>
        <time>2021-08-01T14:38:52Z</time>
      </trkpt>
      <trkpt lat="45.58192" lon="4.77783">
        <ele>161.09</ele>
        <time>2021-08-01T14:38:53Z</time>
      </trkpt>
      <trkpt lat="45.58197" lon="4.77779">
        <ele>160.97</ele>
        <time>2021-08-01T14:38:54Z</time>
      </trkpt>
      <trkpt lat="45.58202" lon="4.77776">
        <ele>160.88</ele>
        <time>2021-08-01T14:38:55Z</time>
      </trkpt>
      <trkpt lat="45.58207" lon="4.77772">
        <ele>160.81</ele>
        <time>2021-08-01T14:38:56Z</time>
      </trkpt>
      <trkpt lat="45.58234" lon="4.77751">
        <ele>160.52</ele>
        <time>2021-08-01T14:39:01Z</time>
      </trkpt>
      <trkpt lat="45.58245" lon="4.77743">
        <ele>160.43</ele>
        <time>2021-08-01T14:39:03Z</time>
      </trkpt>
      <trkpt lat="45.5825" lon="4.7774">
        <ele>160.39</ele>
        <time>2021-08-01T14:39:04Z</time>
      </trkpt>
      <trkpt lat="45.5829" lon="4.77714">
        <ele>160.24</ele>
        <time>2021-08-01T14:39:12Z</time>
      </trkpt>
      <trkpt lat="45.58324" lon="4.77697">
        <ele>160.45</ele>
        <time>2021-08-01T14:39:19Z</time>
      </trkpt>
      <trkpt lat="45.58374" lon="4.77675">
        <ele>160.92</ele>
        <time>2021-08-01T14:39:28Z</time>
      </trkpt>
      <trkpt lat="45.58415" lon="4.77655">
        <ele>160.34</ele>
        <time>2021-08-01T14:39:35Z</time>
      </trkpt>
      <trkpt lat="45.58458" lon="4.77615">
        <ele>159.8</ele>
        <time>2021-08-01T14:39:44Z</time>
      </trkpt>
      <trkpt lat="45.58493" lon="4.77575">
        <ele>159.76</ele>
        <time>2021-08-01T14:39:52Z</time>
      </trkpt>
      <trkpt lat="45.58525" lon="4.77527">
        <ele>160.04</ele>
        <time>2021-08-01T14:40:00Z</time>
      </trkpt>
      <trkpt lat="45.58558" lon="4.77468">
        <ele>160.42</ele>
        <time>2021-08-01T14:40:09Z</time>
      </trkpt>
      <trkpt lat="45.58581" lon="4.7741">
        <ele>160.64</ele>
        <time>2021-08-01T14:40:17Z</time>
      </trkpt>
      <trkpt lat="45.58597" lon="4.77354">
        <ele>160.67</ele>
        <time>2021-08-01T14:40:26Z</time>
      </trkpt>
      <trkpt lat="45.58618" lon="4.77285">
        <ele>161.92</ele>
        <time>2021-08-01T14:40:37Z</time>
      </trkpt>
      <trkpt lat="45.58646" lon="4.77192">
        <ele>162.02</ele>
        <time>2021-08-01T14:40:51Z</time>
      </trkpt>
      <trkpt lat="45.58649" lon="4.77186">
        <ele>162.01</ele>
        <time>2021-08-01T14:40:52Z</time>
      </trkpt>
      <trkpt lat="45.58652" lon="4.77182">
        <ele>161.99</ele>
        <time>2021-08-01T14:40:53Z</time>
      </trkpt>
      <trkpt lat="45.58656" lon="4.77178">
        <ele>161.98</ele>
        <time>2021-08-01T14:40:54Z</time>
      </trkpt>
      <trkpt lat="45.5866" lon="4.77176">
        <ele>161.94</ele>
        <time>2021-08-01T14:40:55Z</time>
      </trkpt>
      <trkpt lat="45.58664" lon="4.77173">
        <ele>161.95</ele>
        <time>2021-08-01T14:40:56Z</time>
      </trkpt>
      <trkpt lat="45.58666" lon="4.77169">
        <ele>161.95</ele>
        <time>2021-08-01T14:40:57Z</time>
      </trkpt>
      <trkpt lat="45.58668" lon="4.77164">
        <ele>162.01</ele>
        <time>2021-08-01T14:40:58Z</time>
      </trkpt>
      <trkpt lat="45.58669" lon="4.77159">
        <ele>162.07</ele>
        <time>2021-08-01T14:40:59Z</time>
      </trkpt>
      <trkpt lat="45.58671" lon="4.77154">
        <ele>162.1</ele>
        <time>2021-08-01T14:41:00Z</time>
      </trkpt>
      <trkpt lat="45.58674" lon="4.77149">
        <ele>162.11</ele>
        <time>2021-08-01T14:41:01Z</time>
      </trkpt>
      <trkpt lat="45.58678" lon="4.77145">
        <ele>162.12</ele>
        <time>2021-08-01T14:41:02Z</time>
      </trkpt>
      <trkpt lat="45.58682" lon="4.77142">
        <ele>162.15</ele>
        <time>2021-08-01T14:41:03Z</time>
      </trkpt>
      <trkpt lat="45.5869" lon="4.77137">
        <ele>162.23</ele>
        <time>2021-08-01T14:41:05Z</time>
      </trkpt>
      <trkpt lat="45.58709" lon="4.77129">
        <ele>162.45</ele>
        <time>2021-08-01T14:41:09Z</time>
      </trkpt>
      <trkpt lat="45.58734" lon="4.77124">
        <ele>162.83</ele>
        <time>2021-08-01T14:41:15Z</time>
      </trkpt>
      <trkpt lat="45.58738" lon="4.77123">
        <ele>162.84</ele>
        <time>2021-08-01T14:41:16Z</time>
      </trkpt>
      <trkpt lat="45.58777" lon="4.77115">
        <ele>162.79</ele>
        <time>2021-08-01T14:41:23Z</time>
      </trkpt>
      <trkpt lat="45.5885" lon="4.77101">
        <ele>161.18</ele>
        <time>2021-08-01T14:41:35Z</time>
      </trkpt>
      <trkpt lat="45.58905" lon="4.77091">
        <ele>160.59</ele>
        <time>2021-08-01T14:41:44Z</time>
      </trkpt>
      <trkpt lat="45.58917" lon="4.77089">
        <ele>160.73</ele>
        <time>2021-08-01T14:41:46Z</time>
      </trkpt>
      <trkpt lat="45.58972" lon="4.7708">
        <ele>161.71</ele>
        <time>2021-08-01T14:41:56Z</time>
      </trkpt>
      <trkpt lat="45.59033" lon="4.77077">
        <ele>162.36</ele>
        <time>2021-08-01T14:42:07Z</time>
      </trkpt>
      <trkpt lat="45.59096" lon="4.77066">
        <ele>161.29</ele>
        <time>2021-08-01T14:42:17Z</time>
      </trkpt>
      <trkpt lat="45.59146" lon="4.77053">
        <ele>160.62</ele>
        <time>2021-08-01T14:42:25Z</time>
      </trkpt>
      <trkpt lat="45.59189" lon="4.7704">
        <ele>160.33</ele>
        <time>2021-08-01T14:42:32Z</time>
      </trkpt>
      <trkpt lat="45.59242" lon="4.7703">
        <ele>160.69</ele>
        <time>2021-08-01T14:42:41Z</time>
      </trkpt>
      <trkpt lat="45.59293" lon="4.77021">
        <ele>161.01</ele>
        <time>2021-08-01T14:42:50Z</time>
      </trkpt>
      <trkpt lat="45.59299" lon="4.7702">
        <ele>161.04</ele>
        <time>2021-08-01T14:42:51Z</time>
      </trkpt>
      <trkpt lat="45.59305" lon="4.77018">
        <ele>161.06</ele>
        <time>2021-08-01T14:42:52Z</time>
      </trkpt>
      <trkpt lat="45.59359" lon="4.77008">
        <ele>161.09</ele>
        <time>2021-08-01T14:43:01Z</time>
      </trkpt>
      <trkpt lat="45.5941" lon="4.76999">
        <ele>160.54</ele>
        <time>2021-08-01T14:43:09Z</time>
      </trkpt>
      <trkpt lat="45.59468" lon="4.76992">
        <ele>160.47</ele>
        <time>2021-08-01T14:43:18Z</time>
      </trkpt>
      <trkpt lat="45.59474" lon="4.76991">
        <ele>160.47</ele>
        <time>2021-08-01T14:43:19Z</time>
      </trkpt>
      <trkpt lat="45.5952" lon="4.7698">
        <ele>160.54</ele>
        <time>2021-08-01T14:43:27Z</time>
      </trkpt>
      <trkpt lat="45.59568" lon="4.76968">
        <ele>160.54</ele>
        <time>2021-08-01T14:43:35Z</time>
      </trkpt>
      <trkpt lat="45.59574" lon="4.76966">
        <ele>160.54</ele>
        <time>2021-08-01T14:43:36Z</time>
      </trkpt>
      <trkpt lat="45.5958" lon="4.76965">
        <ele>160.54</ele>
        <time>2021-08-01T14:43:37Z</time>
      </trkpt>
      <trkpt lat="45.59633" lon="4.76956">
        <ele>160.9</ele>
        <time>2021-08-01T14:43:46Z</time>
      </trkpt>
      <trkpt lat="45.59674" lon="4.76949">
        <ele>161.16</ele>
        <time>2021-08-01T14:43:54Z</time>
      </trkpt>
      <trkpt lat="45.59718" lon="4.76941">
        <ele>161.28</ele>
        <time>2021-08-01T14:44:02Z</time>
      </trkpt>
      <trkpt lat="45.59778" lon="4.76932">
        <ele>161.35</ele>
        <time>2021-08-01T14:44:13Z</time>
      </trkpt>
      <trkpt lat="45.59819" lon="4.76924">
        <ele>161.63</ele>
        <time>2021-08-01T14:44:21Z</time>
      </trkpt>
      <trkpt lat="45.59835" lon="4.76921">
        <ele>161.65</ele>
        <time>2021-08-01T14:44:24Z</time>
      </trkpt>
      <trkpt lat="45.59841" lon="4.7692">
        <ele>161.66</ele>
        <time>2021-08-01T14:44:25Z</time>
      </trkpt>
      <trkpt lat="45.5989" lon="4.76914">
        <ele>161.67</ele>
        <time>2021-08-01T14:44:34Z</time>
      </trkpt>
      <trkpt lat="45.59923" lon="4.76922">
        <ele>161.71</ele>
        <time>2021-08-01T14:44:41Z</time>
      </trkpt>
      <trkpt lat="45.5996" lon="4.7694">
        <ele>162.05</ele>
        <time>2021-08-01T14:44:49Z</time>
      </trkpt>
      <trkpt lat="45.59997" lon="4.76956">
        <ele>163.08</ele>
        <time>2021-08-01T14:44:58Z</time>
      </trkpt>
      <trkpt lat="45.60044" lon="4.76975">
        <ele>163.05</ele>
        <time>2021-08-01T14:45:08Z</time>
      </trkpt>
      <trkpt lat="45.6008" lon="4.7699">
        <ele>162.64</ele>
        <time>2021-08-01T14:45:16Z</time>
      </trkpt>
      <trkpt lat="45.60124" lon="4.77008">
        <ele>162.46</ele>
        <time>2021-08-01T14:45:25Z</time>
      </trkpt>
      <trkpt lat="45.60163" lon="4.77028">
        <ele>162.57</ele>
        <time>2021-08-01T14:45:33Z</time>
      </trkpt>
      <trkpt lat="45.60179" lon="4.77036">
        <ele>162.75</ele>
        <time>2021-08-01T14:45:38Z</time>
      </trkpt>
      <trkpt lat="45.60178" lon="4.77036">
        <ele>162.85</ele>
        <time>2021-08-01T14:45:42Z</time>
      </trkpt>
      <trkpt lat="45.60181" lon="4.77041">
        <ele>165.24</ele>
        <time>2021-08-01T14:46:08Z</time>
      </trkpt>
      <trkpt lat="45.60183" lon="4.77043">
        <ele>165.21</ele>
        <time>2021-08-01T14:46:09Z</time>
      </trkpt>
      <trkpt lat="45.60208" lon="4.77054">
        <ele>165.11</ele>
        <time>2021-08-01T14:46:16Z</time>
      </trkpt>
      <trkpt lat="45.60256" lon="4.77071">
        <ele>164.59</ele>
        <time>2021-08-01T14:46:26Z</time>
      </trkpt>
      <trkpt lat="45.60302" lon="4.77084">
        <ele>164.49</ele>
        <time>2021-08-01T14:46:35Z</time>
      </trkpt>
      <trkpt lat="45.60353" lon="4.77105">
        <ele>166.01</ele>
        <time>2021-08-01T14:46:45Z</time>
      </trkpt>
      <trkpt lat="45.60415" lon="4.77129">
        <ele>166.03</ele>
        <time>2021-08-01T14:46:56Z</time>
      </trkpt>
      <trkpt lat="45.60476" lon="4.77155">
        <ele>164.83</ele>
        <time>2021-08-01T14:47:07Z</time>
      </trkpt>
      <trkpt lat="45.60524" lon="4.77175">
        <ele>164.17</ele>
        <time>2021-08-01T14:47:16Z</time>
      </trkpt>
      <trkpt lat="45.60554" lon="4.7719">
        <ele>164</ele>
        <time>2021-08-01T14:47:22Z</time>
      </trkpt>
      <trkpt lat="45.60609" lon="4.77214">
        <ele>164.12</ele>
        <time>2021-08-01T14:47:33Z</time>
      </trkpt>
      <trkpt lat="45.60661" lon="4.77236">
        <ele>164.41</ele>
        <time>2021-08-01T14:47:43Z</time>
      </trkpt>
      <trkpt lat="45.60697" lon="4.77253">
        <ele>165.2</ele>
        <time>2021-08-01T14:47:51Z</time>
      </trkpt>
      <trkpt lat="45.60715" lon="4.77261">
        <ele>166.3</ele>
        <time>2021-08-01T14:47:58Z</time>
      </trkpt>
      <trkpt lat="45.60715" lon="4.77261">
        <ele>167.48</ele>
        <time>2021-08-01T14:48:02Z</time>
      </trkpt>
      <trkpt lat="45.60723" lon="4.77265">
        <ele>168.23</ele>
        <time>2021-08-01T14:48:09Z</time>
      </trkpt>
      <trkpt lat="45.60726" lon="4.77265">
        <ele>168.26</ele>
        <time>2021-08-01T14:48:10Z</time>
      </trkpt>
      <trkpt lat="45.60754" lon="4.77267">
        <ele>168.26</ele>
        <time>2021-08-01T14:48:17Z</time>
      </trkpt>
      <trkpt lat="45.60805" lon="4.7726">
        <ele>167.14</ele>
        <time>2021-08-01T14:48:27Z</time>
      </trkpt>
      <trkpt lat="45.60866" lon="4.77233">
        <ele>166.73</ele>
        <time>2021-08-01T14:48:39Z</time>
      </trkpt>
      <trkpt lat="45.60916" lon="4.77207">
        <ele>166.75</ele>
        <time>2021-08-01T14:48:48Z</time>
      </trkpt>
      <trkpt lat="45.60922" lon="4.77204">
        <ele>166.7</ele>
        <time>2021-08-01T14:48:49Z</time>
      </trkpt>
      <trkpt lat="45.6099" lon="4.77172">
        <ele>165.42</ele>
        <time>2021-08-01T14:49:01Z</time>
      </trkpt>
      <trkpt lat="45.61049" lon="4.77143">
        <ele>165.68</ele>
        <time>2021-08-01T14:49:12Z</time>
      </trkpt>
      <trkpt lat="45.61115" lon="4.77109">
        <ele>166.57</ele>
        <time>2021-08-01T14:49:24Z</time>
      </trkpt>
      <trkpt lat="45.6117" lon="4.77087">
        <ele>166.6</ele>
        <time>2021-08-01T14:49:34Z</time>
      </trkpt>
      <trkpt lat="45.61222" lon="4.77061">
        <ele>167.69</ele>
        <time>2021-08-01T14:49:44Z</time>
      </trkpt>
      <trkpt lat="45.6126" lon="4.77042">
        <ele>168.36</ele>
        <time>2021-08-01T14:49:52Z</time>
      </trkpt>
      <trkpt lat="45.61288" lon="4.77028">
        <ele>168.62</ele>
        <time>2021-08-01T14:49:59Z</time>
      </trkpt>
      <trkpt lat="45.61309" lon="4.77016">
        <ele>168.82</ele>
        <time>2021-08-01T14:50:04Z</time>
      </trkpt>
      <trkpt lat="45.61322" lon="4.77007">
        <ele>168.89</ele>
        <time>2021-08-01T14:50:07Z</time>
      </trkpt>
      <trkpt lat="45.61371" lon="4.76983">
        <ele>168.7</ele>
        <time>2021-08-01T14:50:17Z</time>
      </trkpt>
      <trkpt lat="45.61412" lon="4.76964">
        <ele>168.72</ele>
        <time>2021-08-01T14:50:25Z</time>
      </trkpt>
      <trkpt lat="45.61467" lon="4.76936">
        <ele>168.76</ele>
        <time>2021-08-01T14:50:36Z</time>
      </trkpt>
      <trkpt lat="45.6152" lon="4.76909">
        <ele>168.96</ele>
        <time>2021-08-01T14:50:47Z</time>
      </trkpt>
      <trkpt lat="45.61573" lon="4.76885">
        <ele>170.24</ele>
        <time>2021-08-01T14:50:58Z</time>
      </trkpt>
      <trkpt lat="45.61628" lon="4.76856">
        <ele>170.3</ele>
        <time>2021-08-01T14:51:10Z</time>
      </trkpt>
      <trkpt lat="45.61658" lon="4.76842">
        <ele>170.29</ele>
        <time>2021-08-01T14:51:16Z</time>
      </trkpt>
      <trkpt lat="45.6168" lon="4.76838">
        <ele>170.85</ele>
        <time>2021-08-01T14:51:20Z</time>
      </trkpt>
      <trkpt lat="45.61685" lon="4.76839">
        <ele>170.92</ele>
        <time>2021-08-01T14:51:21Z</time>
      </trkpt>
      <trkpt lat="45.61691" lon="4.76841">
        <ele>170.98</ele>
        <time>2021-08-01T14:51:22Z</time>
      </trkpt>
      <trkpt lat="45.61696" lon="4.76844">
        <ele>171.03</ele>
        <time>2021-08-01T14:51:23Z</time>
      </trkpt>
      <trkpt lat="45.617" lon="4.76849">
        <ele>171.08</ele>
        <time>2021-08-01T14:51:24Z</time>
      </trkpt>
      <trkpt lat="45.61705" lon="4.76853">
        <ele>171.15</ele>
        <time>2021-08-01T14:51:25Z</time>
      </trkpt>
      <trkpt lat="45.6171" lon="4.76856">
        <ele>171.19</ele>
        <time>2021-08-01T14:51:26Z</time>
      </trkpt>
      <trkpt lat="45.61716" lon="4.76856">
        <ele>171.21</ele>
        <time>2021-08-01T14:51:27Z</time>
      </trkpt>
      <trkpt lat="45.61721" lon="4.76854">
        <ele>171.22</ele>
        <time>2021-08-01T14:51:28Z</time>
      </trkpt>
      <trkpt lat="45.61726" lon="4.76851">
        <ele>171.23</ele>
        <time>2021-08-01T14:51:29Z</time>
      </trkpt>
      <trkpt lat="45.61731" lon="4.76848">
        <ele>171.23</ele>
        <time>2021-08-01T14:51:30Z</time>
      </trkpt>
      <trkpt lat="45.61757" lon="4.76834">
        <ele>171.21</ele>
        <time>2021-08-01T14:51:35Z</time>
      </trkpt>
      <trkpt lat="45.61762" lon="4.7683">
        <ele>171.21</ele>
        <time>2021-08-01T14:51:36Z</time>
      </trkpt>
      <trkpt lat="45.61766" lon="4.76825">
        <ele>171.22</ele>
        <time>2021-08-01T14:51:37Z</time>
      </trkpt>
      <trkpt lat="45.6177" lon="4.76819">
        <ele>171.23</ele>
        <time>2021-08-01T14:51:38Z</time>
      </trkpt>
      <trkpt lat="45.61773" lon="4.76812">
        <ele>171.23</ele>
        <time>2021-08-01T14:51:39Z</time>
      </trkpt>
      <trkpt lat="45.61794" lon="4.76784">
        <ele>171.55</ele>
        <time>2021-08-01T14:51:44Z</time>
      </trkpt>
      <trkpt lat="45.6183" lon="4.7676">
        <ele>172.01</ele>
        <time>2021-08-01T14:51:51Z</time>
      </trkpt>
      <trkpt lat="45.61874" lon="4.76736">
        <ele>172.33</ele>
        <time>2021-08-01T14:52:00Z</time>
      </trkpt>
      <trkpt lat="45.61934" lon="4.76707">
        <ele>172.56</ele>
        <time>2021-08-01T14:52:12Z</time>
      </trkpt>
      <trkpt lat="45.61979" lon="4.76684">
        <ele>172.58</ele>
        <time>2021-08-01T14:52:21Z</time>
      </trkpt>
      <trkpt lat="45.6203" lon="4.76658">
        <ele>173.89</ele>
        <time>2021-08-01T14:52:31Z</time>
      </trkpt>
      <trkpt lat="45.6208" lon="4.76629">
        <ele>174.53</ele>
        <time>2021-08-01T14:52:41Z</time>
      </trkpt>
      <trkpt lat="45.62128" lon="4.76596">
        <ele>175.15</ele>
        <time>2021-08-01T14:52:51Z</time>
      </trkpt>
      <trkpt lat="45.6217" lon="4.7656">
        <ele>175.36</ele>
        <time>2021-08-01T14:53:00Z</time>
      </trkpt>
      <trkpt lat="45.62221" lon="4.76505">
        <ele>175.96</ele>
        <time>2021-08-01T14:53:11Z</time>
      </trkpt>
      <trkpt lat="45.62231" lon="4.76495">
        <ele>175.97</ele>
        <time>2021-08-01T14:53:13Z</time>
      </trkpt>
      <trkpt lat="45.62241" lon="4.76486">
        <ele>175.89</ele>
        <time>2021-08-01T14:53:15Z</time>
      </trkpt>
      <trkpt lat="45.62273" lon="4.76452">
        <ele>175.65</ele>
        <time>2021-08-01T14:53:22Z</time>
      </trkpt>
      <trkpt lat="45.62309" lon="4.76411">
        <ele>175.48</ele>
        <time>2021-08-01T14:53:30Z</time>
      </trkpt>
      <trkpt lat="45.62344" lon="4.76374">
        <ele>175.33</ele>
        <time>2021-08-01T14:53:38Z</time>
      </trkpt>
      <trkpt lat="45.62378" lon="4.76336">
        <ele>175.71</ele>
        <time>2021-08-01T14:53:46Z</time>
      </trkpt>
      <trkpt lat="45.62411" lon="4.76302">
        <ele>176.35</ele>
        <time>2021-08-01T14:53:54Z</time>
      </trkpt>
      <trkpt lat="45.62442" lon="4.76269">
        <ele>176.7</ele>
        <time>2021-08-01T14:54:02Z</time>
      </trkpt>
      <trkpt lat="45.62485" lon="4.76224">
        <ele>176.9</ele>
        <time>2021-08-01T14:54:12Z</time>
      </trkpt>
      <trkpt lat="45.62531" lon="4.76179">
        <ele>176.88</ele>
        <time>2021-08-01T14:54:22Z</time>
      </trkpt>
      <trkpt lat="45.62569" lon="4.76146">
        <ele>177.23</ele>
        <time>2021-08-01T14:54:30Z</time>
      </trkpt>
      <trkpt lat="45.62617" lon="4.76107">
        <ele>177.81</ele>
        <time>2021-08-01T14:54:40Z</time>
      </trkpt>
      <trkpt lat="45.62661" lon="4.7607">
        <ele>178.48</ele>
        <time>2021-08-01T14:54:49Z</time>
      </trkpt>
      <trkpt lat="45.62698" lon="4.76039">
        <ele>178.76</ele>
        <time>2021-08-01T14:54:57Z</time>
      </trkpt>
      <trkpt lat="45.62703" lon="4.76035">
        <ele>178.78</ele>
        <time>2021-08-01T14:54:58Z</time>
      </trkpt>
      <trkpt lat="45.62707" lon="4.76031">
        <ele>178.88</ele>
        <time>2021-08-01T14:54:59Z</time>
      </trkpt>
      <trkpt lat="45.62712" lon="4.76027">
        <ele>178.94</ele>
        <time>2021-08-01T14:55:00Z</time>
      </trkpt>
      <trkpt lat="45.62717" lon="4.76023">
        <ele>179</ele>
        <time>2021-08-01T14:55:01Z</time>
      </trkpt>
      <trkpt lat="45.62722" lon="4.76019">
        <ele>179.13</ele>
        <time>2021-08-01T14:55:02Z</time>
      </trkpt>
      <trkpt lat="45.6275" lon="4.75996">
        <ele>179.6</ele>
        <time>2021-08-01T14:55:08Z</time>
      </trkpt>
      <trkpt lat="45.62784" lon="4.7597">
        <ele>180.02</ele>
        <time>2021-08-01T14:55:15Z</time>
      </trkpt>
      <trkpt lat="45.62835" lon="4.75929">
        <ele>180.36</ele>
        <time>2021-08-01T14:55:25Z</time>
      </trkpt>
      <trkpt lat="45.62867" lon="4.75901">
        <ele>180.53</ele>
        <time>2021-08-01T14:55:33Z</time>
      </trkpt>
      <trkpt lat="45.62901" lon="4.75873">
        <ele>181.21</ele>
        <time>2021-08-01T14:55:41Z</time>
      </trkpt>
      <trkpt lat="45.62904" lon="4.75869">
        <ele>181.23</ele>
        <time>2021-08-01T14:55:42Z</time>
      </trkpt>
      <trkpt lat="45.62908" lon="4.75865">
        <ele>181.24</ele>
        <time>2021-08-01T14:55:43Z</time>
      </trkpt>
      <trkpt lat="45.62912" lon="4.75863">
        <ele>181.27</ele>
        <time>2021-08-01T14:55:44Z</time>
      </trkpt>
      <trkpt lat="45.62916" lon="4.7586">
        <ele>181.29</ele>
        <time>2021-08-01T14:55:45Z</time>
      </trkpt>
      <trkpt lat="45.62919" lon="4.75858">
        <ele>181.31</ele>
        <time>2021-08-01T14:55:46Z</time>
      </trkpt>
      <trkpt lat="45.62922" lon="4.75855">
        <ele>181.32</ele>
        <time>2021-08-01T14:55:47Z</time>
      </trkpt>
      <trkpt lat="45.6293" lon="4.7585">
        <ele>181.35</ele>
        <time>2021-08-01T14:55:49Z</time>
      </trkpt>
      <trkpt lat="45.62934" lon="4.75849">
        <ele>181.4</ele>
        <time>2021-08-01T14:55:50Z</time>
      </trkpt>
      <trkpt lat="45.62939" lon="4.75848">
        <ele>181.49</ele>
        <time>2021-08-01T14:55:51Z</time>
      </trkpt>
      <trkpt lat="45.62943" lon="4.75848">
        <ele>181.5</ele>
        <time>2021-08-01T14:55:52Z</time>
      </trkpt>
      <trkpt lat="45.62948" lon="4.75851">
        <ele>181.51</ele>
        <time>2021-08-01T14:55:53Z</time>
      </trkpt>
      <trkpt lat="45.62953" lon="4.75854">
        <ele>181.51</ele>
        <time>2021-08-01T14:55:54Z</time>
      </trkpt>
      <trkpt lat="45.62957" lon="4.75859">
        <ele>181.51</ele>
        <time>2021-08-01T14:55:55Z</time>
      </trkpt>
      <trkpt lat="45.6296" lon="4.75865">
        <ele>181.51</ele>
        <time>2021-08-01T14:55:56Z</time>
      </trkpt>
      <trkpt lat="45.62962" lon="4.75873">
        <ele>181.51</ele>
        <time>2021-08-01T14:55:57Z</time>
      </trkpt>
      <trkpt lat="45.62963" lon="4.75881">
        <ele>181.51</ele>
        <time>2021-08-01T14:55:58Z</time>
      </trkpt>
      <trkpt lat="45.62963" lon="4.75889">
        <ele>181.51</ele>
        <time>2021-08-01T14:55:59Z</time>
      </trkpt>
      <trkpt lat="45.62963" lon="4.75897">
        <ele>181.5</ele>
        <time>2021-08-01T14:56:00Z</time>
      </trkpt>
      <trkpt lat="45.62955" lon="4.75966">
        <ele>181.29</ele>
        <time>2021-08-01T14:56:09Z</time>
      </trkpt>
      <trkpt lat="45.62953" lon="4.75979">
        <ele>181.32</ele>
        <time>2021-08-01T14:56:11Z</time>
      </trkpt>
      <trkpt lat="45.62951" lon="4.75994">
        <ele>181.4</ele>
        <time>2021-08-01T14:56:13Z</time>
      </trkpt>
      <trkpt lat="45.62946" lon="4.76057">
        <ele>182.38</ele>
        <time>2021-08-01T14:56:23Z</time>
      </trkpt>
      <trkpt lat="45.62945" lon="4.76074">
        <ele>182.55</ele>
        <time>2021-08-01T14:56:26Z</time>
      </trkpt>
      <trkpt lat="45.62945" lon="4.7608">
        <ele>182.58</ele>
        <time>2021-08-01T14:56:27Z</time>
      </trkpt>
      <trkpt lat="45.62945" lon="4.76086">
        <ele>182.6</ele>
        <time>2021-08-01T14:56:28Z</time>
      </trkpt>
      <trkpt lat="45.62952" lon="4.76128">
        <ele>182.69</ele>
        <time>2021-08-01T14:56:35Z</time>
      </trkpt>
      <trkpt lat="45.62968" lon="4.76179">
        <ele>183.05</ele>
        <time>2021-08-01T14:56:45Z</time>
      </trkpt>
      <trkpt lat="45.62981" lon="4.76221">
        <ele>183.57</ele>
        <time>2021-08-01T14:56:53Z</time>
      </trkpt>
      <trkpt lat="45.63001" lon="4.7628">
        <ele>184.59</ele>
        <time>2021-08-01T14:57:04Z</time>
      </trkpt>
      <trkpt lat="45.63004" lon="4.76291">
        <ele>184.73</ele>
        <time>2021-08-01T14:57:06Z</time>
      </trkpt>
      <trkpt lat="45.63006" lon="4.76296">
        <ele>184.85</ele>
        <time>2021-08-01T14:57:07Z</time>
      </trkpt>
      <trkpt lat="45.63016" lon="4.76337">
        <ele>185.26</ele>
        <time>2021-08-01T14:57:15Z</time>
      </trkpt>
      <trkpt lat="45.63025" lon="4.76384">
        <ele>187.18</ele>
        <time>2021-08-01T14:57:24Z</time>
      </trkpt>
      <trkpt lat="45.63027" lon="4.7644">
        <ele>188.2</ele>
        <time>2021-08-01T14:57:35Z</time>
      </trkpt>
      <trkpt lat="45.63024" lon="4.76474">
        <ele>189.55</ele>
        <time>2021-08-01T14:57:42Z</time>
      </trkpt>
      <trkpt lat="45.6302" lon="4.76519">
        <ele>191.31</ele>
        <time>2021-08-01T14:57:52Z</time>
      </trkpt>
      <trkpt lat="45.63013" lon="4.76561">
        <ele>193.09</ele>
        <time>2021-08-01T14:58:02Z</time>
      </trkpt>
      <trkpt lat="45.63005" lon="4.76588">
        <ele>194.43</ele>
        <time>2021-08-01T14:58:09Z</time>
      </trkpt>
      <trkpt lat="45.62994" lon="4.76623">
        <ele>195.21</ele>
        <time>2021-08-01T14:58:18Z</time>
      </trkpt>
      <trkpt lat="45.62979" lon="4.76664">
        <ele>196.3</ele>
        <time>2021-08-01T14:58:28Z</time>
      </trkpt>
      <trkpt lat="45.62969" lon="4.76701">
        <ele>197.17</ele>
        <time>2021-08-01T14:58:37Z</time>
      </trkpt>
      <trkpt lat="45.62961" lon="4.7673">
        <ele>197.7</ele>
        <time>2021-08-01T14:58:44Z</time>
      </trkpt>
      <trkpt lat="45.62948" lon="4.76782">
        <ele>198.97</ele>
        <time>2021-08-01T14:58:56Z</time>
      </trkpt>
      <trkpt lat="45.62941" lon="4.76808">
        <ele>199.63</ele>
        <time>2021-08-01T14:59:03Z</time>
      </trkpt>
      <trkpt lat="45.62923" lon="4.76857">
        <ele>200.97</ele>
        <time>2021-08-01T14:59:15Z</time>
      </trkpt>
      <trkpt lat="45.62912" lon="4.7689">
        <ele>201.59</ele>
        <time>2021-08-01T14:59:23Z</time>
      </trkpt>
      <trkpt lat="45.62904" lon="4.76916">
        <ele>202.4</ele>
        <time>2021-08-01T14:59:29Z</time>
      </trkpt>
      <trkpt lat="45.62896" lon="4.7695">
        <ele>203.24</ele>
        <time>2021-08-01T14:59:37Z</time>
      </trkpt>
      <trkpt lat="45.62887" lon="4.76986">
        <ele>204.22</ele>
        <time>2021-08-01T14:59:46Z</time>
      </trkpt>
      <trkpt lat="45.62877" lon="4.77029">
        <ele>205.05</ele>
        <time>2021-08-01T14:59:56Z</time>
      </trkpt>
      <trkpt lat="45.62862" lon="4.77087">
        <ele>206.56</ele>
        <time>2021-08-01T15:00:08Z</time>
      </trkpt>
      <trkpt lat="45.62844" lon="4.77139">
        <ele>207.85</ele>
        <time>2021-08-01T15:00:19Z</time>
      </trkpt>
      <trkpt lat="45.62834" lon="4.77182">
        <ele>208.95</ele>
        <time>2021-08-01T15:00:28Z</time>
      </trkpt>
      <trkpt lat="45.62831" lon="4.77221">
        <ele>209.9</ele>
        <time>2021-08-01T15:00:36Z</time>
      </trkpt>
      <trkpt lat="45.62826" lon="4.77268">
        <ele>211.26</ele>
        <time>2021-08-01T15:00:47Z</time>
      </trkpt>
      <trkpt lat="45.62818" lon="4.77299">
        <ele>212.59</ele>
        <time>2021-08-01T15:00:55Z</time>
      </trkpt>
      <trkpt lat="45.6281" lon="4.77325">
        <ele>213.55</ele>
        <time>2021-08-01T15:01:02Z</time>
      </trkpt>
      <trkpt lat="45.62801" lon="4.77349">
        <ele>214.76</ele>
        <time>2021-08-01T15:01:09Z</time>
      </trkpt>
      <trkpt lat="45.6279" lon="4.77376">
        <ele>216.38</ele>
        <time>2021-08-01T15:01:17Z</time>
      </trkpt>
      <trkpt lat="45.62779" lon="4.77403">
        <ele>218.68</ele>
        <time>2021-08-01T15:01:25Z</time>
      </trkpt>
      <trkpt lat="45.62772" lon="4.77429">
        <ele>220.49</ele>
        <time>2021-08-01T15:01:33Z</time>
      </trkpt>
      <trkpt lat="45.62771" lon="4.77433">
        <ele>220.7</ele>
        <time>2021-08-01T15:01:34Z</time>
      </trkpt>
      <trkpt lat="45.6277" lon="4.77436">
        <ele>220.99</ele>
        <time>2021-08-01T15:01:35Z</time>
      </trkpt>
      <trkpt lat="45.62769" lon="4.7744">
        <ele>221.27</ele>
        <time>2021-08-01T15:01:36Z</time>
      </trkpt>
      <trkpt lat="45.62769" lon="4.77443">
        <ele>221.51</ele>
        <time>2021-08-01T15:01:37Z</time>
      </trkpt>
      <trkpt lat="45.62768" lon="4.77446">
        <ele>221.72</ele>
        <time>2021-08-01T15:01:38Z</time>
      </trkpt>
      <trkpt lat="45.62768" lon="4.7745">
        <ele>221.93</ele>
        <time>2021-08-01T15:01:39Z</time>
      </trkpt>
      <trkpt lat="45.62767" lon="4.77454">
        <ele>222.13</ele>
        <time>2021-08-01T15:01:40Z</time>
      </trkpt>
      <trkpt lat="45.62766" lon="4.77456">
        <ele>222.35</ele>
        <time>2021-08-01T15:01:41Z</time>
      </trkpt>
      <trkpt lat="45.62766" lon="4.7746">
        <ele>222.59</ele>
        <time>2021-08-01T15:01:42Z</time>
      </trkpt>
      <trkpt lat="45.62765" lon="4.77463">
        <ele>222.84</ele>
        <time>2021-08-01T15:01:43Z</time>
      </trkpt>
      <trkpt lat="45.62765" lon="4.77466">
        <ele>223.09</ele>
        <time>2021-08-01T15:01:44Z</time>
      </trkpt>
      <trkpt lat="45.62764" lon="4.7747">
        <ele>223.5</ele>
        <time>2021-08-01T15:01:45Z</time>
      </trkpt>
      <trkpt lat="45.62762" lon="4.7748">
        <ele>224.16</ele>
        <time>2021-08-01T15:01:48Z</time>
      </trkpt>
      <trkpt lat="45.62762" lon="4.77484">
        <ele>224.31</ele>
        <time>2021-08-01T15:01:49Z</time>
      </trkpt>
      <trkpt lat="45.62762" lon="4.77488">
        <ele>224.45</ele>
        <time>2021-08-01T15:01:50Z</time>
      </trkpt>
      <trkpt lat="45.62762" lon="4.77491">
        <ele>224.69</ele>
        <time>2021-08-01T15:01:51Z</time>
      </trkpt>
      <trkpt lat="45.62762" lon="4.77495">
        <ele>224.86</ele>
        <time>2021-08-01T15:01:52Z</time>
      </trkpt>
      <trkpt lat="45.62761" lon="4.77499">
        <ele>225.1</ele>
        <time>2021-08-01T15:01:53Z</time>
      </trkpt>
      <trkpt lat="45.62761" lon="4.77503">
        <ele>225.31</ele>
        <time>2021-08-01T15:01:54Z</time>
      </trkpt>
      <trkpt lat="45.62761" lon="4.77507">
        <ele>225.5</ele>
        <time>2021-08-01T15:01:55Z</time>
      </trkpt>
      <trkpt lat="45.62761" lon="4.77511">
        <ele>225.64</ele>
        <time>2021-08-01T15:01:56Z</time>
      </trkpt>
      <trkpt lat="45.62761" lon="4.77515">
        <ele>225.81</ele>
        <time>2021-08-01T15:01:57Z</time>
      </trkpt>
      <trkpt lat="45.62761" lon="4.77519">
        <ele>225.95</ele>
        <time>2021-08-01T15:01:58Z</time>
      </trkpt>
      <trkpt lat="45.62761" lon="4.77522">
        <ele>226.07</ele>
        <time>2021-08-01T15:01:59Z</time>
      </trkpt>
      <trkpt lat="45.62762" lon="4.77525">
        <ele>226.15</ele>
        <time>2021-08-01T15:02:00Z</time>
      </trkpt>
      <trkpt lat="45.62764" lon="4.77551">
        <ele>227.09</ele>
        <time>2021-08-01T15:02:07Z</time>
      </trkpt>
      <trkpt lat="45.62764" lon="4.77554">
        <ele>227.26</ele>
        <time>2021-08-01T15:02:08Z</time>
      </trkpt>
      <trkpt lat="45.62764" lon="4.77558">
        <ele>227.46</ele>
        <time>2021-08-01T15:02:09Z</time>
      </trkpt>
      <trkpt lat="45.62764" lon="4.77562">
        <ele>227.65</ele>
        <time>2021-08-01T15:02:10Z</time>
      </trkpt>
      <trkpt lat="45.62764" lon="4.77565">
        <ele>227.97</ele>
        <time>2021-08-01T15:02:11Z</time>
      </trkpt>
      <trkpt lat="45.62764" lon="4.77569">
        <ele>228.11</ele>
        <time>2021-08-01T15:02:12Z</time>
      </trkpt>
      <trkpt lat="45.62764" lon="4.77573">
        <ele>228.24</ele>
        <time>2021-08-01T15:02:13Z</time>
      </trkpt>
      <trkpt lat="45.62764" lon="4.77577">
        <ele>228.39</ele>
        <time>2021-08-01T15:02:14Z</time>
      </trkpt>
      <trkpt lat="45.62764" lon="4.7758">
        <ele>228.55</ele>
        <time>2021-08-01T15:02:15Z</time>
      </trkpt>
      <trkpt lat="45.62763" lon="4.77584">
        <ele>228.67</ele>
        <time>2021-08-01T15:02:16Z</time>
      </trkpt>
      <trkpt lat="45.62763" lon="4.77587">
        <ele>228.84</ele>
        <time>2021-08-01T15:02:17Z</time>
      </trkpt>
      <trkpt lat="45.62758" lon="4.77608">
        <ele>229.95</ele>
        <time>2021-08-01T15:02:23Z</time>
      </trkpt>
      <trkpt lat="45.62752" lon="4.77637">
        <ele>231.38</ele>
        <time>2021-08-01T15:02:31Z</time>
      </trkpt>
      <trkpt lat="45.62754" lon="4.77659">
        <ele>232.82</ele>
        <time>2021-08-01T15:02:37Z</time>
      </trkpt>
      <trkpt lat="45.62756" lon="4.77662">
        <ele>233.09</ele>
        <time>2021-08-01T15:02:38Z</time>
      </trkpt>
      <trkpt lat="45.62759" lon="4.77664">
        <ele>233.51</ele>
        <time>2021-08-01T15:02:39Z</time>
      </trkpt>
      <trkpt lat="45.62761" lon="4.77666">
        <ele>233.92</ele>
        <time>2021-08-01T15:02:40Z</time>
      </trkpt>
      <trkpt lat="45.62764" lon="4.77667">
        <ele>234.19</ele>
        <time>2021-08-01T15:02:41Z</time>
      </trkpt>
      <trkpt lat="45.62767" lon="4.77667">
        <ele>234.46</ele>
        <time>2021-08-01T15:02:42Z</time>
      </trkpt>
      <trkpt lat="45.6277" lon="4.77668">
        <ele>234.64</ele>
        <time>2021-08-01T15:02:43Z</time>
      </trkpt>
      <trkpt lat="45.62773" lon="4.77668">
        <ele>234.82</ele>
        <time>2021-08-01T15:02:44Z</time>
      </trkpt>
      <trkpt lat="45.62775" lon="4.77666">
        <ele>235</ele>
        <time>2021-08-01T15:02:45Z</time>
      </trkpt>
      <trkpt lat="45.62778" lon="4.77663">
        <ele>235.11</ele>
        <time>2021-08-01T15:02:46Z</time>
      </trkpt>
      <trkpt lat="45.62781" lon="4.77661">
        <ele>235.32</ele>
        <time>2021-08-01T15:02:47Z</time>
      </trkpt>
      <trkpt lat="45.62783" lon="4.77658">
        <ele>235.5</ele>
        <time>2021-08-01T15:02:48Z</time>
      </trkpt>
      <trkpt lat="45.62785" lon="4.77655">
        <ele>235.61</ele>
        <time>2021-08-01T15:02:49Z</time>
      </trkpt>
      <trkpt lat="45.62797" lon="4.77631">
        <ele>236.12</ele>
        <time>2021-08-01T15:02:56Z</time>
      </trkpt>
      <trkpt lat="45.62812" lon="4.77603">
        <ele>237.85</ele>
        <time>2021-08-01T15:03:05Z</time>
      </trkpt>
      <trkpt lat="45.62827" lon="4.77581">
        <ele>239.5</ele>
        <time>2021-08-01T15:03:13Z</time>
      </trkpt>
      <trkpt lat="45.62835" lon="4.77562">
        <ele>240.46</ele>
        <time>2021-08-01T15:03:19Z</time>
      </trkpt>
      <trkpt lat="45.62841" lon="4.77541">
        <ele>241.44</ele>
        <time>2021-08-01T15:03:25Z</time>
      </trkpt>
      <trkpt lat="45.62851" lon="4.77522">
        <ele>242.74</ele>
        <time>2021-08-01T15:03:32Z</time>
      </trkpt>
      <trkpt lat="45.62869" lon="4.77508">
        <ele>243.84</ele>
        <time>2021-08-01T15:03:40Z</time>
      </trkpt>
      <trkpt lat="45.62872" lon="4.7751">
        <ele>243.92</ele>
        <time>2021-08-01T15:03:41Z</time>
      </trkpt>
      <trkpt lat="45.62873" lon="4.77514">
        <ele>243.99</ele>
        <time>2021-08-01T15:03:42Z</time>
      </trkpt>
      <trkpt lat="45.62874" lon="4.77518">
        <ele>244.04</ele>
        <time>2021-08-01T15:03:43Z</time>
      </trkpt>
      <trkpt lat="45.62874" lon="4.77521">
        <ele>244.13</ele>
        <time>2021-08-01T15:03:44Z</time>
      </trkpt>
      <trkpt lat="45.62874" lon="4.77525">
        <ele>244.38</ele>
        <time>2021-08-01T15:03:45Z</time>
      </trkpt>
      <trkpt lat="45.62873" lon="4.77529">
        <ele>244.64</ele>
        <time>2021-08-01T15:03:46Z</time>
      </trkpt>
      <trkpt lat="45.62871" lon="4.77533">
        <ele>244.8</ele>
        <time>2021-08-01T15:03:47Z</time>
      </trkpt>
      <trkpt lat="45.62865" lon="4.77549">
        <ele>247.21</ele>
        <time>2021-08-01T15:03:53Z</time>
      </trkpt>
      <trkpt lat="45.6286" lon="4.7756">
        <ele>248.3</ele>
        <time>2021-08-01T15:03:57Z</time>
      </trkpt>
      <trkpt lat="45.62859" lon="4.77563">
        <ele>248.51</ele>
        <time>2021-08-01T15:03:58Z</time>
      </trkpt>
      <trkpt lat="45.62858" lon="4.77566">
        <ele>248.69</ele>
        <time>2021-08-01T15:03:59Z</time>
      </trkpt>
      <trkpt lat="45.62857" lon="4.77568">
        <ele>248.91</ele>
        <time>2021-08-01T15:04:00Z</time>
      </trkpt>
      <trkpt lat="45.62855" lon="4.77571">
        <ele>249.11</ele>
        <time>2021-08-01T15:04:01Z</time>
      </trkpt>
      <trkpt lat="45.62855" lon="4.77574">
        <ele>249.26</ele>
        <time>2021-08-01T15:04:02Z</time>
      </trkpt>
      <trkpt lat="45.62854" lon="4.77577">
        <ele>249.36</ele>
        <time>2021-08-01T15:04:03Z</time>
      </trkpt>
      <trkpt lat="45.62853" lon="4.7758">
        <ele>249.43</ele>
        <time>2021-08-01T15:04:04Z</time>
      </trkpt>
      <trkpt lat="45.62845" lon="4.77601">
        <ele>250.53</ele>
        <time>2021-08-01T15:04:11Z</time>
      </trkpt>
      <trkpt lat="45.62833" lon="4.77633">
        <ele>252.03</ele>
        <time>2021-08-01T15:04:21Z</time>
      </trkpt>
      <trkpt lat="45.6283" lon="4.7764">
        <ele>252.32</ele>
        <time>2021-08-01T15:04:23Z</time>
      </trkpt>
      <trkpt lat="45.62829" lon="4.77644">
        <ele>252.51</ele>
        <time>2021-08-01T15:04:24Z</time>
      </trkpt>
      <trkpt lat="45.62824" lon="4.7766">
        <ele>253.58</ele>
        <time>2021-08-01T15:04:29Z</time>
      </trkpt>
      <trkpt lat="45.62823" lon="4.77663">
        <ele>253.71</ele>
        <time>2021-08-01T15:04:30Z</time>
      </trkpt>
      <trkpt lat="45.62822" lon="4.77666">
        <ele>253.82</ele>
        <time>2021-08-01T15:04:31Z</time>
      </trkpt>
      <trkpt lat="45.62821" lon="4.7767">
        <ele>253.98</ele>
        <time>2021-08-01T15:04:32Z</time>
      </trkpt>
      <trkpt lat="45.6282" lon="4.77674">
        <ele>254.16</ele>
        <time>2021-08-01T15:04:33Z</time>
      </trkpt>
      <trkpt lat="45.6282" lon="4.77677">
        <ele>254.34</ele>
        <time>2021-08-01T15:04:34Z</time>
      </trkpt>
      <trkpt lat="45.6282" lon="4.77681">
        <ele>254.45</ele>
        <time>2021-08-01T15:04:35Z</time>
      </trkpt>
      <trkpt lat="45.62819" lon="4.77685">
        <ele>254.6</ele>
        <time>2021-08-01T15:04:36Z</time>
      </trkpt>
      <trkpt lat="45.6282" lon="4.77688">
        <ele>254.69</ele>
        <time>2021-08-01T15:04:37Z</time>
      </trkpt>
      <trkpt lat="45.6282" lon="4.77692">
        <ele>254.87</ele>
        <time>2021-08-01T15:04:38Z</time>
      </trkpt>
      <trkpt lat="45.62821" lon="4.777">
        <ele>255.29</ele>
        <time>2021-08-01T15:04:40Z</time>
      </trkpt>
      <trkpt lat="45.62821" lon="4.77704">
        <ele>255.41</ele>
        <time>2021-08-01T15:04:41Z</time>
      </trkpt>
      <trkpt lat="45.62822" lon="4.77707">
        <ele>255.52</ele>
        <time>2021-08-01T15:04:42Z</time>
      </trkpt>
      <trkpt lat="45.62823" lon="4.7771">
        <ele>255.67</ele>
        <time>2021-08-01T15:04:43Z</time>
      </trkpt>
      <trkpt lat="45.62824" lon="4.77714">
        <ele>255.8</ele>
        <time>2021-08-01T15:04:44Z</time>
      </trkpt>
      <trkpt lat="45.62825" lon="4.77717">
        <ele>256.07</ele>
        <time>2021-08-01T15:04:45Z</time>
      </trkpt>
      <trkpt lat="45.62826" lon="4.7772">
        <ele>256.23</ele>
        <time>2021-08-01T15:04:46Z</time>
      </trkpt>
      <trkpt lat="45.62828" lon="4.77723">
        <ele>256.43</ele>
        <time>2021-08-01T15:04:47Z</time>
      </trkpt>
      <trkpt lat="45.62829" lon="4.77726">
        <ele>256.54</ele>
        <time>2021-08-01T15:04:48Z</time>
      </trkpt>
      <trkpt lat="45.6283" lon="4.7773">
        <ele>256.63</ele>
        <time>2021-08-01T15:04:49Z</time>
      </trkpt>
      <trkpt lat="45.6283" lon="4.77733">
        <ele>256.73</ele>
        <time>2021-08-01T15:04:50Z</time>
      </trkpt>
      <trkpt lat="45.62832" lon="4.77736">
        <ele>256.88</ele>
        <time>2021-08-01T15:04:51Z</time>
      </trkpt>
      <trkpt lat="45.62833" lon="4.77739">
        <ele>256.98</ele>
        <time>2021-08-01T15:04:52Z</time>
      </trkpt>
      <trkpt lat="45.62834" lon="4.77743">
        <ele>257.2</ele>
        <time>2021-08-01T15:04:53Z</time>
      </trkpt>
      <trkpt lat="45.62836" lon="4.77745">
        <ele>257.36</ele>
        <time>2021-08-01T15:04:54Z</time>
      </trkpt>
      <trkpt lat="45.62838" lon="4.77748">
        <ele>257.49</ele>
        <time>2021-08-01T15:04:55Z</time>
      </trkpt>
      <trkpt lat="45.62838" lon="4.77751">
        <ele>257.58</ele>
        <time>2021-08-01T15:04:56Z</time>
      </trkpt>
      <trkpt lat="45.62839" lon="4.77754">
        <ele>257.83</ele>
        <time>2021-08-01T15:04:57Z</time>
      </trkpt>
      <trkpt lat="45.62841" lon="4.77757">
        <ele>258.05</ele>
        <time>2021-08-01T15:04:58Z</time>
      </trkpt>
      <trkpt lat="45.62843" lon="4.7776">
        <ele>258.23</ele>
        <time>2021-08-01T15:04:59Z</time>
      </trkpt>
      <trkpt lat="45.62844" lon="4.77763">
        <ele>258.5</ele>
        <time>2021-08-01T15:05:00Z</time>
      </trkpt>
      <trkpt lat="45.62846" lon="4.77765">
        <ele>258.74</ele>
        <time>2021-08-01T15:05:01Z</time>
      </trkpt>
      <trkpt lat="45.6285" lon="4.77771">
        <ele>259.17</ele>
        <time>2021-08-01T15:05:03Z</time>
      </trkpt>
      <trkpt lat="45.62852" lon="4.77773">
        <ele>259.49</ele>
        <time>2021-08-01T15:05:04Z</time>
      </trkpt>
      <trkpt lat="45.62854" lon="4.77775">
        <ele>259.7</ele>
        <time>2021-08-01T15:05:05Z</time>
      </trkpt>
      <trkpt lat="45.62857" lon="4.77777">
        <ele>259.86</ele>
        <time>2021-08-01T15:05:06Z</time>
      </trkpt>
      <trkpt lat="45.6286" lon="4.77778">
        <ele>260</ele>
        <time>2021-08-01T15:05:07Z</time>
      </trkpt>
      <trkpt lat="45.62863" lon="4.7778">
        <ele>260.21</ele>
        <time>2021-08-01T15:05:08Z</time>
      </trkpt>
      <trkpt lat="45.62865" lon="4.77781">
        <ele>260.38</ele>
        <time>2021-08-01T15:05:09Z</time>
      </trkpt>
      <trkpt lat="45.62867" lon="4.77781">
        <ele>260.61</ele>
        <time>2021-08-01T15:05:10Z</time>
      </trkpt>
      <trkpt lat="45.62883" lon="4.77785">
        <ele>261.9</ele>
        <time>2021-08-01T15:05:16Z</time>
      </trkpt>
      <trkpt lat="45.62885" lon="4.77785">
        <ele>262.06</ele>
        <time>2021-08-01T15:05:17Z</time>
      </trkpt>
      <trkpt lat="45.62888" lon="4.77785">
        <ele>262.27</ele>
        <time>2021-08-01T15:05:18Z</time>
      </trkpt>
      <trkpt lat="45.62891" lon="4.77785">
        <ele>262.4</ele>
        <time>2021-08-01T15:05:19Z</time>
      </trkpt>
      <trkpt lat="45.62894" lon="4.77786">
        <ele>262.51</ele>
        <time>2021-08-01T15:05:20Z</time>
      </trkpt>
      <trkpt lat="45.62897" lon="4.77786">
        <ele>262.66</ele>
        <time>2021-08-01T15:05:21Z</time>
      </trkpt>
      <trkpt lat="45.62911" lon="4.77789">
        <ele>263.52</ele>
        <time>2021-08-01T15:05:26Z</time>
      </trkpt>
      <trkpt lat="45.62913" lon="4.7779">
        <ele>263.74</ele>
        <time>2021-08-01T15:05:27Z</time>
      </trkpt>
      <trkpt lat="45.62916" lon="4.77789">
        <ele>263.95</ele>
        <time>2021-08-01T15:05:28Z</time>
      </trkpt>
      <trkpt lat="45.62919" lon="4.7779">
        <ele>264.16</ele>
        <time>2021-08-01T15:05:29Z</time>
      </trkpt>
      <trkpt lat="45.62921" lon="4.77791">
        <ele>264.31</ele>
        <time>2021-08-01T15:05:30Z</time>
      </trkpt>
      <trkpt lat="45.62924" lon="4.77791">
        <ele>264.4</ele>
        <time>2021-08-01T15:05:31Z</time>
      </trkpt>
      <trkpt lat="45.62935" lon="4.77794">
        <ele>265.03</ele>
        <time>2021-08-01T15:05:35Z</time>
      </trkpt>
      <trkpt lat="45.62938" lon="4.77796">
        <ele>265.12</ele>
        <time>2021-08-01T15:05:36Z</time>
      </trkpt>
      <trkpt lat="45.62941" lon="4.77796">
        <ele>265.43</ele>
        <time>2021-08-01T15:05:37Z</time>
      </trkpt>
      <trkpt lat="45.62944" lon="4.77797">
        <ele>265.54</ele>
        <time>2021-08-01T15:05:38Z</time>
      </trkpt>
      <trkpt lat="45.62947" lon="4.77798">
        <ele>265.63</ele>
        <time>2021-08-01T15:05:39Z</time>
      </trkpt>
      <trkpt lat="45.6295" lon="4.77798">
        <ele>265.89</ele>
        <time>2021-08-01T15:05:40Z</time>
      </trkpt>
      <trkpt lat="45.62953" lon="4.77799">
        <ele>266.15</ele>
        <time>2021-08-01T15:05:41Z</time>
      </trkpt>
      <trkpt lat="45.62956" lon="4.77799">
        <ele>266.28</ele>
        <time>2021-08-01T15:05:42Z</time>
      </trkpt>
      <trkpt lat="45.62975" lon="4.77807">
        <ele>267.31</ele>
        <time>2021-08-01T15:05:49Z</time>
      </trkpt>
      <trkpt lat="45.6299" lon="4.77827">
        <ele>268.36</ele>
        <time>2021-08-01T15:05:56Z</time>
      </trkpt>
      <trkpt lat="45.62995" lon="4.77858">
        <ele>268.78</ele>
        <time>2021-08-01T15:06:03Z</time>
      </trkpt>
      <trkpt lat="45.63002" lon="4.77882">
        <ele>269.4</ele>
        <time>2021-08-01T15:06:09Z</time>
      </trkpt>
      <trkpt lat="45.63011" lon="4.77909">
        <ele>270.69</ele>
        <time>2021-08-01T15:06:16Z</time>
      </trkpt>
      <trkpt lat="45.6303" lon="4.77936">
        <ele>271.9</ele>
        <time>2021-08-01T15:06:25Z</time>
      </trkpt>
      <trkpt lat="45.63055" lon="4.7797">
        <ele>273.09</ele>
        <time>2021-08-01T15:06:37Z</time>
      </trkpt>
      <trkpt lat="45.63065" lon="4.78013">
        <ele>274.05</ele>
        <time>2021-08-01T15:06:47Z</time>
      </trkpt>
      <trkpt lat="45.63068" lon="4.78049">
        <ele>275.72</ele>
        <time>2021-08-01T15:06:55Z</time>
      </trkpt>
      <trkpt lat="45.63071" lon="4.7808">
        <ele>277.34</ele>
        <time>2021-08-01T15:07:02Z</time>
      </trkpt>
      <trkpt lat="45.63074" lon="4.78105">
        <ele>278.11</ele>
        <time>2021-08-01T15:07:08Z</time>
      </trkpt>
      <trkpt lat="45.63077" lon="4.78132">
        <ele>279.34</ele>
        <time>2021-08-01T15:07:14Z</time>
      </trkpt>
      <trkpt lat="45.6308" lon="4.78159">
        <ele>280.86</ele>
        <time>2021-08-01T15:07:21Z</time>
      </trkpt>
      <trkpt lat="45.63085" lon="4.78185">
        <ele>281.67</ele>
        <time>2021-08-01T15:07:28Z</time>
      </trkpt>
      <trkpt lat="45.63095" lon="4.78217">
        <ele>281.93</ele>
        <time>2021-08-01T15:07:36Z</time>
      </trkpt>
      <trkpt lat="45.63118" lon="4.78257">
        <ele>281.97</ele>
        <time>2021-08-01T15:07:46Z</time>
      </trkpt>
      <trkpt lat="45.6314" lon="4.78283">
        <ele>282.02</ele>
        <time>2021-08-01T15:07:54Z</time>
      </trkpt>
      <trkpt lat="45.63167" lon="4.78306">
        <ele>282.84</ele>
        <time>2021-08-01T15:08:02Z</time>
      </trkpt>
      <trkpt lat="45.63185" lon="4.78326">
        <ele>283</ele>
        <time>2021-08-01T15:08:09Z</time>
      </trkpt>
      <trkpt lat="45.63208" lon="4.78367">
        <ele>283.98</ele>
        <time>2021-08-01T15:08:20Z</time>
      </trkpt>
      <trkpt lat="45.63225" lon="4.78404">
        <ele>284.82</ele>
        <time>2021-08-01T15:08:29Z</time>
      </trkpt>
      <trkpt lat="45.63242" lon="4.78444">
        <ele>285.6</ele>
        <time>2021-08-01T15:08:38Z</time>
      </trkpt>
      <trkpt lat="45.63262" lon="4.78496">
        <ele>286.26</ele>
        <time>2021-08-01T15:08:50Z</time>
      </trkpt>
      <trkpt lat="45.63271" lon="4.78519">
        <ele>287.01</ele>
        <time>2021-08-01T15:08:56Z</time>
      </trkpt>
      <trkpt lat="45.63291" lon="4.78567">
        <ele>287.76</ele>
        <time>2021-08-01T15:09:07Z</time>
      </trkpt>
      <trkpt lat="45.6331" lon="4.78615">
        <ele>289.28</ele>
        <time>2021-08-01T15:09:18Z</time>
      </trkpt>
      <trkpt lat="45.63331" lon="4.78662">
        <ele>290.88</ele>
        <time>2021-08-01T15:09:29Z</time>
      </trkpt>
      <trkpt lat="45.63356" lon="4.78709">
        <ele>292.45</ele>
        <time>2021-08-01T15:09:40Z</time>
      </trkpt>
      <trkpt lat="45.63379" lon="4.78747">
        <ele>293.48</ele>
        <time>2021-08-01T15:09:49Z</time>
      </trkpt>
      <trkpt lat="45.63401" lon="4.78781">
        <ele>295.22</ele>
        <time>2021-08-01T15:09:58Z</time>
      </trkpt>
      <trkpt lat="45.63427" lon="4.78814">
        <ele>295.81</ele>
        <time>2021-08-01T15:10:07Z</time>
      </trkpt>
      <trkpt lat="45.63465" lon="4.78856">
        <ele>295.54</ele>
        <time>2021-08-01T15:10:17Z</time>
      </trkpt>
      <trkpt lat="45.63508" lon="4.78899">
        <ele>295.22</ele>
        <time>2021-08-01T15:10:29Z</time>
      </trkpt>
      <trkpt lat="45.63548" lon="4.78934">
        <ele>294.81</ele>
        <time>2021-08-01T15:10:41Z</time>
      </trkpt>
      <trkpt lat="45.6357" lon="4.78959">
        <ele>294.49</ele>
        <time>2021-08-01T15:10:48Z</time>
      </trkpt>
      <trkpt lat="45.63602" lon="4.78993">
        <ele>293.39</ele>
        <time>2021-08-01T15:10:55Z</time>
      </trkpt>
      <trkpt lat="45.63649" lon="4.79033">
        <ele>291.35</ele>
        <time>2021-08-01T15:11:03Z</time>
      </trkpt>
      <trkpt lat="45.63693" lon="4.79059">
        <ele>288.71</ele>
        <time>2021-08-01T15:11:09Z</time>
      </trkpt>
      <trkpt lat="45.63701" lon="4.79061">
        <ele>288.47</ele>
        <time>2021-08-01T15:11:10Z</time>
      </trkpt>
      <trkpt lat="45.63758" lon="4.79069">
        <ele>285.46</ele>
        <time>2021-08-01T15:11:17Z</time>
      </trkpt>
      <trkpt lat="45.6382" lon="4.79086">
        <ele>284.66</ele>
        <time>2021-08-01T15:11:26Z</time>
      </trkpt>
      <trkpt lat="45.63876" lon="4.79123">
        <ele>283.46</ele>
        <time>2021-08-01T15:11:35Z</time>
      </trkpt>
      <trkpt lat="45.63921" lon="4.79147">
        <ele>282.63</ele>
        <time>2021-08-01T15:11:43Z</time>
      </trkpt>
      <trkpt lat="45.63969" lon="4.79168">
        <ele>282.58</ele>
        <time>2021-08-01T15:11:53Z</time>
      </trkpt>
      <trkpt lat="45.6401" lon="4.7919">
        <ele>282.36</ele>
        <time>2021-08-01T15:12:02Z</time>
      </trkpt>
      <trkpt lat="45.64054" lon="4.79217">
        <ele>281.6</ele>
        <time>2021-08-01T15:12:09Z</time>
      </trkpt>
      <trkpt lat="45.64108" lon="4.79245">
        <ele>278.53</ele>
        <time>2021-08-01T15:12:16Z</time>
      </trkpt>
      <trkpt lat="45.64141" lon="4.79257">
        <ele>275.2</ele>
        <time>2021-08-01T15:12:20Z</time>
      </trkpt>
      <trkpt lat="45.64199" lon="4.79277">
        <ele>271.67</ele>
        <time>2021-08-01T15:12:27Z</time>
      </trkpt>
      <trkpt lat="45.64207" lon="4.79279">
        <ele>271.41</ele>
        <time>2021-08-01T15:12:28Z</time>
      </trkpt>
      <trkpt lat="45.64275" lon="4.79307">
        <ele>269.5</ele>
        <time>2021-08-01T15:12:36Z</time>
      </trkpt>
      <trkpt lat="45.64335" lon="4.79331">
        <ele>266.37</ele>
        <time>2021-08-01T15:12:43Z</time>
      </trkpt>
      <trkpt lat="45.64378" lon="4.79336">
        <ele>264</ele>
        <time>2021-08-01T15:12:48Z</time>
      </trkpt>
      <trkpt lat="45.64448" lon="4.79339">
        <ele>261.96</ele>
        <time>2021-08-01T15:12:57Z</time>
      </trkpt>
      <trkpt lat="45.64508" lon="4.79324">
        <ele>260.93</ele>
        <time>2021-08-01T15:13:04Z</time>
      </trkpt>
      <trkpt lat="45.64574" lon="4.79302">
        <ele>257.34</ele>
        <time>2021-08-01T15:13:11Z</time>
      </trkpt>
      <trkpt lat="45.64625" lon="4.79297">
        <ele>253.63</ele>
        <time>2021-08-01T15:13:16Z</time>
      </trkpt>
      <trkpt lat="45.64636" lon="4.79299">
        <ele>252.81</ele>
        <time>2021-08-01T15:13:17Z</time>
      </trkpt>
      <trkpt lat="45.64678" lon="4.79313">
        <ele>249.74</ele>
        <time>2021-08-01T15:13:21Z</time>
      </trkpt>
      <trkpt lat="45.64731" lon="4.79337">
        <ele>245.81</ele>
        <time>2021-08-01T15:13:26Z</time>
      </trkpt>
      <trkpt lat="45.64776" lon="4.79351">
        <ele>241.95</ele>
        <time>2021-08-01T15:13:30Z</time>
      </trkpt>
      <trkpt lat="45.64835" lon="4.79366">
        <ele>238.48</ele>
        <time>2021-08-01T15:13:35Z</time>
      </trkpt>
      <trkpt lat="45.64868" lon="4.79369">
        <ele>234.71</ele>
        <time>2021-08-01T15:13:39Z</time>
      </trkpt>
      <trkpt lat="45.64885" lon="4.79368">
        <ele>231.35</ele>
        <time>2021-08-01T15:13:43Z</time>
      </trkpt>
      <trkpt lat="45.64888" lon="4.79367">
        <ele>231.11</ele>
        <time>2021-08-01T15:13:44Z</time>
      </trkpt>
      <trkpt lat="45.64903" lon="4.79361">
        <ele>230.44</ele>
        <time>2021-08-01T15:13:51Z</time>
      </trkpt>
      <trkpt lat="45.64909" lon="4.79357">
        <ele>230.16</ele>
        <time>2021-08-01T15:13:57Z</time>
      </trkpt>
      <trkpt lat="45.64929" lon="4.79343">
        <ele>229.69</ele>
        <time>2021-08-01T15:14:04Z</time>
      </trkpt>
      <trkpt lat="45.64968" lon="4.79316">
        <ele>228.56</ele>
        <time>2021-08-01T15:14:13Z</time>
      </trkpt>
      <trkpt lat="45.65014" lon="4.79286">
        <ele>226.76</ele>
        <time>2021-08-01T15:14:22Z</time>
      </trkpt>
      <trkpt lat="45.65052" lon="4.79267">
        <ele>226.74</ele>
        <time>2021-08-01T15:14:30Z</time>
      </trkpt>
      <trkpt lat="45.65074" lon="4.79262">
        <ele>227.46</ele>
        <time>2021-08-01T15:14:35Z</time>
      </trkpt>
      <trkpt lat="45.65087" lon="4.79263">
        <ele>228.92</ele>
        <time>2021-08-01T15:14:38Z</time>
      </trkpt>
      <trkpt lat="45.65092" lon="4.79264">
        <ele>229.18</ele>
        <time>2021-08-01T15:14:39Z</time>
      </trkpt>
      <trkpt lat="45.65129" lon="4.79281">
        <ele>231.87</ele>
        <time>2021-08-01T15:14:48Z</time>
      </trkpt>
      <trkpt lat="45.65174" lon="4.79307">
        <ele>233.95</ele>
        <time>2021-08-01T15:14:59Z</time>
      </trkpt>
      <trkpt lat="45.65225" lon="4.79341">
        <ele>232.73</ele>
        <time>2021-08-01T15:15:09Z</time>
      </trkpt>
      <trkpt lat="45.65248" lon="4.79355">
        <ele>231.22</ele>
        <time>2021-08-01T15:15:13Z</time>
      </trkpt>
      <trkpt lat="45.65254" lon="4.79358">
        <ele>230.99</ele>
        <time>2021-08-01T15:15:14Z</time>
      </trkpt>
      <trkpt lat="45.65259" lon="4.79363">
        <ele>230.82</ele>
        <time>2021-08-01T15:15:15Z</time>
      </trkpt>
      <trkpt lat="45.65263" lon="4.79369">
        <ele>230.72</ele>
        <time>2021-08-01T15:15:16Z</time>
      </trkpt>
      <trkpt lat="45.65267" lon="4.79375">
        <ele>230.5</ele>
        <time>2021-08-01T15:15:17Z</time>
      </trkpt>
      <trkpt lat="45.65272" lon="4.79379">
        <ele>230.31</ele>
        <time>2021-08-01T15:15:18Z</time>
      </trkpt>
      <trkpt lat="45.65277" lon="4.79379">
        <ele>229.95</ele>
        <time>2021-08-01T15:15:19Z</time>
      </trkpt>
      <trkpt lat="45.65283" lon="4.79376">
        <ele>229.66</ele>
        <time>2021-08-01T15:15:20Z</time>
      </trkpt>
      <trkpt lat="45.65287" lon="4.79373">
        <ele>229.5</ele>
        <time>2021-08-01T15:15:21Z</time>
      </trkpt>
      <trkpt lat="45.65297" lon="4.79366">
        <ele>229.26</ele>
        <time>2021-08-01T15:15:23Z</time>
      </trkpt>
      <trkpt lat="45.65361" lon="4.79335">
        <ele>227.5</ele>
        <time>2021-08-01T15:15:36Z</time>
      </trkpt>
      <trkpt lat="45.65366" lon="4.79334">
        <ele>227.48</ele>
        <time>2021-08-01T15:15:37Z</time>
      </trkpt>
      <trkpt lat="45.65393" lon="4.79332">
        <ele>227.63</ele>
        <time>2021-08-01T15:15:45Z</time>
      </trkpt>
      <trkpt lat="45.65422" lon="4.79334">
        <ele>230.86</ele>
        <time>2021-08-01T15:15:55Z</time>
      </trkpt>
      <trkpt lat="45.65424" lon="4.79335">
        <ele>231.12</ele>
        <time>2021-08-01T15:15:56Z</time>
      </trkpt>
      <trkpt lat="45.65447" lon="4.79344">
        <ele>232.62</ele>
        <time>2021-08-01T15:16:05Z</time>
      </trkpt>
      <trkpt lat="45.65461" lon="4.79371">
        <ele>234.49</ele>
        <time>2021-08-01T15:16:13Z</time>
      </trkpt>
      <trkpt lat="45.65471" lon="4.79394">
        <ele>235.71</ele>
        <time>2021-08-01T15:16:20Z</time>
      </trkpt>
    </trkseg>
  </trk>
</gpx>